<?xml version="1.0" encoding="UTF-8" standalone="no" ?>
<gpx xmlns="http://www.topografix.com/GPX/1/1" xmlns:xsi="http://www.w3.org/2001/XMLSchema-instance" xsi:schemaLocation="http://www.topografix.com/GPX/1/1 http://www.topografix.com/GPX/1/1/gpx.xsd" version="1.1" creator="VisuGPX - https://www.visugpx.com">
  <metadata>
    <name>Parcours BEST OF - L'ORSALHER VTT 2026 - 49 kms 1471 d+</name>
    <desc><![CDATA[

]]></desc>
  </metadata>
  <wpt lat="42.95027" lon="1.04238">
    <ele>473.4</ele>
    <name><![CDATA[RAVITAILLEMENT (Passez 2 fois pour le parcours RAID)]]></name>
    <desc><![CDATA[1 Ravitaillement pour les 3 parcours.<br />(2 passages autorisés pour le parcours RAID)]]></desc>
    <type><![CDATA[person]]></type>
  </wpt>
  <wpt lat="42.95817" lon="1.12498">
    <ele>732.3</ele>
    <name><![CDATA[POINT FRAÎCHEUR]]></name>
    <desc><![CDATA[Ce \"Point Fraîcheur\" est uniquement équipé en Eau et Coca-Cola.]]></desc>
    <type><![CDATA[person]]></type>
  </wpt>
  <wpt lat="42.95185" lon="1.05189">
    <ele>534.2</ele>
    <name><![CDATA[PHOTO]]></name>
    <desc><![CDATA[Souriez 😃 Votre photo sera visible à l\'issue de la Rando sur le site de L\'ORSALHER VTT]]></desc>
    <type><![CDATA[person]]></type>
  </wpt>
  <trk>
    <name><![CDATA[Parcours BEST OF - L'ORSALHER VTT 2026 - 49 kms 1471 d+]]></name>
    <extensions>
      <line xmlns="http://www.topografix.com/GPX/gpx_style/0/2">
        <color>FF4D00</color>
        <opacity>1</opacity>
        <width>4</width>
          <extensions>
            <sens>1</sens>
          </extensions>
      </line>
    </extensions>
    <trkseg>
      <trkpt lat="42.98816" lon="1.13925">
        <ele>403.6</ele>
        <time>2026-02-22T08:21:10Z</time>
      </trkpt>
      <trkpt lat="42.98847" lon="1.13919">
        <ele>403.6</ele>
        <time>2026-02-22T08:21:17Z</time>
      </trkpt>
      <trkpt lat="42.98852" lon="1.13907">
        <ele>403.6</ele>
        <time>2026-02-22T08:21:20Z</time>
      </trkpt>
      <trkpt lat="42.98844" lon="1.13879">
        <ele>403.6</ele>
        <time>2026-02-22T08:21:30Z</time>
      </trkpt>
      <trkpt lat="42.98849" lon="1.13848">
        <ele>403.6</ele>
        <time>2026-02-22T08:21:42Z</time>
      </trkpt>
      <trkpt lat="42.98902" lon="1.13827">
        <ele>403.6</ele>
        <time>2026-02-22T08:22:02Z</time>
      </trkpt>
      <trkpt lat="42.99035" lon="1.13794">
        <ele>403.6</ele>
        <time>2026-02-22T08:22:48Z</time>
      </trkpt>
      <trkpt lat="42.99137" lon="1.13781">
        <ele>403.6</ele>
        <time>2026-02-22T08:23:16Z</time>
      </trkpt>
      <trkpt lat="42.99201" lon="1.13741">
        <ele>403.6</ele>
        <time>2026-02-22T08:23:35Z</time>
      </trkpt>
      <trkpt lat="42.99463" lon="1.1364">
        <ele>401.8</ele>
        <time>2026-02-22T08:24:58Z</time>
      </trkpt>
      <trkpt lat="42.99647" lon="1.13596">
        <ele>401.4</ele>
        <time>2026-02-22T08:25:53Z</time>
      </trkpt>
      <trkpt lat="42.99863" lon="1.13489">
        <ele>399.4</ele>
        <time>2026-02-22T08:26:56Z</time>
      </trkpt>
      <trkpt lat="42.99905" lon="1.13476">
        <ele>399.4</ele>
        <time>2026-02-22T08:27:09Z</time>
      </trkpt>
      <trkpt lat="42.99916" lon="1.13469">
        <ele>399.4</ele>
        <time>2026-02-22T08:27:14Z</time>
      </trkpt>
      <trkpt lat="42.99876" lon="1.13474">
        <ele>397</ele>
        <time>2026-02-22T08:27:24Z</time>
      </trkpt>
      <trkpt lat="42.99785" lon="1.13448">
        <ele>403.6</ele>
        <time>2026-02-22T08:27:59Z</time>
      </trkpt>
      <trkpt lat="42.99746" lon="1.13454">
        <ele>409.2</ele>
        <time>2026-02-22T08:28:21Z</time>
      </trkpt>
      <trkpt lat="42.99679" lon="1.13417">
        <ele>417.4</ele>
        <time>2026-02-22T08:28:56Z</time>
      </trkpt>
      <trkpt lat="42.99591" lon="1.13443">
        <ele>422.8</ele>
        <time>2026-02-22T08:29:31Z</time>
      </trkpt>
      <trkpt lat="42.99532" lon="1.13451">
        <ele>424.8</ele>
        <time>2026-02-22T08:29:53Z</time>
      </trkpt>
      <trkpt lat="42.99481" lon="1.13487">
        <ele>424.8</ele>
        <time>2026-02-22T08:30:11Z</time>
      </trkpt>
      <trkpt lat="42.99406" lon="1.13481">
        <ele>424.8</ele>
        <time>2026-02-22T08:30:34Z</time>
      </trkpt>
      <trkpt lat="42.99388" lon="1.13474">
        <ele>424.8</ele>
        <time>2026-02-22T08:30:39Z</time>
      </trkpt>
      <trkpt lat="42.99331" lon="1.1342">
        <ele>424.8</ele>
        <time>2026-02-22T08:30:56Z</time>
      </trkpt>
      <trkpt lat="42.9924" lon="1.13396">
        <ele>424.8</ele>
        <time>2026-02-22T08:31:18Z</time>
      </trkpt>
      <trkpt lat="42.99156" lon="1.13356">
        <ele>422.8</ele>
        <time>2026-02-22T08:31:41Z</time>
      </trkpt>
      <trkpt lat="42.9914" lon="1.13352">
        <ele>422.8</ele>
        <time>2026-02-22T08:31:45Z</time>
      </trkpt>
      <trkpt lat="42.99072" lon="1.13366">
        <ele>424.8</ele>
        <time>2026-02-22T08:32:04Z</time>
      </trkpt>
      <trkpt lat="42.99029" lon="1.1337">
        <ele>426.4</ele>
        <time>2026-02-22T08:32:22Z</time>
      </trkpt>
      <trkpt lat="42.98945" lon="1.13364">
        <ele>429</ele>
        <time>2026-02-22T08:32:46Z</time>
      </trkpt>
      <trkpt lat="42.98943" lon="1.13347">
        <ele>429</ele>
        <time>2026-02-22T08:32:49Z</time>
      </trkpt>
      <trkpt lat="42.9897" lon="1.13286">
        <ele>431</ele>
        <time>2026-02-22T08:33:05Z</time>
      </trkpt>
      <trkpt lat="42.99021" lon="1.13195">
        <ele>437</ele>
        <time>2026-02-22T08:33:34Z</time>
      </trkpt>
      <trkpt lat="42.99053" lon="1.13121">
        <ele>442.6</ele>
        <time>2026-02-22T08:33:58Z</time>
      </trkpt>
      <trkpt lat="42.99072" lon="1.13059">
        <ele>449.2</ele>
        <time>2026-02-22T08:34:22Z</time>
      </trkpt>
      <trkpt lat="42.99128" lon="1.12937">
        <ele>461</ele>
        <time>2026-02-22T08:35:12Z</time>
      </trkpt>
      <trkpt lat="42.99147" lon="1.12874">
        <ele>466.4</ele>
        <time>2026-02-22T08:35:34Z</time>
      </trkpt>
      <trkpt lat="42.99167" lon="1.1283">
        <ele>470.6</ele>
        <time>2026-02-22T08:35:51Z</time>
      </trkpt>
      <trkpt lat="42.99172" lon="1.12803">
        <ele>471.6</ele>
        <time>2026-02-22T08:35:59Z</time>
      </trkpt>
      <trkpt lat="42.99163" lon="1.12757">
        <ele>467.6</ele>
        <time>2026-02-22T08:37:16Z</time>
      </trkpt>
      <trkpt lat="42.99129" lon="1.12744">
        <ele>470.8</ele>
        <time>2026-02-22T08:37:31Z</time>
      </trkpt>
      <trkpt lat="42.99116" lon="1.1273">
        <ele>473.8</ele>
        <time>2026-02-22T08:37:40Z</time>
      </trkpt>
      <trkpt lat="42.99074" lon="1.12725">
        <ele>481.2</ele>
        <time>2026-02-22T08:38:00Z</time>
      </trkpt>
      <trkpt lat="42.99027" lon="1.12685">
        <ele>485</ele>
        <time>2026-02-22T08:38:41Z</time>
      </trkpt>
      <trkpt lat="42.98997" lon="1.12666">
        <ele>485</ele>
        <time>2026-02-22T08:38:50Z</time>
      </trkpt>
      <trkpt lat="42.98987" lon="1.12619">
        <ele>484</ele>
        <time>2026-02-22T08:39:08Z</time>
      </trkpt>
      <trkpt lat="42.98992" lon="1.12606">
        <ele>481.6</ele>
        <time>2026-02-22T08:39:12Z</time>
      </trkpt>
      <trkpt lat="42.98986" lon="1.12576">
        <ele>476.8</ele>
        <time>2026-02-22T08:39:20Z</time>
      </trkpt>
      <trkpt lat="42.98943" lon="1.12544">
        <ele>474.8</ele>
        <time>2026-02-22T08:40:14Z</time>
      </trkpt>
      <trkpt lat="42.98926" lon="1.1254">
        <ele>473.6</ele>
        <time>2026-02-22T08:40:20Z</time>
      </trkpt>
      <trkpt lat="42.98919" lon="1.12531">
        <ele>472</ele>
        <time>2026-02-22T08:40:26Z</time>
      </trkpt>
      <trkpt lat="42.989" lon="1.12526">
        <ele>471.6</ele>
        <time>2026-02-22T08:40:35Z</time>
      </trkpt>
      <trkpt lat="42.98883" lon="1.12512">
        <ele>472.4</ele>
        <time>2026-02-22T08:40:41Z</time>
      </trkpt>
      <trkpt lat="42.98865" lon="1.12486">
        <ele>473.8</ele>
        <time>2026-02-22T08:40:53Z</time>
      </trkpt>
      <trkpt lat="42.98837" lon="1.12471">
        <ele>473.8</ele>
        <time>2026-02-22T08:41:30Z</time>
      </trkpt>
      <trkpt lat="42.98775" lon="1.12452">
        <ele>473.8</ele>
        <time>2026-02-22T08:41:56Z</time>
      </trkpt>
      <trkpt lat="42.98724" lon="1.12457">
        <ele>473.8</ele>
        <time>2026-02-22T08:42:55Z</time>
      </trkpt>
      <trkpt lat="42.98696" lon="1.12453">
        <ele>473.8</ele>
        <time>2026-02-22T08:43:05Z</time>
      </trkpt>
      <trkpt lat="42.98685" lon="1.12447">
        <ele>473.8</ele>
        <time>2026-02-22T08:43:10Z</time>
      </trkpt>
      <trkpt lat="42.98661" lon="1.12409">
        <ele>471.6</ele>
        <time>2026-02-22T08:43:24Z</time>
      </trkpt>
      <trkpt lat="42.98615" lon="1.12372">
        <ele>471.6</ele>
        <time>2026-02-22T08:43:39Z</time>
      </trkpt>
      <trkpt lat="42.98582" lon="1.12351">
        <ele>471.6</ele>
        <time>2026-02-22T08:43:51Z</time>
      </trkpt>
      <trkpt lat="42.9856" lon="1.12353">
        <ele>471.6</ele>
        <time>2026-02-22T08:44:20Z</time>
      </trkpt>
      <trkpt lat="42.98507" lon="1.12332">
        <ele>468</ele>
        <time>2026-02-22T08:44:40Z</time>
      </trkpt>
      <trkpt lat="42.98472" lon="1.12277">
        <ele>462.8</ele>
        <time>2026-02-22T08:46:46Z</time>
      </trkpt>
      <trkpt lat="42.98466" lon="1.12276">
        <ele>464.6</ele>
        <time>2026-02-22T08:46:50Z</time>
      </trkpt>
      <trkpt lat="42.98457" lon="1.12265">
        <ele>466.2</ele>
        <time>2026-02-22T08:46:56Z</time>
      </trkpt>
      <trkpt lat="42.98439" lon="1.12261">
        <ele>467</ele>
        <time>2026-02-22T08:48:59Z</time>
      </trkpt>
      <trkpt lat="42.98385" lon="1.12197">
        <ele>473.2</ele>
        <time>2026-02-22T08:49:24Z</time>
      </trkpt>
      <trkpt lat="42.98333" lon="1.12166">
        <ele>474.4</ele>
        <time>2026-02-22T08:49:39Z</time>
      </trkpt>
      <trkpt lat="42.98328" lon="1.12169">
        <ele>473</ele>
        <time>2026-02-22T08:49:43Z</time>
      </trkpt>
      <trkpt lat="42.98323" lon="1.12221">
        <ele>475.4</ele>
        <time>2026-02-22T08:49:59Z</time>
      </trkpt>
      <trkpt lat="42.98263" lon="1.12301">
        <ele>469.6</ele>
        <time>2026-02-22T08:50:17Z</time>
      </trkpt>
      <trkpt lat="42.9824" lon="1.12352">
        <ele>469.2</ele>
        <time>2026-02-22T08:50:26Z</time>
      </trkpt>
      <trkpt lat="42.98238" lon="1.12393">
        <ele>465</ele>
        <time>2026-02-22T08:50:32Z</time>
      </trkpt>
      <trkpt lat="42.98228" lon="1.12415">
        <ele>461.8</ele>
        <time>2026-02-22T08:50:36Z</time>
      </trkpt>
      <trkpt lat="42.98231" lon="1.12434">
        <ele>459.4</ele>
        <time>2026-02-22T08:50:40Z</time>
      </trkpt>
      <trkpt lat="42.98219" lon="1.12467">
        <ele>458</ele>
        <time>2026-02-22T08:50:44Z</time>
      </trkpt>
      <trkpt lat="42.98205" lon="1.1249">
        <ele>455.8</ele>
        <time>2026-02-22T08:50:48Z</time>
      </trkpt>
      <trkpt lat="42.98201" lon="1.12506">
        <ele>453.8</ele>
        <time>2026-02-22T08:50:50Z</time>
      </trkpt>
      <trkpt lat="42.98208" lon="1.12525">
        <ele>449.8</ele>
        <time>2026-02-22T08:50:54Z</time>
      </trkpt>
      <trkpt lat="42.98241" lon="1.12557">
        <ele>446.6</ele>
        <time>2026-02-22T08:51:37Z</time>
      </trkpt>
      <trkpt lat="42.98239" lon="1.12575">
        <ele>443.6</ele>
        <time>2026-02-22T08:51:41Z</time>
      </trkpt>
      <trkpt lat="42.98174" lon="1.12733">
        <ele>441</ele>
        <time>2026-03-22T08:24:24Z</time>
      </trkpt>
      <trkpt lat="42.98131" lon="1.12712">
        <ele>441</ele>
        <time>2026-03-22T08:24:35Z</time>
      </trkpt>
      <trkpt lat="42.98052" lon="1.12638">
        <ele>439</ele>
        <time>2026-03-22T08:25:04Z</time>
      </trkpt>
      <trkpt lat="42.97917" lon="1.12473">
        <ele>439</ele>
        <time>2026-03-22T08:27:07Z</time>
      </trkpt>
      <trkpt lat="42.97911" lon="1.12451">
        <ele>439</ele>
        <time>2026-03-22T08:27:12Z</time>
      </trkpt>
      <trkpt lat="42.97912" lon="1.12424">
        <ele>439</ele>
        <time>2026-03-22T08:27:18Z</time>
      </trkpt>
      <trkpt lat="42.97903" lon="1.1241">
        <ele>439</ele>
        <time>2026-03-22T08:27:22Z</time>
      </trkpt>
      <trkpt lat="42.97886" lon="1.12395">
        <ele>439</ele>
        <time>2026-03-22T08:27:27Z</time>
      </trkpt>
      <trkpt lat="42.97858" lon="1.123">
        <ele>436.2</ele>
        <time>2026-03-22T08:27:43Z</time>
      </trkpt>
      <trkpt lat="42.97834" lon="1.12237">
        <ele>435</ele>
        <time>2026-03-22T08:27:54Z</time>
      </trkpt>
      <trkpt lat="42.97837" lon="1.12227">
        <ele>435</ele>
        <time>2026-03-22T08:27:56Z</time>
      </trkpt>
      <trkpt lat="42.97875" lon="1.12208">
        <ele>435.4</ele>
        <time>2026-03-22T08:28:10Z</time>
      </trkpt>
      <trkpt lat="42.97912" lon="1.12178">
        <ele>440.6</ele>
        <time>2026-03-22T08:28:24Z</time>
      </trkpt>
      <trkpt lat="42.97969" lon="1.12151">
        <ele>443.6</ele>
        <time>2026-03-22T08:28:41Z</time>
      </trkpt>
      <trkpt lat="42.98037" lon="1.12078">
        <ele>447.4</ele>
        <time>2026-03-22T08:28:57Z</time>
      </trkpt>
      <trkpt lat="42.9804" lon="1.12011">
        <ele>447.8</ele>
        <time>2026-03-22T08:29:04Z</time>
      </trkpt>
      <trkpt lat="42.98053" lon="1.1196">
        <ele>447.8</ele>
        <time>2026-03-22T08:29:09Z</time>
      </trkpt>
      <trkpt lat="42.98053" lon="1.11885">
        <ele>448.8</ele>
        <time>2026-03-22T08:29:20Z</time>
      </trkpt>
      <trkpt lat="42.98074" lon="1.11852">
        <ele>452.4</ele>
        <time>2026-03-22T08:29:29Z</time>
      </trkpt>
      <trkpt lat="42.98162" lon="1.11762">
        <ele>460.6</ele>
        <time>2026-03-22T08:30:01Z</time>
      </trkpt>
      <trkpt lat="42.98281" lon="1.11515">
        <ele>465</ele>
        <time>2026-03-22T08:30:51Z</time>
      </trkpt>
      <trkpt lat="42.98289" lon="1.11476">
        <ele>466.6</ele>
        <time>2026-03-22T08:30:58Z</time>
      </trkpt>
      <trkpt lat="42.98278" lon="1.11354">
        <ele>467</ele>
        <time>2026-03-22T08:31:15Z</time>
      </trkpt>
      <trkpt lat="42.98283" lon="1.11257">
        <ele>467.4</ele>
        <time>2026-03-22T08:31:29Z</time>
      </trkpt>
      <trkpt lat="42.98328" lon="1.11138">
        <ele>467.8</ele>
        <time>2026-03-22T08:31:44Z</time>
      </trkpt>
      <trkpt lat="42.98335" lon="1.11095">
        <ele>466</ele>
        <time>2026-03-22T08:31:48Z</time>
      </trkpt>
      <trkpt lat="42.98345" lon="1.11076">
        <ele>464.8</ele>
        <time>2026-03-22T08:31:50Z</time>
      </trkpt>
      <trkpt lat="42.98363" lon="1.11069">
        <ele>463.2</ele>
        <time>2026-03-22T08:31:52Z</time>
      </trkpt>
      <trkpt lat="42.98385" lon="1.11074">
        <ele>461.6</ele>
        <time>2026-03-22T08:31:54Z</time>
      </trkpt>
      <trkpt lat="42.98425" lon="1.11097">
        <ele>456</ele>
        <time>2026-03-22T08:31:58Z</time>
      </trkpt>
      <trkpt lat="42.98504" lon="1.11126">
        <ele>447.4</ele>
        <time>2026-03-22T08:32:06Z</time>
      </trkpt>
      <trkpt lat="42.98538" lon="1.11133">
        <ele>442.4</ele>
        <time>2026-03-22T08:32:10Z</time>
      </trkpt>
      <trkpt lat="42.9855" lon="1.11126">
        <ele>439.8</ele>
        <time>2026-03-22T08:32:12Z</time>
      </trkpt>
      <trkpt lat="42.98555" lon="1.11115">
        <ele>437.8</ele>
        <time>2026-03-22T08:32:14Z</time>
      </trkpt>
      <trkpt lat="42.98552" lon="1.111">
        <ele>435.8</ele>
        <time>2026-03-22T08:32:16Z</time>
      </trkpt>
      <trkpt lat="42.98536" lon="1.11073">
        <ele>432.6</ele>
        <time>2026-03-22T08:32:20Z</time>
      </trkpt>
      <trkpt lat="42.98515" lon="1.11003">
        <ele>432.6</ele>
        <time>2026-03-22T08:32:29Z</time>
      </trkpt>
      <trkpt lat="42.9852" lon="1.1091">
        <ele>430.4</ele>
        <time>2026-03-22T08:32:40Z</time>
      </trkpt>
      <trkpt lat="42.98528" lon="1.10899">
        <ele>430.4</ele>
        <time>2026-03-22T08:32:42Z</time>
      </trkpt>
      <trkpt lat="42.98554" lon="1.10889">
        <ele>430.4</ele>
        <time>2026-03-22T08:32:47Z</time>
      </trkpt>
      <trkpt lat="42.98574" lon="1.10865">
        <ele>431.8</ele>
        <time>2026-03-22T08:32:52Z</time>
      </trkpt>
      <trkpt lat="42.9859" lon="1.10834">
        <ele>434.6</ele>
        <time>2026-03-22T08:32:58Z</time>
      </trkpt>
      <trkpt lat="42.98601" lon="1.10826">
        <ele>434.6</ele>
        <time>2026-03-22T08:33:01Z</time>
      </trkpt>
      <trkpt lat="42.98614" lon="1.10829">
        <ele>434.6</ele>
        <time>2026-03-22T08:33:04Z</time>
      </trkpt>
      <trkpt lat="42.98628" lon="1.10842">
        <ele>434.6</ele>
        <time>2026-03-22T08:33:08Z</time>
      </trkpt>
      <trkpt lat="42.98642" lon="1.10837">
        <ele>436.8</ele>
        <time>2026-03-22T08:33:13Z</time>
      </trkpt>
      <trkpt lat="42.98727" lon="1.10752">
        <ele>449.6</ele>
        <time>2026-03-22T08:33:51Z</time>
      </trkpt>
      <trkpt lat="42.98747" lon="1.10693">
        <ele>457.2</ele>
        <time>2026-03-22T08:34:11Z</time>
      </trkpt>
      <trkpt lat="42.98765" lon="1.10618">
        <ele>464.2</ele>
        <time>2026-03-22T08:34:33Z</time>
      </trkpt>
      <trkpt lat="42.98865" lon="1.1036">
        <ele>471.8</ele>
        <time>2026-03-22T08:35:34Z</time>
      </trkpt>
      <trkpt lat="42.98864" lon="1.10332">
        <ele>471.8</ele>
        <time>2026-03-22T08:35:39Z</time>
      </trkpt>
      <trkpt lat="42.98842" lon="1.10238">
        <ele>478.8</ele>
        <time>2026-03-22T08:36:00Z</time>
      </trkpt>
      <trkpt lat="42.98842" lon="1.10166">
        <ele>490.2</ele>
        <time>2026-03-22T08:36:25Z</time>
      </trkpt>
      <trkpt lat="42.98861" lon="1.10114">
        <ele>497.6</ele>
        <time>2026-03-22T08:36:43Z</time>
      </trkpt>
      <trkpt lat="42.98934" lon="1.09987">
        <ele>509.4</ele>
        <time>2026-03-22T08:37:28Z</time>
      </trkpt>
      <trkpt lat="42.98943" lon="1.0995">
        <ele>510.2</ele>
        <time>2026-03-22T08:37:37Z</time>
      </trkpt>
      <trkpt lat="42.98988" lon="1.09894">
        <ele>517</ele>
        <time>2026-03-22T08:37:56Z</time>
      </trkpt>
      <trkpt lat="42.99001" lon="1.09858">
        <ele>521</ele>
        <time>2026-03-22T08:38:06Z</time>
      </trkpt>
      <trkpt lat="42.99" lon="1.0983">
        <ele>522.2</ele>
        <time>2026-03-22T08:38:12Z</time>
      </trkpt>
      <trkpt lat="42.98967" lon="1.09792">
        <ele>522.2</ele>
        <time>2026-03-22T08:38:25Z</time>
      </trkpt>
      <trkpt lat="42.9895" lon="1.0975">
        <ele>524.8</ele>
        <time>2026-03-22T08:38:38Z</time>
      </trkpt>
      <trkpt lat="42.98948" lon="1.0967">
        <ele>532.2</ele>
        <time>2026-03-22T08:38:58Z</time>
      </trkpt>
      <trkpt lat="42.9892" lon="1.09574">
        <ele>539.2</ele>
        <time>2026-03-22T08:39:29Z</time>
      </trkpt>
      <trkpt lat="42.98861" lon="1.09485">
        <ele>543.4</ele>
        <time>2026-03-22T08:39:55Z</time>
      </trkpt>
      <trkpt lat="42.98837" lon="1.09466">
        <ele>546.8</ele>
        <time>2026-03-22T08:40:04Z</time>
      </trkpt>
      <trkpt lat="42.98792" lon="1.09445">
        <ele>549.8</ele>
        <time>2026-03-22T08:40:25Z</time>
      </trkpt>
      <trkpt lat="42.98768" lon="1.09428">
        <ele>549.8</ele>
        <time>2026-03-22T08:41:03Z</time>
      </trkpt>
      <trkpt lat="42.98748" lon="1.09392">
        <ele>549.8</ele>
        <time>2026-03-22T08:41:15Z</time>
      </trkpt>
      <trkpt lat="42.98763" lon="1.09347">
        <ele>550.8</ele>
        <time>2026-03-22T08:41:29Z</time>
      </trkpt>
      <trkpt lat="42.98771" lon="1.09336">
        <ele>552</ele>
        <time>2026-03-22T08:41:34Z</time>
      </trkpt>
      <trkpt lat="42.98821" lon="1.09318">
        <ele>554.6</ele>
        <time>2026-03-22T08:41:51Z</time>
      </trkpt>
      <trkpt lat="42.9887" lon="1.09284">
        <ele>556.8</ele>
        <time>2026-03-22T08:42:11Z</time>
      </trkpt>
      <trkpt lat="42.98958" lon="1.09264">
        <ele>562.8</ele>
        <time>2026-03-22T08:42:36Z</time>
      </trkpt>
      <trkpt lat="42.99017" lon="1.09259">
        <ele>565.2</ele>
        <time>2026-03-22T08:42:53Z</time>
      </trkpt>
      <trkpt lat="42.99093" lon="1.09293">
        <ele>571</ele>
        <time>2026-03-22T08:43:24Z</time>
      </trkpt>
      <trkpt lat="42.99102" lon="1.09293">
        <ele>571.4</ele>
        <time>2026-03-22T08:43:26Z</time>
      </trkpt>
      <trkpt lat="42.99145" lon="1.09272">
        <ele>572.2</ele>
        <time>2026-03-22T08:43:38Z</time>
      </trkpt>
      <trkpt lat="42.99189" lon="1.09215">
        <ele>574.6</ele>
        <time>2026-03-22T08:43:53Z</time>
      </trkpt>
      <trkpt lat="42.99209" lon="1.09149">
        <ele>577.6</ele>
        <time>2026-03-22T08:44:07Z</time>
      </trkpt>
      <trkpt lat="42.99218" lon="1.09103">
        <ele>580.4</ele>
        <time>2026-03-22T08:44:18Z</time>
      </trkpt>
      <trkpt lat="42.99217" lon="1.09076">
        <ele>583.4</ele>
        <time>2026-03-22T08:44:27Z</time>
      </trkpt>
      <trkpt lat="42.99211" lon="1.09076">
        <ele>583.8</ele>
        <time>2026-03-22T08:44:30Z</time>
      </trkpt>
      <trkpt lat="42.99197" lon="1.09101">
        <ele>587.2</ele>
        <time>2026-03-22T08:44:41Z</time>
      </trkpt>
      <trkpt lat="42.99159" lon="1.09134">
        <ele>594.2</ele>
        <time>2026-03-22T08:45:00Z</time>
      </trkpt>
      <trkpt lat="42.9915" lon="1.09129">
        <ele>595.4</ele>
        <time>2026-03-22T08:45:04Z</time>
      </trkpt>
      <trkpt lat="42.99149" lon="1.09077">
        <ele>603.4</ele>
        <time>2026-03-22T08:45:20Z</time>
      </trkpt>
      <trkpt lat="42.99159" lon="1.09038">
        <ele>605.6</ele>
        <time>2026-03-22T08:45:30Z</time>
      </trkpt>
      <trkpt lat="42.99151" lon="1.08982">
        <ele>607</ele>
        <time>2026-03-22T08:45:42Z</time>
      </trkpt>
      <trkpt lat="42.99135" lon="1.08927">
        <ele>607.8</ele>
        <time>2026-03-22T08:45:54Z</time>
      </trkpt>
      <trkpt lat="42.99082" lon="1.08823">
        <ele>607.8</ele>
        <time>2026-03-22T08:46:17Z</time>
      </trkpt>
      <trkpt lat="42.99059" lon="1.08787">
        <ele>609.8</ele>
        <time>2026-03-22T08:46:26Z</time>
      </trkpt>
      <trkpt lat="42.99035" lon="1.08761">
        <ele>611</ele>
        <time>2026-03-22T08:46:34Z</time>
      </trkpt>
      <trkpt lat="42.99004" lon="1.0876">
        <ele>612.8</ele>
        <time>2026-03-22T08:46:42Z</time>
      </trkpt>
      <trkpt lat="42.9898" lon="1.08767">
        <ele>616.4</ele>
        <time>2026-03-22T08:46:50Z</time>
      </trkpt>
      <trkpt lat="42.98944" lon="1.08768">
        <ele>619</ele>
        <time>2026-03-22T08:47:05Z</time>
      </trkpt>
      <trkpt lat="42.9885" lon="1.08801">
        <ele>629.4</ele>
        <time>2026-03-22T08:47:40Z</time>
      </trkpt>
      <trkpt lat="42.98825" lon="1.08801">
        <ele>633.6</ele>
        <time>2026-03-22T08:47:48Z</time>
      </trkpt>
      <trkpt lat="42.98801" lon="1.08796">
        <ele>637.8</ele>
        <time>2026-03-22T08:47:56Z</time>
      </trkpt>
      <trkpt lat="42.98757" lon="1.08805">
        <ele>646</ele>
        <time>2026-03-22T08:48:13Z</time>
      </trkpt>
      <trkpt lat="42.98692" lon="1.08801">
        <ele>650.6</ele>
        <time>2026-03-22T08:48:38Z</time>
      </trkpt>
      <trkpt lat="42.98642" lon="1.08789">
        <ele>656.8</ele>
        <time>2026-03-22T08:49:02Z</time>
      </trkpt>
      <trkpt lat="42.98554" lon="1.08731">
        <ele>661</ele>
        <time>2026-03-22T08:49:39Z</time>
      </trkpt>
      <trkpt lat="42.98541" lon="1.08731">
        <ele>661</ele>
        <time>2026-03-22T08:49:43Z</time>
      </trkpt>
      <trkpt lat="42.98519" lon="1.08746">
        <ele>661</ele>
        <time>2026-03-22T08:49:48Z</time>
      </trkpt>
      <trkpt lat="42.98422" lon="1.0888">
        <ele>665.2</ele>
        <time>2026-03-22T08:50:36Z</time>
      </trkpt>
      <trkpt lat="42.98408" lon="1.08891">
        <ele>665.2</ele>
        <time>2026-03-22T08:53:40Z</time>
      </trkpt>
      <trkpt lat="42.98398" lon="1.08888">
        <ele>665.2</ele>
        <time>2026-03-22T08:53:44Z</time>
      </trkpt>
      <trkpt lat="42.98383" lon="1.08874">
        <ele>665.2</ele>
        <time>2026-03-22T08:53:49Z</time>
      </trkpt>
      <trkpt lat="42.98372" lon="1.08854">
        <ele>665.2</ele>
        <time>2026-03-22T08:53:54Z</time>
      </trkpt>
      <trkpt lat="42.98341" lon="1.08819">
        <ele>665.2</ele>
        <time>2026-03-22T08:54:06Z</time>
      </trkpt>
      <trkpt lat="42.98319" lon="1.08781">
        <ele>665.2</ele>
        <time>2026-03-22T08:54:19Z</time>
      </trkpt>
      <trkpt lat="42.98299" lon="1.08728">
        <ele>652.3</ele>
      </trkpt>
      <trkpt lat="42.98302" lon="1.08719">
        <ele>653</ele>
      </trkpt>
      <trkpt lat="42.98314" lon="1.08685">
        <ele>652.9</ele>
      </trkpt>
      <trkpt lat="42.98302" lon="1.08604">
        <ele>660.1</ele>
      </trkpt>
      <trkpt lat="42.98297" lon="1.08571">
        <ele>662.9</ele>
      </trkpt>
      <trkpt lat="42.98282" lon="1.08525">
        <ele>667.8</ele>
      </trkpt>
      <trkpt lat="42.98241" lon="1.08472">
        <ele>673.3</ele>
      </trkpt>
      <trkpt lat="42.98212" lon="1.08435">
        <ele>673</ele>
      </trkpt>
      <trkpt lat="42.98198" lon="1.08429">
        <ele>673.7</ele>
      </trkpt>
      <trkpt lat="42.98143" lon="1.08299">
        <ele>692.5</ele>
      </trkpt>
      <trkpt lat="42.98117" lon="1.08279">
        <ele>698.8</ele>
      </trkpt>
      <trkpt lat="42.98101" lon="1.08254">
        <ele>702.2</ele>
      </trkpt>
      <trkpt lat="42.98057" lon="1.08212">
        <ele>703.9</ele>
      </trkpt>
      <trkpt lat="42.97994" lon="1.08116">
        <ele>699</ele>
      </trkpt>
      <trkpt lat="42.97953" lon="1.08054">
        <ele>688</ele>
      </trkpt>
      <trkpt lat="42.97924" lon="1.08019">
        <ele>678.2</ele>
      </trkpt>
      <trkpt lat="42.9792" lon="1.07985">
        <ele>674.5</ele>
      </trkpt>
      <trkpt lat="42.97925" lon="1.07926">
        <ele>676.6</ele>
      </trkpt>
      <trkpt lat="42.9791" lon="1.07838">
        <ele>671.8</ele>
      </trkpt>
      <trkpt lat="42.97894" lon="1.07797">
        <ele>667.3</ele>
      </trkpt>
      <trkpt lat="42.9787" lon="1.07771">
        <ele>664.8</ele>
      </trkpt>
      <trkpt lat="42.97846" lon="1.07777">
        <ele>665</ele>
        <time>2026-03-22T08:54:46Z</time>
      </trkpt>
      <trkpt lat="42.97844" lon="1.07778">
        <ele>679.6</ele>
        <time>2026-03-22T08:59:06Z</time>
      </trkpt>
      <trkpt lat="42.97821" lon="1.07784">
        <ele>681.4</ele>
        <time>2026-03-22T09:03:29Z</time>
      </trkpt>
      <trkpt lat="42.97757" lon="1.07766">
        <ele>683.6</ele>
        <time>2026-03-22T09:03:49Z</time>
      </trkpt>
      <trkpt lat="42.97737" lon="1.0775">
        <ele>686.6</ele>
        <time>2026-03-22T09:03:58Z</time>
      </trkpt>
      <trkpt lat="42.97497" lon="1.07467">
        <ele>751</ele>
        <time>2026-03-22T09:07:17Z</time>
      </trkpt>
      <trkpt lat="42.97484" lon="1.07446">
        <ele>754.4</ele>
        <time>2026-03-22T09:07:26Z</time>
      </trkpt>
      <trkpt lat="42.97477" lon="1.07422">
        <ele>758</ele>
        <time>2026-03-22T09:07:35Z</time>
      </trkpt>
      <trkpt lat="42.97452" lon="1.07383">
        <ele>765.4</ele>
        <time>2026-03-22T09:07:53Z</time>
      </trkpt>
      <trkpt lat="42.97398" lon="1.07316">
        <ele>780.8</ele>
        <time>2026-03-22T09:08:27Z</time>
      </trkpt>
      <trkpt lat="42.97379" lon="1.07302">
        <ele>784.4</ele>
        <time>2026-03-22T09:08:36Z</time>
      </trkpt>
      <trkpt lat="42.97323" lon="1.0729">
        <ele>791</ele>
        <time>2026-03-22T09:08:56Z</time>
      </trkpt>
      <trkpt lat="42.97294" lon="1.07272">
        <ele>791</ele>
        <time>2026-03-22T09:11:41Z</time>
      </trkpt>
      <trkpt lat="42.97275" lon="1.07219">
        <ele>793.6</ele>
        <time>2026-03-22T09:12:03Z</time>
      </trkpt>
      <trkpt lat="42.97267" lon="1.07207">
        <ele>795.4</ele>
        <time>2026-03-22T09:12:07Z</time>
      </trkpt>
      <trkpt lat="42.97242" lon="1.07187">
        <ele>796.2</ele>
        <time>2026-03-22T09:12:18Z</time>
      </trkpt>
      <trkpt lat="42.97192" lon="1.07162">
        <ele>799.6</ele>
        <time>2026-03-22T09:12:35Z</time>
      </trkpt>
      <trkpt lat="42.97178" lon="1.07142">
        <ele>801.2</ele>
        <time>2026-03-22T09:12:42Z</time>
      </trkpt>
      <trkpt lat="42.97176" lon="1.07119">
        <ele>804</ele>
        <time>2026-03-22T09:13:20Z</time>
      </trkpt>
      <trkpt lat="42.9716" lon="1.07084">
        <ele>810.4</ele>
        <time>2026-03-22T09:14:15Z</time>
      </trkpt>
      <trkpt lat="42.97138" lon="1.07075">
        <ele>812.6</ele>
        <time>2026-03-22T09:14:26Z</time>
      </trkpt>
      <trkpt lat="42.97094" lon="1.07073">
        <ele>819.8</ele>
        <time>2026-03-22T09:14:43Z</time>
      </trkpt>
      <trkpt lat="42.97052" lon="1.07085">
        <ele>832.4</ele>
        <time>2026-03-22T09:15:11Z</time>
      </trkpt>
      <trkpt lat="42.9703" lon="1.07074">
        <ele>837.2</ele>
        <time>2026-03-22T09:15:19Z</time>
      </trkpt>
      <trkpt lat="42.97016" lon="1.07075">
        <ele>839.2</ele>
        <time>2026-03-22T09:15:27Z</time>
      </trkpt>
      <trkpt lat="42.97006" lon="1.07069">
        <ele>841</ele>
        <time>2026-03-22T09:15:45Z</time>
      </trkpt>
      <trkpt lat="42.97012" lon="1.06997">
        <ele>853.8</ele>
        <time>2026-03-22T09:16:22Z</time>
      </trkpt>
      <trkpt lat="42.96969" lon="1.06854">
        <ele>858</ele>
        <time>2026-03-22T09:17:23Z</time>
      </trkpt>
      <trkpt lat="42.96958" lon="1.06829">
        <ele>858</ele>
        <time>2026-03-22T09:17:36Z</time>
      </trkpt>
      <trkpt lat="42.96929" lon="1.0682">
        <ele>857.4</ele>
        <time>2026-03-22T09:17:51Z</time>
      </trkpt>
      <trkpt lat="42.96927" lon="1.06823">
        <ele>856.6</ele>
        <time>2026-03-22T09:17:53Z</time>
      </trkpt>
      <trkpt lat="42.9692" lon="1.06821">
        <ele>855.4</ele>
        <time>2026-03-22T09:17:55Z</time>
      </trkpt>
      <trkpt lat="42.96845" lon="1.06758">
        <ele>845.2</ele>
        <time>2026-03-22T09:18:23Z</time>
      </trkpt>
      <trkpt lat="42.96799" lon="1.06745">
        <ele>839.4</ele>
        <time>2026-03-22T09:18:38Z</time>
      </trkpt>
      <trkpt lat="42.96766" lon="1.06745">
        <ele>835.4</ele>
        <time>2026-03-22T09:18:46Z</time>
      </trkpt>
      <trkpt lat="42.96737" lon="1.0673">
        <ele>829.8</ele>
        <time>2026-03-22T09:18:55Z</time>
      </trkpt>
      <trkpt lat="42.96712" lon="1.06711">
        <ele>826.2</ele>
        <time>2026-03-22T09:19:04Z</time>
      </trkpt>
      <trkpt lat="42.96685" lon="1.06707">
        <ele>820.4</ele>
        <time>2026-03-22T09:19:12Z</time>
      </trkpt>
      <trkpt lat="42.96666" lon="1.0671">
        <ele>816</ele>
        <time>2026-03-22T09:19:20Z</time>
      </trkpt>
      <trkpt lat="42.96619" lon="1.06695">
        <ele>810.2</ele>
        <time>2026-03-22T09:19:28Z</time>
      </trkpt>
      <trkpt lat="42.96598" lon="1.06694">
        <ele>808</ele>
        <time>2026-03-22T09:19:32Z</time>
      </trkpt>
      <trkpt lat="42.96583" lon="1.06698">
        <ele>806</ele>
        <time>2026-03-22T09:19:36Z</time>
      </trkpt>
      <trkpt lat="42.9655" lon="1.06698">
        <ele>801.6</ele>
        <time>2026-03-22T09:19:45Z</time>
      </trkpt>
      <trkpt lat="42.96469" lon="1.06675">
        <ele>789.4</ele>
        <time>2026-03-22T09:20:09Z</time>
      </trkpt>
      <trkpt lat="42.96442" lon="1.06674">
        <ele>785.8</ele>
        <time>2026-03-22T09:20:17Z</time>
      </trkpt>
      <trkpt lat="42.96427" lon="1.06678">
        <ele>783.6</ele>
        <time>2026-03-22T09:20:21Z</time>
      </trkpt>
      <trkpt lat="42.96376" lon="1.06666">
        <ele>773.2</ele>
        <time>2026-03-22T09:20:37Z</time>
      </trkpt>
      <trkpt lat="42.96337" lon="1.0665">
        <ele>765.2</ele>
        <time>2026-03-22T09:20:53Z</time>
      </trkpt>
      <trkpt lat="42.96275" lon="1.06614">
        <ele>752.8</ele>
        <time>2026-03-22T09:21:17Z</time>
      </trkpt>
      <trkpt lat="42.96258" lon="1.06598">
        <ele>748.4</ele>
        <time>2026-03-22T09:21:25Z</time>
      </trkpt>
      <trkpt lat="42.96177" lon="1.06551">
        <ele>733.8</ele>
        <time>2026-03-22T09:21:54Z</time>
      </trkpt>
      <trkpt lat="42.96109" lon="1.06475">
        <ele>716.2</ele>
        <time>2026-03-22T09:22:23Z</time>
      </trkpt>
      <trkpt lat="42.96071" lon="1.06458">
        <ele>711.4</ele>
        <time>2026-03-22T09:22:31Z</time>
      </trkpt>
      <trkpt lat="42.96012" lon="1.06467">
        <ele>698.4</ele>
        <time>2026-03-22T09:22:47Z</time>
      </trkpt>
      <trkpt lat="42.95972" lon="1.06483">
        <ele>689.4</ele>
        <time>2026-03-22T09:22:59Z</time>
      </trkpt>
      <trkpt lat="42.95925" lon="1.06483">
        <ele>679.2</ele>
        <time>2026-03-22T09:23:22Z</time>
      </trkpt>
      <trkpt lat="42.95923" lon="1.06467">
        <ele>677.4</ele>
        <time>2026-03-22T09:23:27Z</time>
      </trkpt>
      <trkpt lat="42.95927" lon="1.06446">
        <ele>675.8</ele>
        <time>2026-03-22T09:23:33Z</time>
      </trkpt>
      <trkpt lat="42.95874" lon="1.06395">
        <ele>665.8</ele>
        <time>2026-03-22T09:23:50Z</time>
      </trkpt>
      <trkpt lat="42.9584" lon="1.06386">
        <ele>661</ele>
        <time>2026-03-22T09:23:59Z</time>
      </trkpt>
      <trkpt lat="42.95822" lon="1.06375">
        <ele>657.6</ele>
        <time>2026-03-22T09:24:08Z</time>
      </trkpt>
      <trkpt lat="42.95785" lon="1.06367">
        <ele>642.4</ele>
        <time>2026-03-22T09:25:08Z</time>
      </trkpt>
      <trkpt lat="42.95797" lon="1.06319">
        <ele>632.2</ele>
        <time>2026-03-22T09:25:36Z</time>
      </trkpt>
      <trkpt lat="42.95783" lon="1.06318">
        <ele>630.4</ele>
        <time>2026-03-22T09:25:40Z</time>
      </trkpt>
      <trkpt lat="42.95726" lon="1.06346">
        <ele>614</ele>
        <time>2026-03-22T09:26:04Z</time>
      </trkpt>
      <trkpt lat="42.95718" lon="1.06359">
        <ele>611.2</ele>
        <time>2026-03-22T09:26:11Z</time>
      </trkpt>
      <trkpt lat="42.95698" lon="1.06357">
        <ele>609.6</ele>
        <time>2026-03-22T09:26:17Z</time>
      </trkpt>
      <trkpt lat="42.95686" lon="1.0636">
        <ele>607.2</ele>
        <time>2026-03-22T09:26:21Z</time>
      </trkpt>
      <trkpt lat="42.95584" lon="1.06323">
        <ele>595</ele>
        <time>2026-03-22T09:27:17Z</time>
      </trkpt>
      <trkpt lat="42.95474" lon="1.06307">
        <ele>571.6</ele>
        <time>2026-03-22T09:27:41Z</time>
      </trkpt>
      <trkpt lat="42.95455" lon="1.063">
        <ele>564.2</ele>
        <time>2026-03-22T09:27:49Z</time>
      </trkpt>
      <trkpt lat="42.95419" lon="1.06302">
        <ele>553.6</ele>
        <time>2026-03-22T09:28:03Z</time>
      </trkpt>
      <trkpt lat="42.95421" lon="1.06294">
        <ele>551.8</ele>
        <time>2026-03-22T09:28:10Z</time>
      </trkpt>
      <trkpt lat="42.95409" lon="1.06291">
        <ele>548.4</ele>
        <time>2026-03-22T09:28:39Z</time>
      </trkpt>
      <trkpt lat="42.95407" lon="1.06286">
        <ele>548.4</ele>
        <time>2026-03-22T09:28:43Z</time>
      </trkpt>
      <trkpt lat="42.95416" lon="1.06278">
        <ele>543.8</ele>
        <time>2026-03-22T09:28:52Z</time>
      </trkpt>
      <trkpt lat="42.95413" lon="1.0628">
        <ele>542.8</ele>
        <time>2026-03-22T09:28:54Z</time>
      </trkpt>
      <trkpt lat="42.95386" lon="1.06254">
        <ele>541.6</ele>
        <time>2026-03-22T09:29:01Z</time>
      </trkpt>
      <trkpt lat="42.95359" lon="1.06247">
        <ele>541.2</ele>
        <time>2026-03-22T09:29:07Z</time>
      </trkpt>
      <trkpt lat="42.95314" lon="1.06243">
        <ele>538.2</ele>
        <time>2026-03-22T09:29:17Z</time>
      </trkpt>
      <trkpt lat="42.95273" lon="1.06252">
        <ele>535</ele>
        <time>2026-03-22T09:29:27Z</time>
      </trkpt>
      <trkpt lat="42.95176" lon="1.06295">
        <ele>531.6</ele>
        <time>2026-03-22T09:29:51Z</time>
      </trkpt>
      <trkpt lat="42.95136" lon="1.06294">
        <ele>530.8</ele>
        <time>2026-03-22T09:29:59Z</time>
      </trkpt>
      <trkpt lat="42.95108" lon="1.0627">
        <ele>531.6</ele>
        <time>2026-03-22T09:30:08Z</time>
      </trkpt>
      <trkpt lat="42.95083" lon="1.06232">
        <ele>531.2</ele>
        <time>2026-03-22T09:30:19Z</time>
      </trkpt>
      <trkpt lat="42.95051" lon="1.06147">
        <ele>526.4</ele>
        <time>2026-03-22T09:30:34Z</time>
      </trkpt>
      <trkpt lat="42.94985" lon="1.05998">
        <ele>507.4</ele>
        <time>2026-03-22T09:31:09Z</time>
      </trkpt>
      <trkpt lat="42.94961" lon="1.05922">
        <ele>496.6</ele>
        <time>2026-03-22T09:31:25Z</time>
      </trkpt>
      <trkpt lat="42.9495" lon="1.0591">
        <ele>494.2</ele>
        <time>2026-03-22T09:31:45Z</time>
      </trkpt>
      <trkpt lat="42.94936" lon="1.0591">
        <ele>492.4</ele>
        <time>2026-03-22T09:31:50Z</time>
      </trkpt>
      <trkpt lat="42.94934" lon="1.05904">
        <ele>491.4</ele>
        <time>2026-03-22T09:31:52Z</time>
      </trkpt>
      <trkpt lat="42.95013" lon="1.05761">
        <ele>487.8</ele>
        <time>2026-03-22T09:32:21Z</time>
      </trkpt>
      <trkpt lat="42.94998" lon="1.05743">
        <ele>486.4</ele>
        <time>2026-03-22T09:32:27Z</time>
      </trkpt>
      <trkpt lat="42.94955" lon="1.05709">
        <ele>485.6</ele>
        <time>2026-03-22T09:32:40Z</time>
      </trkpt>
      <trkpt lat="42.94905" lon="1.05681">
        <ele>485.2</ele>
        <time>2026-03-22T09:32:54Z</time>
      </trkpt>
      <trkpt lat="42.94903" lon="1.05675">
        <ele>484</ele>
        <time>2026-03-22T09:32:56Z</time>
      </trkpt>
      <trkpt lat="42.94904" lon="1.0567">
        <ele>458</ele>
        <time>2026-05-10T07:33:09Z</time>
      </trkpt>
      <trkpt lat="42.94914" lon="1.05628">
        <ele>458</ele>
        <time>2026-05-10T07:33:16Z</time>
      </trkpt>
      <trkpt lat="42.94915" lon="1.05622">
        <ele>458.4</ele>
        <time>2026-05-10T07:33:17Z</time>
      </trkpt>
      <trkpt lat="42.94916" lon="1.05616">
        <ele>458.8</ele>
        <time>2026-05-10T07:33:18Z</time>
      </trkpt>
      <trkpt lat="42.94918" lon="1.0561">
        <ele>459.2</ele>
        <time>2026-05-10T07:33:19Z</time>
      </trkpt>
      <trkpt lat="42.9492" lon="1.05606">
        <ele>459.6</ele>
        <time>2026-05-10T07:33:20Z</time>
      </trkpt>
      <trkpt lat="42.94922" lon="1.05601">
        <ele>460</ele>
        <time>2026-05-10T07:33:21Z</time>
      </trkpt>
      <trkpt lat="42.94923" lon="1.05595">
        <ele>460</ele>
        <time>2026-05-10T07:33:22Z</time>
      </trkpt>
      <trkpt lat="42.94935" lon="1.05556">
        <ele>460</ele>
        <time>2026-05-10T07:33:29Z</time>
      </trkpt>
      <trkpt lat="42.9495" lon="1.05515">
        <ele>460</ele>
        <time>2026-05-10T07:33:36Z</time>
      </trkpt>
      <trkpt lat="42.94958" lon="1.05493">
        <ele>460.4</ele>
        <time>2026-05-10T07:33:40Z</time>
      </trkpt>
      <trkpt lat="42.9496" lon="1.05488">
        <ele>461.2</ele>
        <time>2026-05-10T07:33:41Z</time>
      </trkpt>
      <trkpt lat="42.94962" lon="1.05483">
        <ele>461.6</ele>
        <time>2026-05-10T07:33:42Z</time>
      </trkpt>
      <trkpt lat="42.94964" lon="1.05477">
        <ele>462.2</ele>
        <time>2026-05-10T07:33:43Z</time>
      </trkpt>
      <trkpt lat="42.9497" lon="1.05461">
        <ele>462.2</ele>
        <time>2026-05-10T07:33:46Z</time>
      </trkpt>
      <trkpt lat="42.94986" lon="1.05416">
        <ele>462.2</ele>
        <time>2026-05-10T07:33:54Z</time>
      </trkpt>
      <trkpt lat="42.94988" lon="1.0541">
        <ele>462.2</ele>
        <time>2026-05-10T07:33:55Z</time>
      </trkpt>
      <trkpt lat="42.95" lon="1.05377">
        <ele>462.2</ele>
        <time>2026-05-10T07:34:01Z</time>
      </trkpt>
      <trkpt lat="42.95002" lon="1.05366">
        <ele>462.2</ele>
        <time>2026-05-10T07:34:03Z</time>
      </trkpt>
      <trkpt lat="42.95001" lon="1.05333">
        <ele>462.2</ele>
        <time>2026-05-10T07:34:08Z</time>
      </trkpt>
      <trkpt lat="42.95001" lon="1.05326">
        <ele>462.2</ele>
        <time>2026-05-10T07:34:09Z</time>
      </trkpt>
      <trkpt lat="42.95004" lon="1.05304">
        <ele>462.2</ele>
        <time>2026-05-10T07:34:12Z</time>
      </trkpt>
      <trkpt lat="42.95006" lon="1.05298">
        <ele>462.2</ele>
        <time>2026-05-10T07:34:13Z</time>
      </trkpt>
      <trkpt lat="42.95009" lon="1.05285">
        <ele>462.2</ele>
        <time>2026-05-10T07:34:15Z</time>
      </trkpt>
      <trkpt lat="42.95012" lon="1.05273">
        <ele>462.2</ele>
        <time>2026-05-10T07:34:17Z</time>
      </trkpt>
      <trkpt lat="42.95016" lon="1.05261">
        <ele>462.2</ele>
        <time>2026-05-10T07:34:19Z</time>
      </trkpt>
      <trkpt lat="42.95021" lon="1.05244">
        <ele>462.2</ele>
        <time>2026-05-10T07:34:22Z</time>
      </trkpt>
      <trkpt lat="42.95026" lon="1.05226">
        <ele>462.2</ele>
        <time>2026-05-10T07:34:25Z</time>
      </trkpt>
      <trkpt lat="42.95028" lon="1.05219">
        <ele>462.2</ele>
        <time>2026-05-10T07:34:26Z</time>
      </trkpt>
      <trkpt lat="42.95034" lon="1.052">
        <ele>462.2</ele>
        <time>2026-05-10T07:34:29Z</time>
      </trkpt>
      <trkpt lat="42.95035" lon="1.05192">
        <ele>462.2</ele>
        <time>2026-05-10T07:34:30Z</time>
      </trkpt>
      <trkpt lat="42.95042" lon="1.05151">
        <ele>462.2</ele>
        <time>2026-05-10T07:34:35Z</time>
      </trkpt>
      <trkpt lat="42.95047" lon="1.05123">
        <ele>462.2</ele>
        <time>2026-05-10T07:34:39Z</time>
      </trkpt>
      <trkpt lat="42.95051" lon="1.05112">
        <ele>462.2</ele>
        <time>2026-05-10T07:34:41Z</time>
      </trkpt>
      <trkpt lat="42.95056" lon="1.05094">
        <ele>462.2</ele>
        <time>2026-05-10T07:34:44Z</time>
      </trkpt>
      <trkpt lat="42.95058" lon="1.05082">
        <ele>462.2</ele>
        <time>2026-05-10T07:34:46Z</time>
      </trkpt>
      <trkpt lat="42.95064" lon="1.0506">
        <ele>462.2</ele>
        <time>2026-05-10T07:34:50Z</time>
      </trkpt>
      <trkpt lat="42.95066" lon="1.05055">
        <ele>462.6</ele>
        <time>2026-05-10T07:34:51Z</time>
      </trkpt>
      <trkpt lat="42.95068" lon="1.05049">
        <ele>463</ele>
        <time>2026-05-10T07:34:52Z</time>
      </trkpt>
      <trkpt lat="42.95069" lon="1.05044">
        <ele>463.4</ele>
        <time>2026-05-10T07:34:53Z</time>
      </trkpt>
      <trkpt lat="42.95071" lon="1.05038">
        <ele>463.8</ele>
        <time>2026-05-10T07:34:54Z</time>
      </trkpt>
      <trkpt lat="42.95073" lon="1.05033">
        <ele>464.2</ele>
        <time>2026-05-10T07:34:55Z</time>
      </trkpt>
      <trkpt lat="42.95079" lon="1.0502">
        <ele>464.8</ele>
        <time>2026-05-10T07:34:58Z</time>
      </trkpt>
      <trkpt lat="42.95082" lon="1.05015">
        <ele>465.2</ele>
        <time>2026-05-10T07:34:59Z</time>
      </trkpt>
      <trkpt lat="42.95084" lon="1.0501">
        <ele>465.6</ele>
        <time>2026-05-10T07:35:00Z</time>
      </trkpt>
      <trkpt lat="42.95087" lon="1.05005">
        <ele>466</ele>
        <time>2026-05-10T07:35:01Z</time>
      </trkpt>
      <trkpt lat="42.95089" lon="1.04999">
        <ele>466.6</ele>
        <time>2026-05-10T07:35:02Z</time>
      </trkpt>
      <trkpt lat="42.95092" lon="1.04988">
        <ele>466.6</ele>
        <time>2026-05-10T07:35:04Z</time>
      </trkpt>
      <trkpt lat="42.95094" lon="1.04972">
        <ele>467</ele>
        <time>2026-05-10T07:35:07Z</time>
      </trkpt>
      <trkpt lat="42.95094" lon="1.04965">
        <ele>467.4</ele>
        <time>2026-05-10T07:35:08Z</time>
      </trkpt>
      <trkpt lat="42.95094" lon="1.04958">
        <ele>467.8</ele>
        <time>2026-05-10T07:35:09Z</time>
      </trkpt>
      <trkpt lat="42.95093" lon="1.04951">
        <ele>468.2</ele>
        <time>2026-05-10T07:35:10Z</time>
      </trkpt>
      <trkpt lat="42.95092" lon="1.04944">
        <ele>468.6</ele>
        <time>2026-05-10T07:35:11Z</time>
      </trkpt>
      <trkpt lat="42.9509" lon="1.04937">
        <ele>468.6</ele>
        <time>2026-05-10T07:35:12Z</time>
      </trkpt>
      <trkpt lat="42.95089" lon="1.04929">
        <ele>468</ele>
        <time>2026-05-10T07:35:13Z</time>
      </trkpt>
      <trkpt lat="42.95087" lon="1.04919">
        <ele>467.6</ele>
        <time>2026-05-10T07:35:14Z</time>
      </trkpt>
      <trkpt lat="42.95087" lon="1.0491">
        <ele>467</ele>
        <time>2026-05-10T07:35:15Z</time>
      </trkpt>
      <trkpt lat="42.95087" lon="1.04902">
        <ele>466.4</ele>
        <time>2026-05-10T07:35:16Z</time>
      </trkpt>
      <trkpt lat="42.95088" lon="1.04895">
        <ele>465.8</ele>
        <time>2026-05-10T07:35:17Z</time>
      </trkpt>
      <trkpt lat="42.95094" lon="1.04858">
        <ele>465.8</ele>
        <time>2026-05-10T07:35:22Z</time>
      </trkpt>
      <trkpt lat="42.95097" lon="1.04832">
        <ele>465.8</ele>
        <time>2026-05-10T07:35:27Z</time>
      </trkpt>
      <trkpt lat="42.95101" lon="1.04812">
        <ele>465.8</ele>
        <time>2026-05-10T07:35:31Z</time>
      </trkpt>
      <trkpt lat="42.951" lon="1.04783">
        <ele>465.8</ele>
        <time>2026-05-10T07:35:36Z</time>
      </trkpt>
      <trkpt lat="42.95097" lon="1.0475">
        <ele>465.8</ele>
        <time>2026-05-10T07:35:42Z</time>
      </trkpt>
      <trkpt lat="42.95091" lon="1.04727">
        <ele>465.8</ele>
        <time>2026-05-10T07:35:47Z</time>
      </trkpt>
      <trkpt lat="42.95086" lon="1.04719">
        <ele>465.8</ele>
        <time>2026-05-10T07:35:49Z</time>
      </trkpt>
      <trkpt lat="42.95079" lon="1.0471">
        <ele>465.8</ele>
        <time>2026-05-10T07:35:51Z</time>
      </trkpt>
      <trkpt lat="42.95071" lon="1.047">
        <ele>465.8</ele>
        <time>2026-05-10T07:35:53Z</time>
      </trkpt>
      <trkpt lat="42.95064" lon="1.04688">
        <ele>465.8</ele>
        <time>2026-05-10T07:35:55Z</time>
      </trkpt>
      <trkpt lat="42.95051" lon="1.04659">
        <ele>465.8</ele>
        <time>2026-05-10T07:36:00Z</time>
      </trkpt>
      <trkpt lat="42.9504" lon="1.04629">
        <ele>465.8</ele>
        <time>2026-05-10T07:36:05Z</time>
      </trkpt>
      <trkpt lat="42.95038" lon="1.04623">
        <ele>465.8</ele>
        <time>2026-05-10T07:36:06Z</time>
      </trkpt>
      <trkpt lat="42.95033" lon="1.04604">
        <ele>465.8</ele>
        <time>2026-05-10T07:36:09Z</time>
      </trkpt>
      <trkpt lat="42.95025" lon="1.04566">
        <ele>465.8</ele>
        <time>2026-05-10T07:36:15Z</time>
      </trkpt>
      <trkpt lat="42.95022" lon="1.0455">
        <ele>465.8</ele>
        <time>2026-05-10T07:36:18Z</time>
      </trkpt>
      <trkpt lat="42.9502" lon="1.04543">
        <ele>465.8</ele>
        <time>2026-05-10T07:36:19Z</time>
      </trkpt>
      <trkpt lat="42.95015" lon="1.04525">
        <ele>465.8</ele>
        <time>2026-05-10T07:36:22Z</time>
      </trkpt>
      <trkpt lat="42.95011" lon="1.04506">
        <ele>465.8</ele>
        <time>2026-05-10T07:36:25Z</time>
      </trkpt>
      <trkpt lat="42.95008" lon="1.04492">
        <ele>465.8</ele>
        <time>2026-05-10T07:36:27Z</time>
      </trkpt>
      <trkpt lat="42.95004" lon="1.04477">
        <ele>465.8</ele>
        <time>2026-05-10T07:36:29Z</time>
      </trkpt>
      <trkpt lat="42.94997" lon="1.04452">
        <ele>465.8</ele>
        <time>2026-05-10T07:36:33Z</time>
      </trkpt>
      <trkpt lat="42.94996" lon="1.04446">
        <ele>466.2</ele>
        <time>2026-05-10T07:36:34Z</time>
      </trkpt>
      <trkpt lat="42.94995" lon="1.0444">
        <ele>466.6</ele>
        <time>2026-05-10T07:36:35Z</time>
      </trkpt>
      <trkpt lat="42.94994" lon="1.04434">
        <ele>467</ele>
        <time>2026-05-10T07:36:36Z</time>
      </trkpt>
      <trkpt lat="42.94992" lon="1.04427">
        <ele>467.6</ele>
        <time>2026-05-10T07:36:37Z</time>
      </trkpt>
      <trkpt lat="42.9499" lon="1.0442">
        <ele>468</ele>
        <time>2026-05-10T07:36:38Z</time>
      </trkpt>
      <trkpt lat="42.94989" lon="1.04413">
        <ele>468</ele>
        <time>2026-05-10T07:36:39Z</time>
      </trkpt>
      <trkpt lat="42.94982" lon="1.04386">
        <ele>468</ele>
        <time>2026-05-10T07:36:44Z</time>
      </trkpt>
      <trkpt lat="42.94976" lon="1.04372">
        <ele>468</ele>
        <time>2026-05-10T07:36:47Z</time>
      </trkpt>
      <trkpt lat="42.94976" lon="1.04361">
        <ele>468</ele>
        <time>2026-05-10T07:36:49Z</time>
      </trkpt>
      <trkpt lat="42.94982" lon="1.04344">
        <ele>468</ele>
        <time>2026-05-10T07:36:53Z</time>
      </trkpt>
      <trkpt lat="42.94993" lon="1.04322">
        <ele>468</ele>
        <time>2026-05-10T07:36:58Z</time>
      </trkpt>
      <trkpt lat="42.95005" lon="1.04296">
        <ele>468</ele>
        <time>2026-05-10T07:37:04Z</time>
      </trkpt>
      <trkpt lat="42.95016" lon="1.04275">
        <ele>468</ele>
        <time>2026-05-10T07:37:10Z</time>
      </trkpt>
      <trkpt lat="42.95024" lon="1.0425">
        <ele>468</ele>
        <time>2026-05-10T07:37:16Z</time>
      </trkpt>
      <trkpt lat="42.95025" lon="1.04246">
        <ele>468.4</ele>
        <time>2026-05-10T07:37:17Z</time>
      </trkpt>
      <trkpt lat="42.95024" lon="1.04243">
        <ele>468.8</ele>
        <time>2026-05-10T07:37:18Z</time>
      </trkpt>
      <trkpt lat="42.95023" lon="1.0424">
        <ele>469.2</ele>
        <time>2026-05-10T07:37:19Z</time>
      </trkpt>
      <trkpt lat="42.95022" lon="1.04238">
        <ele>469.6</ele>
        <time>2026-05-10T07:37:20Z</time>
      </trkpt>
      <trkpt lat="42.95021" lon="1.04236">
        <ele>470</ele>
        <time>2026-05-10T07:37:21Z</time>
      </trkpt>
      <trkpt lat="42.95018" lon="1.04232">
        <ele>470</ele>
        <time>2026-05-10T07:37:25Z</time>
      </trkpt>
      <trkpt lat="42.95016" lon="1.04229">
        <ele>470</ele>
        <time>2026-05-10T07:38:01Z</time>
      </trkpt>
      <trkpt lat="42.95019" lon="1.0422">
        <ele>470</ele>
        <time>2026-05-10T07:38:06Z</time>
      </trkpt>
      <trkpt lat="42.95024" lon="1.04215">
        <ele>474.1</ele>
      </trkpt>
      <trkpt lat="42.95033" lon="1.04213">
        <ele>492</ele>
        <time>2026-03-22T10:57:30Z</time>
      </trkpt>
      <trkpt lat="42.95062" lon="1.04197">
        <ele>494</ele>
        <time>2026-03-22T10:57:45Z</time>
      </trkpt>
      <trkpt lat="42.9506" lon="1.04217">
        <ele>496</ele>
        <time>2026-03-22T10:57:59Z</time>
      </trkpt>
      <trkpt lat="42.9508" lon="1.04238">
        <ele>503.2</ele>
        <time>2026-03-22T10:58:17Z</time>
      </trkpt>
      <trkpt lat="42.95146" lon="1.04282">
        <ele>512.6</ele>
        <time>2026-03-22T10:58:56Z</time>
      </trkpt>
      <trkpt lat="42.95171" lon="1.04359">
        <ele>520.2</ele>
        <time>2026-03-22T10:59:29Z</time>
      </trkpt>
      <trkpt lat="42.95194" lon="1.04589">
        <ele>532</ele>
        <time>2026-03-22T11:00:22Z</time>
      </trkpt>
      <trkpt lat="42.95208" lon="1.04673">
        <ele>541.4</ele>
        <time>2026-03-22T11:00:50Z</time>
      </trkpt>
      <trkpt lat="42.95207" lon="1.0496">
        <ele>561.8</ele>
        <time>2026-03-22T11:02:01Z</time>
      </trkpt>
      <trkpt lat="42.95198" lon="1.04994">
        <ele>566.4</ele>
        <time>2026-03-22T11:02:10Z</time>
      </trkpt>
      <trkpt lat="42.95196" lon="1.05052">
        <ele>573</ele>
        <time>2026-03-22T11:02:29Z</time>
      </trkpt>
      <trkpt lat="42.95203" lon="1.05122">
        <ele>566.8</ele>
        <time>2026-03-22T11:03:43Z</time>
      </trkpt>
      <trkpt lat="42.95179" lon="1.0517">
        <ele>557.4</ele>
        <time>2026-03-22T11:04:01Z</time>
      </trkpt>
      <trkpt lat="42.95184" lon="1.05181">
        <ele>552.6</ele>
        <time>2026-03-22T11:04:18Z</time>
      </trkpt>
      <trkpt lat="42.95163" lon="1.05213">
        <ele>538.6</ele>
        <time>2026-03-22T11:04:43Z</time>
      </trkpt>
      <trkpt lat="42.95142" lon="1.05265">
        <ele>526.8</ele>
        <time>2026-03-22T11:05:39Z</time>
      </trkpt>
      <trkpt lat="42.95136" lon="1.05326">
        <ele>517.6</ele>
        <time>2026-03-22T11:05:55Z</time>
      </trkpt>
      <trkpt lat="42.95138" lon="1.05405">
        <ele>509.6</ele>
        <time>2026-03-22T11:06:28Z</time>
      </trkpt>
      <trkpt lat="42.95129" lon="1.05468">
        <ele>504.4</ele>
        <time>2026-03-22T11:06:37Z</time>
      </trkpt>
      <trkpt lat="42.95134" lon="1.05506">
        <ele>495.4</ele>
        <time>2026-03-22T11:06:45Z</time>
      </trkpt>
      <trkpt lat="42.95132" lon="1.05537">
        <ele>492.2</ele>
        <time>2026-03-22T11:06:49Z</time>
      </trkpt>
      <trkpt lat="42.95113" lon="1.05588">
        <ele>491</ele>
        <time>2026-03-22T11:06:55Z</time>
      </trkpt>
      <trkpt lat="42.95092" lon="1.05691">
        <ele>487.6</ele>
        <time>2026-03-22T11:07:09Z</time>
      </trkpt>
      <trkpt lat="42.95065" lon="1.05717">
        <ele>487.6</ele>
        <time>2026-03-22T11:07:16Z</time>
      </trkpt>
      <trkpt lat="42.9502" lon="1.05743">
        <ele>486.8</ele>
        <time>2026-03-22T11:07:23Z</time>
      </trkpt>
      <trkpt lat="42.95005" lon="1.05771">
        <ele>472.8</ele>
        <time>2026-05-10T08:38:37Z</time>
      </trkpt>
      <trkpt lat="42.94998" lon="1.0578">
        <ele>473.2</ele>
        <time>2026-05-10T08:38:39Z</time>
      </trkpt>
      <trkpt lat="42.94995" lon="1.05785">
        <ele>473.8</ele>
        <time>2026-05-10T08:38:40Z</time>
      </trkpt>
      <trkpt lat="42.94992" lon="1.0579">
        <ele>474.6</ele>
        <time>2026-05-10T08:38:41Z</time>
      </trkpt>
      <trkpt lat="42.94989" lon="1.05795">
        <ele>475</ele>
        <time>2026-05-10T08:38:42Z</time>
      </trkpt>
      <trkpt lat="42.94983" lon="1.05806">
        <ele>475.4</ele>
        <time>2026-05-10T08:38:44Z</time>
      </trkpt>
      <trkpt lat="42.94979" lon="1.05811">
        <ele>476</ele>
        <time>2026-05-10T08:38:45Z</time>
      </trkpt>
      <trkpt lat="42.94976" lon="1.05818">
        <ele>476.4</ele>
        <time>2026-05-10T08:38:46Z</time>
      </trkpt>
      <trkpt lat="42.94972" lon="1.05825">
        <ele>476.8</ele>
        <time>2026-05-10T08:38:47Z</time>
      </trkpt>
      <trkpt lat="42.94968" lon="1.05832">
        <ele>477.4</ele>
        <time>2026-05-10T08:38:48Z</time>
      </trkpt>
      <trkpt lat="42.94958" lon="1.05854">
        <ele>477.4</ele>
        <time>2026-05-10T08:38:51Z</time>
      </trkpt>
      <trkpt lat="42.94938" lon="1.0589">
        <ele>477.4</ele>
        <time>2026-05-10T08:38:57Z</time>
      </trkpt>
      <trkpt lat="42.94915" lon="1.05922">
        <ele>466.4</ele>
      </trkpt>
      <trkpt lat="42.94874" lon="1.05924">
        <ele>462.8</ele>
      </trkpt>
      <trkpt lat="42.94839" lon="1.05903">
        <ele>460.1</ele>
      </trkpt>
      <trkpt lat="42.94758" lon="1.05717">
        <ele>465.1</ele>
      </trkpt>
      <trkpt lat="42.94694" lon="1.05617">
        <ele>468.9</ele>
      </trkpt>
      <trkpt lat="42.9468" lon="1.05638">
        <ele>470.6</ele>
      </trkpt>
      <trkpt lat="42.9468" lon="1.05823">
        <ele>465.8</ele>
      </trkpt>
      <trkpt lat="42.94688" lon="1.05957">
        <ele>462.4</ele>
      </trkpt>
      <trkpt lat="42.94685" lon="1.05958">
        <ele>462.5</ele>
      </trkpt>
      <trkpt lat="42.94616" lon="1.05943">
        <ele>467.6</ele>
      </trkpt>
      <trkpt lat="42.94583" lon="1.05995">
        <ele>474.6</ele>
      </trkpt>
      <trkpt lat="42.94576" lon="1.05992">
        <ele>477.7</ele>
      </trkpt>
      <trkpt lat="42.94535" lon="1.06061">
        <ele>488.6</ele>
      </trkpt>
      <trkpt lat="42.94521" lon="1.06076">
        <ele>490.1</ele>
      </trkpt>
      <trkpt lat="42.94512" lon="1.06078">
        <ele>490.9</ele>
      </trkpt>
      <trkpt lat="42.9449" lon="1.06059">
        <ele>497.1</ele>
      </trkpt>
      <trkpt lat="42.94498" lon="1.06024">
        <ele>505.8</ele>
      </trkpt>
      <trkpt lat="42.94485" lon="1.05992">
        <ele>513.4</ele>
      </trkpt>
      <trkpt lat="42.94452" lon="1.06">
        <ele>511.8</ele>
      </trkpt>
      <trkpt lat="42.94409" lon="1.05991">
        <ele>509.5</ele>
      </trkpt>
      <trkpt lat="42.9438" lon="1.05993">
        <ele>507.4</ele>
      </trkpt>
      <trkpt lat="42.94374" lon="1.05999">
        <ele>504.8</ele>
      </trkpt>
      <trkpt lat="42.94377" lon="1.06008">
        <ele>502.7</ele>
      </trkpt>
      <trkpt lat="42.94387" lon="1.0601">
        <ele>501.9</ele>
      </trkpt>
      <trkpt lat="42.94386" lon="1.06011">
        <ele>501.7</ele>
      </trkpt>
      <trkpt lat="42.94331" lon="1.0602">
        <ele>500.8</ele>
      </trkpt>
      <trkpt lat="42.94305" lon="1.06014">
        <ele>503.5</ele>
      </trkpt>
      <trkpt lat="42.94281" lon="1.06015">
        <ele>503.8</ele>
      </trkpt>
      <trkpt lat="42.94243" lon="1.06031">
        <ele>504.7</ele>
      </trkpt>
      <trkpt lat="42.94198" lon="1.06043">
        <ele>504.3</ele>
      </trkpt>
      <trkpt lat="42.94163" lon="1.06047">
        <ele>505.5</ele>
      </trkpt>
      <trkpt lat="42.94125" lon="1.06039">
        <ele>510</ele>
      </trkpt>
      <trkpt lat="42.94076" lon="1.0606">
        <ele>510.8</ele>
      </trkpt>
      <trkpt lat="42.94033" lon="1.06067">
        <ele>512.3</ele>
      </trkpt>
      <trkpt lat="42.93996" lon="1.06062">
        <ele>513</ele>
      </trkpt>
      <trkpt lat="42.93951" lon="1.06045">
        <ele>513.7</ele>
      </trkpt>
      <trkpt lat="42.93942" lon="1.06059">
        <ele>511.6</ele>
      </trkpt>
      <trkpt lat="42.93932" lon="1.0613">
        <ele>517.5</ele>
      </trkpt>
      <trkpt lat="42.93911" lon="1.06169">
        <ele>515.1</ele>
      </trkpt>
      <trkpt lat="42.93903" lon="1.06176">
        <ele>516.8</ele>
      </trkpt>
      <trkpt lat="42.93896" lon="1.06196">
        <ele>518</ele>
      </trkpt>
      <trkpt lat="42.93918" lon="1.06238">
        <ele>524.4</ele>
      </trkpt>
      <trkpt lat="42.93924" lon="1.06258">
        <ele>526.7</ele>
      </trkpt>
      <trkpt lat="42.93922" lon="1.06261">
        <ele>526.8</ele>
      </trkpt>
      <trkpt lat="42.93898" lon="1.06276">
        <ele>530</ele>
      </trkpt>
      <trkpt lat="42.93865" lon="1.06341">
        <ele>531.1</ele>
      </trkpt>
      <trkpt lat="42.93856" lon="1.06371">
        <ele>530.3</ele>
      </trkpt>
      <trkpt lat="42.93833" lon="1.06397">
        <ele>530.9</ele>
      </trkpt>
      <trkpt lat="42.93817" lon="1.0643">
        <ele>531.7</ele>
      </trkpt>
      <trkpt lat="42.93815" lon="1.06448">
        <ele>530.9</ele>
      </trkpt>
      <trkpt lat="42.93824" lon="1.06466">
        <ele>532.1</ele>
      </trkpt>
      <trkpt lat="42.93812" lon="1.06474">
        <ele>532.5</ele>
      </trkpt>
      <trkpt lat="42.93771" lon="1.06505">
        <ele>536.6</ele>
      </trkpt>
      <trkpt lat="42.93746" lon="1.06514">
        <ele>538.5</ele>
      </trkpt>
      <trkpt lat="42.93723" lon="1.06544">
        <ele>543.4</ele>
      </trkpt>
      <trkpt lat="42.93699" lon="1.06566">
        <ele>547.3</ele>
      </trkpt>
      <trkpt lat="42.93665" lon="1.06619">
        <ele>553.2</ele>
      </trkpt>
      <trkpt lat="42.93606" lon="1.06651">
        <ele>561.7</ele>
      </trkpt>
      <trkpt lat="42.93579" lon="1.06659">
        <ele>565.2</ele>
      </trkpt>
      <trkpt lat="42.93546" lon="1.06653">
        <ele>567.3</ele>
      </trkpt>
      <trkpt lat="42.93517" lon="1.06667">
        <ele>570.6</ele>
      </trkpt>
      <trkpt lat="42.93472" lon="1.06668">
        <ele>573.3</ele>
      </trkpt>
      <trkpt lat="42.93441" lon="1.06688">
        <ele>577.6</ele>
      </trkpt>
      <trkpt lat="42.93424" lon="1.0671">
        <ele>581.3</ele>
      </trkpt>
      <trkpt lat="42.93366" lon="1.06756">
        <ele>589.3</ele>
      </trkpt>
      <trkpt lat="42.93354" lon="1.06781">
        <ele>594.3</ele>
      </trkpt>
      <trkpt lat="42.93353" lon="1.0681">
        <ele>599.3</ele>
      </trkpt>
      <trkpt lat="42.93346" lon="1.06832">
        <ele>602.3</ele>
      </trkpt>
      <trkpt lat="42.93358" lon="1.06836">
        <ele>603.5</ele>
      </trkpt>
      <trkpt lat="42.9339" lon="1.06818">
        <ele>602.8</ele>
      </trkpt>
      <trkpt lat="42.93394" lon="1.06886">
        <ele>617.9</ele>
      </trkpt>
      <trkpt lat="42.93375" lon="1.06899">
        <ele>619.2</ele>
      </trkpt>
      <trkpt lat="42.93377" lon="1.06905">
        <ele>620.6</ele>
      </trkpt>
      <trkpt lat="42.93404" lon="1.0691">
        <ele>624.7</ele>
      </trkpt>
      <trkpt lat="42.93418" lon="1.06908">
        <ele>625.1</ele>
      </trkpt>
      <trkpt lat="42.93457" lon="1.06929">
        <ele>632.4</ele>
      </trkpt>
      <trkpt lat="42.93472" lon="1.06929">
        <ele>633.2</ele>
      </trkpt>
      <trkpt lat="42.93477" lon="1.06942">
        <ele>636.1</ele>
      </trkpt>
      <trkpt lat="42.93442" lon="1.06981">
        <ele>644.4</ele>
      </trkpt>
      <trkpt lat="42.93426" lon="1.06992">
        <ele>645.6</ele>
      </trkpt>
      <trkpt lat="42.93423" lon="1.0701">
        <ele>649.5</ele>
      </trkpt>
      <trkpt lat="42.93479" lon="1.07049">
        <ele>654.8</ele>
      </trkpt>
      <trkpt lat="42.9348" lon="1.07089">
        <ele>659.6</ele>
      </trkpt>
      <trkpt lat="42.93517" lon="1.07177">
        <ele>664</ele>
      </trkpt>
      <trkpt lat="42.9355" lon="1.07179">
        <ele>657.7</ele>
      </trkpt>
      <trkpt lat="42.93615" lon="1.07202">
        <ele>659</ele>
      </trkpt>
      <trkpt lat="42.9365" lon="1.07245">
        <ele>669.7</ele>
      </trkpt>
      <trkpt lat="42.93683" lon="1.0727">
        <ele>674.9</ele>
      </trkpt>
      <trkpt lat="42.93716" lon="1.07278">
        <ele>673.6</ele>
      </trkpt>
      <trkpt lat="42.9374" lon="1.07273">
        <ele>673.7</ele>
      </trkpt>
      <trkpt lat="42.93797" lon="1.07221">
        <ele>677.4</ele>
      </trkpt>
      <trkpt lat="42.93823" lon="1.07211">
        <ele>677.2</ele>
      </trkpt>
      <trkpt lat="42.93851" lon="1.07224">
        <ele>680.8</ele>
      </trkpt>
      <trkpt lat="42.93883" lon="1.07253">
        <ele>683.6</ele>
      </trkpt>
      <trkpt lat="42.93914" lon="1.07292">
        <ele>688.1</ele>
      </trkpt>
      <trkpt lat="42.93927" lon="1.07302">
        <ele>687.8</ele>
      </trkpt>
      <trkpt lat="42.93947" lon="1.0731">
        <ele>685</ele>
      </trkpt>
      <trkpt lat="42.93957" lon="1.07309">
        <ele>685.9</ele>
      </trkpt>
      <trkpt lat="42.93973" lon="1.07296">
        <ele>685.7</ele>
      </trkpt>
      <trkpt lat="42.9398" lon="1.07282">
        <ele>686.4</ele>
      </trkpt>
      <trkpt lat="42.93983" lon="1.07262">
        <ele>685.1</ele>
      </trkpt>
      <trkpt lat="42.93984" lon="1.07234">
        <ele>681.6</ele>
      </trkpt>
      <trkpt lat="42.93982" lon="1.0719">
        <ele>674.6</ele>
      </trkpt>
      <trkpt lat="42.93976" lon="1.07145">
        <ele>671.7</ele>
      </trkpt>
      <trkpt lat="42.9395" lon="1.07072">
        <ele>657.3</ele>
      </trkpt>
      <trkpt lat="42.93954" lon="1.07012">
        <ele>651.9</ele>
      </trkpt>
      <trkpt lat="42.93965" lon="1.06979">
        <ele>650.9</ele>
      </trkpt>
      <trkpt lat="42.93962" lon="1.0697">
        <ele>647.3</ele>
      </trkpt>
      <trkpt lat="42.9399" lon="1.06873">
        <ele>636.7</ele>
      </trkpt>
      <trkpt lat="42.93986" lon="1.06842">
        <ele>627.7</ele>
      </trkpt>
      <trkpt lat="42.94018" lon="1.06725">
        <ele>611.1</ele>
      </trkpt>
      <trkpt lat="42.94028" lon="1.06703">
        <ele>608.4</ele>
      </trkpt>
      <trkpt lat="42.9403" lon="1.06684">
        <ele>603.6</ele>
      </trkpt>
      <trkpt lat="42.94077" lon="1.06596">
        <ele>585.6</ele>
      </trkpt>
      <trkpt lat="42.94136" lon="1.06513">
        <ele>570.1</ele>
      </trkpt>
      <trkpt lat="42.94131" lon="1.06501">
        <ele>566.6</ele>
      </trkpt>
      <trkpt lat="42.94115" lon="1.06493">
        <ele>563.3</ele>
      </trkpt>
      <trkpt lat="42.94052" lon="1.06524">
        <ele>555.5</ele>
      </trkpt>
      <trkpt lat="42.94003" lon="1.06531">
        <ele>547.5</ele>
      </trkpt>
      <trkpt lat="42.93982" lon="1.06516">
        <ele>541</ele>
      </trkpt>
      <trkpt lat="42.93954" lon="1.06522">
        <ele>537.2</ele>
      </trkpt>
      <trkpt lat="42.93891" lon="1.06521">
        <ele>531.6</ele>
      </trkpt>
      <trkpt lat="42.93891" lon="1.06508">
        <ele>530.6</ele>
      </trkpt>
      <trkpt lat="42.93895" lon="1.06502">
        <ele>530.2</ele>
      </trkpt>
      <trkpt lat="42.9389" lon="1.06468">
        <ele>528.8</ele>
      </trkpt>
      <trkpt lat="42.93908" lon="1.06456">
        <ele>527.7</ele>
      </trkpt>
      <trkpt lat="42.93934" lon="1.06417">
        <ele>524.8</ele>
      </trkpt>
      <trkpt lat="42.93955" lon="1.06396">
        <ele>523.1</ele>
      </trkpt>
      <trkpt lat="42.94005" lon="1.06379">
        <ele>518.8</ele>
      </trkpt>
      <trkpt lat="42.94032" lon="1.06355">
        <ele>516</ele>
      </trkpt>
      <trkpt lat="42.94086" lon="1.06277">
        <ele>508.9</ele>
      </trkpt>
      <trkpt lat="42.94118" lon="1.06245">
        <ele>506.6</ele>
      </trkpt>
      <trkpt lat="42.94135" lon="1.06236">
        <ele>505.6</ele>
      </trkpt>
      <trkpt lat="42.94216" lon="1.0623">
        <ele>500.8</ele>
      </trkpt>
      <trkpt lat="42.94234" lon="1.06221">
        <ele>498.7</ele>
      </trkpt>
      <trkpt lat="42.94299" lon="1.06147">
        <ele>487.2</ele>
      </trkpt>
      <trkpt lat="42.94315" lon="1.06165">
        <ele>487.8</ele>
      </trkpt>
      <trkpt lat="42.94335" lon="1.06212">
        <ele>490</ele>
      </trkpt>
      <trkpt lat="42.94475" lon="1.06339">
        <ele>481.7</ele>
      </trkpt>
      <trkpt lat="42.94549" lon="1.06477">
        <ele>470.8</ele>
      </trkpt>
      <trkpt lat="42.94572" lon="1.06487">
        <ele>465.9</ele>
      </trkpt>
      <trkpt lat="42.94634" lon="1.06483">
        <ele>459.1</ele>
      </trkpt>
      <trkpt lat="42.94662" lon="1.06496">
        <ele>457.3</ele>
      </trkpt>
      <trkpt lat="42.94693" lon="1.06502">
        <ele>455.1</ele>
      </trkpt>
      <trkpt lat="42.94684" lon="1.06587">
        <ele>456.5</ele>
      </trkpt>
      <trkpt lat="42.94633" lon="1.06612">
        <ele>458.2</ele>
      </trkpt>
      <trkpt lat="42.94627" lon="1.06636">
        <ele>458.1</ele>
      </trkpt>
      <trkpt lat="42.94632" lon="1.06728">
        <ele>457</ele>
      </trkpt>
      <trkpt lat="42.94634" lon="1.06762">
        <ele>456.6</ele>
      </trkpt>
      <trkpt lat="42.94672" lon="1.06882">
        <ele>453.8</ele>
      </trkpt>
      <trkpt lat="42.94685" lon="1.0702">
        <ele>452.9</ele>
      </trkpt>
      <trkpt lat="42.9474" lon="1.07316">
        <ele>451.6</ele>
      </trkpt>
      <trkpt lat="42.94764" lon="1.07383">
        <ele>450.6</ele>
      </trkpt>
      <trkpt lat="42.94778" lon="1.07407">
        <ele>450.8</ele>
      </trkpt>
      <trkpt lat="42.94826" lon="1.07456">
        <ele>448.7</ele>
      </trkpt>
      <trkpt lat="42.949" lon="1.0759">
        <ele>446.8</ele>
      </trkpt>
      <trkpt lat="42.94951" lon="1.07662">
        <ele>445.3</ele>
      </trkpt>
      <trkpt lat="42.94961" lon="1.07686">
        <ele>444.8</ele>
      </trkpt>
      <trkpt lat="42.94976" lon="1.07822">
        <ele>445.8</ele>
      </trkpt>
      <trkpt lat="42.94998" lon="1.07866">
        <ele>444</ele>
      </trkpt>
      <trkpt lat="42.95036" lon="1.07919">
        <ele>444.6</ele>
      </trkpt>
      <trkpt lat="42.95078" lon="1.07964">
        <ele>444</ele>
      </trkpt>
      <trkpt lat="42.95168" lon="1.0812">
        <ele>448.8</ele>
      </trkpt>
      <trkpt lat="42.95178" lon="1.08243">
        <ele>456.4</ele>
      </trkpt>
      <trkpt lat="42.9519" lon="1.08284">
        <ele>455.9</ele>
      </trkpt>
      <trkpt lat="42.95234" lon="1.08363">
        <ele>453.7</ele>
      </trkpt>
      <trkpt lat="42.95253" lon="1.08411">
        <ele>449.9</ele>
      </trkpt>
      <trkpt lat="42.95255" lon="1.08448">
        <ele>447.7</ele>
      </trkpt>
      <trkpt lat="42.95271" lon="1.08493">
        <ele>446.6</ele>
      </trkpt>
      <trkpt lat="42.95281" lon="1.08496">
        <ele>446.9</ele>
      </trkpt>
      <trkpt lat="42.953" lon="1.08494">
        <ele>447</ele>
      </trkpt>
      <trkpt lat="42.95323" lon="1.08485">
        <ele>447.6</ele>
      </trkpt>
      <trkpt lat="42.95346" lon="1.08469">
        <ele>446</ele>
      </trkpt>
      <trkpt lat="42.95384" lon="1.08489">
        <ele>451.2</ele>
      </trkpt>
      <trkpt lat="42.95459" lon="1.08551">
        <ele>448.1</ele>
      </trkpt>
      <trkpt lat="42.95481" lon="1.08581">
        <ele>445.7</ele>
      </trkpt>
      <trkpt lat="42.95491" lon="1.08585">
        <ele>444.4</ele>
      </trkpt>
      <trkpt lat="42.95508" lon="1.08583">
        <ele>442.4</ele>
      </trkpt>
      <trkpt lat="42.95591" lon="1.08663">
        <ele>440.9</ele>
      </trkpt>
      <trkpt lat="42.95608" lon="1.08687">
        <ele>439.6</ele>
      </trkpt>
      <trkpt lat="42.95624" lon="1.08694">
        <ele>438.1</ele>
      </trkpt>
      <trkpt lat="42.95637" lon="1.08685">
        <ele>437.1</ele>
      </trkpt>
      <trkpt lat="42.95667" lon="1.08649">
        <ele>436</ele>
      </trkpt>
      <trkpt lat="42.95714" lon="1.08592">
        <ele>435.7</ele>
      </trkpt>
      <trkpt lat="42.95725" lon="1.08595">
        <ele>435.4</ele>
      </trkpt>
      <trkpt lat="42.95815" lon="1.08672">
        <ele>435.4</ele>
      </trkpt>
      <trkpt lat="42.95821" lon="1.08682">
        <ele>435.5</ele>
      </trkpt>
      <trkpt lat="42.95829" lon="1.08692">
        <ele>435.2</ele>
      </trkpt>
      <trkpt lat="42.95837" lon="1.08708">
        <ele>435</ele>
      </trkpt>
      <trkpt lat="42.95846" lon="1.08728">
        <ele>435</ele>
      </trkpt>
      <trkpt lat="42.95855" lon="1.08743">
        <ele>435</ele>
      </trkpt>
      <trkpt lat="42.95856" lon="1.08745">
        <ele>435</ele>
      </trkpt>
      <trkpt lat="42.95861" lon="1.08751">
        <ele>428.6</ele>
        <time>2026-06-14T08:54:14Z</time>
      </trkpt>
      <trkpt lat="42.95864" lon="1.08762">
        <ele>428.6</ele>
        <time>2026-06-14T08:54:16Z</time>
      </trkpt>
      <trkpt lat="42.95863" lon="1.08779">
        <ele>428.6</ele>
        <time>2026-06-14T08:54:19Z</time>
      </trkpt>
      <trkpt lat="42.95862" lon="1.08785">
        <ele>428.6</ele>
        <time>2026-06-14T08:54:20Z</time>
      </trkpt>
      <trkpt lat="42.95857" lon="1.08831">
        <ele>428.6</ele>
        <time>2026-06-14T08:54:27Z</time>
      </trkpt>
      <trkpt lat="42.95853" lon="1.08878">
        <ele>428.6</ele>
        <time>2026-06-14T08:54:34Z</time>
      </trkpt>
      <trkpt lat="42.95851" lon="1.08938">
        <ele>428.6</ele>
        <time>2026-06-14T08:54:43Z</time>
      </trkpt>
      <trkpt lat="42.95859" lon="1.0897">
        <ele>428.6</ele>
        <time>2026-06-14T08:54:48Z</time>
      </trkpt>
      <trkpt lat="42.95874" lon="1.09012">
        <ele>428.6</ele>
        <time>2026-06-14T08:54:55Z</time>
      </trkpt>
      <trkpt lat="42.95877" lon="1.09025">
        <ele>428.6</ele>
        <time>2026-06-14T08:54:57Z</time>
      </trkpt>
      <trkpt lat="42.95884" lon="1.09042">
        <ele>428.6</ele>
        <time>2026-06-14T08:55:00Z</time>
      </trkpt>
      <trkpt lat="42.95896" lon="1.09081">
        <ele>428.6</ele>
        <time>2026-06-14T08:55:08Z</time>
      </trkpt>
      <trkpt lat="42.95896" lon="1.09086">
        <ele>428.6</ele>
        <time>2026-06-14T08:55:09Z</time>
      </trkpt>
      <trkpt lat="42.95899" lon="1.09102">
        <ele>429.2</ele>
        <time>2026-06-14T08:55:12Z</time>
      </trkpt>
      <trkpt lat="42.959" lon="1.09107">
        <ele>430</ele>
        <time>2026-06-14T08:55:13Z</time>
      </trkpt>
      <trkpt lat="42.95901" lon="1.09112">
        <ele>430.6</ele>
        <time>2026-06-14T08:55:14Z</time>
      </trkpt>
      <trkpt lat="42.95903" lon="1.09117">
        <ele>431</ele>
        <time>2026-06-14T08:55:15Z</time>
      </trkpt>
      <trkpt lat="42.95908" lon="1.09128">
        <ele>431</ele>
        <time>2026-06-14T08:55:17Z</time>
      </trkpt>
      <trkpt lat="42.95911" lon="1.09135">
        <ele>431</ele>
        <time>2026-06-14T08:55:18Z</time>
      </trkpt>
      <trkpt lat="42.95919" lon="1.09157">
        <ele>431</ele>
        <time>2026-06-14T08:55:21Z</time>
      </trkpt>
      <trkpt lat="42.95926" lon="1.09172">
        <ele>431</ele>
        <time>2026-06-14T08:55:23Z</time>
      </trkpt>
      <trkpt lat="42.95937" lon="1.09193">
        <ele>431</ele>
        <time>2026-06-14T08:55:26Z</time>
      </trkpt>
      <trkpt lat="42.9594" lon="1.09197">
        <ele>431</ele>
        <time>2026-06-14T08:55:27Z</time>
      </trkpt>
      <trkpt lat="42.95943" lon="1.09199">
        <ele>430.6</ele>
        <time>2026-06-14T08:55:28Z</time>
      </trkpt>
      <trkpt lat="42.95946" lon="1.09199">
        <ele>430</ele>
        <time>2026-06-14T08:55:29Z</time>
      </trkpt>
      <trkpt lat="42.95949" lon="1.09195">
        <ele>429.6</ele>
        <time>2026-06-14T08:55:30Z</time>
      </trkpt>
      <trkpt lat="42.95951" lon="1.0919">
        <ele>429</ele>
        <time>2026-06-14T08:55:31Z</time>
      </trkpt>
      <trkpt lat="42.95953" lon="1.09185">
        <ele>428.6</ele>
        <time>2026-06-14T08:55:32Z</time>
      </trkpt>
      <trkpt lat="42.95956" lon="1.09181">
        <ele>428.2</ele>
        <time>2026-06-14T08:55:33Z</time>
      </trkpt>
      <trkpt lat="42.95959" lon="1.09177">
        <ele>427.8</ele>
        <time>2026-06-14T08:55:34Z</time>
      </trkpt>
      <trkpt lat="42.95963" lon="1.09172">
        <ele>427.4</ele>
        <time>2026-06-14T08:55:35Z</time>
      </trkpt>
      <trkpt lat="42.95968" lon="1.09168">
        <ele>427</ele>
        <time>2026-06-14T08:55:36Z</time>
      </trkpt>
      <trkpt lat="42.95974" lon="1.09165">
        <ele>426.6</ele>
        <time>2026-06-14T08:55:37Z</time>
      </trkpt>
      <trkpt lat="42.95985" lon="1.09157">
        <ele>426.2</ele>
        <time>2026-06-14T08:55:39Z</time>
      </trkpt>
      <trkpt lat="42.9599" lon="1.09154">
        <ele>425.8</ele>
        <time>2026-06-14T08:55:40Z</time>
      </trkpt>
      <trkpt lat="42.95996" lon="1.0915">
        <ele>425.4</ele>
        <time>2026-06-14T08:55:41Z</time>
      </trkpt>
      <trkpt lat="42.96002" lon="1.09146">
        <ele>425</ele>
        <time>2026-06-14T08:55:42Z</time>
      </trkpt>
      <trkpt lat="42.96008" lon="1.09143">
        <ele>424.6</ele>
        <time>2026-06-14T08:55:43Z</time>
      </trkpt>
      <trkpt lat="42.96023" lon="1.09133">
        <ele>424.6</ele>
        <time>2026-06-14T08:55:46Z</time>
      </trkpt>
      <trkpt lat="42.96044" lon="1.09122">
        <ele>424.6</ele>
        <time>2026-06-14T08:55:50Z</time>
      </trkpt>
      <trkpt lat="42.96048" lon="1.09121">
        <ele>424.6</ele>
        <time>2026-06-14T08:55:51Z</time>
      </trkpt>
      <trkpt lat="42.96054" lon="1.09126">
        <ele>424</ele>
        <time>2026-06-14T08:55:53Z</time>
      </trkpt>
      <trkpt lat="42.96056" lon="1.09131">
        <ele>423.6</ele>
        <time>2026-06-14T08:55:54Z</time>
      </trkpt>
      <trkpt lat="42.96058" lon="1.09135">
        <ele>423.2</ele>
        <time>2026-06-14T08:55:55Z</time>
      </trkpt>
      <trkpt lat="42.96059" lon="1.0914">
        <ele>422.8</ele>
        <time>2026-06-14T08:55:56Z</time>
      </trkpt>
      <trkpt lat="42.96061" lon="1.09145">
        <ele>422.4</ele>
        <time>2026-06-14T08:55:57Z</time>
      </trkpt>
      <trkpt lat="42.96062" lon="1.09151">
        <ele>422.4</ele>
        <time>2026-06-14T08:55:58Z</time>
      </trkpt>
      <trkpt lat="42.96065" lon="1.0918">
        <ele>422.4</ele>
        <time>2026-06-14T08:56:03Z</time>
      </trkpt>
      <trkpt lat="42.9606" lon="1.09314">
        <ele>428.3</ele>
      </trkpt>
      <trkpt lat="42.96068" lon="1.09497">
        <ele>426.3</ele>
      </trkpt>
      <trkpt lat="42.96091" lon="1.09604">
        <ele>426.2</ele>
      </trkpt>
      <trkpt lat="42.96137" lon="1.09723">
        <ele>424.5</ele>
      </trkpt>
      <trkpt lat="42.96283" lon="1.09949">
        <ele>422.4</ele>
      </trkpt>
      <trkpt lat="42.96292" lon="1.09974">
        <ele>421.5</ele>
      </trkpt>
      <trkpt lat="42.963" lon="1.10119">
        <ele>421.2</ele>
      </trkpt>
      <trkpt lat="42.9632" lon="1.10152">
        <ele>423.7</ele>
      </trkpt>
      <trkpt lat="42.96328" lon="1.10154">
        <ele>422.1</ele>
      </trkpt>
      <trkpt lat="42.96368" lon="1.10227">
        <ele>425.4</ele>
      </trkpt>
      <trkpt lat="42.96397" lon="1.10255">
        <ele>422.7</ele>
      </trkpt>
      <trkpt lat="42.96422" lon="1.10309">
        <ele>423.8</ele>
      </trkpt>
      <trkpt lat="42.96439" lon="1.10379">
        <ele>426.2</ele>
      </trkpt>
      <trkpt lat="42.96454" lon="1.1042">
        <ele>428.2</ele>
        <time>2026-05-10T08:57:11Z</time>
      </trkpt>
      <trkpt lat="42.96456" lon="1.10424">
        <ele>428.6</ele>
        <time>2026-05-10T08:57:12Z</time>
      </trkpt>
      <trkpt lat="42.96457" lon="1.10429">
        <ele>429</ele>
        <time>2026-05-10T08:57:13Z</time>
      </trkpt>
      <trkpt lat="42.96459" lon="1.10433">
        <ele>429.4</ele>
        <time>2026-05-10T08:57:14Z</time>
      </trkpt>
      <trkpt lat="42.9646" lon="1.10438">
        <ele>429.8</ele>
        <time>2026-05-10T08:57:15Z</time>
      </trkpt>
      <trkpt lat="42.96467" lon="1.10459">
        <ele>429.8</ele>
        <time>2026-05-10T08:57:20Z</time>
      </trkpt>
      <trkpt lat="42.96471" lon="1.10476">
        <ele>430.2</ele>
        <time>2026-05-10T08:57:25Z</time>
      </trkpt>
      <trkpt lat="42.96473" lon="1.1048">
        <ele>430.6</ele>
        <time>2026-05-10T08:57:26Z</time>
      </trkpt>
      <trkpt lat="42.96475" lon="1.10484">
        <ele>431</ele>
        <time>2026-05-10T08:57:27Z</time>
      </trkpt>
      <trkpt lat="42.96477" lon="1.10489">
        <ele>431.4</ele>
        <time>2026-05-10T08:57:28Z</time>
      </trkpt>
      <trkpt lat="42.96479" lon="1.10494">
        <ele>432</ele>
        <time>2026-05-10T08:57:29Z</time>
      </trkpt>
      <trkpt lat="42.96482" lon="1.10504">
        <ele>432</ele>
        <time>2026-05-10T08:57:31Z</time>
      </trkpt>
      <trkpt lat="42.96493" lon="1.10538">
        <ele>431.4</ele>
        <time>2026-05-10T08:57:36Z</time>
      </trkpt>
      <trkpt lat="42.96495" lon="1.10546">
        <ele>431</ele>
        <time>2026-05-10T08:57:37Z</time>
      </trkpt>
      <trkpt lat="42.96498" lon="1.10555">
        <ele>430.6</ele>
        <time>2026-05-10T08:57:38Z</time>
      </trkpt>
      <trkpt lat="42.965" lon="1.10563">
        <ele>430.2</ele>
        <time>2026-05-10T08:57:39Z</time>
      </trkpt>
      <trkpt lat="42.96502" lon="1.1057">
        <ele>429.8</ele>
        <time>2026-05-10T08:57:40Z</time>
      </trkpt>
      <trkpt lat="42.96506" lon="1.10588">
        <ele>429.4</ele>
        <time>2026-05-10T08:57:42Z</time>
      </trkpt>
      <trkpt lat="42.96507" lon="1.10596">
        <ele>429</ele>
        <time>2026-05-10T08:57:43Z</time>
      </trkpt>
      <trkpt lat="42.96509" lon="1.10604">
        <ele>428.4</ele>
        <time>2026-05-10T08:57:44Z</time>
      </trkpt>
      <trkpt lat="42.96511" lon="1.10612">
        <ele>428</ele>
        <time>2026-05-10T08:57:45Z</time>
      </trkpt>
      <trkpt lat="42.96513" lon="1.10619">
        <ele>427.6</ele>
        <time>2026-05-10T08:57:46Z</time>
      </trkpt>
      <trkpt lat="42.96515" lon="1.10628">
        <ele>427.6</ele>
        <time>2026-05-10T08:57:48Z</time>
      </trkpt>
      <trkpt lat="42.96515" lon="1.10629">
        <ele>427.6</ele>
        <time>2026-05-10T08:57:50Z</time>
      </trkpt>
      <trkpt lat="42.96515" lon="1.10633">
        <ele>427.6</ele>
        <time>2026-05-10T08:57:53Z</time>
      </trkpt>
      <trkpt lat="42.96519" lon="1.10645">
        <ele>427.6</ele>
        <time>2026-05-10T08:57:55Z</time>
      </trkpt>
      <trkpt lat="42.96521" lon="1.10652">
        <ele>427.6</ele>
        <time>2026-05-10T08:57:56Z</time>
      </trkpt>
      <trkpt lat="42.96528" lon="1.10675">
        <ele>427.6</ele>
        <time>2026-05-10T08:57:59Z</time>
      </trkpt>
      <trkpt lat="42.96533" lon="1.10691">
        <ele>427.6</ele>
        <time>2026-05-10T08:58:01Z</time>
      </trkpt>
      <trkpt lat="42.96543" lon="1.10724">
        <ele>427.6</ele>
        <time>2026-05-10T08:58:06Z</time>
      </trkpt>
      <trkpt lat="42.96547" lon="1.10737">
        <ele>427.6</ele>
        <time>2026-05-10T08:58:08Z</time>
      </trkpt>
      <trkpt lat="42.96552" lon="1.1075">
        <ele>427.6</ele>
        <time>2026-05-10T08:58:10Z</time>
      </trkpt>
      <trkpt lat="42.96555" lon="1.10764">
        <ele>427.6</ele>
        <time>2026-05-10T08:58:12Z</time>
      </trkpt>
      <trkpt lat="42.96556" lon="1.10771">
        <ele>428</ele>
        <time>2026-05-10T08:58:13Z</time>
      </trkpt>
      <trkpt lat="42.96554" lon="1.10778">
        <ele>428.4</ele>
        <time>2026-05-10T08:58:14Z</time>
      </trkpt>
      <trkpt lat="42.96552" lon="1.10784">
        <ele>429</ele>
        <time>2026-05-10T08:58:15Z</time>
      </trkpt>
      <trkpt lat="42.9655" lon="1.10789">
        <ele>429.4</ele>
        <time>2026-05-10T08:58:16Z</time>
      </trkpt>
      <trkpt lat="42.96548" lon="1.10794">
        <ele>429.8</ele>
        <time>2026-05-10T08:58:17Z</time>
      </trkpt>
      <trkpt lat="42.96547" lon="1.108">
        <ele>429.8</ele>
        <time>2026-05-10T08:58:18Z</time>
      </trkpt>
      <trkpt lat="42.96545" lon="1.10804">
        <ele>430.2</ele>
        <time>2026-05-10T08:58:19Z</time>
      </trkpt>
      <trkpt lat="42.96544" lon="1.10806">
        <ele>430.6</ele>
        <time>2026-05-10T08:58:20Z</time>
      </trkpt>
      <trkpt lat="42.96543" lon="1.10808">
        <ele>431.2</ele>
        <time>2026-05-10T08:58:21Z</time>
      </trkpt>
      <trkpt lat="42.96542" lon="1.1081">
        <ele>431.6</ele>
        <time>2026-05-10T08:58:22Z</time>
      </trkpt>
      <trkpt lat="42.9654" lon="1.10811">
        <ele>432</ele>
        <time>2026-05-10T08:58:23Z</time>
      </trkpt>
      <trkpt lat="42.96537" lon="1.10816">
        <ele>432</ele>
        <time>2026-05-10T08:58:25Z</time>
      </trkpt>
      <trkpt lat="42.96535" lon="1.10817">
        <ele>432.4</ele>
        <time>2026-05-10T08:58:26Z</time>
      </trkpt>
      <trkpt lat="42.96534" lon="1.10819">
        <ele>432.8</ele>
        <time>2026-05-10T08:58:27Z</time>
      </trkpt>
      <trkpt lat="42.96533" lon="1.10821">
        <ele>433.2</ele>
        <time>2026-05-10T08:58:28Z</time>
      </trkpt>
      <trkpt lat="42.96533" lon="1.10823">
        <ele>434.2</ele>
        <time>2026-05-10T08:58:29Z</time>
      </trkpt>
      <trkpt lat="42.96534" lon="1.10826">
        <ele>434.8</ele>
        <time>2026-05-10T08:58:30Z</time>
      </trkpt>
      <trkpt lat="42.96536" lon="1.10828">
        <ele>435.4</ele>
        <time>2026-05-10T08:58:31Z</time>
      </trkpt>
      <trkpt lat="42.96538" lon="1.10831">
        <ele>436</ele>
        <time>2026-05-10T08:58:32Z</time>
      </trkpt>
      <trkpt lat="42.96539" lon="1.10833">
        <ele>436.4</ele>
        <time>2026-05-10T08:58:33Z</time>
      </trkpt>
      <trkpt lat="42.9654" lon="1.10836">
        <ele>436.4</ele>
        <time>2026-05-10T08:58:35Z</time>
      </trkpt>
      <trkpt lat="42.96541" lon="1.10841">
        <ele>436.4</ele>
        <time>2026-05-10T08:58:38Z</time>
      </trkpt>
      <trkpt lat="42.96541" lon="1.10848">
        <ele>437</ele>
        <time>2026-05-10T08:58:41Z</time>
      </trkpt>
      <trkpt lat="42.9654" lon="1.1085">
        <ele>437.4</ele>
        <time>2026-05-10T08:58:42Z</time>
      </trkpt>
      <trkpt lat="42.96539" lon="1.10853">
        <ele>437.8</ele>
        <time>2026-05-10T08:58:43Z</time>
      </trkpt>
      <trkpt lat="42.96539" lon="1.10855">
        <ele>438.2</ele>
        <time>2026-05-10T08:58:44Z</time>
      </trkpt>
      <trkpt lat="42.96538" lon="1.10856">
        <ele>438.6</ele>
        <time>2026-05-10T08:58:45Z</time>
      </trkpt>
      <trkpt lat="42.96535" lon="1.1086">
        <ele>439</ele>
        <time>2026-05-10T08:58:48Z</time>
      </trkpt>
      <trkpt lat="42.96535" lon="1.10861">
        <ele>439.4</ele>
        <time>2026-05-10T08:58:49Z</time>
      </trkpt>
      <trkpt lat="42.96535" lon="1.10863">
        <ele>439.8</ele>
        <time>2026-05-10T08:58:50Z</time>
      </trkpt>
      <trkpt lat="42.96535" lon="1.10865">
        <ele>440.2</ele>
        <time>2026-05-10T08:58:51Z</time>
      </trkpt>
      <trkpt lat="42.96536" lon="1.10867">
        <ele>440.6</ele>
        <time>2026-05-10T08:58:52Z</time>
      </trkpt>
      <trkpt lat="42.96538" lon="1.1087">
        <ele>441.2</ele>
        <time>2026-05-10T08:58:54Z</time>
      </trkpt>
      <trkpt lat="42.96539" lon="1.10871">
        <ele>441.6</ele>
        <time>2026-05-10T08:58:55Z</time>
      </trkpt>
      <trkpt lat="42.9654" lon="1.10872">
        <ele>442</ele>
        <time>2026-05-10T08:58:56Z</time>
      </trkpt>
      <trkpt lat="42.96541" lon="1.10874">
        <ele>442.6</ele>
        <time>2026-05-10T08:58:57Z</time>
      </trkpt>
      <trkpt lat="42.96542" lon="1.10875">
        <ele>443</ele>
        <time>2026-05-10T08:58:58Z</time>
      </trkpt>
      <trkpt lat="42.96542" lon="1.10877">
        <ele>443.4</ele>
        <time>2026-05-10T08:58:59Z</time>
      </trkpt>
      <trkpt lat="42.96542" lon="1.10878">
        <ele>444</ele>
        <time>2026-05-10T08:59:00Z</time>
      </trkpt>
      <trkpt lat="42.96543" lon="1.1088">
        <ele>444.4</ele>
        <time>2026-05-10T08:59:01Z</time>
      </trkpt>
      <trkpt lat="42.96543" lon="1.10882">
        <ele>445</ele>
        <time>2026-05-10T08:59:02Z</time>
      </trkpt>
      <trkpt lat="42.96545" lon="1.10884">
        <ele>445.4</ele>
        <time>2026-05-10T08:59:03Z</time>
      </trkpt>
      <trkpt lat="42.96546" lon="1.10886">
        <ele>445.8</ele>
        <time>2026-05-10T08:59:04Z</time>
      </trkpt>
      <trkpt lat="42.96548" lon="1.10889">
        <ele>446.4</ele>
        <time>2026-05-10T08:59:05Z</time>
      </trkpt>
      <trkpt lat="42.96549" lon="1.10892">
        <ele>446.8</ele>
        <time>2026-05-10T08:59:06Z</time>
      </trkpt>
      <trkpt lat="42.96551" lon="1.10894">
        <ele>447.2</ele>
        <time>2026-05-10T08:59:07Z</time>
      </trkpt>
      <trkpt lat="42.96552" lon="1.10897">
        <ele>447.6</ele>
        <time>2026-05-10T08:59:08Z</time>
      </trkpt>
      <trkpt lat="42.96553" lon="1.109">
        <ele>448.2</ele>
        <time>2026-05-10T08:59:09Z</time>
      </trkpt>
      <trkpt lat="42.96554" lon="1.10901">
        <ele>448.6</ele>
        <time>2026-05-10T08:59:10Z</time>
      </trkpt>
      <trkpt lat="42.96554" lon="1.10904">
        <ele>449</ele>
        <time>2026-05-10T08:59:11Z</time>
      </trkpt>
      <trkpt lat="42.96555" lon="1.10906">
        <ele>449.6</ele>
        <time>2026-05-10T08:59:12Z</time>
      </trkpt>
      <trkpt lat="42.96556" lon="1.10908">
        <ele>450</ele>
        <time>2026-05-10T08:59:13Z</time>
      </trkpt>
      <trkpt lat="42.96557" lon="1.10909">
        <ele>450.6</ele>
        <time>2026-05-10T08:59:14Z</time>
      </trkpt>
      <trkpt lat="42.96559" lon="1.10911">
        <ele>451</ele>
        <time>2026-05-10T08:59:15Z</time>
      </trkpt>
      <trkpt lat="42.9656" lon="1.10912">
        <ele>451.6</ele>
        <time>2026-05-10T08:59:16Z</time>
      </trkpt>
      <trkpt lat="42.96562" lon="1.10914">
        <ele>452.2</ele>
        <time>2026-05-10T08:59:17Z</time>
      </trkpt>
      <trkpt lat="42.96563" lon="1.10916">
        <ele>453</ele>
        <time>2026-05-10T08:59:18Z</time>
      </trkpt>
      <trkpt lat="42.96564" lon="1.10918">
        <ele>453.4</ele>
        <time>2026-05-10T08:59:19Z</time>
      </trkpt>
      <trkpt lat="42.96565" lon="1.1092">
        <ele>453.8</ele>
        <time>2026-05-10T08:59:20Z</time>
      </trkpt>
      <trkpt lat="42.96567" lon="1.10923">
        <ele>454.4</ele>
        <time>2026-05-10T08:59:21Z</time>
      </trkpt>
      <trkpt lat="42.96569" lon="1.10928">
        <ele>454.8</ele>
        <time>2026-05-10T08:59:23Z</time>
      </trkpt>
      <trkpt lat="42.9657" lon="1.10931">
        <ele>455.2</ele>
        <time>2026-05-10T08:59:24Z</time>
      </trkpt>
      <trkpt lat="42.96571" lon="1.10933">
        <ele>455.8</ele>
        <time>2026-05-10T08:59:25Z</time>
      </trkpt>
      <trkpt lat="42.96572" lon="1.10935">
        <ele>456.2</ele>
        <time>2026-05-10T08:59:26Z</time>
      </trkpt>
      <trkpt lat="42.96573" lon="1.10936">
        <ele>456.6</ele>
        <time>2026-05-10T08:59:27Z</time>
      </trkpt>
      <trkpt lat="42.96574" lon="1.10936">
        <ele>457.2</ele>
        <time>2026-05-10T08:59:28Z</time>
      </trkpt>
      <trkpt lat="42.96576" lon="1.10938">
        <ele>457.6</ele>
        <time>2026-05-10T08:59:29Z</time>
      </trkpt>
      <trkpt lat="42.96577" lon="1.10939">
        <ele>458</ele>
        <time>2026-05-10T08:59:30Z</time>
      </trkpt>
      <trkpt lat="42.96579" lon="1.10942">
        <ele>458.4</ele>
        <time>2026-05-10T08:59:31Z</time>
      </trkpt>
      <trkpt lat="42.9658" lon="1.10944">
        <ele>458.8</ele>
        <time>2026-05-10T08:59:32Z</time>
      </trkpt>
      <trkpt lat="42.96582" lon="1.10947">
        <ele>459.2</ele>
        <time>2026-05-10T08:59:33Z</time>
      </trkpt>
      <trkpt lat="42.96584" lon="1.10949">
        <ele>459.6</ele>
        <time>2026-05-10T08:59:34Z</time>
      </trkpt>
      <trkpt lat="42.96586" lon="1.10952">
        <ele>460.2</ele>
        <time>2026-05-10T08:59:35Z</time>
      </trkpt>
      <trkpt lat="42.96587" lon="1.10954">
        <ele>460.6</ele>
        <time>2026-05-10T08:59:36Z</time>
      </trkpt>
      <trkpt lat="42.96589" lon="1.10956">
        <ele>461</ele>
        <time>2026-05-10T08:59:37Z</time>
      </trkpt>
      <trkpt lat="42.9659" lon="1.10959">
        <ele>461.4</ele>
        <time>2026-05-10T08:59:38Z</time>
      </trkpt>
      <trkpt lat="42.96592" lon="1.10962">
        <ele>461.8</ele>
        <time>2026-05-10T08:59:39Z</time>
      </trkpt>
      <trkpt lat="42.96594" lon="1.10965">
        <ele>462.4</ele>
        <time>2026-05-10T08:59:40Z</time>
      </trkpt>
      <trkpt lat="42.96596" lon="1.10967">
        <ele>462.8</ele>
        <time>2026-05-10T08:59:41Z</time>
      </trkpt>
      <trkpt lat="42.96598" lon="1.10969">
        <ele>463.2</ele>
        <time>2026-05-10T08:59:42Z</time>
      </trkpt>
      <trkpt lat="42.966" lon="1.10971">
        <ele>463.6</ele>
        <time>2026-05-10T08:59:43Z</time>
      </trkpt>
      <trkpt lat="42.96602" lon="1.10974">
        <ele>464</ele>
        <time>2026-05-10T08:59:44Z</time>
      </trkpt>
      <trkpt lat="42.96604" lon="1.10978">
        <ele>464.4</ele>
        <time>2026-05-10T08:59:45Z</time>
      </trkpt>
      <trkpt lat="42.96606" lon="1.10981">
        <ele>465</ele>
        <time>2026-05-10T08:59:46Z</time>
      </trkpt>
      <trkpt lat="42.96609" lon="1.10985">
        <ele>465.4</ele>
        <time>2026-05-10T08:59:47Z</time>
      </trkpt>
      <trkpt lat="42.96617" lon="1.10995">
        <ele>465.8</ele>
        <time>2026-05-10T08:59:51Z</time>
      </trkpt>
      <trkpt lat="42.96618" lon="1.10998">
        <ele>466.2</ele>
        <time>2026-05-10T08:59:52Z</time>
      </trkpt>
      <trkpt lat="42.9662" lon="1.11001">
        <ele>466.6</ele>
        <time>2026-05-10T08:59:53Z</time>
      </trkpt>
      <trkpt lat="42.96621" lon="1.11004">
        <ele>467</ele>
        <time>2026-05-10T08:59:54Z</time>
      </trkpt>
      <trkpt lat="42.96622" lon="1.11007">
        <ele>467.4</ele>
        <time>2026-05-10T08:59:55Z</time>
      </trkpt>
      <trkpt lat="42.96624" lon="1.11009">
        <ele>468</ele>
        <time>2026-05-10T08:59:56Z</time>
      </trkpt>
      <trkpt lat="42.96626" lon="1.11012">
        <ele>468.4</ele>
        <time>2026-05-10T08:59:57Z</time>
      </trkpt>
      <trkpt lat="42.96627" lon="1.11014">
        <ele>468.8</ele>
        <time>2026-05-10T08:59:58Z</time>
      </trkpt>
      <trkpt lat="42.96628" lon="1.11015">
        <ele>469.2</ele>
        <time>2026-05-10T08:59:59Z</time>
      </trkpt>
      <trkpt lat="42.9663" lon="1.11017">
        <ele>469.6</ele>
        <time>2026-05-10T09:00:00Z</time>
      </trkpt>
      <trkpt lat="42.96631" lon="1.11019">
        <ele>469.6</ele>
        <time>2026-05-10T09:00:03Z</time>
      </trkpt>
      <trkpt lat="42.96649" lon="1.1106">
        <ele>471.8</ele>
        <time>2026-05-10T09:03:17Z</time>
      </trkpt>
      <trkpt lat="42.96653" lon="1.11069">
        <ele>471.8</ele>
        <time>2026-05-10T09:03:20Z</time>
      </trkpt>
      <trkpt lat="42.96656" lon="1.11074">
        <ele>472.2</ele>
        <time>2026-05-10T09:03:22Z</time>
      </trkpt>
      <trkpt lat="42.96657" lon="1.11077">
        <ele>472.6</ele>
        <time>2026-05-10T09:03:23Z</time>
      </trkpt>
      <trkpt lat="42.96658" lon="1.1108">
        <ele>473</ele>
        <time>2026-05-10T09:03:24Z</time>
      </trkpt>
      <trkpt lat="42.96659" lon="1.11082">
        <ele>473.4</ele>
        <time>2026-05-10T09:03:25Z</time>
      </trkpt>
      <trkpt lat="42.9666" lon="1.11084">
        <ele>473.8</ele>
        <time>2026-05-10T09:03:26Z</time>
      </trkpt>
      <trkpt lat="42.96662" lon="1.11089">
        <ele>474.2</ele>
        <time>2026-05-10T09:03:28Z</time>
      </trkpt>
      <trkpt lat="42.96664" lon="1.11092">
        <ele>474.8</ele>
        <time>2026-05-10T09:03:29Z</time>
      </trkpt>
      <trkpt lat="42.96665" lon="1.11095">
        <ele>475.2</ele>
        <time>2026-05-10T09:03:30Z</time>
      </trkpt>
      <trkpt lat="42.96666" lon="1.11098">
        <ele>475.6</ele>
        <time>2026-05-10T09:03:31Z</time>
      </trkpt>
      <trkpt lat="42.96666" lon="1.11101">
        <ele>476</ele>
        <time>2026-05-10T09:03:32Z</time>
      </trkpt>
      <trkpt lat="42.96668" lon="1.11106">
        <ele>476.4</ele>
        <time>2026-05-10T09:03:34Z</time>
      </trkpt>
      <trkpt lat="42.96669" lon="1.11108">
        <ele>477</ele>
        <time>2026-05-10T09:03:35Z</time>
      </trkpt>
      <trkpt lat="42.9667" lon="1.11111">
        <ele>477.4</ele>
        <time>2026-05-10T09:03:36Z</time>
      </trkpt>
      <trkpt lat="42.96671" lon="1.11113">
        <ele>477.8</ele>
        <time>2026-05-10T09:03:37Z</time>
      </trkpt>
      <trkpt lat="42.96672" lon="1.11115">
        <ele>478.2</ele>
        <time>2026-05-10T09:03:38Z</time>
      </trkpt>
      <trkpt lat="42.96674" lon="1.11119">
        <ele>478.2</ele>
        <time>2026-05-10T09:03:39Z</time>
      </trkpt>
      <trkpt lat="42.96676" lon="1.11126">
        <ele>478.6</ele>
        <time>2026-05-10T09:03:41Z</time>
      </trkpt>
      <trkpt lat="42.96677" lon="1.1113">
        <ele>479.2</ele>
        <time>2026-05-10T09:03:42Z</time>
      </trkpt>
      <trkpt lat="42.96678" lon="1.11133">
        <ele>479.6</ele>
        <time>2026-05-10T09:03:43Z</time>
      </trkpt>
      <trkpt lat="42.96679" lon="1.11136">
        <ele>480.6</ele>
        <time>2026-05-10T09:03:44Z</time>
      </trkpt>
      <trkpt lat="42.9668" lon="1.11144">
        <ele>481</ele>
        <time>2026-05-10T09:03:46Z</time>
      </trkpt>
      <trkpt lat="42.96681" lon="1.11147">
        <ele>481.4</ele>
        <time>2026-05-10T09:03:47Z</time>
      </trkpt>
      <trkpt lat="42.96683" lon="1.11151">
        <ele>481.8</ele>
        <time>2026-05-10T09:03:48Z</time>
      </trkpt>
      <trkpt lat="42.96685" lon="1.11155">
        <ele>482.4</ele>
        <time>2026-05-10T09:03:49Z</time>
      </trkpt>
      <trkpt lat="42.96686" lon="1.11158">
        <ele>482.8</ele>
        <time>2026-05-10T09:03:50Z</time>
      </trkpt>
      <trkpt lat="42.96687" lon="1.11162">
        <ele>483.2</ele>
        <time>2026-05-10T09:03:51Z</time>
      </trkpt>
      <trkpt lat="42.96689" lon="1.11166">
        <ele>483.6</ele>
        <time>2026-05-10T09:03:52Z</time>
      </trkpt>
      <trkpt lat="42.9669" lon="1.11169">
        <ele>484</ele>
        <time>2026-05-10T09:03:53Z</time>
      </trkpt>
      <trkpt lat="42.96691" lon="1.11172">
        <ele>484.4</ele>
        <time>2026-05-10T09:03:54Z</time>
      </trkpt>
      <trkpt lat="42.96692" lon="1.11175">
        <ele>484.8</ele>
        <time>2026-05-10T09:03:55Z</time>
      </trkpt>
      <trkpt lat="42.96695" lon="1.11183">
        <ele>485.2</ele>
        <time>2026-05-10T09:03:58Z</time>
      </trkpt>
      <trkpt lat="42.96697" lon="1.11185">
        <ele>485.6</ele>
        <time>2026-05-10T09:03:59Z</time>
      </trkpt>
      <trkpt lat="42.96698" lon="1.11188">
        <ele>486.2</ele>
        <time>2026-05-10T09:04:00Z</time>
      </trkpt>
      <trkpt lat="42.96699" lon="1.11191">
        <ele>486.6</ele>
        <time>2026-05-10T09:04:01Z</time>
      </trkpt>
      <trkpt lat="42.967" lon="1.11194">
        <ele>487</ele>
        <time>2026-05-10T09:04:02Z</time>
      </trkpt>
      <trkpt lat="42.96704" lon="1.11208">
        <ele>487</ele>
        <time>2026-05-10T09:04:07Z</time>
      </trkpt>
      <trkpt lat="42.96706" lon="1.11211">
        <ele>487.4</ele>
        <time>2026-05-10T09:04:08Z</time>
      </trkpt>
      <trkpt lat="42.96708" lon="1.11214">
        <ele>488.2</ele>
        <time>2026-05-10T09:04:09Z</time>
      </trkpt>
      <trkpt lat="42.9671" lon="1.11216">
        <ele>488.6</ele>
        <time>2026-05-10T09:04:10Z</time>
      </trkpt>
      <trkpt lat="42.96711" lon="1.11218">
        <ele>489.2</ele>
        <time>2026-05-10T09:04:11Z</time>
      </trkpt>
      <trkpt lat="42.96715" lon="1.11226">
        <ele>489.2</ele>
        <time>2026-05-10T09:04:13Z</time>
      </trkpt>
      <trkpt lat="42.96723" lon="1.11241">
        <ele>489.2</ele>
        <time>2026-05-10T09:04:19Z</time>
      </trkpt>
      <trkpt lat="42.9673" lon="1.11254">
        <ele>489.2</ele>
        <time>2026-05-10T09:04:26Z</time>
      </trkpt>
      <trkpt lat="42.96734" lon="1.11259">
        <ele>489.2</ele>
        <time>2026-05-10T09:04:30Z</time>
      </trkpt>
      <trkpt lat="42.96737" lon="1.11262">
        <ele>489.2</ele>
        <time>2026-05-10T09:04:32Z</time>
      </trkpt>
      <trkpt lat="42.96739" lon="1.11266">
        <ele>489.2</ele>
        <time>2026-05-10T09:04:34Z</time>
      </trkpt>
      <trkpt lat="42.96743" lon="1.11274">
        <ele>489.2</ele>
        <time>2026-05-10T09:04:38Z</time>
      </trkpt>
      <trkpt lat="42.96745" lon="1.11278">
        <ele>489.2</ele>
        <time>2026-05-10T09:04:40Z</time>
      </trkpt>
      <trkpt lat="42.96747" lon="1.1129">
        <ele>489.2</ele>
        <time>2026-05-10T09:04:44Z</time>
      </trkpt>
      <trkpt lat="42.96748" lon="1.11294">
        <ele>489.6</ele>
        <time>2026-05-10T09:04:46Z</time>
      </trkpt>
      <trkpt lat="42.96748" lon="1.11296">
        <ele>490</ele>
        <time>2026-05-10T09:04:47Z</time>
      </trkpt>
      <trkpt lat="42.96748" lon="1.11298">
        <ele>490.4</ele>
        <time>2026-05-10T09:04:48Z</time>
      </trkpt>
      <trkpt lat="42.96749" lon="1.113">
        <ele>490.8</ele>
        <time>2026-05-10T09:04:49Z</time>
      </trkpt>
      <trkpt lat="42.96749" lon="1.11302">
        <ele>491.4</ele>
        <time>2026-05-10T09:04:50Z</time>
      </trkpt>
      <trkpt lat="42.96749" lon="1.11303">
        <ele>491.4</ele>
        <time>2026-05-10T09:04:51Z</time>
      </trkpt>
      <trkpt lat="42.96756" lon="1.11343">
        <ele>493.4</ele>
        <time>2026-05-10T09:05:18Z</time>
      </trkpt>
      <trkpt lat="42.96762" lon="1.11361">
        <ele>493.8</ele>
        <time>2026-05-10T09:05:23Z</time>
      </trkpt>
      <trkpt lat="42.96763" lon="1.11364">
        <ele>494.2</ele>
        <time>2026-05-10T09:05:24Z</time>
      </trkpt>
      <trkpt lat="42.96764" lon="1.11367">
        <ele>494.6</ele>
        <time>2026-05-10T09:05:25Z</time>
      </trkpt>
      <trkpt lat="42.96765" lon="1.1137">
        <ele>495</ele>
        <time>2026-05-10T09:05:26Z</time>
      </trkpt>
      <trkpt lat="42.96765" lon="1.11373">
        <ele>495.4</ele>
        <time>2026-05-10T09:05:27Z</time>
      </trkpt>
      <trkpt lat="42.9677" lon="1.11389">
        <ele>495.4</ele>
        <time>2026-05-10T09:05:32Z</time>
      </trkpt>
      <trkpt lat="42.96773" lon="1.11401">
        <ele>496</ele>
        <time>2026-05-10T09:05:35Z</time>
      </trkpt>
      <trkpt lat="42.96773" lon="1.11405">
        <ele>496.4</ele>
        <time>2026-05-10T09:05:36Z</time>
      </trkpt>
      <trkpt lat="42.96774" lon="1.11409">
        <ele>496.8</ele>
        <time>2026-05-10T09:05:37Z</time>
      </trkpt>
      <trkpt lat="42.96774" lon="1.11414">
        <ele>497.2</ele>
        <time>2026-05-10T09:05:38Z</time>
      </trkpt>
      <trkpt lat="42.96775" lon="1.1142">
        <ele>497.6</ele>
        <time>2026-05-10T09:05:39Z</time>
      </trkpt>
      <trkpt lat="42.96776" lon="1.11425">
        <ele>498</ele>
        <time>2026-05-10T09:05:40Z</time>
      </trkpt>
      <trkpt lat="42.96777" lon="1.1143">
        <ele>498.6</ele>
        <time>2026-05-10T09:05:41Z</time>
      </trkpt>
      <trkpt lat="42.96777" lon="1.11433">
        <ele>499.4</ele>
        <time>2026-05-10T09:05:42Z</time>
      </trkpt>
      <trkpt lat="42.96776" lon="1.11436">
        <ele>500</ele>
        <time>2026-05-10T09:05:43Z</time>
      </trkpt>
      <trkpt lat="42.96777" lon="1.11439">
        <ele>500.4</ele>
        <time>2026-05-10T09:05:44Z</time>
      </trkpt>
      <trkpt lat="42.96776" lon="1.11442">
        <ele>501</ele>
        <time>2026-05-10T09:05:45Z</time>
      </trkpt>
      <trkpt lat="42.96777" lon="1.11445">
        <ele>501.6</ele>
        <time>2026-05-10T09:05:46Z</time>
      </trkpt>
      <trkpt lat="42.96777" lon="1.11448">
        <ele>502</ele>
        <time>2026-05-10T09:05:47Z</time>
      </trkpt>
      <trkpt lat="42.96776" lon="1.11451">
        <ele>502.6</ele>
        <time>2026-05-10T09:05:48Z</time>
      </trkpt>
      <trkpt lat="42.96777" lon="1.11453">
        <ele>503</ele>
        <time>2026-05-10T09:05:49Z</time>
      </trkpt>
      <trkpt lat="42.96777" lon="1.11455">
        <ele>503.6</ele>
        <time>2026-05-10T09:05:50Z</time>
      </trkpt>
      <trkpt lat="42.96778" lon="1.11457">
        <ele>504</ele>
        <time>2026-05-10T09:05:51Z</time>
      </trkpt>
      <trkpt lat="42.96778" lon="1.11458">
        <ele>504</ele>
        <time>2026-05-10T09:05:52Z</time>
      </trkpt>
      <trkpt lat="42.96781" lon="1.11499">
        <ele>510</ele>
        <time>2026-05-10T09:06:20Z</time>
      </trkpt>
      <trkpt lat="42.96782" lon="1.11503">
        <ele>510.4</ele>
        <time>2026-05-10T09:06:21Z</time>
      </trkpt>
      <trkpt lat="42.96782" lon="1.11508">
        <ele>510.8</ele>
        <time>2026-05-10T09:06:23Z</time>
      </trkpt>
      <trkpt lat="42.96782" lon="1.1151">
        <ele>511.2</ele>
        <time>2026-05-10T09:06:24Z</time>
      </trkpt>
      <trkpt lat="42.96782" lon="1.11512">
        <ele>511.6</ele>
        <time>2026-05-10T09:06:25Z</time>
      </trkpt>
      <trkpt lat="42.96783" lon="1.11515">
        <ele>512</ele>
        <time>2026-05-10T09:06:26Z</time>
      </trkpt>
      <trkpt lat="42.96783" lon="1.11517">
        <ele>512.4</ele>
        <time>2026-05-10T09:06:27Z</time>
      </trkpt>
      <trkpt lat="42.96784" lon="1.11532">
        <ele>513</ele>
        <time>2026-05-10T09:06:31Z</time>
      </trkpt>
      <trkpt lat="42.96784" lon="1.11534">
        <ele>513.4</ele>
        <time>2026-05-10T09:06:32Z</time>
      </trkpt>
      <trkpt lat="42.96785" lon="1.11537">
        <ele>513.8</ele>
        <time>2026-05-10T09:06:33Z</time>
      </trkpt>
      <trkpt lat="42.96786" lon="1.11539">
        <ele>514.4</ele>
        <time>2026-05-10T09:06:34Z</time>
      </trkpt>
      <trkpt lat="42.9679" lon="1.11582">
        <ele>517</ele>
        <time>2026-05-10T09:06:50Z</time>
      </trkpt>
      <trkpt lat="42.96792" lon="1.11589">
        <ele>517</ele>
        <time>2026-05-10T09:06:52Z</time>
      </trkpt>
      <trkpt lat="42.96792" lon="1.11591">
        <ele>517.4</ele>
        <time>2026-05-10T09:06:53Z</time>
      </trkpt>
      <trkpt lat="42.96792" lon="1.11594">
        <ele>517.8</ele>
        <time>2026-05-10T09:06:54Z</time>
      </trkpt>
      <trkpt lat="42.96793" lon="1.11596">
        <ele>518.2</ele>
        <time>2026-05-10T09:06:55Z</time>
      </trkpt>
      <trkpt lat="42.96794" lon="1.11599">
        <ele>519.2</ele>
        <time>2026-05-10T09:06:56Z</time>
      </trkpt>
      <trkpt lat="42.96795" lon="1.1164">
        <ele>522.8</ele>
        <time>2026-05-10T09:07:14Z</time>
      </trkpt>
      <trkpt lat="42.96795" lon="1.11642">
        <ele>523.2</ele>
        <time>2026-05-10T09:07:15Z</time>
      </trkpt>
      <trkpt lat="42.96795" lon="1.11645">
        <ele>523.2</ele>
        <time>2026-05-10T09:07:16Z</time>
      </trkpt>
      <trkpt lat="42.96794" lon="1.1165">
        <ele>523.6</ele>
        <time>2026-05-10T09:07:18Z</time>
      </trkpt>
      <trkpt lat="42.96794" lon="1.11653">
        <ele>524.2</ele>
        <time>2026-05-10T09:07:19Z</time>
      </trkpt>
      <trkpt lat="42.96794" lon="1.11655">
        <ele>524.6</ele>
        <time>2026-05-10T09:07:20Z</time>
      </trkpt>
      <trkpt lat="42.96794" lon="1.11658">
        <ele>525.4</ele>
        <time>2026-05-10T09:07:21Z</time>
      </trkpt>
      <trkpt lat="42.96794" lon="1.11667">
        <ele>525.4</ele>
        <time>2026-05-10T09:07:25Z</time>
      </trkpt>
      <trkpt lat="42.96794" lon="1.11669">
        <ele>525.8</ele>
        <time>2026-05-10T09:07:26Z</time>
      </trkpt>
      <trkpt lat="42.96794" lon="1.11671">
        <ele>526.4</ele>
        <time>2026-05-10T09:07:27Z</time>
      </trkpt>
      <trkpt lat="42.96794" lon="1.11673">
        <ele>526.8</ele>
        <time>2026-05-10T09:07:28Z</time>
      </trkpt>
      <trkpt lat="42.96794" lon="1.11675">
        <ele>527.2</ele>
        <time>2026-05-10T09:07:29Z</time>
      </trkpt>
      <trkpt lat="42.96794" lon="1.11678">
        <ele>527.8</ele>
        <time>2026-05-10T09:07:30Z</time>
      </trkpt>
      <trkpt lat="42.96795" lon="1.11685">
        <ele>528.2</ele>
        <time>2026-05-10T09:07:33Z</time>
      </trkpt>
      <trkpt lat="42.96795" lon="1.11687">
        <ele>528.6</ele>
        <time>2026-05-10T09:07:34Z</time>
      </trkpt>
      <trkpt lat="42.96795" lon="1.1169">
        <ele>529.2</ele>
        <time>2026-05-10T09:07:35Z</time>
      </trkpt>
      <trkpt lat="42.96794" lon="1.11692">
        <ele>529.6</ele>
        <time>2026-05-10T09:07:36Z</time>
      </trkpt>
      <trkpt lat="42.96794" lon="1.11694">
        <ele>530</ele>
        <time>2026-05-10T09:07:37Z</time>
      </trkpt>
      <trkpt lat="42.96793" lon="1.11698">
        <ele>530.4</ele>
        <time>2026-05-10T09:07:39Z</time>
      </trkpt>
      <trkpt lat="42.96791" lon="1.117">
        <ele>531</ele>
        <time>2026-05-10T09:07:40Z</time>
      </trkpt>
      <trkpt lat="42.96791" lon="1.11702">
        <ele>531.4</ele>
        <time>2026-05-10T09:07:41Z</time>
      </trkpt>
      <trkpt lat="42.96791" lon="1.11704">
        <ele>531.8</ele>
        <time>2026-05-10T09:07:42Z</time>
      </trkpt>
      <trkpt lat="42.9679" lon="1.11707">
        <ele>532.2</ele>
        <time>2026-05-10T09:07:43Z</time>
      </trkpt>
      <trkpt lat="42.96791" lon="1.1171">
        <ele>532.8</ele>
        <time>2026-05-10T09:07:44Z</time>
      </trkpt>
      <trkpt lat="42.96791" lon="1.11713">
        <ele>533.2</ele>
        <time>2026-05-10T09:07:45Z</time>
      </trkpt>
      <trkpt lat="42.96792" lon="1.11717">
        <ele>534</ele>
        <time>2026-05-10T09:07:46Z</time>
      </trkpt>
      <trkpt lat="42.96792" lon="1.11721">
        <ele>534.6</ele>
        <time>2026-05-10T09:07:47Z</time>
      </trkpt>
      <trkpt lat="42.96793" lon="1.11726">
        <ele>534.6</ele>
        <time>2026-05-10T09:07:48Z</time>
      </trkpt>
      <trkpt lat="42.96794" lon="1.11731">
        <ele>535</ele>
        <time>2026-05-10T09:07:49Z</time>
      </trkpt>
      <trkpt lat="42.96794" lon="1.11735">
        <ele>535.4</ele>
        <time>2026-05-10T09:07:50Z</time>
      </trkpt>
      <trkpt lat="42.96794" lon="1.11739">
        <ele>535.8</ele>
        <time>2026-05-10T09:07:51Z</time>
      </trkpt>
      <trkpt lat="42.96795" lon="1.11741">
        <ele>536.2</ele>
        <time>2026-05-10T09:07:52Z</time>
      </trkpt>
      <trkpt lat="42.96795" lon="1.11744">
        <ele>536.6</ele>
        <time>2026-05-10T09:07:53Z</time>
      </trkpt>
      <trkpt lat="42.96796" lon="1.11747">
        <ele>537.2</ele>
        <time>2026-05-10T09:07:54Z</time>
      </trkpt>
      <trkpt lat="42.96796" lon="1.1175">
        <ele>537.6</ele>
        <time>2026-05-10T09:07:55Z</time>
      </trkpt>
      <trkpt lat="42.96797" lon="1.11753">
        <ele>538.2</ele>
        <time>2026-05-10T09:07:56Z</time>
      </trkpt>
      <trkpt lat="42.96797" lon="1.11755">
        <ele>538.6</ele>
        <time>2026-05-10T09:07:57Z</time>
      </trkpt>
      <trkpt lat="42.96796" lon="1.11758">
        <ele>539.2</ele>
        <time>2026-05-10T09:07:58Z</time>
      </trkpt>
      <trkpt lat="42.96795" lon="1.1176">
        <ele>539.8</ele>
        <time>2026-05-10T09:07:59Z</time>
      </trkpt>
      <trkpt lat="42.96795" lon="1.11764">
        <ele>540.2</ele>
        <time>2026-05-10T09:08:00Z</time>
      </trkpt>
      <trkpt lat="42.96795" lon="1.11767">
        <ele>540.8</ele>
        <time>2026-05-10T09:08:01Z</time>
      </trkpt>
      <trkpt lat="42.96794" lon="1.11768">
        <ele>541.2</ele>
        <time>2026-05-10T09:08:02Z</time>
      </trkpt>
      <trkpt lat="42.96794" lon="1.11771">
        <ele>541.8</ele>
        <time>2026-05-10T09:08:03Z</time>
      </trkpt>
      <trkpt lat="42.96794" lon="1.11773">
        <ele>542.2</ele>
        <time>2026-05-10T09:08:04Z</time>
      </trkpt>
      <trkpt lat="42.96793" lon="1.11773">
        <ele>542.8</ele>
        <time>2026-05-10T09:08:05Z</time>
      </trkpt>
      <trkpt lat="42.96794" lon="1.11785">
        <ele>544</ele>
        <time>2026-05-10T09:08:08Z</time>
      </trkpt>
      <trkpt lat="42.96794" lon="1.11791">
        <ele>544.4</ele>
        <time>2026-05-10T09:08:09Z</time>
      </trkpt>
      <trkpt lat="42.96795" lon="1.11795">
        <ele>545.4</ele>
        <time>2026-05-10T09:08:10Z</time>
      </trkpt>
      <trkpt lat="42.96795" lon="1.11799">
        <ele>545.8</ele>
        <time>2026-05-10T09:08:11Z</time>
      </trkpt>
      <trkpt lat="42.96796" lon="1.11802">
        <ele>546.4</ele>
        <time>2026-05-10T09:08:12Z</time>
      </trkpt>
      <trkpt lat="42.96796" lon="1.11806">
        <ele>546.8</ele>
        <time>2026-05-10T09:08:13Z</time>
      </trkpt>
      <trkpt lat="42.96796" lon="1.1181">
        <ele>547.2</ele>
        <time>2026-05-10T09:08:14Z</time>
      </trkpt>
      <trkpt lat="42.96796" lon="1.11813">
        <ele>547.6</ele>
        <time>2026-05-10T09:08:15Z</time>
      </trkpt>
      <trkpt lat="42.96795" lon="1.11816">
        <ele>548</ele>
        <time>2026-05-10T09:08:16Z</time>
      </trkpt>
      <trkpt lat="42.96795" lon="1.11818">
        <ele>548.4</ele>
        <time>2026-05-10T09:08:17Z</time>
      </trkpt>
      <trkpt lat="42.96798" lon="1.11824">
        <ele>548.8</ele>
        <time>2026-05-10T09:08:18Z</time>
      </trkpt>
      <trkpt lat="42.96799" lon="1.11829">
        <ele>549.2</ele>
        <time>2026-05-10T09:08:19Z</time>
      </trkpt>
      <trkpt lat="42.96799" lon="1.11833">
        <ele>549.8</ele>
        <time>2026-05-10T09:08:21Z</time>
      </trkpt>
      <trkpt lat="42.96799" lon="1.11835">
        <ele>550.2</ele>
        <time>2026-05-10T09:08:22Z</time>
      </trkpt>
      <trkpt lat="42.96799" lon="1.11837">
        <ele>550.8</ele>
        <time>2026-05-10T09:08:23Z</time>
      </trkpt>
      <trkpt lat="42.968" lon="1.11839">
        <ele>551.2</ele>
        <time>2026-05-10T09:08:24Z</time>
      </trkpt>
      <trkpt lat="42.968" lon="1.11841">
        <ele>551.6</ele>
        <time>2026-05-10T09:08:25Z</time>
      </trkpt>
      <trkpt lat="42.96799" lon="1.11842">
        <ele>552.2</ele>
        <time>2026-05-10T09:08:26Z</time>
      </trkpt>
      <trkpt lat="42.96799" lon="1.11844">
        <ele>552.6</ele>
        <time>2026-05-10T09:08:27Z</time>
      </trkpt>
      <trkpt lat="42.96798" lon="1.11846">
        <ele>553.2</ele>
        <time>2026-05-10T09:08:28Z</time>
      </trkpt>
      <trkpt lat="42.96798" lon="1.11848">
        <ele>553.6</ele>
        <time>2026-05-10T09:08:29Z</time>
      </trkpt>
      <trkpt lat="42.96797" lon="1.11849">
        <ele>554</ele>
        <time>2026-05-10T09:08:30Z</time>
      </trkpt>
      <trkpt lat="42.96797" lon="1.11851">
        <ele>554.6</ele>
        <time>2026-05-10T09:08:31Z</time>
      </trkpt>
      <trkpt lat="42.96796" lon="1.11854">
        <ele>555</ele>
        <time>2026-05-10T09:08:32Z</time>
      </trkpt>
      <trkpt lat="42.96795" lon="1.11856">
        <ele>555.6</ele>
        <time>2026-05-10T09:08:33Z</time>
      </trkpt>
      <trkpt lat="42.96794" lon="1.11858">
        <ele>556.2</ele>
        <time>2026-05-10T09:08:34Z</time>
      </trkpt>
      <trkpt lat="42.96793" lon="1.11859">
        <ele>557</ele>
        <time>2026-05-10T09:08:35Z</time>
      </trkpt>
      <trkpt lat="42.96792" lon="1.1186">
        <ele>557.6</ele>
        <time>2026-05-10T09:08:36Z</time>
      </trkpt>
      <trkpt lat="42.9679" lon="1.11862">
        <ele>558</ele>
        <time>2026-05-10T09:08:37Z</time>
      </trkpt>
      <trkpt lat="42.96789" lon="1.11863">
        <ele>558.6</ele>
        <time>2026-05-10T09:08:38Z</time>
      </trkpt>
      <trkpt lat="42.96788" lon="1.11865">
        <ele>559.2</ele>
        <time>2026-05-10T09:08:39Z</time>
      </trkpt>
      <trkpt lat="42.96787" lon="1.11867">
        <ele>559.6</ele>
        <time>2026-05-10T09:08:40Z</time>
      </trkpt>
      <trkpt lat="42.96786" lon="1.1187">
        <ele>560.2</ele>
        <time>2026-05-10T09:08:41Z</time>
      </trkpt>
      <trkpt lat="42.96785" lon="1.11872">
        <ele>560.6</ele>
        <time>2026-05-10T09:08:42Z</time>
      </trkpt>
      <trkpt lat="42.96786" lon="1.11874">
        <ele>561.2</ele>
        <time>2026-05-10T09:08:43Z</time>
      </trkpt>
      <trkpt lat="42.96785" lon="1.11876">
        <ele>561.6</ele>
        <time>2026-05-10T09:08:44Z</time>
      </trkpt>
      <trkpt lat="42.96785" lon="1.11877">
        <ele>562</ele>
        <time>2026-05-10T09:08:45Z</time>
      </trkpt>
      <trkpt lat="42.96785" lon="1.11878">
        <ele>562.4</ele>
        <time>2026-05-10T09:08:46Z</time>
      </trkpt>
      <trkpt lat="42.96785" lon="1.11881">
        <ele>562.8</ele>
        <time>2026-05-10T09:08:47Z</time>
      </trkpt>
      <trkpt lat="42.96784" lon="1.11888">
        <ele>562.8</ele>
        <time>2026-05-10T09:08:50Z</time>
      </trkpt>
      <trkpt lat="42.96784" lon="1.1189">
        <ele>562.8</ele>
        <time>2026-05-10T09:08:52Z</time>
      </trkpt>
      <trkpt lat="42.96778" lon="1.1189">
        <ele>564.2</ele>
        <time>2026-05-10T09:08:56Z</time>
      </trkpt>
      <trkpt lat="42.96776" lon="1.1189">
        <ele>564.6</ele>
        <time>2026-05-10T09:08:57Z</time>
      </trkpt>
      <trkpt lat="42.96775" lon="1.11889">
        <ele>565</ele>
        <time>2026-05-10T09:08:58Z</time>
      </trkpt>
      <trkpt lat="42.9677" lon="1.11888">
        <ele>565</ele>
        <time>2026-05-10T09:09:03Z</time>
      </trkpt>
      <trkpt lat="42.9677" lon="1.11889">
        <ele>565</ele>
        <time>2026-05-10T09:09:04Z</time>
      </trkpt>
      <trkpt lat="42.96768" lon="1.11886">
        <ele>565</ele>
        <time>2026-05-10T09:11:51Z</time>
      </trkpt>
      <trkpt lat="42.96766" lon="1.11883">
        <ele>565</ele>
        <time>2026-05-10T09:11:53Z</time>
      </trkpt>
      <trkpt lat="42.96763" lon="1.1188">
        <ele>565</ele>
        <time>2026-05-10T09:11:56Z</time>
      </trkpt>
      <trkpt lat="42.96761" lon="1.11875">
        <ele>565</ele>
        <time>2026-05-10T09:11:58Z</time>
      </trkpt>
      <trkpt lat="42.96759" lon="1.11871">
        <ele>565</ele>
        <time>2026-05-10T09:12:00Z</time>
      </trkpt>
      <trkpt lat="42.96756" lon="1.11865">
        <ele>565</ele>
        <time>2026-05-10T09:12:03Z</time>
      </trkpt>
      <trkpt lat="42.96751" lon="1.11855">
        <ele>565</ele>
        <time>2026-05-10T09:12:08Z</time>
      </trkpt>
      <trkpt lat="42.96751" lon="1.11853">
        <ele>565.4</ele>
        <time>2026-05-10T09:12:09Z</time>
      </trkpt>
      <trkpt lat="42.9675" lon="1.11851">
        <ele>565.8</ele>
        <time>2026-05-10T09:12:10Z</time>
      </trkpt>
      <trkpt lat="42.96749" lon="1.11849">
        <ele>566.2</ele>
        <time>2026-05-10T09:12:11Z</time>
      </trkpt>
      <trkpt lat="42.96746" lon="1.11847">
        <ele>566.8</ele>
        <time>2026-05-10T09:12:12Z</time>
      </trkpt>
      <trkpt lat="42.96744" lon="1.11846">
        <ele>567.2</ele>
        <time>2026-05-10T09:12:13Z</time>
      </trkpt>
      <trkpt lat="42.96742" lon="1.11846">
        <ele>567.6</ele>
        <time>2026-05-10T09:12:15Z</time>
      </trkpt>
      <trkpt lat="42.96741" lon="1.11847">
        <ele>568</ele>
        <time>2026-05-10T09:12:16Z</time>
      </trkpt>
      <trkpt lat="42.9674" lon="1.11849">
        <ele>569</ele>
        <time>2026-05-10T09:12:17Z</time>
      </trkpt>
      <trkpt lat="42.96739" lon="1.11852">
        <ele>569.4</ele>
        <time>2026-05-10T09:12:18Z</time>
      </trkpt>
      <trkpt lat="42.96738" lon="1.11854">
        <ele>569.4</ele>
        <time>2026-05-10T09:12:19Z</time>
      </trkpt>
      <trkpt lat="42.96737" lon="1.11857">
        <ele>569.8</ele>
        <time>2026-05-10T09:12:20Z</time>
      </trkpt>
      <trkpt lat="42.96735" lon="1.11861">
        <ele>570.2</ele>
        <time>2026-05-10T09:12:21Z</time>
      </trkpt>
      <trkpt lat="42.96733" lon="1.11864">
        <ele>570.8</ele>
        <time>2026-05-10T09:12:22Z</time>
      </trkpt>
      <trkpt lat="42.96732" lon="1.11867">
        <ele>571.2</ele>
        <time>2026-05-10T09:12:23Z</time>
      </trkpt>
      <trkpt lat="42.96731" lon="1.1187">
        <ele>571.6</ele>
        <time>2026-05-10T09:12:24Z</time>
      </trkpt>
      <trkpt lat="42.96727" lon="1.11874">
        <ele>572</ele>
        <time>2026-05-10T09:12:26Z</time>
      </trkpt>
      <trkpt lat="42.96724" lon="1.11877">
        <ele>572.4</ele>
        <time>2026-05-10T09:12:27Z</time>
      </trkpt>
      <trkpt lat="42.96722" lon="1.11878">
        <ele>572.8</ele>
        <time>2026-05-10T09:12:28Z</time>
      </trkpt>
      <trkpt lat="42.96721" lon="1.1188">
        <ele>573.2</ele>
        <time>2026-05-10T09:12:29Z</time>
      </trkpt>
      <trkpt lat="42.96719" lon="1.11882">
        <ele>573.8</ele>
        <time>2026-05-10T09:12:30Z</time>
      </trkpt>
      <trkpt lat="42.96717" lon="1.11883">
        <ele>574.2</ele>
        <time>2026-05-10T09:12:31Z</time>
      </trkpt>
      <trkpt lat="42.96715" lon="1.11884">
        <ele>574.6</ele>
        <time>2026-05-10T09:12:32Z</time>
      </trkpt>
      <trkpt lat="42.96714" lon="1.11886">
        <ele>575.2</ele>
        <time>2026-05-10T09:12:33Z</time>
      </trkpt>
      <trkpt lat="42.96712" lon="1.11889">
        <ele>575.6</ele>
        <time>2026-05-10T09:12:34Z</time>
      </trkpt>
      <trkpt lat="42.96709" lon="1.11898">
        <ele>576</ele>
        <time>2026-05-10T09:12:37Z</time>
      </trkpt>
      <trkpt lat="42.96708" lon="1.119">
        <ele>576.4</ele>
        <time>2026-05-10T09:12:38Z</time>
      </trkpt>
      <trkpt lat="42.96707" lon="1.11902">
        <ele>576.8</ele>
        <time>2026-05-10T09:12:39Z</time>
      </trkpt>
      <trkpt lat="42.96707" lon="1.11904">
        <ele>577.2</ele>
        <time>2026-05-10T09:12:40Z</time>
      </trkpt>
      <trkpt lat="42.96706" lon="1.11908">
        <ele>577.6</ele>
        <time>2026-05-10T09:12:41Z</time>
      </trkpt>
      <trkpt lat="42.96704" lon="1.11913">
        <ele>577.6</ele>
        <time>2026-05-10T09:12:43Z</time>
      </trkpt>
      <trkpt lat="42.96695" lon="1.11935">
        <ele>577.6</ele>
        <time>2026-05-10T09:12:48Z</time>
      </trkpt>
      <trkpt lat="42.96683" lon="1.11958">
        <ele>577.6</ele>
        <time>2026-05-10T09:12:53Z</time>
      </trkpt>
      <trkpt lat="42.96669" lon="1.11984">
        <ele>577.6</ele>
        <time>2026-05-10T09:12:58Z</time>
      </trkpt>
      <trkpt lat="42.96665" lon="1.11989">
        <ele>577.6</ele>
        <time>2026-05-10T09:12:59Z</time>
      </trkpt>
      <trkpt lat="42.96657" lon="1.1201">
        <ele>577.6</ele>
        <time>2026-05-10T09:13:03Z</time>
      </trkpt>
      <trkpt lat="42.96654" lon="1.12031">
        <ele>577.6</ele>
        <time>2026-05-10T09:13:07Z</time>
      </trkpt>
      <trkpt lat="42.96643" lon="1.12063">
        <ele>578.2</ele>
        <time>2026-05-10T09:13:12Z</time>
      </trkpt>
      <trkpt lat="42.96642" lon="1.12066">
        <ele>578.6</ele>
        <time>2026-05-10T09:13:13Z</time>
      </trkpt>
      <trkpt lat="42.96641" lon="1.1207">
        <ele>579</ele>
        <time>2026-05-10T09:13:14Z</time>
      </trkpt>
      <trkpt lat="42.96639" lon="1.12075">
        <ele>579.4</ele>
        <time>2026-05-10T09:13:15Z</time>
      </trkpt>
      <trkpt lat="42.96638" lon="1.12077">
        <ele>579.8</ele>
        <time>2026-05-10T09:13:16Z</time>
      </trkpt>
      <trkpt lat="42.96636" lon="1.12084">
        <ele>580.2</ele>
        <time>2026-05-10T09:13:17Z</time>
      </trkpt>
      <trkpt lat="42.96634" lon="1.12089">
        <ele>580.6</ele>
        <time>2026-05-10T09:13:18Z</time>
      </trkpt>
      <trkpt lat="42.96632" lon="1.12093">
        <ele>581</ele>
        <time>2026-05-10T09:13:19Z</time>
      </trkpt>
      <trkpt lat="42.9663" lon="1.12097">
        <ele>581.4</ele>
        <time>2026-05-10T09:13:20Z</time>
      </trkpt>
      <trkpt lat="42.96628" lon="1.12101">
        <ele>581.8</ele>
        <time>2026-05-10T09:13:21Z</time>
      </trkpt>
      <trkpt lat="42.96624" lon="1.1211">
        <ele>581.8</ele>
        <time>2026-05-10T09:13:23Z</time>
      </trkpt>
      <trkpt lat="42.9662" lon="1.12119">
        <ele>582.4</ele>
        <time>2026-05-10T09:13:25Z</time>
      </trkpt>
      <trkpt lat="42.96619" lon="1.12122">
        <ele>582.8</ele>
        <time>2026-05-10T09:13:26Z</time>
      </trkpt>
      <trkpt lat="42.96618" lon="1.12123">
        <ele>583.2</ele>
        <time>2026-05-10T09:13:27Z</time>
      </trkpt>
      <trkpt lat="42.96618" lon="1.12125">
        <ele>583.6</ele>
        <time>2026-05-10T09:13:28Z</time>
      </trkpt>
      <trkpt lat="42.96616" lon="1.12129">
        <ele>584.2</ele>
        <time>2026-05-10T09:13:29Z</time>
      </trkpt>
      <trkpt lat="42.96615" lon="1.12131">
        <ele>584.8</ele>
        <time>2026-05-10T09:13:30Z</time>
      </trkpt>
      <trkpt lat="42.96614" lon="1.12133">
        <ele>585.8</ele>
        <time>2026-05-10T09:13:31Z</time>
      </trkpt>
      <trkpt lat="42.96612" lon="1.12135">
        <ele>586.2</ele>
        <time>2026-05-10T09:13:32Z</time>
      </trkpt>
      <trkpt lat="42.9661" lon="1.12138">
        <ele>586.6</ele>
        <time>2026-05-10T09:13:33Z</time>
      </trkpt>
      <trkpt lat="42.96609" lon="1.12142">
        <ele>587</ele>
        <time>2026-05-10T09:13:34Z</time>
      </trkpt>
      <trkpt lat="42.96607" lon="1.12145">
        <ele>587.4</ele>
        <time>2026-05-10T09:13:35Z</time>
      </trkpt>
      <trkpt lat="42.96606" lon="1.12149">
        <ele>587.8</ele>
        <time>2026-05-10T09:13:36Z</time>
      </trkpt>
      <trkpt lat="42.96604" lon="1.12152">
        <ele>588.2</ele>
        <time>2026-05-10T09:13:37Z</time>
      </trkpt>
      <trkpt lat="42.96596" lon="1.1217">
        <ele>588.2</ele>
        <time>2026-05-10T09:13:41Z</time>
      </trkpt>
      <trkpt lat="42.96583" lon="1.12192">
        <ele>588.2</ele>
        <time>2026-05-10T09:13:46Z</time>
      </trkpt>
      <trkpt lat="42.96568" lon="1.12219">
        <ele>588.2</ele>
        <time>2026-05-10T09:13:51Z</time>
      </trkpt>
      <trkpt lat="42.9656" lon="1.12234">
        <ele>588.2</ele>
        <time>2026-05-10T09:13:56Z</time>
      </trkpt>
      <trkpt lat="42.96557" lon="1.1224">
        <ele>588.2</ele>
        <time>2026-05-10T09:13:59Z</time>
      </trkpt>
      <trkpt lat="42.96555" lon="1.12244">
        <ele>588.2</ele>
        <time>2026-05-10T09:14:20Z</time>
      </trkpt>
      <trkpt lat="42.96553" lon="1.12249">
        <ele>588.2</ele>
        <time>2026-05-10T09:14:21Z</time>
      </trkpt>
      <trkpt lat="42.96548" lon="1.12261">
        <ele>588.2</ele>
        <time>2026-05-10T09:14:24Z</time>
      </trkpt>
      <trkpt lat="42.96537" lon="1.1228">
        <ele>588.2</ele>
        <time>2026-05-10T09:14:27Z</time>
      </trkpt>
      <trkpt lat="42.96534" lon="1.12288">
        <ele>588.2</ele>
        <time>2026-05-10T09:14:28Z</time>
      </trkpt>
      <trkpt lat="42.96521" lon="1.1231">
        <ele>588.2</ele>
        <time>2026-05-10T09:14:32Z</time>
      </trkpt>
      <trkpt lat="42.96515" lon="1.1232">
        <ele>588.2</ele>
        <time>2026-05-10T09:14:34Z</time>
      </trkpt>
      <trkpt lat="42.96508" lon="1.12329">
        <ele>588.2</ele>
        <time>2026-05-10T09:14:37Z</time>
      </trkpt>
      <trkpt lat="42.96497" lon="1.1234">
        <ele>588.2</ele>
        <time>2026-05-10T09:14:42Z</time>
      </trkpt>
      <trkpt lat="42.96496" lon="1.12348">
        <ele>588.2</ele>
        <time>2026-05-10T09:14:47Z</time>
      </trkpt>
      <trkpt lat="42.96499" lon="1.12352">
        <ele>588.2</ele>
        <time>2026-05-10T09:14:50Z</time>
      </trkpt>
      <trkpt lat="42.96504" lon="1.12355">
        <ele>588.2</ele>
        <time>2026-05-10T09:14:53Z</time>
      </trkpt>
      <trkpt lat="42.96512" lon="1.12364">
        <ele>587.8</ele>
        <time>2026-05-10T09:14:57Z</time>
      </trkpt>
      <trkpt lat="42.96515" lon="1.12366">
        <ele>587.4</ele>
        <time>2026-05-10T09:14:58Z</time>
      </trkpt>
      <trkpt lat="42.96516" lon="1.1237">
        <ele>587</ele>
        <time>2026-05-10T09:14:59Z</time>
      </trkpt>
      <trkpt lat="42.96518" lon="1.12374">
        <ele>586.4</ele>
        <time>2026-05-10T09:15:00Z</time>
      </trkpt>
      <trkpt lat="42.96518" lon="1.12377">
        <ele>586</ele>
        <time>2026-05-10T09:15:01Z</time>
      </trkpt>
      <trkpt lat="42.96519" lon="1.12379">
        <ele>586</ele>
        <time>2026-05-10T09:15:02Z</time>
      </trkpt>
      <trkpt lat="42.96514" lon="1.1238">
        <ele>586</ele>
        <time>2026-05-10T09:15:10Z</time>
      </trkpt>
      <trkpt lat="42.96513" lon="1.1238">
        <ele>586.4</ele>
        <time>2026-05-10T09:15:11Z</time>
      </trkpt>
      <trkpt lat="42.96511" lon="1.1238">
        <ele>586.8</ele>
        <time>2026-05-10T09:15:12Z</time>
      </trkpt>
      <trkpt lat="42.9651" lon="1.1238">
        <ele>587.2</ele>
        <time>2026-05-10T09:15:13Z</time>
      </trkpt>
      <trkpt lat="42.96508" lon="1.1238">
        <ele>587.6</ele>
        <time>2026-05-10T09:15:14Z</time>
      </trkpt>
      <trkpt lat="42.96508" lon="1.12381">
        <ele>588</ele>
        <time>2026-05-10T09:15:15Z</time>
      </trkpt>
      <trkpt lat="42.96506" lon="1.12381">
        <ele>588.6</ele>
        <time>2026-05-10T09:15:16Z</time>
      </trkpt>
      <trkpt lat="42.96505" lon="1.1238">
        <ele>589</ele>
        <time>2026-05-10T09:15:17Z</time>
      </trkpt>
      <trkpt lat="42.96503" lon="1.1238">
        <ele>589.4</ele>
        <time>2026-05-10T09:15:18Z</time>
      </trkpt>
      <trkpt lat="42.96501" lon="1.12379">
        <ele>590</ele>
        <time>2026-05-10T09:15:19Z</time>
      </trkpt>
      <trkpt lat="42.96499" lon="1.12379">
        <ele>590.4</ele>
        <time>2026-05-10T09:15:20Z</time>
      </trkpt>
      <trkpt lat="42.96497" lon="1.12379">
        <ele>591</ele>
        <time>2026-05-10T09:15:21Z</time>
      </trkpt>
      <trkpt lat="42.96495" lon="1.12379">
        <ele>591.6</ele>
        <time>2026-05-10T09:15:22Z</time>
      </trkpt>
      <trkpt lat="42.96492" lon="1.1238">
        <ele>592</ele>
        <time>2026-05-10T09:15:23Z</time>
      </trkpt>
      <trkpt lat="42.9649" lon="1.1238">
        <ele>592.6</ele>
        <time>2026-05-10T09:15:24Z</time>
      </trkpt>
      <trkpt lat="42.96489" lon="1.1238">
        <ele>593.2</ele>
        <time>2026-05-10T09:15:25Z</time>
      </trkpt>
      <trkpt lat="42.96487" lon="1.1238">
        <ele>593.6</ele>
        <time>2026-05-10T09:15:26Z</time>
      </trkpt>
      <trkpt lat="42.96485" lon="1.1238">
        <ele>594.2</ele>
        <time>2026-05-10T09:15:27Z</time>
      </trkpt>
      <trkpt lat="42.96484" lon="1.12381">
        <ele>594.8</ele>
        <time>2026-05-10T09:15:28Z</time>
      </trkpt>
      <trkpt lat="42.96482" lon="1.12381">
        <ele>595.2</ele>
        <time>2026-05-10T09:15:29Z</time>
      </trkpt>
      <trkpt lat="42.96481" lon="1.12381">
        <ele>595.8</ele>
        <time>2026-05-10T09:15:30Z</time>
      </trkpt>
      <trkpt lat="42.96479" lon="1.12381">
        <ele>596.2</ele>
        <time>2026-05-10T09:15:31Z</time>
      </trkpt>
      <trkpt lat="42.96478" lon="1.12381">
        <ele>596.8</ele>
        <time>2026-05-10T09:15:32Z</time>
      </trkpt>
      <trkpt lat="42.96476" lon="1.12381">
        <ele>597.4</ele>
        <time>2026-05-10T09:15:33Z</time>
      </trkpt>
      <trkpt lat="42.96473" lon="1.12381">
        <ele>597.8</ele>
        <time>2026-05-10T09:15:34Z</time>
      </trkpt>
      <trkpt lat="42.9647" lon="1.12381">
        <ele>599</ele>
        <time>2026-05-10T09:15:35Z</time>
      </trkpt>
      <trkpt lat="42.96467" lon="1.1238">
        <ele>599.4</ele>
        <time>2026-05-10T09:15:36Z</time>
      </trkpt>
      <trkpt lat="42.96463" lon="1.12379">
        <ele>600</ele>
        <time>2026-05-10T09:15:37Z</time>
      </trkpt>
      <trkpt lat="42.96461" lon="1.12378">
        <ele>600.6</ele>
        <time>2026-05-10T09:15:38Z</time>
      </trkpt>
      <trkpt lat="42.96457" lon="1.12377">
        <ele>601</ele>
        <time>2026-05-10T09:15:39Z</time>
      </trkpt>
      <trkpt lat="42.96454" lon="1.12376">
        <ele>601.6</ele>
        <time>2026-05-10T09:15:40Z</time>
      </trkpt>
      <trkpt lat="42.96451" lon="1.12375">
        <ele>602</ele>
        <time>2026-05-10T09:15:41Z</time>
      </trkpt>
      <trkpt lat="42.96447" lon="1.12374">
        <ele>602.4</ele>
        <time>2026-05-10T09:15:42Z</time>
      </trkpt>
      <trkpt lat="42.96444" lon="1.12374">
        <ele>603</ele>
        <time>2026-05-10T09:15:43Z</time>
      </trkpt>
      <trkpt lat="42.96442" lon="1.12373">
        <ele>603.4</ele>
        <time>2026-05-10T09:15:44Z</time>
      </trkpt>
      <trkpt lat="42.9644" lon="1.12372">
        <ele>604</ele>
        <time>2026-05-10T09:15:45Z</time>
      </trkpt>
      <trkpt lat="42.96438" lon="1.12371">
        <ele>604.4</ele>
        <time>2026-05-10T09:15:46Z</time>
      </trkpt>
      <trkpt lat="42.96436" lon="1.1237">
        <ele>604.8</ele>
        <time>2026-05-10T09:15:47Z</time>
      </trkpt>
      <trkpt lat="42.96433" lon="1.12369">
        <ele>605.4</ele>
        <time>2026-05-10T09:15:48Z</time>
      </trkpt>
      <trkpt lat="42.96431" lon="1.12368">
        <ele>605.8</ele>
        <time>2026-05-10T09:15:49Z</time>
      </trkpt>
      <trkpt lat="42.96428" lon="1.12367">
        <ele>606.4</ele>
        <time>2026-05-10T09:15:50Z</time>
      </trkpt>
      <trkpt lat="42.96426" lon="1.12367">
        <ele>606.8</ele>
        <time>2026-05-10T09:15:51Z</time>
      </trkpt>
      <trkpt lat="42.96423" lon="1.12366">
        <ele>607.4</ele>
        <time>2026-05-10T09:15:52Z</time>
      </trkpt>
      <trkpt lat="42.96421" lon="1.12366">
        <ele>607.8</ele>
        <time>2026-05-10T09:15:53Z</time>
      </trkpt>
      <trkpt lat="42.9642" lon="1.12365">
        <ele>608.4</ele>
        <time>2026-05-10T09:15:54Z</time>
      </trkpt>
      <trkpt lat="42.96418" lon="1.12365">
        <ele>608.8</ele>
        <time>2026-05-10T09:15:55Z</time>
      </trkpt>
      <trkpt lat="42.96418" lon="1.12364">
        <ele>609.4</ele>
        <time>2026-05-10T09:15:56Z</time>
      </trkpt>
      <trkpt lat="42.96415" lon="1.12363">
        <ele>609.8</ele>
        <time>2026-05-10T09:15:57Z</time>
      </trkpt>
      <trkpt lat="42.96413" lon="1.12362">
        <ele>610.4</ele>
        <time>2026-05-10T09:15:58Z</time>
      </trkpt>
      <trkpt lat="42.96412" lon="1.12361">
        <ele>610.8</ele>
        <time>2026-05-10T09:15:59Z</time>
      </trkpt>
      <trkpt lat="42.9641" lon="1.12361">
        <ele>611.6</ele>
        <time>2026-05-10T09:16:00Z</time>
      </trkpt>
      <trkpt lat="42.96409" lon="1.1236">
        <ele>612</ele>
        <time>2026-05-10T09:16:01Z</time>
      </trkpt>
      <trkpt lat="42.96408" lon="1.12359">
        <ele>612.6</ele>
        <time>2026-05-10T09:16:02Z</time>
      </trkpt>
      <trkpt lat="42.96389" lon="1.12353">
        <ele>615</ele>
        <time>2026-05-10T09:17:00Z</time>
      </trkpt>
      <trkpt lat="42.96379" lon="1.1235">
        <ele>615</ele>
        <time>2026-05-10T09:17:05Z</time>
      </trkpt>
      <trkpt lat="42.96375" lon="1.12347">
        <ele>615.4</ele>
        <time>2026-05-10T09:17:07Z</time>
      </trkpt>
      <trkpt lat="42.96372" lon="1.12346">
        <ele>615.8</ele>
        <time>2026-05-10T09:17:08Z</time>
      </trkpt>
      <trkpt lat="42.9637" lon="1.12346">
        <ele>616.2</ele>
        <time>2026-05-10T09:17:09Z</time>
      </trkpt>
      <trkpt lat="42.96368" lon="1.12345">
        <ele>616.6</ele>
        <time>2026-05-10T09:17:10Z</time>
      </trkpt>
      <trkpt lat="42.96365" lon="1.12344">
        <ele>617.2</ele>
        <time>2026-05-10T09:17:11Z</time>
      </trkpt>
      <trkpt lat="42.96354" lon="1.12344">
        <ele>617.6</ele>
        <time>2026-05-10T09:17:16Z</time>
      </trkpt>
      <trkpt lat="42.96353" lon="1.12345">
        <ele>618</ele>
        <time>2026-05-10T09:17:17Z</time>
      </trkpt>
      <trkpt lat="42.96351" lon="1.12346">
        <ele>618.4</ele>
        <time>2026-05-10T09:17:18Z</time>
      </trkpt>
      <trkpt lat="42.96349" lon="1.12346">
        <ele>619</ele>
        <time>2026-05-10T09:17:19Z</time>
      </trkpt>
      <trkpt lat="42.96348" lon="1.12346">
        <ele>619.4</ele>
        <time>2026-05-10T09:17:20Z</time>
      </trkpt>
      <trkpt lat="42.96343" lon="1.12346">
        <ele>619.8</ele>
        <time>2026-05-10T09:17:23Z</time>
      </trkpt>
      <trkpt lat="42.96341" lon="1.12345">
        <ele>620.4</ele>
        <time>2026-05-10T09:17:24Z</time>
      </trkpt>
      <trkpt lat="42.9634" lon="1.12345">
        <ele>620.8</ele>
        <time>2026-05-10T09:17:25Z</time>
      </trkpt>
      <trkpt lat="42.96339" lon="1.12344">
        <ele>621.2</ele>
        <time>2026-05-10T09:17:26Z</time>
      </trkpt>
      <trkpt lat="42.96338" lon="1.12342">
        <ele>621.6</ele>
        <time>2026-05-10T09:17:27Z</time>
      </trkpt>
      <trkpt lat="42.96338" lon="1.12338">
        <ele>621.6</ele>
        <time>2026-05-10T09:17:30Z</time>
      </trkpt>
      <trkpt lat="42.96339" lon="1.12332">
        <ele>622</ele>
        <time>2026-05-10T09:17:33Z</time>
      </trkpt>
      <trkpt lat="42.9634" lon="1.1233">
        <ele>622.6</ele>
        <time>2026-05-10T09:17:34Z</time>
      </trkpt>
      <trkpt lat="42.96342" lon="1.12328">
        <ele>623</ele>
        <time>2026-05-10T09:17:35Z</time>
      </trkpt>
      <trkpt lat="42.96343" lon="1.12325">
        <ele>623.4</ele>
        <time>2026-05-10T09:17:36Z</time>
      </trkpt>
      <trkpt lat="42.96344" lon="1.12323">
        <ele>623.8</ele>
        <time>2026-05-10T09:17:37Z</time>
      </trkpt>
      <trkpt lat="42.96347" lon="1.12318">
        <ele>624.6</ele>
        <time>2026-05-10T09:17:39Z</time>
      </trkpt>
      <trkpt lat="42.96348" lon="1.12315">
        <ele>625</ele>
        <time>2026-05-10T09:17:40Z</time>
      </trkpt>
      <trkpt lat="42.96349" lon="1.12311">
        <ele>625.4</ele>
        <time>2026-05-10T09:17:41Z</time>
      </trkpt>
      <trkpt lat="42.9635" lon="1.12308">
        <ele>626</ele>
        <time>2026-05-10T09:17:42Z</time>
      </trkpt>
      <trkpt lat="42.96353" lon="1.123">
        <ele>626.4</ele>
        <time>2026-05-10T09:17:44Z</time>
      </trkpt>
      <trkpt lat="42.96354" lon="1.12296">
        <ele>627</ele>
        <time>2026-05-10T09:17:45Z</time>
      </trkpt>
      <trkpt lat="42.96355" lon="1.12292">
        <ele>627.4</ele>
        <time>2026-05-10T09:17:46Z</time>
      </trkpt>
      <trkpt lat="42.96356" lon="1.12287">
        <ele>627.8</ele>
        <time>2026-05-10T09:17:47Z</time>
      </trkpt>
      <trkpt lat="42.96357" lon="1.12283">
        <ele>628.4</ele>
        <time>2026-05-10T09:17:48Z</time>
      </trkpt>
      <trkpt lat="42.96357" lon="1.1228">
        <ele>628.8</ele>
        <time>2026-05-10T09:17:49Z</time>
      </trkpt>
      <trkpt lat="42.96358" lon="1.12277">
        <ele>629.2</ele>
        <time>2026-05-10T09:17:50Z</time>
      </trkpt>
      <trkpt lat="42.96358" lon="1.12276">
        <ele>629.8</ele>
        <time>2026-05-10T09:17:51Z</time>
      </trkpt>
      <trkpt lat="42.9636" lon="1.12273">
        <ele>630.2</ele>
        <time>2026-05-10T09:17:52Z</time>
      </trkpt>
      <trkpt lat="42.9636" lon="1.12269">
        <ele>630.6</ele>
        <time>2026-05-10T09:17:53Z</time>
      </trkpt>
      <trkpt lat="42.96361" lon="1.12264">
        <ele>630.6</ele>
        <time>2026-05-10T09:17:54Z</time>
      </trkpt>
      <trkpt lat="42.96361" lon="1.1226">
        <ele>631</ele>
        <time>2026-05-10T09:17:55Z</time>
      </trkpt>
      <trkpt lat="42.96362" lon="1.12256">
        <ele>631.6</ele>
        <time>2026-05-10T09:17:56Z</time>
      </trkpt>
      <trkpt lat="42.96363" lon="1.12253">
        <ele>632</ele>
        <time>2026-05-10T09:17:57Z</time>
      </trkpt>
      <trkpt lat="42.96363" lon="1.12248">
        <ele>632.4</ele>
        <time>2026-05-10T09:17:58Z</time>
      </trkpt>
      <trkpt lat="42.96363" lon="1.12243">
        <ele>632.8</ele>
        <time>2026-05-10T09:17:59Z</time>
      </trkpt>
      <trkpt lat="42.96363" lon="1.12239">
        <ele>632.8</ele>
        <time>2026-05-10T09:18:00Z</time>
      </trkpt>
      <trkpt lat="42.96364" lon="1.12228">
        <ele>633.4</ele>
        <time>2026-05-10T09:18:02Z</time>
      </trkpt>
      <trkpt lat="42.96365" lon="1.12223">
        <ele>633.8</ele>
        <time>2026-05-10T09:18:03Z</time>
      </trkpt>
      <trkpt lat="42.96366" lon="1.12219">
        <ele>634.8</ele>
        <time>2026-05-10T09:18:04Z</time>
      </trkpt>
      <trkpt lat="42.96366" lon="1.12214">
        <ele>635.2</ele>
        <time>2026-05-10T09:18:05Z</time>
      </trkpt>
      <trkpt lat="42.96366" lon="1.12208">
        <ele>635.2</ele>
        <time>2026-05-10T09:18:06Z</time>
      </trkpt>
      <trkpt lat="42.96366" lon="1.12203">
        <ele>635.8</ele>
        <time>2026-05-10T09:18:07Z</time>
      </trkpt>
      <trkpt lat="42.96366" lon="1.12198">
        <ele>636.2</ele>
        <time>2026-05-10T09:18:08Z</time>
      </trkpt>
      <trkpt lat="42.96366" lon="1.12195">
        <ele>636.8</ele>
        <time>2026-05-10T09:18:09Z</time>
      </trkpt>
      <trkpt lat="42.96365" lon="1.12192">
        <ele>637.2</ele>
        <time>2026-05-10T09:18:10Z</time>
      </trkpt>
      <trkpt lat="42.96365" lon="1.12188">
        <ele>637.6</ele>
        <time>2026-05-10T09:18:11Z</time>
      </trkpt>
      <trkpt lat="42.96365" lon="1.12183">
        <ele>638.2</ele>
        <time>2026-05-10T09:18:12Z</time>
      </trkpt>
      <trkpt lat="42.96364" lon="1.12177">
        <ele>638.6</ele>
        <time>2026-05-10T09:18:13Z</time>
      </trkpt>
      <trkpt lat="42.96364" lon="1.12174">
        <ele>639</ele>
        <time>2026-05-10T09:18:14Z</time>
      </trkpt>
      <trkpt lat="42.96363" lon="1.1217">
        <ele>639.4</ele>
        <time>2026-05-10T09:18:15Z</time>
      </trkpt>
      <trkpt lat="42.96362" lon="1.12166">
        <ele>640</ele>
        <time>2026-05-10T09:18:16Z</time>
      </trkpt>
      <trkpt lat="42.96361" lon="1.12162">
        <ele>640.4</ele>
        <time>2026-05-10T09:18:17Z</time>
      </trkpt>
      <trkpt lat="42.96361" lon="1.12159">
        <ele>640.8</ele>
        <time>2026-05-10T09:18:18Z</time>
      </trkpt>
      <trkpt lat="42.9636" lon="1.12155">
        <ele>641.2</ele>
        <time>2026-05-10T09:18:19Z</time>
      </trkpt>
      <trkpt lat="42.96359" lon="1.12151">
        <ele>641.6</ele>
        <time>2026-05-10T09:18:20Z</time>
      </trkpt>
      <trkpt lat="42.96358" lon="1.12148">
        <ele>642</ele>
        <time>2026-05-10T09:18:21Z</time>
      </trkpt>
      <trkpt lat="42.96355" lon="1.12141">
        <ele>642.4</ele>
        <time>2026-05-10T09:18:23Z</time>
      </trkpt>
      <trkpt lat="42.96355" lon="1.12139">
        <ele>643</ele>
        <time>2026-05-10T09:18:24Z</time>
      </trkpt>
      <trkpt lat="42.96354" lon="1.12138">
        <ele>643.4</ele>
        <time>2026-05-10T09:18:25Z</time>
      </trkpt>
      <trkpt lat="42.96352" lon="1.12135">
        <ele>644</ele>
        <time>2026-05-10T09:18:26Z</time>
      </trkpt>
      <trkpt lat="42.9635" lon="1.12132">
        <ele>644.4</ele>
        <time>2026-05-10T09:18:27Z</time>
      </trkpt>
      <trkpt lat="42.96349" lon="1.12131">
        <ele>645.6</ele>
        <time>2026-05-10T09:18:28Z</time>
      </trkpt>
      <trkpt lat="42.96347" lon="1.1213">
        <ele>646</ele>
        <time>2026-05-10T09:18:29Z</time>
      </trkpt>
      <trkpt lat="42.96345" lon="1.12128">
        <ele>646.6</ele>
        <time>2026-05-10T09:18:30Z</time>
      </trkpt>
      <trkpt lat="42.96344" lon="1.12127">
        <ele>646.6</ele>
        <time>2026-05-10T09:18:31Z</time>
      </trkpt>
      <trkpt lat="42.96342" lon="1.12125">
        <ele>647</ele>
        <time>2026-05-10T09:18:33Z</time>
      </trkpt>
      <trkpt lat="42.96336" lon="1.12121">
        <ele>648.8</ele>
        <time>2026-05-10T09:18:39Z</time>
      </trkpt>
      <trkpt lat="42.96332" lon="1.12121">
        <ele>648.8</ele>
        <time>2026-05-10T09:18:41Z</time>
      </trkpt>
      <trkpt lat="42.96328" lon="1.1212">
        <ele>649.2</ele>
        <time>2026-05-10T09:18:43Z</time>
      </trkpt>
      <trkpt lat="42.96326" lon="1.12119">
        <ele>649.6</ele>
        <time>2026-05-10T09:18:44Z</time>
      </trkpt>
      <trkpt lat="42.96323" lon="1.12118">
        <ele>650</ele>
        <time>2026-05-10T09:18:45Z</time>
      </trkpt>
      <trkpt lat="42.9632" lon="1.12118">
        <ele>650.4</ele>
        <time>2026-05-10T09:18:46Z</time>
      </trkpt>
      <trkpt lat="42.96318" lon="1.12118">
        <ele>650.8</ele>
        <time>2026-05-10T09:18:47Z</time>
      </trkpt>
      <trkpt lat="42.96313" lon="1.12118">
        <ele>650.8</ele>
        <time>2026-05-10T09:18:49Z</time>
      </trkpt>
      <trkpt lat="42.96311" lon="1.12119">
        <ele>651.4</ele>
        <time>2026-05-10T09:18:50Z</time>
      </trkpt>
      <trkpt lat="42.96309" lon="1.12119">
        <ele>651.8</ele>
        <time>2026-05-10T09:18:51Z</time>
      </trkpt>
      <trkpt lat="42.96306" lon="1.12119">
        <ele>652.2</ele>
        <time>2026-05-10T09:18:52Z</time>
      </trkpt>
      <trkpt lat="42.96304" lon="1.12119">
        <ele>652.8</ele>
        <time>2026-05-10T09:18:53Z</time>
      </trkpt>
      <trkpt lat="42.96302" lon="1.1212">
        <ele>653.2</ele>
        <time>2026-05-10T09:18:54Z</time>
      </trkpt>
      <trkpt lat="42.96298" lon="1.1212">
        <ele>653.2</ele>
        <time>2026-05-10T09:18:56Z</time>
      </trkpt>
      <trkpt lat="42.96296" lon="1.1212">
        <ele>653.6</ele>
        <time>2026-05-10T09:18:57Z</time>
      </trkpt>
      <trkpt lat="42.96294" lon="1.1212">
        <ele>654</ele>
        <time>2026-05-10T09:18:58Z</time>
      </trkpt>
      <trkpt lat="42.96292" lon="1.1212">
        <ele>654.4</ele>
        <time>2026-05-10T09:18:59Z</time>
      </trkpt>
      <trkpt lat="42.96291" lon="1.12121">
        <ele>654.8</ele>
        <time>2026-05-10T09:19:00Z</time>
      </trkpt>
      <trkpt lat="42.96289" lon="1.1212">
        <ele>655.2</ele>
        <time>2026-05-10T09:19:01Z</time>
      </trkpt>
      <trkpt lat="42.96288" lon="1.12119">
        <ele>655.6</ele>
        <time>2026-05-10T09:19:02Z</time>
      </trkpt>
      <trkpt lat="42.96288" lon="1.12117">
        <ele>656</ele>
        <time>2026-05-10T09:19:03Z</time>
      </trkpt>
      <trkpt lat="42.96288" lon="1.12116">
        <ele>656.6</ele>
        <time>2026-05-10T09:19:04Z</time>
      </trkpt>
      <trkpt lat="42.96288" lon="1.12115">
        <ele>657</ele>
        <time>2026-05-10T09:19:05Z</time>
      </trkpt>
      <trkpt lat="42.96287" lon="1.12113">
        <ele>657.4</ele>
        <time>2026-05-10T09:19:06Z</time>
      </trkpt>
      <trkpt lat="42.96287" lon="1.12111">
        <ele>657.8</ele>
        <time>2026-05-10T09:19:07Z</time>
      </trkpt>
      <trkpt lat="42.96287" lon="1.12109">
        <ele>658.2</ele>
        <time>2026-05-10T09:19:08Z</time>
      </trkpt>
      <trkpt lat="42.96287" lon="1.12108">
        <ele>658.6</ele>
        <time>2026-05-10T09:19:09Z</time>
      </trkpt>
      <trkpt lat="42.96287" lon="1.12105">
        <ele>659</ele>
        <time>2026-05-10T09:19:10Z</time>
      </trkpt>
      <trkpt lat="42.96286" lon="1.12103">
        <ele>659.4</ele>
        <time>2026-05-10T09:19:11Z</time>
      </trkpt>
      <trkpt lat="42.96283" lon="1.12093">
        <ele>659.8</ele>
        <time>2026-05-10T09:19:15Z</time>
      </trkpt>
      <trkpt lat="42.96283" lon="1.12091">
        <ele>660.4</ele>
        <time>2026-05-10T09:19:16Z</time>
      </trkpt>
      <trkpt lat="42.96283" lon="1.12089">
        <ele>660.8</ele>
        <time>2026-05-10T09:19:17Z</time>
      </trkpt>
      <trkpt lat="42.96283" lon="1.12086">
        <ele>661.6</ele>
        <time>2026-05-10T09:19:18Z</time>
      </trkpt>
      <trkpt lat="42.96281" lon="1.12082">
        <ele>661.6</ele>
        <time>2026-05-10T09:19:21Z</time>
      </trkpt>
      <trkpt lat="42.96279" lon="1.12074">
        <ele>662</ele>
        <time>2026-05-10T09:21:53Z</time>
      </trkpt>
      <trkpt lat="42.96279" lon="1.12073">
        <ele>662.4</ele>
        <time>2026-05-10T09:21:54Z</time>
      </trkpt>
      <trkpt lat="42.96278" lon="1.1207">
        <ele>662.8</ele>
        <time>2026-05-10T09:21:55Z</time>
      </trkpt>
      <trkpt lat="42.96277" lon="1.12068">
        <ele>663.2</ele>
        <time>2026-05-10T09:21:56Z</time>
      </trkpt>
      <trkpt lat="42.96276" lon="1.12066">
        <ele>663.6</ele>
        <time>2026-05-10T09:21:57Z</time>
      </trkpt>
      <trkpt lat="42.96275" lon="1.1206">
        <ele>663.6</ele>
        <time>2026-05-10T09:21:59Z</time>
      </trkpt>
      <trkpt lat="42.96272" lon="1.12052">
        <ele>663.6</ele>
        <time>2026-05-10T09:22:02Z</time>
      </trkpt>
      <trkpt lat="42.96265" lon="1.12035">
        <ele>663.6</ele>
        <time>2026-05-10T09:22:08Z</time>
      </trkpt>
      <trkpt lat="42.96259" lon="1.12023">
        <ele>664.2</ele>
        <time>2026-05-10T09:22:13Z</time>
      </trkpt>
      <trkpt lat="42.96258" lon="1.1202">
        <ele>664.6</ele>
        <time>2026-05-10T09:22:14Z</time>
      </trkpt>
      <trkpt lat="42.96256" lon="1.12018">
        <ele>665</ele>
        <time>2026-05-10T09:22:15Z</time>
      </trkpt>
      <trkpt lat="42.96255" lon="1.12016">
        <ele>665.4</ele>
        <time>2026-05-10T09:22:16Z</time>
      </trkpt>
      <trkpt lat="42.96255" lon="1.12013">
        <ele>665.8</ele>
        <time>2026-05-10T09:22:17Z</time>
      </trkpt>
      <trkpt lat="42.9625" lon="1.12004">
        <ele>665.8</ele>
        <time>2026-05-10T09:22:21Z</time>
      </trkpt>
      <trkpt lat="42.96247" lon="1.11997">
        <ele>666.2</ele>
        <time>2026-05-10T09:22:24Z</time>
      </trkpt>
      <trkpt lat="42.96247" lon="1.11995">
        <ele>666.6</ele>
        <time>2026-05-10T09:22:25Z</time>
      </trkpt>
      <trkpt lat="42.96246" lon="1.11993">
        <ele>667</ele>
        <time>2026-05-10T09:22:26Z</time>
      </trkpt>
      <trkpt lat="42.96245" lon="1.11991">
        <ele>667.4</ele>
        <time>2026-05-10T09:22:27Z</time>
      </trkpt>
      <trkpt lat="42.96244" lon="1.11988">
        <ele>667.8</ele>
        <time>2026-05-10T09:22:28Z</time>
      </trkpt>
      <trkpt lat="42.9624" lon="1.1198">
        <ele>668.4</ele>
        <time>2026-05-10T09:22:32Z</time>
      </trkpt>
      <trkpt lat="42.96239" lon="1.11978">
        <ele>668.8</ele>
        <time>2026-05-10T09:22:33Z</time>
      </trkpt>
      <trkpt lat="42.96239" lon="1.11976">
        <ele>669.2</ele>
        <time>2026-05-10T09:22:34Z</time>
      </trkpt>
      <trkpt lat="42.96238" lon="1.11974">
        <ele>669.6</ele>
        <time>2026-05-10T09:22:35Z</time>
      </trkpt>
      <trkpt lat="42.96237" lon="1.11971">
        <ele>670.2</ele>
        <time>2026-05-10T09:22:36Z</time>
      </trkpt>
      <trkpt lat="42.96235" lon="1.11964">
        <ele>670.2</ele>
        <time>2026-05-10T09:22:39Z</time>
      </trkpt>
      <trkpt lat="42.96234" lon="1.11955">
        <ele>670.6</ele>
        <time>2026-05-10T09:22:42Z</time>
      </trkpt>
      <trkpt lat="42.96233" lon="1.11951">
        <ele>671</ele>
        <time>2026-05-10T09:22:43Z</time>
      </trkpt>
      <trkpt lat="42.96233" lon="1.11948">
        <ele>671.6</ele>
        <time>2026-05-10T09:22:44Z</time>
      </trkpt>
      <trkpt lat="42.96232" lon="1.11945">
        <ele>672</ele>
        <time>2026-05-10T09:22:45Z</time>
      </trkpt>
      <trkpt lat="42.96231" lon="1.11942">
        <ele>672.4</ele>
        <time>2026-05-10T09:22:46Z</time>
      </trkpt>
      <trkpt lat="42.96225" lon="1.11921">
        <ele>672.4</ele>
        <time>2026-05-10T09:22:52Z</time>
      </trkpt>
      <trkpt lat="42.96221" lon="1.11907">
        <ele>673</ele>
        <time>2026-05-10T09:22:56Z</time>
      </trkpt>
      <trkpt lat="42.9622" lon="1.11904">
        <ele>673.4</ele>
        <time>2026-05-10T09:22:57Z</time>
      </trkpt>
      <trkpt lat="42.96219" lon="1.119">
        <ele>673.8</ele>
        <time>2026-05-10T09:22:58Z</time>
      </trkpt>
      <trkpt lat="42.96218" lon="1.11896">
        <ele>674.2</ele>
        <time>2026-05-10T09:22:59Z</time>
      </trkpt>
      <trkpt lat="42.96217" lon="1.11892">
        <ele>674.8</ele>
        <time>2026-05-10T09:23:00Z</time>
      </trkpt>
      <trkpt lat="42.96212" lon="1.11867">
        <ele>674.8</ele>
        <time>2026-05-10T09:23:05Z</time>
      </trkpt>
      <trkpt lat="42.96211" lon="1.11833">
        <ele>674.8</ele>
        <time>2026-05-10T09:23:12Z</time>
      </trkpt>
      <trkpt lat="42.96211" lon="1.11819">
        <ele>674.8</ele>
        <time>2026-05-10T09:23:16Z</time>
      </trkpt>
      <trkpt lat="42.96213" lon="1.11809">
        <ele>674.4</ele>
        <time>2026-05-10T09:23:19Z</time>
      </trkpt>
      <trkpt lat="42.96214" lon="1.11803">
        <ele>674</ele>
        <time>2026-05-10T09:23:20Z</time>
      </trkpt>
      <trkpt lat="42.96214" lon="1.11798">
        <ele>673.6</ele>
        <time>2026-05-10T09:23:21Z</time>
      </trkpt>
      <trkpt lat="42.96216" lon="1.11792">
        <ele>673.2</ele>
        <time>2026-05-10T09:23:22Z</time>
      </trkpt>
      <trkpt lat="42.96217" lon="1.1179">
        <ele>672.8</ele>
        <time>2026-05-10T09:23:23Z</time>
      </trkpt>
      <trkpt lat="42.96218" lon="1.11782">
        <ele>672.8</ele>
        <time>2026-05-10T09:23:25Z</time>
      </trkpt>
      <trkpt lat="42.96211" lon="1.11762">
        <ele>672.8</ele>
        <time>2026-05-10T09:23:29Z</time>
      </trkpt>
      <trkpt lat="42.96197" lon="1.11737">
        <ele>672.8</ele>
        <time>2026-05-10T09:23:35Z</time>
      </trkpt>
      <trkpt lat="42.96179" lon="1.11719">
        <ele>672.8</ele>
        <time>2026-05-10T09:23:41Z</time>
      </trkpt>
      <trkpt lat="42.96176" lon="1.11717">
        <ele>672.8</ele>
        <time>2026-05-10T09:23:42Z</time>
      </trkpt>
      <trkpt lat="42.96157" lon="1.11708">
        <ele>672.8</ele>
        <time>2026-05-10T09:23:48Z</time>
      </trkpt>
      <trkpt lat="42.96151" lon="1.11709">
        <ele>673.6</ele>
        <time>2026-05-10T09:23:50Z</time>
      </trkpt>
      <trkpt lat="42.96149" lon="1.11709">
        <ele>674</ele>
        <time>2026-05-10T09:23:51Z</time>
      </trkpt>
      <trkpt lat="42.96147" lon="1.11707">
        <ele>674.6</ele>
        <time>2026-05-10T09:23:52Z</time>
      </trkpt>
      <trkpt lat="42.96146" lon="1.11707">
        <ele>675</ele>
        <time>2026-05-10T09:23:53Z</time>
      </trkpt>
      <trkpt lat="42.96146" lon="1.11708">
        <ele>675</ele>
        <time>2026-05-10T09:23:55Z</time>
      </trkpt>
      <trkpt lat="42.96141" lon="1.11714">
        <ele>675</ele>
        <time>2026-05-10T09:24:05Z</time>
      </trkpt>
      <trkpt lat="42.96128" lon="1.1172">
        <ele>675.4</ele>
        <time>2026-05-10T09:24:09Z</time>
      </trkpt>
      <trkpt lat="42.96125" lon="1.11724">
        <ele>675.8</ele>
        <time>2026-05-10T09:24:10Z</time>
      </trkpt>
      <trkpt lat="42.96123" lon="1.11727">
        <ele>676.2</ele>
        <time>2026-05-10T09:24:11Z</time>
      </trkpt>
      <trkpt lat="42.96121" lon="1.1173">
        <ele>676.6</ele>
        <time>2026-05-10T09:24:12Z</time>
      </trkpt>
      <trkpt lat="42.9612" lon="1.11732">
        <ele>677</ele>
        <time>2026-05-10T09:24:13Z</time>
      </trkpt>
      <trkpt lat="42.96117" lon="1.11734">
        <ele>677</ele>
        <time>2026-05-10T09:24:14Z</time>
      </trkpt>
      <trkpt lat="42.96104" lon="1.11751">
        <ele>677</ele>
        <time>2026-05-10T09:24:19Z</time>
      </trkpt>
      <trkpt lat="42.96099" lon="1.11765">
        <ele>677.4</ele>
        <time>2026-05-10T09:24:22Z</time>
      </trkpt>
      <trkpt lat="42.96098" lon="1.1177">
        <ele>677.8</ele>
        <time>2026-05-10T09:24:23Z</time>
      </trkpt>
      <trkpt lat="42.96097" lon="1.11774">
        <ele>678.2</ele>
        <time>2026-05-10T09:24:24Z</time>
      </trkpt>
      <trkpt lat="42.96096" lon="1.11778">
        <ele>678.6</ele>
        <time>2026-05-10T09:24:25Z</time>
      </trkpt>
      <trkpt lat="42.96094" lon="1.11782">
        <ele>679</ele>
        <time>2026-05-10T09:24:26Z</time>
      </trkpt>
      <trkpt lat="42.96087" lon="1.118">
        <ele>679</ele>
        <time>2026-05-10T09:24:30Z</time>
      </trkpt>
      <trkpt lat="42.96084" lon="1.11805">
        <ele>679</ele>
        <time>2026-05-10T09:24:31Z</time>
      </trkpt>
      <trkpt lat="42.96072" lon="1.11823">
        <ele>679</ele>
        <time>2026-05-10T09:24:35Z</time>
      </trkpt>
      <trkpt lat="42.96052" lon="1.11851">
        <ele>679</ele>
        <time>2026-05-10T09:24:40Z</time>
      </trkpt>
      <trkpt lat="42.96049" lon="1.11859">
        <ele>679</ele>
        <time>2026-05-10T09:24:41Z</time>
      </trkpt>
      <trkpt lat="42.96045" lon="1.11875">
        <ele>679</ele>
        <time>2026-05-10T09:24:43Z</time>
      </trkpt>
      <trkpt lat="42.96036" lon="1.11906">
        <ele>679</ele>
        <time>2026-05-10T09:24:48Z</time>
      </trkpt>
      <trkpt lat="42.96023" lon="1.11945">
        <ele>679.6</ele>
        <time>2026-05-10T09:24:55Z</time>
      </trkpt>
      <trkpt lat="42.96021" lon="1.11949">
        <ele>680</ele>
        <time>2026-05-10T09:24:56Z</time>
      </trkpt>
      <trkpt lat="42.96019" lon="1.11954">
        <ele>680.4</ele>
        <time>2026-05-10T09:24:57Z</time>
      </trkpt>
      <trkpt lat="42.96016" lon="1.11958">
        <ele>680.8</ele>
        <time>2026-05-10T09:24:58Z</time>
      </trkpt>
      <trkpt lat="42.96014" lon="1.11962">
        <ele>681.4</ele>
        <time>2026-05-10T09:24:59Z</time>
      </trkpt>
      <trkpt lat="42.96011" lon="1.11967">
        <ele>681.8</ele>
        <time>2026-05-10T09:25:00Z</time>
      </trkpt>
      <trkpt lat="42.96009" lon="1.11972">
        <ele>682.2</ele>
        <time>2026-05-10T09:25:01Z</time>
      </trkpt>
      <trkpt lat="42.96006" lon="1.11977">
        <ele>682.6</ele>
        <time>2026-05-10T09:25:02Z</time>
      </trkpt>
      <trkpt lat="42.96003" lon="1.11982">
        <ele>683</ele>
        <time>2026-05-10T09:25:03Z</time>
      </trkpt>
      <trkpt lat="42.96" lon="1.11987">
        <ele>683.4</ele>
        <time>2026-05-10T09:25:04Z</time>
      </trkpt>
      <trkpt lat="42.95997" lon="1.11991">
        <ele>683.4</ele>
        <time>2026-05-10T09:25:05Z</time>
      </trkpt>
      <trkpt lat="42.9599" lon="1.12">
        <ele>683.4</ele>
        <time>2026-05-10T09:25:07Z</time>
      </trkpt>
      <trkpt lat="42.95987" lon="1.12006">
        <ele>683.4</ele>
        <time>2026-05-10T09:25:08Z</time>
      </trkpt>
      <trkpt lat="42.95972" lon="1.12031">
        <ele>683.4</ele>
        <time>2026-05-10T09:25:13Z</time>
      </trkpt>
      <trkpt lat="42.95966" lon="1.1204">
        <ele>683.8</ele>
        <time>2026-05-10T09:25:15Z</time>
      </trkpt>
      <trkpt lat="42.95963" lon="1.12045">
        <ele>684.4</ele>
        <time>2026-05-10T09:25:16Z</time>
      </trkpt>
      <trkpt lat="42.95961" lon="1.12049">
        <ele>684.8</ele>
        <time>2026-05-10T09:25:17Z</time>
      </trkpt>
      <trkpt lat="42.95958" lon="1.12054">
        <ele>685.2</ele>
        <time>2026-05-10T09:25:18Z</time>
      </trkpt>
      <trkpt lat="42.95955" lon="1.12058">
        <ele>685.6</ele>
        <time>2026-05-10T09:25:19Z</time>
      </trkpt>
      <trkpt lat="42.95952" lon="1.12064">
        <ele>685.6</ele>
        <time>2026-05-10T09:25:20Z</time>
      </trkpt>
      <trkpt lat="42.95945" lon="1.12083">
        <ele>685.6</ele>
        <time>2026-05-10T09:25:23Z</time>
      </trkpt>
      <trkpt lat="42.95942" lon="1.12088">
        <ele>685.6</ele>
        <time>2026-05-10T09:25:24Z</time>
      </trkpt>
      <trkpt lat="42.9594" lon="1.12093">
        <ele>686</ele>
        <time>2026-05-10T09:25:25Z</time>
      </trkpt>
      <trkpt lat="42.95938" lon="1.12098">
        <ele>686.4</ele>
        <time>2026-05-10T09:25:26Z</time>
      </trkpt>
      <trkpt lat="42.95936" lon="1.12103">
        <ele>686.8</ele>
        <time>2026-05-10T09:25:27Z</time>
      </trkpt>
      <trkpt lat="42.95934" lon="1.12108">
        <ele>687.2</ele>
        <time>2026-05-10T09:25:28Z</time>
      </trkpt>
      <trkpt lat="42.95932" lon="1.12113">
        <ele>688.4</ele>
        <time>2026-05-10T09:25:29Z</time>
      </trkpt>
      <trkpt lat="42.95931" lon="1.12117">
        <ele>688.8</ele>
        <time>2026-05-10T09:25:30Z</time>
      </trkpt>
      <trkpt lat="42.95929" lon="1.12122">
        <ele>689.4</ele>
        <time>2026-05-10T09:25:31Z</time>
      </trkpt>
      <trkpt lat="42.95927" lon="1.12126">
        <ele>690</ele>
        <time>2026-05-10T09:25:32Z</time>
      </trkpt>
      <trkpt lat="42.95925" lon="1.1213">
        <ele>690.4</ele>
        <time>2026-05-10T09:25:33Z</time>
      </trkpt>
      <trkpt lat="42.95923" lon="1.12134">
        <ele>690.8</ele>
        <time>2026-05-10T09:25:34Z</time>
      </trkpt>
      <trkpt lat="42.95921" lon="1.12138">
        <ele>691.4</ele>
        <time>2026-05-10T09:25:35Z</time>
      </trkpt>
      <trkpt lat="42.95919" lon="1.12142">
        <ele>691.8</ele>
        <time>2026-05-10T09:25:36Z</time>
      </trkpt>
      <trkpt lat="42.95917" lon="1.12146">
        <ele>692.2</ele>
        <time>2026-05-10T09:25:37Z</time>
      </trkpt>
      <trkpt lat="42.95913" lon="1.12153">
        <ele>692.6</ele>
        <time>2026-05-10T09:25:39Z</time>
      </trkpt>
      <trkpt lat="42.95911" lon="1.12158">
        <ele>693.2</ele>
        <time>2026-05-10T09:25:40Z</time>
      </trkpt>
      <trkpt lat="42.95909" lon="1.12162">
        <ele>693.6</ele>
        <time>2026-05-10T09:25:41Z</time>
      </trkpt>
      <trkpt lat="42.95907" lon="1.12166">
        <ele>694</ele>
        <time>2026-05-10T09:25:42Z</time>
      </trkpt>
      <trkpt lat="42.95906" lon="1.12169">
        <ele>694.6</ele>
        <time>2026-05-10T09:25:43Z</time>
      </trkpt>
      <trkpt lat="42.95901" lon="1.12181">
        <ele>695</ele>
        <time>2026-05-10T09:25:46Z</time>
      </trkpt>
      <trkpt lat="42.95899" lon="1.12185">
        <ele>695.4</ele>
        <time>2026-05-10T09:25:47Z</time>
      </trkpt>
      <trkpt lat="42.95897" lon="1.12189">
        <ele>695.8</ele>
        <time>2026-05-10T09:25:48Z</time>
      </trkpt>
      <trkpt lat="42.95896" lon="1.12192">
        <ele>696.2</ele>
        <time>2026-05-10T09:25:49Z</time>
      </trkpt>
      <trkpt lat="42.95894" lon="1.12195">
        <ele>696.6</ele>
        <time>2026-05-10T09:25:50Z</time>
      </trkpt>
      <trkpt lat="42.95882" lon="1.12215">
        <ele>696.6</ele>
        <time>2026-05-10T09:25:57Z</time>
      </trkpt>
      <trkpt lat="42.9588" lon="1.12218">
        <ele>697</ele>
        <time>2026-05-10T09:25:58Z</time>
      </trkpt>
      <trkpt lat="42.95878" lon="1.12222">
        <ele>697.4</ele>
        <time>2026-05-10T09:25:59Z</time>
      </trkpt>
      <trkpt lat="42.95875" lon="1.12225">
        <ele>697.8</ele>
        <time>2026-05-10T09:26:00Z</time>
      </trkpt>
      <trkpt lat="42.95874" lon="1.12229">
        <ele>698.2</ele>
        <time>2026-05-10T09:26:01Z</time>
      </trkpt>
      <trkpt lat="42.95871" lon="1.12233">
        <ele>698.6</ele>
        <time>2026-05-10T09:26:02Z</time>
      </trkpt>
      <trkpt lat="42.9586" lon="1.12256">
        <ele>699</ele>
        <time>2026-05-10T09:26:08Z</time>
      </trkpt>
      <trkpt lat="42.95859" lon="1.1226">
        <ele>699.4</ele>
        <time>2026-05-10T09:26:09Z</time>
      </trkpt>
      <trkpt lat="42.95857" lon="1.12264">
        <ele>699.8</ele>
        <time>2026-05-10T09:26:10Z</time>
      </trkpt>
      <trkpt lat="42.95855" lon="1.12268">
        <ele>700.2</ele>
        <time>2026-05-10T09:26:11Z</time>
      </trkpt>
      <trkpt lat="42.95854" lon="1.12272">
        <ele>700.8</ele>
        <time>2026-05-10T09:26:12Z</time>
      </trkpt>
      <trkpt lat="42.95847" lon="1.12289">
        <ele>700.8</ele>
        <time>2026-05-10T09:26:16Z</time>
      </trkpt>
      <trkpt lat="42.95846" lon="1.12293">
        <ele>701.2</ele>
        <time>2026-05-10T09:26:17Z</time>
      </trkpt>
      <trkpt lat="42.95845" lon="1.12297">
        <ele>702</ele>
        <time>2026-05-10T09:26:18Z</time>
      </trkpt>
      <trkpt lat="42.95844" lon="1.123">
        <ele>702.6</ele>
        <time>2026-05-10T09:26:19Z</time>
      </trkpt>
      <trkpt lat="42.95843" lon="1.12304">
        <ele>703</ele>
        <time>2026-05-10T09:26:20Z</time>
      </trkpt>
      <trkpt lat="42.95841" lon="1.12311">
        <ele>703.4</ele>
        <time>2026-05-10T09:26:22Z</time>
      </trkpt>
      <trkpt lat="42.9584" lon="1.12315">
        <ele>704</ele>
        <time>2026-05-10T09:26:23Z</time>
      </trkpt>
      <trkpt lat="42.95839" lon="1.12319">
        <ele>704.4</ele>
        <time>2026-05-10T09:26:24Z</time>
      </trkpt>
      <trkpt lat="42.95838" lon="1.12324">
        <ele>704.8</ele>
        <time>2026-05-10T09:26:25Z</time>
      </trkpt>
      <trkpt lat="42.95838" lon="1.12328">
        <ele>705.4</ele>
        <time>2026-05-10T09:26:26Z</time>
      </trkpt>
      <trkpt lat="42.95838" lon="1.12332">
        <ele>705.8</ele>
        <time>2026-05-10T09:26:27Z</time>
      </trkpt>
      <trkpt lat="42.95837" lon="1.12336">
        <ele>706.4</ele>
        <time>2026-05-10T09:26:28Z</time>
      </trkpt>
      <trkpt lat="42.95836" lon="1.12339">
        <ele>706.8</ele>
        <time>2026-05-10T09:26:29Z</time>
      </trkpt>
      <trkpt lat="42.95836" lon="1.12343">
        <ele>707.2</ele>
        <time>2026-05-10T09:26:30Z</time>
      </trkpt>
      <trkpt lat="42.95836" lon="1.12346">
        <ele>707.6</ele>
        <time>2026-05-10T09:26:31Z</time>
      </trkpt>
      <trkpt lat="42.95836" lon="1.1235">
        <ele>708.2</ele>
        <time>2026-05-10T09:26:32Z</time>
      </trkpt>
      <trkpt lat="42.95836" lon="1.12354">
        <ele>708.6</ele>
        <time>2026-05-10T09:26:33Z</time>
      </trkpt>
      <trkpt lat="42.95835" lon="1.12359">
        <ele>709</ele>
        <time>2026-05-10T09:26:34Z</time>
      </trkpt>
      <trkpt lat="42.95835" lon="1.12364">
        <ele>709.6</ele>
        <time>2026-05-10T09:26:35Z</time>
      </trkpt>
      <trkpt lat="42.95834" lon="1.12369">
        <ele>710</ele>
        <time>2026-05-10T09:26:36Z</time>
      </trkpt>
      <trkpt lat="42.95833" lon="1.12373">
        <ele>710.4</ele>
        <time>2026-05-10T09:26:37Z</time>
      </trkpt>
      <trkpt lat="42.95831" lon="1.12378">
        <ele>710.8</ele>
        <time>2026-05-10T09:26:38Z</time>
      </trkpt>
      <trkpt lat="42.9583" lon="1.12381">
        <ele>711.2</ele>
        <time>2026-05-10T09:26:39Z</time>
      </trkpt>
      <trkpt lat="42.9583" lon="1.12385">
        <ele>711.6</ele>
        <time>2026-05-10T09:26:40Z</time>
      </trkpt>
      <trkpt lat="42.95829" lon="1.12388">
        <ele>712.2</ele>
        <time>2026-05-10T09:26:41Z</time>
      </trkpt>
      <trkpt lat="42.95828" lon="1.12392">
        <ele>712.6</ele>
        <time>2026-05-10T09:26:42Z</time>
      </trkpt>
      <trkpt lat="42.95827" lon="1.12396">
        <ele>713.6</ele>
        <time>2026-05-10T09:26:43Z</time>
      </trkpt>
      <trkpt lat="42.95826" lon="1.12399">
        <ele>714.2</ele>
        <time>2026-05-10T09:26:44Z</time>
      </trkpt>
      <trkpt lat="42.95826" lon="1.12403">
        <ele>714.6</ele>
        <time>2026-05-10T09:26:45Z</time>
      </trkpt>
      <trkpt lat="42.95825" lon="1.12407">
        <ele>715</ele>
        <time>2026-05-10T09:26:46Z</time>
      </trkpt>
      <trkpt lat="42.95824" lon="1.12411">
        <ele>715.4</ele>
        <time>2026-05-10T09:26:47Z</time>
      </trkpt>
      <trkpt lat="42.95823" lon="1.12416">
        <ele>716</ele>
        <time>2026-05-10T09:26:48Z</time>
      </trkpt>
      <trkpt lat="42.95822" lon="1.1242">
        <ele>716.4</ele>
        <time>2026-05-10T09:26:49Z</time>
      </trkpt>
      <trkpt lat="42.95821" lon="1.12423">
        <ele>716.8</ele>
        <time>2026-05-10T09:26:50Z</time>
      </trkpt>
      <trkpt lat="42.95821" lon="1.12427">
        <ele>717.2</ele>
        <time>2026-05-10T09:26:51Z</time>
      </trkpt>
      <trkpt lat="42.95821" lon="1.12431">
        <ele>717.8</ele>
        <time>2026-05-10T09:26:52Z</time>
      </trkpt>
      <trkpt lat="42.9582" lon="1.12434">
        <ele>718.2</ele>
        <time>2026-05-10T09:26:53Z</time>
      </trkpt>
      <trkpt lat="42.95819" lon="1.12438">
        <ele>718.6</ele>
        <time>2026-05-10T09:26:54Z</time>
      </trkpt>
      <trkpt lat="42.95819" lon="1.12442">
        <ele>718.6</ele>
        <time>2026-05-10T09:26:55Z</time>
      </trkpt>
      <trkpt lat="42.95818" lon="1.12445">
        <ele>719</ele>
        <time>2026-05-10T09:26:56Z</time>
      </trkpt>
      <trkpt lat="42.95818" lon="1.12449">
        <ele>719.6</ele>
        <time>2026-05-10T09:26:57Z</time>
      </trkpt>
      <trkpt lat="42.95818" lon="1.12453">
        <ele>720</ele>
        <time>2026-05-10T09:26:58Z</time>
      </trkpt>
      <trkpt lat="42.95818" lon="1.12458">
        <ele>720.4</ele>
        <time>2026-05-10T09:26:59Z</time>
      </trkpt>
      <trkpt lat="42.95817" lon="1.12462">
        <ele>720.8</ele>
        <time>2026-05-10T09:27:00Z</time>
      </trkpt>
      <trkpt lat="42.95817" lon="1.12465">
        <ele>721.2</ele>
        <time>2026-05-10T09:27:01Z</time>
      </trkpt>
      <trkpt lat="42.95816" lon="1.12469">
        <ele>721.8</ele>
        <time>2026-05-10T09:27:02Z</time>
      </trkpt>
      <trkpt lat="42.95816" lon="1.12473">
        <ele>722.2</ele>
        <time>2026-05-10T09:27:03Z</time>
      </trkpt>
      <trkpt lat="42.95816" lon="1.12477">
        <ele>722.6</ele>
        <time>2026-05-10T09:27:04Z</time>
      </trkpt>
      <trkpt lat="42.95817" lon="1.1248">
        <ele>723</ele>
        <time>2026-05-10T09:27:05Z</time>
      </trkpt>
      <trkpt lat="42.95818" lon="1.12487">
        <ele>723.4</ele>
        <time>2026-05-10T09:27:07Z</time>
      </trkpt>
      <trkpt lat="42.95819" lon="1.1249">
        <ele>724</ele>
        <time>2026-05-10T09:27:08Z</time>
      </trkpt>
      <trkpt lat="42.95817" lon="1.12494">
        <ele>724.4</ele>
        <time>2026-05-10T09:27:09Z</time>
      </trkpt>
      <trkpt lat="42.95817" lon="1.12498">
        <ele>724.8</ele>
        <time>2026-05-10T09:27:10Z</time>
      </trkpt>
      <trkpt lat="42.95816" lon="1.12501">
        <ele>725.2</ele>
        <time>2026-05-10T09:27:11Z</time>
      </trkpt>
      <trkpt lat="42.95814" lon="1.12504">
        <ele>725.2</ele>
        <time>2026-05-10T09:27:12Z</time>
      </trkpt>
      <trkpt lat="42.95804" lon="1.12515">
        <ele>725.2</ele>
        <time>2026-05-10T09:27:17Z</time>
      </trkpt>
      <trkpt lat="42.95786" lon="1.12528">
        <ele>725.2</ele>
        <time>2026-05-10T09:27:24Z</time>
      </trkpt>
      <trkpt lat="42.95785" lon="1.12528">
        <ele>725.2</ele>
        <time>2026-05-10T09:27:26Z</time>
      </trkpt>
      <trkpt lat="42.95782" lon="1.12527">
        <ele>727.6</ele>
        <time>2026-05-10T09:28:01Z</time>
      </trkpt>
      <trkpt lat="42.9578" lon="1.12525">
        <ele>727.6</ele>
        <time>2026-05-10T09:28:02Z</time>
      </trkpt>
      <trkpt lat="42.95769" lon="1.1252">
        <ele>727.6</ele>
        <time>2026-05-10T09:28:06Z</time>
      </trkpt>
      <trkpt lat="42.95766" lon="1.12521">
        <ele>727.6</ele>
        <time>2026-05-10T09:28:07Z</time>
      </trkpt>
      <trkpt lat="42.95763" lon="1.12522">
        <ele>728</ele>
        <time>2026-05-10T09:28:08Z</time>
      </trkpt>
      <trkpt lat="42.95761" lon="1.12524">
        <ele>728.6</ele>
        <time>2026-05-10T09:28:09Z</time>
      </trkpt>
      <trkpt lat="42.95759" lon="1.12527">
        <ele>729</ele>
        <time>2026-05-10T09:28:10Z</time>
      </trkpt>
      <trkpt lat="42.95758" lon="1.1253">
        <ele>729.6</ele>
        <time>2026-05-10T09:28:11Z</time>
      </trkpt>
      <trkpt lat="42.95756" lon="1.12534">
        <ele>730</ele>
        <time>2026-05-10T09:28:12Z</time>
      </trkpt>
      <trkpt lat="42.95755" lon="1.12537">
        <ele>730.6</ele>
        <time>2026-05-10T09:28:13Z</time>
      </trkpt>
      <trkpt lat="42.95753" lon="1.1254">
        <ele>731.2</ele>
        <time>2026-05-10T09:28:14Z</time>
      </trkpt>
      <trkpt lat="42.95752" lon="1.12544">
        <ele>731.8</ele>
        <time>2026-05-10T09:28:15Z</time>
      </trkpt>
      <trkpt lat="42.95751" lon="1.12546">
        <ele>732.2</ele>
        <time>2026-05-10T09:28:16Z</time>
      </trkpt>
      <trkpt lat="42.9575" lon="1.12549">
        <ele>732.8</ele>
        <time>2026-05-10T09:28:17Z</time>
      </trkpt>
      <trkpt lat="42.95749" lon="1.12552">
        <ele>733.2</ele>
        <time>2026-05-10T09:28:18Z</time>
      </trkpt>
      <trkpt lat="42.95747" lon="1.12555">
        <ele>733.8</ele>
        <time>2026-05-10T09:28:19Z</time>
      </trkpt>
      <trkpt lat="42.95746" lon="1.12557">
        <ele>734.2</ele>
        <time>2026-05-10T09:28:20Z</time>
      </trkpt>
      <trkpt lat="42.95745" lon="1.12559">
        <ele>735.4</ele>
        <time>2026-05-10T09:28:21Z</time>
      </trkpt>
      <trkpt lat="42.95743" lon="1.1256">
        <ele>735.8</ele>
        <time>2026-05-10T09:28:22Z</time>
      </trkpt>
      <trkpt lat="42.95741" lon="1.12562">
        <ele>736.4</ele>
        <time>2026-05-10T09:28:23Z</time>
      </trkpt>
      <trkpt lat="42.9574" lon="1.12565">
        <ele>737</ele>
        <time>2026-05-10T09:28:24Z</time>
      </trkpt>
      <trkpt lat="42.95741" lon="1.12568">
        <ele>737.6</ele>
        <time>2026-05-10T09:28:25Z</time>
      </trkpt>
      <trkpt lat="42.95741" lon="1.12571">
        <ele>738</ele>
        <time>2026-05-10T09:28:26Z</time>
      </trkpt>
      <trkpt lat="42.95742" lon="1.12574">
        <ele>738.6</ele>
        <time>2026-05-10T09:28:27Z</time>
      </trkpt>
      <trkpt lat="42.95742" lon="1.12577">
        <ele>739.2</ele>
        <time>2026-05-10T09:28:28Z</time>
      </trkpt>
      <trkpt lat="42.95741" lon="1.12579">
        <ele>739.2</ele>
        <time>2026-05-10T09:28:29Z</time>
      </trkpt>
      <trkpt lat="42.95741" lon="1.12587">
        <ele>739.2</ele>
        <time>2026-05-10T09:28:31Z</time>
      </trkpt>
      <trkpt lat="42.95741" lon="1.1259">
        <ele>739.6</ele>
        <time>2026-05-10T09:28:32Z</time>
      </trkpt>
      <trkpt lat="42.95741" lon="1.12594">
        <ele>740</ele>
        <time>2026-05-10T09:28:33Z</time>
      </trkpt>
      <trkpt lat="42.95742" lon="1.12597">
        <ele>740.6</ele>
        <time>2026-05-10T09:28:34Z</time>
      </trkpt>
      <trkpt lat="42.95742" lon="1.12599">
        <ele>741</ele>
        <time>2026-05-10T09:28:35Z</time>
      </trkpt>
      <trkpt lat="42.95742" lon="1.12601">
        <ele>741.4</ele>
        <time>2026-05-10T09:28:36Z</time>
      </trkpt>
      <trkpt lat="42.95742" lon="1.12614">
        <ele>741.4</ele>
        <time>2026-05-10T09:28:41Z</time>
      </trkpt>
      <trkpt lat="42.95742" lon="1.12616">
        <ele>741.8</ele>
        <time>2026-05-10T09:28:42Z</time>
      </trkpt>
      <trkpt lat="42.95741" lon="1.12618">
        <ele>742.4</ele>
        <time>2026-05-10T09:28:43Z</time>
      </trkpt>
      <trkpt lat="42.95741" lon="1.1262">
        <ele>742.8</ele>
        <time>2026-05-10T09:28:44Z</time>
      </trkpt>
      <trkpt lat="42.95741" lon="1.12622">
        <ele>743.6</ele>
        <time>2026-05-10T09:28:45Z</time>
      </trkpt>
      <trkpt lat="42.9574" lon="1.12626">
        <ele>743.6</ele>
        <time>2026-05-10T09:28:46Z</time>
      </trkpt>
      <trkpt lat="42.95739" lon="1.12632">
        <ele>744</ele>
        <time>2026-05-10T09:28:48Z</time>
      </trkpt>
      <trkpt lat="42.95738" lon="1.12635">
        <ele>744.4</ele>
        <time>2026-05-10T09:28:49Z</time>
      </trkpt>
      <trkpt lat="42.95738" lon="1.12638">
        <ele>744.8</ele>
        <time>2026-05-10T09:28:50Z</time>
      </trkpt>
      <trkpt lat="42.95737" lon="1.1264">
        <ele>745.2</ele>
        <time>2026-05-10T09:28:51Z</time>
      </trkpt>
      <trkpt lat="42.95736" lon="1.12643">
        <ele>745.6</ele>
        <time>2026-05-10T09:28:52Z</time>
      </trkpt>
      <trkpt lat="42.95734" lon="1.12653">
        <ele>746.2</ele>
        <time>2026-05-10T09:28:56Z</time>
      </trkpt>
      <trkpt lat="42.95733" lon="1.12656">
        <ele>746.6</ele>
        <time>2026-05-10T09:28:57Z</time>
      </trkpt>
      <trkpt lat="42.95732" lon="1.12659">
        <ele>747</ele>
        <time>2026-05-10T09:28:58Z</time>
      </trkpt>
      <trkpt lat="42.95732" lon="1.12662">
        <ele>747.4</ele>
        <time>2026-05-10T09:28:59Z</time>
      </trkpt>
      <trkpt lat="42.95731" lon="1.12665">
        <ele>748</ele>
        <time>2026-05-10T09:29:00Z</time>
      </trkpt>
      <trkpt lat="42.95729" lon="1.12674">
        <ele>748.4</ele>
        <time>2026-05-10T09:29:04Z</time>
      </trkpt>
      <trkpt lat="42.95729" lon="1.12676">
        <ele>748.8</ele>
        <time>2026-05-10T09:29:05Z</time>
      </trkpt>
      <trkpt lat="42.95729" lon="1.12678">
        <ele>749.2</ele>
        <time>2026-05-10T09:29:06Z</time>
      </trkpt>
      <trkpt lat="42.9573" lon="1.12681">
        <ele>749.6</ele>
        <time>2026-05-10T09:29:07Z</time>
      </trkpt>
      <trkpt lat="42.9573" lon="1.12683">
        <ele>750</ele>
        <time>2026-05-10T09:29:08Z</time>
      </trkpt>
      <trkpt lat="42.95731" lon="1.1269">
        <ele>750</ele>
        <time>2026-05-10T09:29:10Z</time>
      </trkpt>
      <trkpt lat="42.9573" lon="1.12693">
        <ele>750</ele>
        <time>2026-05-10T09:29:11Z</time>
      </trkpt>
      <trkpt lat="42.95729" lon="1.12696">
        <ele>750.4</ele>
        <time>2026-05-10T09:29:12Z</time>
      </trkpt>
      <trkpt lat="42.95729" lon="1.12698">
        <ele>750.8</ele>
        <time>2026-05-10T09:29:13Z</time>
      </trkpt>
      <trkpt lat="42.9573" lon="1.12701">
        <ele>751.2</ele>
        <time>2026-05-10T09:29:14Z</time>
      </trkpt>
      <trkpt lat="42.95731" lon="1.12704">
        <ele>751.8</ele>
        <time>2026-05-10T09:29:15Z</time>
      </trkpt>
      <trkpt lat="42.95732" lon="1.12706">
        <ele>752.2</ele>
        <time>2026-05-10T09:29:16Z</time>
      </trkpt>
      <trkpt lat="42.95733" lon="1.12708">
        <ele>752.2</ele>
        <time>2026-05-10T09:29:17Z</time>
      </trkpt>
      <trkpt lat="42.95734" lon="1.1271">
        <ele>752.2</ele>
        <time>2026-05-10T09:29:18Z</time>
      </trkpt>
      <trkpt lat="42.95735" lon="1.1272">
        <ele>752.2</ele>
        <time>2026-05-10T09:29:22Z</time>
      </trkpt>
      <trkpt lat="42.95737" lon="1.12729">
        <ele>752.2</ele>
        <time>2026-05-10T09:29:25Z</time>
      </trkpt>
      <trkpt lat="42.95734" lon="1.12738">
        <ele>752.2</ele>
        <time>2026-05-10T09:29:27Z</time>
      </trkpt>
      <trkpt lat="42.95729" lon="1.12755">
        <ele>752.2</ele>
        <time>2026-05-10T09:29:30Z</time>
      </trkpt>
      <trkpt lat="42.95727" lon="1.12762">
        <ele>752.2</ele>
        <time>2026-05-10T09:29:31Z</time>
      </trkpt>
      <trkpt lat="42.95723" lon="1.12775">
        <ele>752.2</ele>
        <time>2026-05-10T09:29:33Z</time>
      </trkpt>
      <trkpt lat="42.95719" lon="1.12783">
        <ele>752.2</ele>
        <time>2026-05-10T09:29:35Z</time>
      </trkpt>
      <trkpt lat="42.95706" lon="1.12795">
        <ele>752.2</ele>
        <time>2026-05-10T09:29:40Z</time>
      </trkpt>
      <trkpt lat="42.95702" lon="1.12801">
        <ele>752.2</ele>
        <time>2026-05-10T09:29:42Z</time>
      </trkpt>
      <trkpt lat="42.95696" lon="1.1281">
        <ele>752.2</ele>
        <time>2026-05-10T09:29:45Z</time>
      </trkpt>
      <trkpt lat="42.95688" lon="1.12818">
        <ele>752.6</ele>
        <time>2026-05-10T09:29:48Z</time>
      </trkpt>
      <trkpt lat="42.95686" lon="1.12821">
        <ele>753</ele>
        <time>2026-05-10T09:29:49Z</time>
      </trkpt>
      <trkpt lat="42.95684" lon="1.12825">
        <ele>753.6</ele>
        <time>2026-05-10T09:29:50Z</time>
      </trkpt>
      <trkpt lat="42.95683" lon="1.12829">
        <ele>754</ele>
        <time>2026-05-10T09:29:51Z</time>
      </trkpt>
      <trkpt lat="42.95681" lon="1.12833">
        <ele>754.4</ele>
        <time>2026-05-10T09:29:52Z</time>
      </trkpt>
      <trkpt lat="42.95678" lon="1.12846">
        <ele>754.8</ele>
        <time>2026-05-10T09:29:55Z</time>
      </trkpt>
      <trkpt lat="42.95677" lon="1.1285">
        <ele>755.4</ele>
        <time>2026-05-10T09:29:56Z</time>
      </trkpt>
      <trkpt lat="42.95676" lon="1.12854">
        <ele>755.8</ele>
        <time>2026-05-10T09:29:57Z</time>
      </trkpt>
      <trkpt lat="42.95675" lon="1.12858">
        <ele>756.4</ele>
        <time>2026-05-10T09:29:58Z</time>
      </trkpt>
      <trkpt lat="42.95674" lon="1.12861">
        <ele>756.8</ele>
        <time>2026-05-10T09:29:59Z</time>
      </trkpt>
      <trkpt lat="42.95672" lon="1.12864">
        <ele>757.2</ele>
        <time>2026-05-10T09:30:00Z</time>
      </trkpt>
      <trkpt lat="42.95671" lon="1.12868">
        <ele>757.6</ele>
        <time>2026-05-10T09:30:01Z</time>
      </trkpt>
      <trkpt lat="42.9567" lon="1.12871">
        <ele>758</ele>
        <time>2026-05-10T09:30:02Z</time>
      </trkpt>
      <trkpt lat="42.95669" lon="1.12875">
        <ele>758.4</ele>
        <time>2026-05-10T09:30:03Z</time>
      </trkpt>
      <trkpt lat="42.95668" lon="1.12879">
        <ele>758.8</ele>
        <time>2026-05-10T09:30:04Z</time>
      </trkpt>
      <trkpt lat="42.95667" lon="1.12892">
        <ele>758.8</ele>
        <time>2026-05-10T09:30:08Z</time>
      </trkpt>
      <trkpt lat="42.95668" lon="1.12895">
        <ele>759.4</ele>
        <time>2026-05-10T09:30:09Z</time>
      </trkpt>
      <trkpt lat="42.95667" lon="1.12898">
        <ele>759.8</ele>
        <time>2026-05-10T09:30:10Z</time>
      </trkpt>
      <trkpt lat="42.95667" lon="1.129">
        <ele>760.2</ele>
        <time>2026-05-10T09:30:11Z</time>
      </trkpt>
      <trkpt lat="42.95667" lon="1.12904">
        <ele>760.6</ele>
        <time>2026-05-10T09:30:12Z</time>
      </trkpt>
      <trkpt lat="42.95667" lon="1.12907">
        <ele>761.2</ele>
        <time>2026-05-10T09:30:13Z</time>
      </trkpt>
      <trkpt lat="42.95665" lon="1.1293">
        <ele>761.2</ele>
        <time>2026-05-10T09:30:20Z</time>
      </trkpt>
      <trkpt lat="42.95666" lon="1.1295">
        <ele>761.2</ele>
        <time>2026-05-10T09:30:26Z</time>
      </trkpt>
      <trkpt lat="42.95666" lon="1.12953">
        <ele>761.6</ele>
        <time>2026-05-10T09:30:27Z</time>
      </trkpt>
      <trkpt lat="42.95667" lon="1.12957">
        <ele>762</ele>
        <time>2026-05-10T09:30:28Z</time>
      </trkpt>
      <trkpt lat="42.95668" lon="1.1296">
        <ele>762.4</ele>
        <time>2026-05-10T09:30:29Z</time>
      </trkpt>
      <trkpt lat="42.95669" lon="1.12964">
        <ele>762.8</ele>
        <time>2026-05-10T09:30:30Z</time>
      </trkpt>
      <trkpt lat="42.95669" lon="1.12968">
        <ele>763.4</ele>
        <time>2026-05-10T09:30:31Z</time>
      </trkpt>
      <trkpt lat="42.9567" lon="1.12972">
        <ele>763.4</ele>
        <time>2026-05-10T09:30:32Z</time>
      </trkpt>
      <trkpt lat="42.95672" lon="1.12991">
        <ele>763.8</ele>
        <time>2026-05-10T09:30:36Z</time>
      </trkpt>
      <trkpt lat="42.95673" lon="1.12995">
        <ele>764.2</ele>
        <time>2026-05-10T09:30:37Z</time>
      </trkpt>
      <trkpt lat="42.95673" lon="1.12999">
        <ele>764.6</ele>
        <time>2026-05-10T09:30:38Z</time>
      </trkpt>
      <trkpt lat="42.95674" lon="1.13003">
        <ele>765</ele>
        <time>2026-05-10T09:30:39Z</time>
      </trkpt>
      <trkpt lat="42.95674" lon="1.13007">
        <ele>765.4</ele>
        <time>2026-05-10T09:30:40Z</time>
      </trkpt>
      <trkpt lat="42.95676" lon="1.1303">
        <ele>765.4</ele>
        <time>2026-05-10T09:30:46Z</time>
      </trkpt>
      <trkpt lat="42.95676" lon="1.1304">
        <ele>766.4</ele>
        <time>2026-05-10T09:30:49Z</time>
      </trkpt>
      <trkpt lat="42.95675" lon="1.13045">
        <ele>766.8</ele>
        <time>2026-05-10T09:30:50Z</time>
      </trkpt>
      <trkpt lat="42.95675" lon="1.1305">
        <ele>767.2</ele>
        <time>2026-05-10T09:30:51Z</time>
      </trkpt>
      <trkpt lat="42.95675" lon="1.13054">
        <ele>767.6</ele>
        <time>2026-05-10T09:30:52Z</time>
      </trkpt>
      <trkpt lat="42.95675" lon="1.13058">
        <ele>767.6</ele>
        <time>2026-05-10T09:30:53Z</time>
      </trkpt>
      <trkpt lat="42.95676" lon="1.13067">
        <ele>768</ele>
        <time>2026-05-10T09:30:56Z</time>
      </trkpt>
      <trkpt lat="42.95676" lon="1.13069">
        <ele>768.4</ele>
        <time>2026-05-10T09:30:57Z</time>
      </trkpt>
      <trkpt lat="42.95676" lon="1.13071">
        <ele>768.8</ele>
        <time>2026-05-10T09:30:58Z</time>
      </trkpt>
      <trkpt lat="42.95676" lon="1.13071">
        <ele>769.2</ele>
        <time>2026-05-10T09:30:59Z</time>
      </trkpt>
      <trkpt lat="42.95675" lon="1.13075">
        <ele>769.6</ele>
        <time>2026-05-10T09:31:58Z</time>
      </trkpt>
      <trkpt lat="42.95672" lon="1.13076">
        <ele>769.6</ele>
        <time>2026-05-10T09:32:00Z</time>
      </trkpt>
      <trkpt lat="42.95666" lon="1.13078">
        <ele>770</ele>
        <time>2026-05-10T09:32:03Z</time>
      </trkpt>
      <trkpt lat="42.95664" lon="1.13079">
        <ele>771</ele>
        <time>2026-05-10T09:32:04Z</time>
      </trkpt>
      <trkpt lat="42.95662" lon="1.13082">
        <ele>771.4</ele>
        <time>2026-05-10T09:32:05Z</time>
      </trkpt>
      <trkpt lat="42.9566" lon="1.13083">
        <ele>771.8</ele>
        <time>2026-05-10T09:32:06Z</time>
      </trkpt>
      <trkpt lat="42.95655" lon="1.13086">
        <ele>771.8</ele>
        <time>2026-05-10T09:32:10Z</time>
      </trkpt>
      <trkpt lat="42.95649" lon="1.13093">
        <ele>772.2</ele>
        <time>2026-05-10T09:32:13Z</time>
      </trkpt>
      <trkpt lat="42.95648" lon="1.13095">
        <ele>772.6</ele>
        <time>2026-05-10T09:32:14Z</time>
      </trkpt>
      <trkpt lat="42.95646" lon="1.13096">
        <ele>773</ele>
        <time>2026-05-10T09:32:15Z</time>
      </trkpt>
      <trkpt lat="42.95645" lon="1.13098">
        <ele>773.6</ele>
        <time>2026-05-10T09:32:16Z</time>
      </trkpt>
      <trkpt lat="42.95644" lon="1.131">
        <ele>774</ele>
        <time>2026-05-10T09:32:17Z</time>
      </trkpt>
      <trkpt lat="42.95641" lon="1.131">
        <ele>774</ele>
        <time>2026-05-10T09:32:38Z</time>
      </trkpt>
      <trkpt lat="42.95638" lon="1.131">
        <ele>774</ele>
        <time>2026-05-10T09:32:40Z</time>
      </trkpt>
      <trkpt lat="42.95635" lon="1.13101">
        <ele>774</ele>
        <time>2026-05-10T09:32:42Z</time>
      </trkpt>
      <trkpt lat="42.95633" lon="1.13101">
        <ele>775.6</ele>
        <time>2026-05-10T09:32:46Z</time>
      </trkpt>
      <trkpt lat="42.9563" lon="1.13102">
        <ele>776</ele>
        <time>2026-05-10T09:32:47Z</time>
      </trkpt>
      <trkpt lat="42.95614" lon="1.13109">
        <ele>776</ele>
        <time>2026-05-10T09:32:53Z</time>
      </trkpt>
      <trkpt lat="42.95601" lon="1.1311">
        <ele>776</ele>
        <time>2026-05-10T09:32:57Z</time>
      </trkpt>
      <trkpt lat="42.95591" lon="1.1312">
        <ele>776.4</ele>
        <time>2026-05-10T09:33:01Z</time>
      </trkpt>
      <trkpt lat="42.95588" lon="1.13123">
        <ele>776.8</ele>
        <time>2026-05-10T09:33:02Z</time>
      </trkpt>
      <trkpt lat="42.95585" lon="1.13127">
        <ele>777.2</ele>
        <time>2026-05-10T09:33:03Z</time>
      </trkpt>
      <trkpt lat="42.95583" lon="1.13131">
        <ele>777.6</ele>
        <time>2026-05-10T09:33:04Z</time>
      </trkpt>
      <trkpt lat="42.9558" lon="1.13135">
        <ele>778</ele>
        <time>2026-05-10T09:33:05Z</time>
      </trkpt>
      <trkpt lat="42.95571" lon="1.13149">
        <ele>778.6</ele>
        <time>2026-05-10T09:33:08Z</time>
      </trkpt>
      <trkpt lat="42.95569" lon="1.13153">
        <ele>779</ele>
        <time>2026-05-10T09:33:09Z</time>
      </trkpt>
      <trkpt lat="42.95567" lon="1.13157">
        <ele>779.4</ele>
        <time>2026-05-10T09:33:10Z</time>
      </trkpt>
      <trkpt lat="42.95564" lon="1.13161">
        <ele>779.8</ele>
        <time>2026-05-10T09:33:11Z</time>
      </trkpt>
      <trkpt lat="42.95561" lon="1.13164">
        <ele>780.4</ele>
        <time>2026-05-10T09:33:12Z</time>
      </trkpt>
      <trkpt lat="42.95558" lon="1.13167">
        <ele>780.8</ele>
        <time>2026-05-10T09:33:13Z</time>
      </trkpt>
      <trkpt lat="42.95554" lon="1.1317">
        <ele>781.2</ele>
        <time>2026-05-10T09:33:14Z</time>
      </trkpt>
      <trkpt lat="42.95552" lon="1.13174">
        <ele>781.8</ele>
        <time>2026-05-10T09:33:15Z</time>
      </trkpt>
      <trkpt lat="42.95549" lon="1.13177">
        <ele>782.2</ele>
        <time>2026-05-10T09:33:16Z</time>
      </trkpt>
      <trkpt lat="42.95546" lon="1.1318">
        <ele>782.8</ele>
        <time>2026-05-10T09:33:17Z</time>
      </trkpt>
      <trkpt lat="42.95543" lon="1.13183">
        <ele>783.6</ele>
        <time>2026-05-10T09:33:18Z</time>
      </trkpt>
      <trkpt lat="42.95541" lon="1.13186">
        <ele>784</ele>
        <time>2026-05-10T09:33:19Z</time>
      </trkpt>
      <trkpt lat="42.95539" lon="1.13189">
        <ele>784.4</ele>
        <time>2026-05-10T09:33:20Z</time>
      </trkpt>
      <trkpt lat="42.95537" lon="1.13192">
        <ele>785</ele>
        <time>2026-05-10T09:33:21Z</time>
      </trkpt>
      <trkpt lat="42.95531" lon="1.13199">
        <ele>785.4</ele>
        <time>2026-05-10T09:33:24Z</time>
      </trkpt>
      <trkpt lat="42.9553" lon="1.13202">
        <ele>785.8</ele>
        <time>2026-05-10T09:33:25Z</time>
      </trkpt>
      <trkpt lat="42.95528" lon="1.13204">
        <ele>786.2</ele>
        <time>2026-05-10T09:33:26Z</time>
      </trkpt>
      <trkpt lat="42.95526" lon="1.13207">
        <ele>786.6</ele>
        <time>2026-05-10T09:33:27Z</time>
      </trkpt>
      <trkpt lat="42.95525" lon="1.13209">
        <ele>787</ele>
        <time>2026-05-10T09:33:28Z</time>
      </trkpt>
      <trkpt lat="42.95519" lon="1.13215">
        <ele>787</ele>
        <time>2026-05-10T09:33:31Z</time>
      </trkpt>
      <trkpt lat="42.95517" lon="1.13216">
        <ele>787.6</ele>
        <time>2026-05-10T09:33:32Z</time>
      </trkpt>
      <trkpt lat="42.95515" lon="1.13218">
        <ele>788</ele>
        <time>2026-05-10T09:33:33Z</time>
      </trkpt>
      <trkpt lat="42.95514" lon="1.1322">
        <ele>788.4</ele>
        <time>2026-05-10T09:33:34Z</time>
      </trkpt>
      <trkpt lat="42.95511" lon="1.13221">
        <ele>789</ele>
        <time>2026-05-10T09:33:35Z</time>
      </trkpt>
      <trkpt lat="42.95509" lon="1.13222">
        <ele>789.6</ele>
        <time>2026-05-10T09:33:36Z</time>
      </trkpt>
      <trkpt lat="42.95507" lon="1.13223">
        <ele>790.2</ele>
        <time>2026-05-10T09:33:37Z</time>
      </trkpt>
      <trkpt lat="42.95506" lon="1.13224">
        <ele>790.8</ele>
        <time>2026-05-10T09:33:38Z</time>
      </trkpt>
      <trkpt lat="42.95505" lon="1.13226">
        <ele>791.4</ele>
        <time>2026-05-10T09:33:39Z</time>
      </trkpt>
      <trkpt lat="42.95503" lon="1.13228">
        <ele>792</ele>
        <time>2026-05-10T09:33:40Z</time>
      </trkpt>
      <trkpt lat="42.95502" lon="1.1323">
        <ele>792.4</ele>
        <time>2026-05-10T09:33:41Z</time>
      </trkpt>
      <trkpt lat="42.95502" lon="1.13231">
        <ele>793</ele>
        <time>2026-05-10T09:33:42Z</time>
      </trkpt>
      <trkpt lat="42.95501" lon="1.13233">
        <ele>794</ele>
        <time>2026-05-10T09:33:43Z</time>
      </trkpt>
      <trkpt lat="42.955" lon="1.13234">
        <ele>794.4</ele>
        <time>2026-05-10T09:33:44Z</time>
      </trkpt>
      <trkpt lat="42.95498" lon="1.13234">
        <ele>794.8</ele>
        <time>2026-05-10T09:33:45Z</time>
      </trkpt>
      <trkpt lat="42.95496" lon="1.13235">
        <ele>795.2</ele>
        <time>2026-05-10T09:33:46Z</time>
      </trkpt>
      <trkpt lat="42.95494" lon="1.13236">
        <ele>795.6</ele>
        <time>2026-05-10T09:33:47Z</time>
      </trkpt>
      <trkpt lat="42.95492" lon="1.13236">
        <ele>795.6</ele>
        <time>2026-05-10T09:33:48Z</time>
      </trkpt>
      <trkpt lat="42.95489" lon="1.13236">
        <ele>796.2</ele>
        <time>2026-05-10T09:33:49Z</time>
      </trkpt>
      <trkpt lat="42.95487" lon="1.13236">
        <ele>796.6</ele>
        <time>2026-05-10T09:33:50Z</time>
      </trkpt>
      <trkpt lat="42.95486" lon="1.13235">
        <ele>797.2</ele>
        <time>2026-05-10T09:33:51Z</time>
      </trkpt>
      <trkpt lat="42.95484" lon="1.13235">
        <ele>797.6</ele>
        <time>2026-05-10T09:33:52Z</time>
      </trkpt>
      <trkpt lat="42.95482" lon="1.13235">
        <ele>798</ele>
        <time>2026-05-10T09:33:53Z</time>
      </trkpt>
      <trkpt lat="42.9548" lon="1.13235">
        <ele>798.6</ele>
        <time>2026-05-10T09:33:54Z</time>
      </trkpt>
      <trkpt lat="42.95478" lon="1.13235">
        <ele>799</ele>
        <time>2026-05-10T09:33:55Z</time>
      </trkpt>
      <trkpt lat="42.95476" lon="1.13236">
        <ele>799.4</ele>
        <time>2026-05-10T09:33:56Z</time>
      </trkpt>
      <trkpt lat="42.95474" lon="1.13236">
        <ele>799.8</ele>
        <time>2026-05-10T09:33:57Z</time>
      </trkpt>
      <trkpt lat="42.95472" lon="1.13237">
        <ele>800.2</ele>
        <time>2026-05-10T09:33:58Z</time>
      </trkpt>
      <trkpt lat="42.9547" lon="1.13237">
        <ele>800.6</ele>
        <time>2026-05-10T09:33:59Z</time>
      </trkpt>
      <trkpt lat="42.95468" lon="1.13238">
        <ele>801</ele>
        <time>2026-05-10T09:34:00Z</time>
      </trkpt>
      <trkpt lat="42.95467" lon="1.1324">
        <ele>801.6</ele>
        <time>2026-05-10T09:34:01Z</time>
      </trkpt>
      <trkpt lat="42.95465" lon="1.13241">
        <ele>802</ele>
        <time>2026-05-10T09:34:02Z</time>
      </trkpt>
      <trkpt lat="42.95464" lon="1.13243">
        <ele>802.4</ele>
        <time>2026-05-10T09:34:03Z</time>
      </trkpt>
      <trkpt lat="42.95463" lon="1.13246">
        <ele>802.4</ele>
        <time>2026-05-10T09:34:05Z</time>
      </trkpt>
      <trkpt lat="42.9546" lon="1.13253">
        <ele>802.8</ele>
        <time>2026-05-10T09:34:09Z</time>
      </trkpt>
      <trkpt lat="42.95458" lon="1.13254">
        <ele>803.2</ele>
        <time>2026-05-10T09:34:10Z</time>
      </trkpt>
      <trkpt lat="42.95457" lon="1.13255">
        <ele>803.6</ele>
        <time>2026-05-10T09:34:11Z</time>
      </trkpt>
      <trkpt lat="42.95454" lon="1.13257">
        <ele>804</ele>
        <time>2026-05-10T09:34:12Z</time>
      </trkpt>
      <trkpt lat="42.95452" lon="1.13258">
        <ele>804.4</ele>
        <time>2026-05-10T09:34:13Z</time>
      </trkpt>
      <trkpt lat="42.95445" lon="1.13263">
        <ele>804.4</ele>
        <time>2026-05-10T09:34:16Z</time>
      </trkpt>
      <trkpt lat="42.95435" lon="1.13274">
        <ele>804.4</ele>
        <time>2026-05-10T09:34:23Z</time>
      </trkpt>
      <trkpt lat="42.95426" lon="1.1328">
        <ele>804.4</ele>
        <time>2026-05-10T09:34:28Z</time>
      </trkpt>
      <trkpt lat="42.95424" lon="1.1328">
        <ele>804.4</ele>
        <time>2026-05-10T09:34:29Z</time>
      </trkpt>
      <trkpt lat="42.95416" lon="1.13282">
        <ele>804.4</ele>
        <time>2026-05-10T09:34:33Z</time>
      </trkpt>
      <trkpt lat="42.95408" lon="1.13285">
        <ele>804.4</ele>
        <time>2026-05-10T09:34:38Z</time>
      </trkpt>
      <trkpt lat="42.95406" lon="1.13285">
        <ele>804</ele>
        <time>2026-05-10T09:34:39Z</time>
      </trkpt>
      <trkpt lat="42.95404" lon="1.13286">
        <ele>803.6</ele>
        <time>2026-05-10T09:34:40Z</time>
      </trkpt>
      <trkpt lat="42.95402" lon="1.13286">
        <ele>803.2</ele>
        <time>2026-05-10T09:34:41Z</time>
      </trkpt>
      <trkpt lat="42.95401" lon="1.13286">
        <ele>802.8</ele>
        <time>2026-05-10T09:34:42Z</time>
      </trkpt>
      <trkpt lat="42.95399" lon="1.13286">
        <ele>802.4</ele>
        <time>2026-05-10T09:34:43Z</time>
      </trkpt>
      <trkpt lat="42.95398" lon="1.13286">
        <ele>802.4</ele>
        <time>2026-05-10T09:34:44Z</time>
      </trkpt>
      <trkpt lat="42.95386" lon="1.13284">
        <ele>802.4</ele>
        <time>2026-05-10T09:34:49Z</time>
      </trkpt>
      <trkpt lat="42.95368" lon="1.13281">
        <ele>802.4</ele>
        <time>2026-05-10T09:34:55Z</time>
      </trkpt>
      <trkpt lat="42.9535" lon="1.13272">
        <ele>802.4</ele>
        <time>2026-05-10T09:35:02Z</time>
      </trkpt>
      <trkpt lat="42.95343" lon="1.13267">
        <ele>802.8</ele>
        <time>2026-05-10T09:35:05Z</time>
      </trkpt>
      <trkpt lat="42.95342" lon="1.13266">
        <ele>803.2</ele>
        <time>2026-05-10T09:35:06Z</time>
      </trkpt>
      <trkpt lat="42.9534" lon="1.13265">
        <ele>803.6</ele>
        <time>2026-05-10T09:35:07Z</time>
      </trkpt>
      <trkpt lat="42.95337" lon="1.13264">
        <ele>804</ele>
        <time>2026-05-10T09:35:08Z</time>
      </trkpt>
      <trkpt lat="42.95335" lon="1.13263">
        <ele>804.4</ele>
        <time>2026-05-10T09:35:09Z</time>
      </trkpt>
      <trkpt lat="42.95327" lon="1.13265">
        <ele>804.4</ele>
        <time>2026-05-10T09:35:12Z</time>
      </trkpt>
      <trkpt lat="42.95323" lon="1.13267">
        <ele>804.4</ele>
        <time>2026-05-10T09:35:14Z</time>
      </trkpt>
      <trkpt lat="42.95314" lon="1.1327">
        <ele>804.4</ele>
        <time>2026-05-10T09:35:17Z</time>
      </trkpt>
      <trkpt lat="42.95306" lon="1.13273">
        <ele>804.4</ele>
        <time>2026-05-10T09:35:20Z</time>
      </trkpt>
      <trkpt lat="42.953" lon="1.13275">
        <ele>804.4</ele>
        <time>2026-05-10T09:35:22Z</time>
      </trkpt>
      <trkpt lat="42.95291" lon="1.13281">
        <ele>804.4</ele>
        <time>2026-05-10T09:35:26Z</time>
      </trkpt>
      <trkpt lat="42.95282" lon="1.13284">
        <ele>804.4</ele>
        <time>2026-05-10T09:35:30Z</time>
      </trkpt>
      <trkpt lat="42.95272" lon="1.13281">
        <ele>803.8</ele>
        <time>2026-05-10T09:35:32Z</time>
      </trkpt>
      <trkpt lat="42.95268" lon="1.1328">
        <ele>803.4</ele>
        <time>2026-05-10T09:35:33Z</time>
      </trkpt>
      <trkpt lat="42.95263" lon="1.13279">
        <ele>803</ele>
        <time>2026-05-10T09:35:34Z</time>
      </trkpt>
      <trkpt lat="42.95259" lon="1.13278">
        <ele>802.6</ele>
        <time>2026-05-10T09:35:35Z</time>
      </trkpt>
      <trkpt lat="42.95254" lon="1.13277">
        <ele>802</ele>
        <time>2026-05-10T09:35:36Z</time>
      </trkpt>
      <trkpt lat="42.95237" lon="1.13275">
        <ele>801.6</ele>
        <time>2026-05-10T09:35:39Z</time>
      </trkpt>
      <trkpt lat="42.95233" lon="1.13274">
        <ele>801.2</ele>
        <time>2026-05-10T09:35:40Z</time>
      </trkpt>
      <trkpt lat="42.95228" lon="1.13274">
        <ele>800.8</ele>
        <time>2026-05-10T09:35:41Z</time>
      </trkpt>
      <trkpt lat="42.95222" lon="1.13273">
        <ele>800.2</ele>
        <time>2026-05-10T09:35:42Z</time>
      </trkpt>
      <trkpt lat="42.95218" lon="1.13273">
        <ele>799.8</ele>
        <time>2026-05-10T09:35:43Z</time>
      </trkpt>
      <trkpt lat="42.95215" lon="1.13274">
        <ele>799.2</ele>
        <time>2026-05-10T09:35:44Z</time>
      </trkpt>
      <trkpt lat="42.95212" lon="1.13275">
        <ele>798.8</ele>
        <time>2026-05-10T09:35:45Z</time>
      </trkpt>
      <trkpt lat="42.95208" lon="1.13276">
        <ele>797.8</ele>
        <time>2026-05-10T09:35:46Z</time>
      </trkpt>
      <trkpt lat="42.95204" lon="1.13276">
        <ele>797.4</ele>
        <time>2026-05-10T09:35:47Z</time>
      </trkpt>
      <trkpt lat="42.952" lon="1.13276">
        <ele>797</ele>
        <time>2026-05-10T09:35:48Z</time>
      </trkpt>
      <trkpt lat="42.95197" lon="1.13275">
        <ele>796.6</ele>
        <time>2026-05-10T09:35:49Z</time>
      </trkpt>
      <trkpt lat="42.95193" lon="1.13275">
        <ele>796.2</ele>
        <time>2026-05-10T09:35:50Z</time>
      </trkpt>
      <trkpt lat="42.95188" lon="1.13275">
        <ele>795.8</ele>
        <time>2026-05-10T09:35:51Z</time>
      </trkpt>
      <trkpt lat="42.9518" lon="1.13277">
        <ele>795.8</ele>
        <time>2026-05-10T09:35:53Z</time>
      </trkpt>
      <trkpt lat="42.95174" lon="1.13281">
        <ele>795.4</ele>
        <time>2026-05-10T09:35:55Z</time>
      </trkpt>
      <trkpt lat="42.95172" lon="1.13283">
        <ele>794.8</ele>
        <time>2026-05-10T09:35:56Z</time>
      </trkpt>
      <trkpt lat="42.9517" lon="1.13286">
        <ele>794.4</ele>
        <time>2026-05-10T09:35:57Z</time>
      </trkpt>
      <trkpt lat="42.95168" lon="1.13289">
        <ele>794</ele>
        <time>2026-05-10T09:35:58Z</time>
      </trkpt>
      <trkpt lat="42.95168" lon="1.13293">
        <ele>793.4</ele>
        <time>2026-05-10T09:35:59Z</time>
      </trkpt>
      <trkpt lat="42.95168" lon="1.13298">
        <ele>792.8</ele>
        <time>2026-05-10T09:36:00Z</time>
      </trkpt>
      <trkpt lat="42.95168" lon="1.13303">
        <ele>792.4</ele>
        <time>2026-05-10T09:36:01Z</time>
      </trkpt>
      <trkpt lat="42.95168" lon="1.13308">
        <ele>791.8</ele>
        <time>2026-05-10T09:36:02Z</time>
      </trkpt>
      <trkpt lat="42.9517" lon="1.13313">
        <ele>791.2</ele>
        <time>2026-05-10T09:36:03Z</time>
      </trkpt>
      <trkpt lat="42.95171" lon="1.13318">
        <ele>790.6</ele>
        <time>2026-05-10T09:36:04Z</time>
      </trkpt>
      <trkpt lat="42.95173" lon="1.13324">
        <ele>790.2</ele>
        <time>2026-05-10T09:36:05Z</time>
      </trkpt>
      <trkpt lat="42.95173" lon="1.13329">
        <ele>789.8</ele>
        <time>2026-05-10T09:36:06Z</time>
      </trkpt>
      <trkpt lat="42.95172" lon="1.13335">
        <ele>789.2</ele>
        <time>2026-05-10T09:36:07Z</time>
      </trkpt>
      <trkpt lat="42.95171" lon="1.1334">
        <ele>788.6</ele>
        <time>2026-05-10T09:36:08Z</time>
      </trkpt>
      <trkpt lat="42.9517" lon="1.13345">
        <ele>788.2</ele>
        <time>2026-05-10T09:36:09Z</time>
      </trkpt>
      <trkpt lat="42.9517" lon="1.1335">
        <ele>787.6</ele>
        <time>2026-05-10T09:36:10Z</time>
      </trkpt>
      <trkpt lat="42.95171" lon="1.13354">
        <ele>786.4</ele>
        <time>2026-05-10T09:36:11Z</time>
      </trkpt>
      <trkpt lat="42.95171" lon="1.13362">
        <ele>786.4</ele>
        <time>2026-05-10T09:36:13Z</time>
      </trkpt>
      <trkpt lat="42.95174" lon="1.13387">
        <ele>786.4</ele>
        <time>2026-05-10T09:36:19Z</time>
      </trkpt>
      <trkpt lat="42.95171" lon="1.13402">
        <ele>786.4</ele>
        <time>2026-05-10T09:36:23Z</time>
      </trkpt>
      <trkpt lat="42.95169" lon="1.13414">
        <ele>786.4</ele>
        <time>2026-05-10T09:36:26Z</time>
      </trkpt>
      <trkpt lat="42.95164" lon="1.13438">
        <ele>786.4</ele>
        <time>2026-05-10T09:36:31Z</time>
      </trkpt>
      <trkpt lat="42.95149" lon="1.13461">
        <ele>786.4</ele>
        <time>2026-05-10T09:36:37Z</time>
      </trkpt>
      <trkpt lat="42.95146" lon="1.13465">
        <ele>786.8</ele>
        <time>2026-05-10T09:36:38Z</time>
      </trkpt>
      <trkpt lat="42.95143" lon="1.13468">
        <ele>787.4</ele>
        <time>2026-05-10T09:36:39Z</time>
      </trkpt>
      <trkpt lat="42.95141" lon="1.13473">
        <ele>787.8</ele>
        <time>2026-05-10T09:36:40Z</time>
      </trkpt>
      <trkpt lat="42.95139" lon="1.13477">
        <ele>788.2</ele>
        <time>2026-05-10T09:36:41Z</time>
      </trkpt>
      <trkpt lat="42.95138" lon="1.1348">
        <ele>788.6</ele>
        <time>2026-05-10T09:36:42Z</time>
      </trkpt>
      <trkpt lat="42.95135" lon="1.13485">
        <ele>788.6</ele>
        <time>2026-05-10T09:36:43Z</time>
      </trkpt>
      <trkpt lat="42.95133" lon="1.13489">
        <ele>788.6</ele>
        <time>2026-05-10T09:36:44Z</time>
      </trkpt>
      <trkpt lat="42.95132" lon="1.13497">
        <ele>788.6</ele>
        <time>2026-05-10T09:36:47Z</time>
      </trkpt>
      <trkpt lat="42.95131" lon="1.13503">
        <ele>788.6</ele>
        <time>2026-05-10T09:38:15Z</time>
      </trkpt>
      <trkpt lat="42.9513" lon="1.13506">
        <ele>789</ele>
        <time>2026-05-10T09:38:16Z</time>
      </trkpt>
      <trkpt lat="42.95129" lon="1.13508">
        <ele>789.4</ele>
        <time>2026-05-10T09:38:17Z</time>
      </trkpt>
      <trkpt lat="42.95128" lon="1.13511">
        <ele>789.8</ele>
        <time>2026-05-10T09:38:18Z</time>
      </trkpt>
      <trkpt lat="42.95127" lon="1.13514">
        <ele>790.2</ele>
        <time>2026-05-10T09:38:19Z</time>
      </trkpt>
      <trkpt lat="42.95125" lon="1.13517">
        <ele>790.8</ele>
        <time>2026-05-10T09:38:20Z</time>
      </trkpt>
      <trkpt lat="42.95123" lon="1.13522">
        <ele>790.8</ele>
        <time>2026-05-10T09:38:21Z</time>
      </trkpt>
      <trkpt lat="42.95119" lon="1.13534">
        <ele>790.8</ele>
        <time>2026-05-10T09:38:24Z</time>
      </trkpt>
      <trkpt lat="42.95117" lon="1.13537">
        <ele>791.2</ele>
        <time>2026-05-10T09:38:25Z</time>
      </trkpt>
      <trkpt lat="42.95115" lon="1.1354">
        <ele>791.6</ele>
        <time>2026-05-10T09:38:26Z</time>
      </trkpt>
      <trkpt lat="42.95114" lon="1.13544">
        <ele>792</ele>
        <time>2026-05-10T09:38:27Z</time>
      </trkpt>
      <trkpt lat="42.95112" lon="1.13546">
        <ele>792.4</ele>
        <time>2026-05-10T09:38:28Z</time>
      </trkpt>
      <trkpt lat="42.9511" lon="1.13547">
        <ele>792.8</ele>
        <time>2026-05-10T09:38:29Z</time>
      </trkpt>
      <trkpt lat="42.95109" lon="1.13549">
        <ele>793.4</ele>
        <time>2026-05-10T09:38:30Z</time>
      </trkpt>
      <trkpt lat="42.9511" lon="1.13553">
        <ele>794.8</ele>
        <time>2026-05-10T09:38:56Z</time>
      </trkpt>
      <trkpt lat="42.95115" lon="1.13554">
        <ele>794.8</ele>
        <time>2026-05-10T09:38:58Z</time>
      </trkpt>
      <trkpt lat="42.95135" lon="1.13557">
        <ele>794.8</ele>
        <time>2026-05-10T09:39:04Z</time>
      </trkpt>
      <trkpt lat="42.95142" lon="1.13556">
        <ele>794.2</ele>
        <time>2026-05-10T09:39:06Z</time>
      </trkpt>
      <trkpt lat="42.95145" lon="1.13556">
        <ele>793.8</ele>
        <time>2026-05-10T09:39:07Z</time>
      </trkpt>
      <trkpt lat="42.95148" lon="1.13556">
        <ele>793.2</ele>
        <time>2026-05-10T09:39:08Z</time>
      </trkpt>
      <trkpt lat="42.95152" lon="1.13556">
        <ele>792.6</ele>
        <time>2026-05-10T09:39:09Z</time>
      </trkpt>
      <trkpt lat="42.95156" lon="1.13557">
        <ele>792</ele>
        <time>2026-05-10T09:39:10Z</time>
      </trkpt>
      <trkpt lat="42.95159" lon="1.13559">
        <ele>791.4</ele>
        <time>2026-05-10T09:39:11Z</time>
      </trkpt>
      <trkpt lat="42.95162" lon="1.13561">
        <ele>790.8</ele>
        <time>2026-05-10T09:39:12Z</time>
      </trkpt>
      <trkpt lat="42.95165" lon="1.13563">
        <ele>790.2</ele>
        <time>2026-05-10T09:39:13Z</time>
      </trkpt>
      <trkpt lat="42.95172" lon="1.13566">
        <ele>790.2</ele>
        <time>2026-05-10T09:39:15Z</time>
      </trkpt>
      <trkpt lat="42.95188" lon="1.13573">
        <ele>790.2</ele>
        <time>2026-05-10T09:39:21Z</time>
      </trkpt>
      <trkpt lat="42.95204" lon="1.13582">
        <ele>790.2</ele>
        <time>2026-05-10T09:39:28Z</time>
      </trkpt>
      <trkpt lat="42.95211" lon="1.13586">
        <ele>789.6</ele>
        <time>2026-05-10T09:39:30Z</time>
      </trkpt>
      <trkpt lat="42.95215" lon="1.13589">
        <ele>789.2</ele>
        <time>2026-05-10T09:39:31Z</time>
      </trkpt>
      <trkpt lat="42.95219" lon="1.13592">
        <ele>788.6</ele>
        <time>2026-05-10T09:39:32Z</time>
      </trkpt>
      <trkpt lat="42.95224" lon="1.13594">
        <ele>788</ele>
        <time>2026-05-10T09:39:33Z</time>
      </trkpt>
      <trkpt lat="42.95228" lon="1.13596">
        <ele>787.4</ele>
        <time>2026-05-10T09:39:34Z</time>
      </trkpt>
      <trkpt lat="42.95231" lon="1.13598">
        <ele>786.8</ele>
        <time>2026-05-10T09:39:35Z</time>
      </trkpt>
      <trkpt lat="42.95235" lon="1.136">
        <ele>786.2</ele>
        <time>2026-05-10T09:39:36Z</time>
      </trkpt>
      <trkpt lat="42.95239" lon="1.13602">
        <ele>785.4</ele>
        <time>2026-05-10T09:39:37Z</time>
      </trkpt>
      <trkpt lat="42.95242" lon="1.13604">
        <ele>784.8</ele>
        <time>2026-05-10T09:39:38Z</time>
      </trkpt>
      <trkpt lat="42.95246" lon="1.13607">
        <ele>784</ele>
        <time>2026-05-10T09:39:39Z</time>
      </trkpt>
      <trkpt lat="42.95253" lon="1.13611">
        <ele>783.2</ele>
        <time>2026-05-10T09:39:40Z</time>
      </trkpt>
      <trkpt lat="42.95261" lon="1.13613">
        <ele>782.4</ele>
        <time>2026-05-10T09:39:41Z</time>
      </trkpt>
      <trkpt lat="42.95267" lon="1.13616">
        <ele>781.6</ele>
        <time>2026-05-10T09:39:42Z</time>
      </trkpt>
      <trkpt lat="42.95275" lon="1.13618">
        <ele>780.8</ele>
        <time>2026-05-10T09:39:43Z</time>
      </trkpt>
      <trkpt lat="42.9528" lon="1.13621">
        <ele>780</ele>
        <time>2026-05-10T09:39:44Z</time>
      </trkpt>
      <trkpt lat="42.95303" lon="1.13637">
        <ele>779.6</ele>
        <time>2026-05-10T09:39:50Z</time>
      </trkpt>
      <trkpt lat="42.95307" lon="1.1364">
        <ele>779.2</ele>
        <time>2026-05-10T09:39:51Z</time>
      </trkpt>
      <trkpt lat="42.95311" lon="1.13642">
        <ele>778.8</ele>
        <time>2026-05-10T09:39:52Z</time>
      </trkpt>
      <trkpt lat="42.95316" lon="1.13643">
        <ele>778</ele>
        <time>2026-05-10T09:39:53Z</time>
      </trkpt>
      <trkpt lat="42.95318" lon="1.13645">
        <ele>778</ele>
        <time>2026-05-10T09:39:54Z</time>
      </trkpt>
      <trkpt lat="42.95322" lon="1.13649">
        <ele>777.6</ele>
        <time>2026-05-10T09:39:55Z</time>
      </trkpt>
      <trkpt lat="42.95324" lon="1.13653">
        <ele>777.2</ele>
        <time>2026-05-10T09:39:56Z</time>
      </trkpt>
      <trkpt lat="42.95327" lon="1.13656">
        <ele>776.4</ele>
        <time>2026-05-10T09:39:57Z</time>
      </trkpt>
      <trkpt lat="42.95332" lon="1.13663">
        <ele>775.8</ele>
        <time>2026-05-10T09:39:58Z</time>
      </trkpt>
      <trkpt lat="42.95335" lon="1.13666">
        <ele>775</ele>
        <time>2026-05-10T09:39:59Z</time>
      </trkpt>
      <trkpt lat="42.95337" lon="1.13668">
        <ele>774.4</ele>
        <time>2026-05-10T09:40:00Z</time>
      </trkpt>
      <trkpt lat="42.95341" lon="1.13672">
        <ele>773.6</ele>
        <time>2026-05-10T09:40:01Z</time>
      </trkpt>
      <trkpt lat="42.95344" lon="1.13674">
        <ele>772.8</ele>
        <time>2026-05-10T09:40:02Z</time>
      </trkpt>
      <trkpt lat="42.95346" lon="1.13677">
        <ele>772</ele>
        <time>2026-05-10T09:40:03Z</time>
      </trkpt>
      <trkpt lat="42.95348" lon="1.13679">
        <ele>771.4</ele>
        <time>2026-05-10T09:40:04Z</time>
      </trkpt>
      <trkpt lat="42.95353" lon="1.13683">
        <ele>770.8</ele>
        <time>2026-05-10T09:40:05Z</time>
      </trkpt>
      <trkpt lat="42.95355" lon="1.13688">
        <ele>770.2</ele>
        <time>2026-05-10T09:40:06Z</time>
      </trkpt>
      <trkpt lat="42.9536" lon="1.13691">
        <ele>769.4</ele>
        <time>2026-05-10T09:40:07Z</time>
      </trkpt>
      <trkpt lat="42.95364" lon="1.13696">
        <ele>768.8</ele>
        <time>2026-05-10T09:40:08Z</time>
      </trkpt>
      <trkpt lat="42.9537" lon="1.13702">
        <ele>768.4</ele>
        <time>2026-05-10T09:40:09Z</time>
      </trkpt>
      <trkpt lat="42.95375" lon="1.13707">
        <ele>767.8</ele>
        <time>2026-05-10T09:40:10Z</time>
      </trkpt>
      <trkpt lat="42.9538" lon="1.13712">
        <ele>767.4</ele>
        <time>2026-05-10T09:40:11Z</time>
      </trkpt>
      <trkpt lat="42.95384" lon="1.13717">
        <ele>767</ele>
        <time>2026-05-10T09:40:12Z</time>
      </trkpt>
      <trkpt lat="42.95389" lon="1.13722">
        <ele>766.6</ele>
        <time>2026-05-10T09:40:13Z</time>
      </trkpt>
      <trkpt lat="42.95406" lon="1.13737">
        <ele>766.6</ele>
        <time>2026-05-10T09:40:17Z</time>
      </trkpt>
      <trkpt lat="42.95409" lon="1.1374">
        <ele>765.6</ele>
        <time>2026-05-10T09:40:18Z</time>
      </trkpt>
      <trkpt lat="42.95412" lon="1.13742">
        <ele>765</ele>
        <time>2026-05-10T09:40:19Z</time>
      </trkpt>
      <trkpt lat="42.95416" lon="1.13744">
        <ele>764.4</ele>
        <time>2026-05-10T09:40:20Z</time>
      </trkpt>
      <trkpt lat="42.9542" lon="1.13747">
        <ele>763.8</ele>
        <time>2026-05-10T09:40:21Z</time>
      </trkpt>
      <trkpt lat="42.95425" lon="1.13749">
        <ele>763.2</ele>
        <time>2026-05-10T09:40:22Z</time>
      </trkpt>
      <trkpt lat="42.95429" lon="1.1375">
        <ele>762.4</ele>
        <time>2026-05-10T09:40:23Z</time>
      </trkpt>
      <trkpt lat="42.95432" lon="1.13751">
        <ele>761.8</ele>
        <time>2026-05-10T09:40:24Z</time>
      </trkpt>
      <trkpt lat="42.95436" lon="1.13752">
        <ele>761</ele>
        <time>2026-05-10T09:40:25Z</time>
      </trkpt>
      <trkpt lat="42.95438" lon="1.13753">
        <ele>760.2</ele>
        <time>2026-05-10T09:40:26Z</time>
      </trkpt>
      <trkpt lat="42.95442" lon="1.13754">
        <ele>759.4</ele>
        <time>2026-05-10T09:40:27Z</time>
      </trkpt>
      <trkpt lat="42.95446" lon="1.13755">
        <ele>758.6</ele>
        <time>2026-05-10T09:40:28Z</time>
      </trkpt>
      <trkpt lat="42.9545" lon="1.13756">
        <ele>757.6</ele>
        <time>2026-05-10T09:40:29Z</time>
      </trkpt>
      <trkpt lat="42.95452" lon="1.13755">
        <ele>756.8</ele>
        <time>2026-05-10T09:40:30Z</time>
      </trkpt>
      <trkpt lat="42.95455" lon="1.13755">
        <ele>755.8</ele>
        <time>2026-05-10T09:40:31Z</time>
      </trkpt>
      <trkpt lat="42.95457" lon="1.13753">
        <ele>755.2</ele>
        <time>2026-05-10T09:40:32Z</time>
      </trkpt>
      <trkpt lat="42.95459" lon="1.13752">
        <ele>754.4</ele>
        <time>2026-05-10T09:40:33Z</time>
      </trkpt>
      <trkpt lat="42.95462" lon="1.13752">
        <ele>753.6</ele>
        <time>2026-05-10T09:40:34Z</time>
      </trkpt>
      <trkpt lat="42.95466" lon="1.13752">
        <ele>752.8</ele>
        <time>2026-05-10T09:40:35Z</time>
      </trkpt>
      <trkpt lat="42.9547" lon="1.13751">
        <ele>752.2</ele>
        <time>2026-05-10T09:40:36Z</time>
      </trkpt>
      <trkpt lat="42.95473" lon="1.13752">
        <ele>751.4</ele>
        <time>2026-05-10T09:40:37Z</time>
      </trkpt>
      <trkpt lat="42.95481" lon="1.13753">
        <ele>750.6</ele>
        <time>2026-05-10T09:40:38Z</time>
      </trkpt>
      <trkpt lat="42.95488" lon="1.13753">
        <ele>749.6</ele>
        <time>2026-05-10T09:40:39Z</time>
      </trkpt>
      <trkpt lat="42.95495" lon="1.13754">
        <ele>748.8</ele>
        <time>2026-05-10T09:40:40Z</time>
      </trkpt>
      <trkpt lat="42.95502" lon="1.13754">
        <ele>748</ele>
        <time>2026-05-10T09:40:41Z</time>
      </trkpt>
      <trkpt lat="42.95511" lon="1.13754">
        <ele>747.2</ele>
        <time>2026-05-10T09:40:42Z</time>
      </trkpt>
      <trkpt lat="42.95517" lon="1.13754">
        <ele>745.6</ele>
        <time>2026-05-10T09:40:43Z</time>
      </trkpt>
      <trkpt lat="42.95523" lon="1.13755">
        <ele>744.8</ele>
        <time>2026-05-10T09:40:44Z</time>
      </trkpt>
      <trkpt lat="42.95528" lon="1.13755">
        <ele>744.2</ele>
        <time>2026-05-10T09:40:45Z</time>
      </trkpt>
      <trkpt lat="42.95534" lon="1.1376">
        <ele>743.4</ele>
        <time>2026-05-10T09:40:46Z</time>
      </trkpt>
      <trkpt lat="42.95538" lon="1.13765">
        <ele>742.6</ele>
        <time>2026-05-10T09:40:47Z</time>
      </trkpt>
      <trkpt lat="42.95544" lon="1.13772">
        <ele>741.8</ele>
        <time>2026-05-10T09:40:48Z</time>
      </trkpt>
      <trkpt lat="42.95549" lon="1.13779">
        <ele>741</ele>
        <time>2026-05-10T09:40:49Z</time>
      </trkpt>
      <trkpt lat="42.95556" lon="1.13787">
        <ele>740.2</ele>
        <time>2026-05-10T09:40:50Z</time>
      </trkpt>
      <trkpt lat="42.95561" lon="1.13793">
        <ele>739.4</ele>
        <time>2026-05-10T09:40:51Z</time>
      </trkpt>
      <trkpt lat="42.95565" lon="1.13799">
        <ele>738.4</ele>
        <time>2026-05-10T09:40:52Z</time>
      </trkpt>
      <trkpt lat="42.95569" lon="1.13807">
        <ele>737.6</ele>
        <time>2026-05-10T09:40:53Z</time>
      </trkpt>
      <trkpt lat="42.95571" lon="1.13813">
        <ele>736.8</ele>
        <time>2026-05-10T09:40:54Z</time>
      </trkpt>
      <trkpt lat="42.95571" lon="1.13816">
        <ele>736.4</ele>
        <time>2026-05-10T09:40:55Z</time>
      </trkpt>
      <trkpt lat="42.95572" lon="1.13819">
        <ele>736</ele>
        <time>2026-05-10T09:40:56Z</time>
      </trkpt>
      <trkpt lat="42.95572" lon="1.13821">
        <ele>735.6</ele>
        <time>2026-05-10T09:40:57Z</time>
      </trkpt>
      <trkpt lat="42.95572" lon="1.13822">
        <ele>735.2</ele>
        <time>2026-05-10T09:40:58Z</time>
      </trkpt>
      <trkpt lat="42.95572" lon="1.13824">
        <ele>734.8</ele>
        <time>2026-05-10T09:40:59Z</time>
      </trkpt>
      <trkpt lat="42.95571" lon="1.13826">
        <ele>734.8</ele>
        <time>2026-05-10T09:41:00Z</time>
      </trkpt>
      <trkpt lat="42.9557" lon="1.13829">
        <ele>734.8</ele>
        <time>2026-05-10T09:41:02Z</time>
      </trkpt>
      <trkpt lat="42.95568" lon="1.13837">
        <ele>742.8</ele>
        <time>2026-05-10T09:48:57Z</time>
      </trkpt>
      <trkpt lat="42.95567" lon="1.13839">
        <ele>742.8</ele>
        <time>2026-05-10T09:48:58Z</time>
      </trkpt>
      <trkpt lat="42.95567" lon="1.13839">
        <ele>742.8</ele>
        <time>2026-05-10T09:49:00Z</time>
      </trkpt>
      <trkpt lat="42.95564" lon="1.13841">
        <ele>742.8</ele>
        <time>2026-05-10T09:49:09Z</time>
      </trkpt>
      <trkpt lat="42.95563" lon="1.13843">
        <ele>742.8</ele>
        <time>2026-05-10T09:49:10Z</time>
      </trkpt>
      <trkpt lat="42.95553" lon="1.13851">
        <ele>742.8</ele>
        <time>2026-05-10T09:49:16Z</time>
      </trkpt>
      <trkpt lat="42.95539" lon="1.13865">
        <ele>742.8</ele>
        <time>2026-05-10T09:49:23Z</time>
      </trkpt>
      <trkpt lat="42.95523" lon="1.13879">
        <ele>742.8</ele>
        <time>2026-05-10T09:49:30Z</time>
      </trkpt>
      <trkpt lat="42.95503" lon="1.13897">
        <ele>742.8</ele>
        <time>2026-05-10T09:49:37Z</time>
      </trkpt>
      <trkpt lat="42.95485" lon="1.13914">
        <ele>742.8</ele>
        <time>2026-05-10T09:49:43Z</time>
      </trkpt>
      <trkpt lat="42.95471" lon="1.13927">
        <ele>743.2</ele>
        <time>2026-05-10T09:49:47Z</time>
      </trkpt>
      <trkpt lat="42.95467" lon="1.13931">
        <ele>743.8</ele>
        <time>2026-05-10T09:49:48Z</time>
      </trkpt>
      <trkpt lat="42.95464" lon="1.13933">
        <ele>744.2</ele>
        <time>2026-05-10T09:49:49Z</time>
      </trkpt>
      <trkpt lat="42.95461" lon="1.13936">
        <ele>744.6</ele>
        <time>2026-05-10T09:49:50Z</time>
      </trkpt>
      <trkpt lat="42.95458" lon="1.13938">
        <ele>745</ele>
        <time>2026-05-10T09:49:51Z</time>
      </trkpt>
      <trkpt lat="42.9545" lon="1.13948">
        <ele>745</ele>
        <time>2026-05-10T09:49:54Z</time>
      </trkpt>
      <trkpt lat="42.95437" lon="1.13968">
        <ele>745</ele>
        <time>2026-05-10T09:49:59Z</time>
      </trkpt>
      <trkpt lat="42.95419" lon="1.13989">
        <ele>745</ele>
        <time>2026-05-10T09:50:05Z</time>
      </trkpt>
      <trkpt lat="42.95401" lon="1.14009">
        <ele>744.6</ele>
        <time>2026-05-10T09:50:10Z</time>
      </trkpt>
      <trkpt lat="42.95398" lon="1.14014">
        <ele>743.4</ele>
        <time>2026-05-10T09:50:11Z</time>
      </trkpt>
      <trkpt lat="42.95395" lon="1.14019">
        <ele>743</ele>
        <time>2026-05-10T09:50:12Z</time>
      </trkpt>
      <trkpt lat="42.95393" lon="1.14025">
        <ele>742.4</ele>
        <time>2026-05-10T09:50:13Z</time>
      </trkpt>
      <trkpt lat="42.95392" lon="1.14031">
        <ele>741.8</ele>
        <time>2026-05-10T09:50:14Z</time>
      </trkpt>
      <trkpt lat="42.95393" lon="1.14037">
        <ele>741.2</ele>
        <time>2026-05-10T09:50:15Z</time>
      </trkpt>
      <trkpt lat="42.95393" lon="1.14044">
        <ele>740.6</ele>
        <time>2026-05-10T09:50:16Z</time>
      </trkpt>
      <trkpt lat="42.95394" lon="1.14052">
        <ele>739.8</ele>
        <time>2026-05-10T09:50:17Z</time>
      </trkpt>
      <trkpt lat="42.95395" lon="1.1406">
        <ele>739.2</ele>
        <time>2026-05-10T09:50:18Z</time>
      </trkpt>
      <trkpt lat="42.95396" lon="1.14067">
        <ele>738.6</ele>
        <time>2026-05-10T09:50:19Z</time>
      </trkpt>
      <trkpt lat="42.95396" lon="1.14073">
        <ele>737.8</ele>
        <time>2026-05-10T09:50:20Z</time>
      </trkpt>
      <trkpt lat="42.95396" lon="1.14085">
        <ele>737.8</ele>
        <time>2026-05-10T09:50:22Z</time>
      </trkpt>
      <trkpt lat="42.954" lon="1.14113">
        <ele>737.8</ele>
        <time>2026-05-10T09:50:28Z</time>
      </trkpt>
      <trkpt lat="42.95401" lon="1.14125">
        <ele>738.4</ele>
        <time>2026-05-10T09:50:31Z</time>
      </trkpt>
      <trkpt lat="42.95401" lon="1.1413">
        <ele>738.8</ele>
        <time>2026-05-10T09:50:32Z</time>
      </trkpt>
      <trkpt lat="42.95401" lon="1.14135">
        <ele>739.2</ele>
        <time>2026-05-10T09:50:33Z</time>
      </trkpt>
      <trkpt lat="42.95401" lon="1.14142">
        <ele>739.6</ele>
        <time>2026-05-10T09:50:34Z</time>
      </trkpt>
      <trkpt lat="42.95401" lon="1.14145">
        <ele>740</ele>
        <time>2026-05-10T09:50:35Z</time>
      </trkpt>
      <trkpt lat="42.95399" lon="1.14163">
        <ele>740</ele>
        <time>2026-05-10T09:50:39Z</time>
      </trkpt>
      <trkpt lat="42.95399" lon="1.14175">
        <ele>740</ele>
        <time>2026-05-10T09:50:42Z</time>
      </trkpt>
      <trkpt lat="42.95398" lon="1.14179">
        <ele>740</ele>
        <time>2026-05-10T09:50:43Z</time>
      </trkpt>
      <trkpt lat="42.95392" lon="1.14193">
        <ele>740</ele>
        <time>2026-05-10T09:50:46Z</time>
      </trkpt>
      <trkpt lat="42.95387" lon="1.14202">
        <ele>740</ele>
        <time>2026-05-10T09:50:48Z</time>
      </trkpt>
      <trkpt lat="42.95376" lon="1.14229">
        <ele>740</ele>
        <time>2026-05-10T09:50:55Z</time>
      </trkpt>
      <trkpt lat="42.95368" lon="1.1425">
        <ele>740</ele>
        <time>2026-05-10T09:51:00Z</time>
      </trkpt>
      <trkpt lat="42.9536" lon="1.14265">
        <ele>739.6</ele>
        <time>2026-05-10T09:51:04Z</time>
      </trkpt>
      <trkpt lat="42.95358" lon="1.14268">
        <ele>739</ele>
        <time>2026-05-10T09:51:05Z</time>
      </trkpt>
      <trkpt lat="42.95357" lon="1.14271">
        <ele>738.6</ele>
        <time>2026-05-10T09:51:06Z</time>
      </trkpt>
      <trkpt lat="42.95355" lon="1.14274">
        <ele>738</ele>
        <time>2026-05-10T09:51:07Z</time>
      </trkpt>
      <trkpt lat="42.95354" lon="1.14278">
        <ele>737.6</ele>
        <time>2026-05-10T09:51:08Z</time>
      </trkpt>
      <trkpt lat="42.95356" lon="1.14281">
        <ele>737.2</ele>
        <time>2026-05-10T09:51:09Z</time>
      </trkpt>
      <trkpt lat="42.95358" lon="1.14283">
        <ele>736.6</ele>
        <time>2026-05-10T09:51:10Z</time>
      </trkpt>
      <trkpt lat="42.95361" lon="1.14284">
        <ele>736.2</ele>
        <time>2026-05-10T09:51:11Z</time>
      </trkpt>
      <trkpt lat="42.95365" lon="1.14287">
        <ele>735.8</ele>
        <time>2026-05-10T09:51:12Z</time>
      </trkpt>
      <trkpt lat="42.95367" lon="1.14292">
        <ele>735.4</ele>
        <time>2026-05-10T09:51:13Z</time>
      </trkpt>
      <trkpt lat="42.95374" lon="1.14301">
        <ele>734.8</ele>
        <time>2026-05-10T09:51:15Z</time>
      </trkpt>
      <trkpt lat="42.95377" lon="1.14308">
        <ele>734.4</ele>
        <time>2026-05-10T09:51:16Z</time>
      </trkpt>
      <trkpt lat="42.95381" lon="1.14315">
        <ele>734</ele>
        <time>2026-05-10T09:51:17Z</time>
      </trkpt>
      <trkpt lat="42.95382" lon="1.14323">
        <ele>733.6</ele>
        <time>2026-05-10T09:51:18Z</time>
      </trkpt>
      <trkpt lat="42.95383" lon="1.14332">
        <ele>733.2</ele>
        <time>2026-05-10T09:51:19Z</time>
      </trkpt>
      <trkpt lat="42.95384" lon="1.1434">
        <ele>732.8</ele>
        <time>2026-05-10T09:51:20Z</time>
      </trkpt>
      <trkpt lat="42.95384" lon="1.14349">
        <ele>732.2</ele>
        <time>2026-05-10T09:51:21Z</time>
      </trkpt>
      <trkpt lat="42.95384" lon="1.14358">
        <ele>731.8</ele>
        <time>2026-05-10T09:51:22Z</time>
      </trkpt>
      <trkpt lat="42.95384" lon="1.14367">
        <ele>731.4</ele>
        <time>2026-05-10T09:51:23Z</time>
      </trkpt>
      <trkpt lat="42.95384" lon="1.14377">
        <ele>731</ele>
        <time>2026-05-10T09:51:24Z</time>
      </trkpt>
      <trkpt lat="42.95384" lon="1.14387">
        <ele>730.2</ele>
        <time>2026-05-10T09:51:25Z</time>
      </trkpt>
      <trkpt lat="42.95385" lon="1.14398">
        <ele>729.6</ele>
        <time>2026-05-10T09:51:26Z</time>
      </trkpt>
      <trkpt lat="42.95387" lon="1.14409">
        <ele>729.2</ele>
        <time>2026-05-10T09:51:27Z</time>
      </trkpt>
      <trkpt lat="42.95388" lon="1.1442">
        <ele>728.6</ele>
        <time>2026-05-10T09:51:28Z</time>
      </trkpt>
      <trkpt lat="42.9539" lon="1.14431">
        <ele>728.2</ele>
        <time>2026-05-10T09:51:29Z</time>
      </trkpt>
      <trkpt lat="42.95392" lon="1.14443">
        <ele>727.6</ele>
        <time>2026-05-10T09:51:30Z</time>
      </trkpt>
      <trkpt lat="42.95394" lon="1.14454">
        <ele>727.2</ele>
        <time>2026-05-10T09:51:31Z</time>
      </trkpt>
      <trkpt lat="42.95395" lon="1.14465">
        <ele>726.6</ele>
        <time>2026-05-10T09:51:32Z</time>
      </trkpt>
      <trkpt lat="42.95398" lon="1.14476">
        <ele>726.6</ele>
        <time>2026-05-10T09:51:33Z</time>
      </trkpt>
      <trkpt lat="42.95406" lon="1.14542">
        <ele>726.6</ele>
        <time>2026-05-10T09:51:39Z</time>
      </trkpt>
      <trkpt lat="42.95412" lon="1.1459">
        <ele>726.6</ele>
        <time>2026-05-10T09:51:44Z</time>
      </trkpt>
      <trkpt lat="42.95413" lon="1.14599">
        <ele>726.6</ele>
        <time>2026-05-10T09:51:45Z</time>
      </trkpt>
      <trkpt lat="42.95416" lon="1.14639">
        <ele>726.2</ele>
        <time>2026-05-10T09:51:49Z</time>
      </trkpt>
      <trkpt lat="42.95417" lon="1.14649">
        <ele>725.4</ele>
        <time>2026-05-10T09:51:50Z</time>
      </trkpt>
      <trkpt lat="42.95417" lon="1.14659">
        <ele>724.8</ele>
        <time>2026-05-10T09:51:51Z</time>
      </trkpt>
      <trkpt lat="42.95418" lon="1.14668">
        <ele>724.4</ele>
        <time>2026-05-10T09:51:52Z</time>
      </trkpt>
      <trkpt lat="42.95427" lon="1.14726">
        <ele>724</ele>
        <time>2026-05-10T09:51:58Z</time>
      </trkpt>
      <trkpt lat="42.95428" lon="1.14736">
        <ele>723.6</ele>
        <time>2026-05-10T09:51:59Z</time>
      </trkpt>
      <trkpt lat="42.95429" lon="1.14746">
        <ele>723.2</ele>
        <time>2026-05-10T09:52:00Z</time>
      </trkpt>
      <trkpt lat="42.95429" lon="1.14756">
        <ele>722.8</ele>
        <time>2026-05-10T09:52:01Z</time>
      </trkpt>
      <trkpt lat="42.95429" lon="1.14766">
        <ele>722.4</ele>
        <time>2026-05-10T09:52:02Z</time>
      </trkpt>
      <trkpt lat="42.95429" lon="1.14784">
        <ele>722.4</ele>
        <time>2026-05-10T09:52:04Z</time>
      </trkpt>
      <trkpt lat="42.95431" lon="1.14826">
        <ele>722.4</ele>
        <time>2026-05-10T09:52:09Z</time>
      </trkpt>
      <trkpt lat="42.95431" lon="1.14834">
        <ele>722.4</ele>
        <time>2026-05-10T09:52:10Z</time>
      </trkpt>
      <trkpt lat="42.95436" lon="1.14876">
        <ele>722.4</ele>
        <time>2026-05-10T09:52:15Z</time>
      </trkpt>
      <trkpt lat="42.95443" lon="1.14917">
        <ele>722.4</ele>
        <time>2026-05-10T09:52:20Z</time>
      </trkpt>
      <trkpt lat="42.95445" lon="1.14924">
        <ele>722.4</ele>
        <time>2026-05-10T09:52:21Z</time>
      </trkpt>
      <trkpt lat="42.95447" lon="1.14931">
        <ele>722.4</ele>
        <time>2026-05-10T09:52:22Z</time>
      </trkpt>
      <trkpt lat="42.95454" lon="1.14951">
        <ele>722.4</ele>
        <time>2026-05-10T09:52:25Z</time>
      </trkpt>
      <trkpt lat="42.95457" lon="1.14963">
        <ele>722.4</ele>
        <time>2026-05-10T09:52:27Z</time>
      </trkpt>
      <trkpt lat="42.95463" lon="1.14968">
        <ele>722.4</ele>
        <time>2026-05-10T09:52:29Z</time>
      </trkpt>
      <trkpt lat="42.95472" lon="1.14963">
        <ele>722.4</ele>
        <time>2026-05-10T09:52:32Z</time>
      </trkpt>
      <trkpt lat="42.95482" lon="1.14953">
        <ele>722.4</ele>
        <time>2026-05-10T09:52:36Z</time>
      </trkpt>
      <trkpt lat="42.95485" lon="1.1495">
        <ele>722.8</ele>
        <time>2026-05-10T09:52:37Z</time>
      </trkpt>
      <trkpt lat="42.95487" lon="1.14947">
        <ele>723.4</ele>
        <time>2026-05-10T09:52:38Z</time>
      </trkpt>
      <trkpt lat="42.95489" lon="1.14943">
        <ele>724.4</ele>
        <time>2026-05-10T09:52:39Z</time>
      </trkpt>
      <trkpt lat="42.95491" lon="1.14939">
        <ele>724.8</ele>
        <time>2026-05-10T09:52:40Z</time>
      </trkpt>
      <trkpt lat="42.95492" lon="1.14935">
        <ele>725.4</ele>
        <time>2026-05-10T09:52:41Z</time>
      </trkpt>
      <trkpt lat="42.95493" lon="1.1493">
        <ele>726</ele>
        <time>2026-05-10T09:52:42Z</time>
      </trkpt>
      <trkpt lat="42.95495" lon="1.14926">
        <ele>726.6</ele>
        <time>2026-05-10T09:52:43Z</time>
      </trkpt>
      <trkpt lat="42.95497" lon="1.14921">
        <ele>727</ele>
        <time>2026-05-10T09:52:44Z</time>
      </trkpt>
      <trkpt lat="42.95499" lon="1.14917">
        <ele>727.6</ele>
        <time>2026-05-10T09:52:45Z</time>
      </trkpt>
      <trkpt lat="42.95501" lon="1.14914">
        <ele>728</ele>
        <time>2026-05-10T09:52:46Z</time>
      </trkpt>
      <trkpt lat="42.95504" lon="1.14911">
        <ele>728.4</ele>
        <time>2026-05-10T09:52:47Z</time>
      </trkpt>
      <trkpt lat="42.95506" lon="1.14908">
        <ele>728.8</ele>
        <time>2026-05-10T09:52:48Z</time>
      </trkpt>
      <trkpt lat="42.95509" lon="1.14905">
        <ele>729.4</ele>
        <time>2026-05-10T09:52:49Z</time>
      </trkpt>
      <trkpt lat="42.95511" lon="1.14903">
        <ele>730</ele>
        <time>2026-05-10T09:52:50Z</time>
      </trkpt>
      <trkpt lat="42.95514" lon="1.14902">
        <ele>730.4</ele>
        <time>2026-05-10T09:52:51Z</time>
      </trkpt>
      <trkpt lat="42.95516" lon="1.14901">
        <ele>731</ele>
        <time>2026-05-10T09:52:52Z</time>
      </trkpt>
      <trkpt lat="42.95519" lon="1.149">
        <ele>731.4</ele>
        <time>2026-05-10T09:52:53Z</time>
      </trkpt>
      <trkpt lat="42.95521" lon="1.149">
        <ele>732</ele>
        <time>2026-05-10T09:52:54Z</time>
      </trkpt>
      <trkpt lat="42.95523" lon="1.14899">
        <ele>732.6</ele>
        <time>2026-05-10T09:52:55Z</time>
      </trkpt>
      <trkpt lat="42.95526" lon="1.14898">
        <ele>733.2</ele>
        <time>2026-05-10T09:52:56Z</time>
      </trkpt>
      <trkpt lat="42.95528" lon="1.14897">
        <ele>733.6</ele>
        <time>2026-05-10T09:52:57Z</time>
      </trkpt>
      <trkpt lat="42.95532" lon="1.14895">
        <ele>734</ele>
        <time>2026-05-10T09:52:59Z</time>
      </trkpt>
      <trkpt lat="42.95534" lon="1.14895">
        <ele>734.6</ele>
        <time>2026-05-10T09:53:00Z</time>
      </trkpt>
      <trkpt lat="42.95535" lon="1.14894">
        <ele>735</ele>
        <time>2026-05-10T09:53:01Z</time>
      </trkpt>
      <trkpt lat="42.95535" lon="1.14894">
        <ele>735.4</ele>
        <time>2026-05-10T09:53:02Z</time>
      </trkpt>
      <trkpt lat="42.95535" lon="1.14894">
        <ele>735.8</ele>
        <time>2026-05-10T09:53:03Z</time>
      </trkpt>
      <trkpt lat="42.95535" lon="1.14894">
        <ele>735.8</ele>
        <time>2026-05-10T09:53:04Z</time>
      </trkpt>
      <trkpt lat="42.95538" lon="1.14896">
        <ele>735.8</ele>
        <time>2026-05-10T09:53:09Z</time>
      </trkpt>
      <trkpt lat="42.95541" lon="1.14898">
        <ele>735.8</ele>
        <time>2026-05-10T09:53:11Z</time>
      </trkpt>
      <trkpt lat="42.95545" lon="1.14903">
        <ele>735.4</ele>
        <time>2026-05-10T09:53:13Z</time>
      </trkpt>
      <trkpt lat="42.95547" lon="1.14906">
        <ele>735</ele>
        <time>2026-05-10T09:53:14Z</time>
      </trkpt>
      <trkpt lat="42.9555" lon="1.14908">
        <ele>734.6</ele>
        <time>2026-05-10T09:53:15Z</time>
      </trkpt>
      <trkpt lat="42.95552" lon="1.14909">
        <ele>734.2</ele>
        <time>2026-05-10T09:53:16Z</time>
      </trkpt>
      <trkpt lat="42.95553" lon="1.14911">
        <ele>733.6</ele>
        <time>2026-05-10T09:53:17Z</time>
      </trkpt>
      <trkpt lat="42.95556" lon="1.14914">
        <ele>733</ele>
        <time>2026-05-10T09:53:18Z</time>
      </trkpt>
      <trkpt lat="42.95558" lon="1.14917">
        <ele>732.4</ele>
        <time>2026-05-10T09:53:19Z</time>
      </trkpt>
      <trkpt lat="42.9556" lon="1.14919">
        <ele>731.6</ele>
        <time>2026-05-10T09:53:20Z</time>
      </trkpt>
      <trkpt lat="42.95562" lon="1.14922">
        <ele>731</ele>
        <time>2026-05-10T09:53:21Z</time>
      </trkpt>
      <trkpt lat="42.95564" lon="1.14924">
        <ele>730.2</ele>
        <time>2026-05-10T09:53:22Z</time>
      </trkpt>
      <trkpt lat="42.95565" lon="1.14925">
        <ele>729.4</ele>
        <time>2026-05-10T09:53:23Z</time>
      </trkpt>
      <trkpt lat="42.95567" lon="1.14928">
        <ele>728.6</ele>
        <time>2026-05-10T09:53:24Z</time>
      </trkpt>
      <trkpt lat="42.9557" lon="1.14931">
        <ele>727.8</ele>
        <time>2026-05-10T09:53:25Z</time>
      </trkpt>
      <trkpt lat="42.95572" lon="1.14932">
        <ele>726.8</ele>
        <time>2026-05-10T09:53:26Z</time>
      </trkpt>
      <trkpt lat="42.95573" lon="1.14933">
        <ele>725.8</ele>
        <time>2026-05-10T09:53:27Z</time>
      </trkpt>
      <trkpt lat="42.95578" lon="1.14934">
        <ele>725</ele>
        <time>2026-05-10T09:53:28Z</time>
      </trkpt>
      <trkpt lat="42.95582" lon="1.14937">
        <ele>723</ele>
        <time>2026-05-10T09:53:29Z</time>
      </trkpt>
      <trkpt lat="42.95587" lon="1.1494">
        <ele>722</ele>
        <time>2026-05-10T09:53:30Z</time>
      </trkpt>
      <trkpt lat="42.9559" lon="1.14942">
        <ele>721.2</ele>
        <time>2026-05-10T09:53:31Z</time>
      </trkpt>
      <trkpt lat="42.95594" lon="1.14944">
        <ele>720.4</ele>
        <time>2026-05-10T09:53:32Z</time>
      </trkpt>
      <trkpt lat="42.95599" lon="1.14944">
        <ele>719.4</ele>
        <time>2026-05-10T09:53:33Z</time>
      </trkpt>
      <trkpt lat="42.95602" lon="1.14943">
        <ele>718.4</ele>
        <time>2026-05-10T09:53:34Z</time>
      </trkpt>
      <trkpt lat="42.95607" lon="1.14941">
        <ele>717.6</ele>
        <time>2026-05-10T09:53:35Z</time>
      </trkpt>
      <trkpt lat="42.9561" lon="1.1494">
        <ele>716.6</ele>
        <time>2026-05-10T09:53:36Z</time>
      </trkpt>
      <trkpt lat="42.95617" lon="1.14938">
        <ele>715.8</ele>
        <time>2026-05-10T09:53:37Z</time>
      </trkpt>
      <trkpt lat="42.95623" lon="1.14937">
        <ele>714.8</ele>
        <time>2026-05-10T09:53:38Z</time>
      </trkpt>
      <trkpt lat="42.95629" lon="1.14935">
        <ele>713.8</ele>
        <time>2026-05-10T09:53:39Z</time>
      </trkpt>
      <trkpt lat="42.95638" lon="1.14932">
        <ele>712.8</ele>
        <time>2026-05-10T09:53:40Z</time>
      </trkpt>
      <trkpt lat="42.95642" lon="1.14931">
        <ele>711.8</ele>
        <time>2026-05-10T09:53:41Z</time>
      </trkpt>
      <trkpt lat="42.95646" lon="1.14931">
        <ele>711</ele>
        <time>2026-05-10T09:53:42Z</time>
      </trkpt>
      <trkpt lat="42.95649" lon="1.14931">
        <ele>710.4</ele>
        <time>2026-05-10T09:53:43Z</time>
      </trkpt>
      <trkpt lat="42.95653" lon="1.14932">
        <ele>709.6</ele>
        <time>2026-05-10T09:53:44Z</time>
      </trkpt>
      <trkpt lat="42.95656" lon="1.14933">
        <ele>709</ele>
        <time>2026-05-10T09:53:45Z</time>
      </trkpt>
      <trkpt lat="42.95658" lon="1.14933">
        <ele>708.2</ele>
        <time>2026-05-10T09:53:46Z</time>
      </trkpt>
      <trkpt lat="42.95659" lon="1.14933">
        <ele>707.6</ele>
        <time>2026-05-10T09:53:47Z</time>
      </trkpt>
      <trkpt lat="42.95661" lon="1.14933">
        <ele>706.8</ele>
        <time>2026-05-10T09:53:48Z</time>
      </trkpt>
      <trkpt lat="42.95662" lon="1.14933">
        <ele>706</ele>
        <time>2026-05-10T09:53:49Z</time>
      </trkpt>
      <trkpt lat="42.95663" lon="1.14933">
        <ele>705.6</ele>
        <time>2026-05-10T09:53:50Z</time>
      </trkpt>
      <trkpt lat="42.95665" lon="1.14933">
        <ele>705.2</ele>
        <time>2026-05-10T09:53:51Z</time>
      </trkpt>
      <trkpt lat="42.95666" lon="1.14934">
        <ele>704.6</ele>
        <time>2026-05-10T09:53:52Z</time>
      </trkpt>
      <trkpt lat="42.95666" lon="1.14935">
        <ele>704.2</ele>
        <time>2026-05-10T09:53:53Z</time>
      </trkpt>
      <trkpt lat="42.95667" lon="1.14935">
        <ele>703.2</ele>
        <time>2026-05-10T09:53:54Z</time>
      </trkpt>
      <trkpt lat="42.95668" lon="1.14937">
        <ele>702.8</ele>
        <time>2026-05-10T09:53:55Z</time>
      </trkpt>
      <trkpt lat="42.95668" lon="1.14938">
        <ele>702.4</ele>
        <time>2026-05-10T09:53:56Z</time>
      </trkpt>
      <trkpt lat="42.95669" lon="1.14939">
        <ele>702</ele>
        <time>2026-05-10T09:53:57Z</time>
      </trkpt>
      <trkpt lat="42.95669" lon="1.1494">
        <ele>701.6</ele>
        <time>2026-05-10T09:53:58Z</time>
      </trkpt>
      <trkpt lat="42.9567" lon="1.14942">
        <ele>701.6</ele>
        <time>2026-05-10T09:53:59Z</time>
      </trkpt>
      <trkpt lat="42.95671" lon="1.14943">
        <ele>701.2</ele>
        <time>2026-05-10T09:54:01Z</time>
      </trkpt>
      <trkpt lat="42.95674" lon="1.14944">
        <ele>700.2</ele>
        <time>2026-05-10T09:54:03Z</time>
      </trkpt>
      <trkpt lat="42.95676" lon="1.14945">
        <ele>699.8</ele>
        <time>2026-05-10T09:54:04Z</time>
      </trkpt>
      <trkpt lat="42.95678" lon="1.14946">
        <ele>699.4</ele>
        <time>2026-05-10T09:54:05Z</time>
      </trkpt>
      <trkpt lat="42.95685" lon="1.14947">
        <ele>698.8</ele>
        <time>2026-05-10T09:54:07Z</time>
      </trkpt>
      <trkpt lat="42.95688" lon="1.14948">
        <ele>698.4</ele>
        <time>2026-05-10T09:54:08Z</time>
      </trkpt>
      <trkpt lat="42.95693" lon="1.14949">
        <ele>698</ele>
        <time>2026-05-10T09:54:09Z</time>
      </trkpt>
      <trkpt lat="42.95697" lon="1.14948">
        <ele>697.4</ele>
        <time>2026-05-10T09:54:10Z</time>
      </trkpt>
      <trkpt lat="42.957" lon="1.14949">
        <ele>697</ele>
        <time>2026-05-10T09:54:11Z</time>
      </trkpt>
      <trkpt lat="42.95704" lon="1.14948">
        <ele>696.4</ele>
        <time>2026-05-10T09:54:12Z</time>
      </trkpt>
      <trkpt lat="42.95707" lon="1.14948">
        <ele>695.8</ele>
        <time>2026-05-10T09:54:13Z</time>
      </trkpt>
      <trkpt lat="42.9571" lon="1.14947">
        <ele>695.4</ele>
        <time>2026-05-10T09:54:14Z</time>
      </trkpt>
      <trkpt lat="42.95712" lon="1.14945">
        <ele>694.8</ele>
        <time>2026-05-10T09:54:15Z</time>
      </trkpt>
      <trkpt lat="42.95714" lon="1.14942">
        <ele>694.2</ele>
        <time>2026-05-10T09:54:16Z</time>
      </trkpt>
      <trkpt lat="42.95716" lon="1.14938">
        <ele>693.6</ele>
        <time>2026-05-10T09:54:17Z</time>
      </trkpt>
      <trkpt lat="42.95722" lon="1.14936">
        <ele>692.2</ele>
        <time>2026-05-10T09:54:18Z</time>
      </trkpt>
      <trkpt lat="42.95729" lon="1.14934">
        <ele>691.4</ele>
        <time>2026-05-10T09:54:19Z</time>
      </trkpt>
      <trkpt lat="42.95736" lon="1.14934">
        <ele>690.8</ele>
        <time>2026-05-10T09:54:20Z</time>
      </trkpt>
      <trkpt lat="42.95743" lon="1.14935">
        <ele>690</ele>
        <time>2026-05-10T09:54:21Z</time>
      </trkpt>
      <trkpt lat="42.95749" lon="1.14936">
        <ele>689.4</ele>
        <time>2026-05-10T09:54:22Z</time>
      </trkpt>
      <trkpt lat="42.95755" lon="1.14938">
        <ele>688.8</ele>
        <time>2026-05-10T09:54:23Z</time>
      </trkpt>
      <trkpt lat="42.95761" lon="1.1494">
        <ele>688</ele>
        <time>2026-05-10T09:54:24Z</time>
      </trkpt>
      <trkpt lat="42.95766" lon="1.14942">
        <ele>687.4</ele>
        <time>2026-05-10T09:54:25Z</time>
      </trkpt>
      <trkpt lat="42.95787" lon="1.14949">
        <ele>687.4</ele>
        <time>2026-05-10T09:54:29Z</time>
      </trkpt>
      <trkpt lat="42.95816" lon="1.14964">
        <ele>687.8</ele>
        <time>2026-05-10T09:54:37Z</time>
      </trkpt>
      <trkpt lat="42.95819" lon="1.14964">
        <ele>688.2</ele>
        <time>2026-05-10T09:54:38Z</time>
      </trkpt>
      <trkpt lat="42.95823" lon="1.14966">
        <ele>688.6</ele>
        <time>2026-05-10T09:54:39Z</time>
      </trkpt>
      <trkpt lat="42.95826" lon="1.14968">
        <ele>689</ele>
        <time>2026-05-10T09:54:40Z</time>
      </trkpt>
      <trkpt lat="42.9583" lon="1.1497">
        <ele>689.4</ele>
        <time>2026-05-10T09:54:41Z</time>
      </trkpt>
      <trkpt lat="42.95839" lon="1.14975">
        <ele>689.4</ele>
        <time>2026-05-10T09:54:43Z</time>
      </trkpt>
      <trkpt lat="42.95847" lon="1.14977">
        <ele>689.4</ele>
        <time>2026-05-10T09:54:44Z</time>
      </trkpt>
      <trkpt lat="42.95854" lon="1.14978">
        <ele>689</ele>
        <time>2026-05-10T09:54:45Z</time>
      </trkpt>
      <trkpt lat="42.95861" lon="1.14978">
        <ele>688.4</ele>
        <time>2026-05-10T09:54:46Z</time>
      </trkpt>
      <trkpt lat="42.9587" lon="1.14974">
        <ele>688</ele>
        <time>2026-05-10T09:54:47Z</time>
      </trkpt>
      <trkpt lat="42.95877" lon="1.14973">
        <ele>687.4</ele>
        <time>2026-05-10T09:54:48Z</time>
      </trkpt>
      <trkpt lat="42.95883" lon="1.14973">
        <ele>687</ele>
        <time>2026-05-10T09:54:49Z</time>
      </trkpt>
      <trkpt lat="42.95901" lon="1.14975">
        <ele>687</ele>
        <time>2026-05-10T09:54:52Z</time>
      </trkpt>
      <trkpt lat="42.95917" lon="1.14973">
        <ele>687</ele>
        <time>2026-05-10T09:54:54Z</time>
      </trkpt>
      <trkpt lat="42.95941" lon="1.14982">
        <ele>686.6</ele>
        <time>2026-05-10T09:54:58Z</time>
      </trkpt>
      <trkpt lat="42.95946" lon="1.14985">
        <ele>686.2</ele>
        <time>2026-05-10T09:54:59Z</time>
      </trkpt>
      <trkpt lat="42.95951" lon="1.14988">
        <ele>685.8</ele>
        <time>2026-05-10T09:55:00Z</time>
      </trkpt>
      <trkpt lat="42.95957" lon="1.1499">
        <ele>685.4</ele>
        <time>2026-05-10T09:55:01Z</time>
      </trkpt>
      <trkpt lat="42.95962" lon="1.14992">
        <ele>685</ele>
        <time>2026-05-10T09:55:02Z</time>
      </trkpt>
      <trkpt lat="42.95973" lon="1.14998">
        <ele>684.4</ele>
        <time>2026-05-10T09:55:04Z</time>
      </trkpt>
      <trkpt lat="42.95978" lon="1.15002">
        <ele>684</ele>
        <time>2026-05-10T09:55:05Z</time>
      </trkpt>
      <trkpt lat="42.95984" lon="1.15005">
        <ele>683.6</ele>
        <time>2026-05-10T09:55:06Z</time>
      </trkpt>
      <trkpt lat="42.95989" lon="1.15011">
        <ele>682.8</ele>
        <time>2026-05-10T09:55:07Z</time>
      </trkpt>
      <trkpt lat="42.95994" lon="1.15017">
        <ele>682.2</ele>
        <time>2026-05-10T09:55:08Z</time>
      </trkpt>
      <trkpt lat="42.96" lon="1.15024">
        <ele>681.8</ele>
        <time>2026-05-10T09:55:09Z</time>
      </trkpt>
      <trkpt lat="42.96007" lon="1.15031">
        <ele>681.4</ele>
        <time>2026-05-10T09:55:10Z</time>
      </trkpt>
      <trkpt lat="42.96013" lon="1.15037">
        <ele>680.8</ele>
        <time>2026-05-10T09:55:11Z</time>
      </trkpt>
      <trkpt lat="42.9602" lon="1.15044">
        <ele>680.2</ele>
        <time>2026-05-10T09:55:12Z</time>
      </trkpt>
      <trkpt lat="42.96026" lon="1.15052">
        <ele>679.6</ele>
        <time>2026-05-10T09:55:13Z</time>
      </trkpt>
      <trkpt lat="42.96031" lon="1.15061">
        <ele>678.6</ele>
        <time>2026-05-10T09:55:14Z</time>
      </trkpt>
      <trkpt lat="42.96034" lon="1.1507">
        <ele>677.8</ele>
        <time>2026-05-10T09:55:15Z</time>
      </trkpt>
      <trkpt lat="42.96035" lon="1.15077">
        <ele>676.6</ele>
        <time>2026-05-10T09:55:16Z</time>
      </trkpt>
      <trkpt lat="42.96034" lon="1.15083">
        <ele>675.6</ele>
        <time>2026-05-10T09:55:17Z</time>
      </trkpt>
      <trkpt lat="42.96033" lon="1.15088">
        <ele>674.6</ele>
        <time>2026-05-10T09:55:18Z</time>
      </trkpt>
      <trkpt lat="42.96034" lon="1.15092">
        <ele>673.8</ele>
        <time>2026-05-10T09:55:19Z</time>
      </trkpt>
      <trkpt lat="42.96036" lon="1.15093">
        <ele>673</ele>
        <time>2026-05-10T09:55:20Z</time>
      </trkpt>
      <trkpt lat="42.96039" lon="1.15091">
        <ele>672.2</ele>
        <time>2026-05-10T09:55:21Z</time>
      </trkpt>
      <trkpt lat="42.96043" lon="1.15088">
        <ele>671.2</ele>
        <time>2026-05-10T09:55:22Z</time>
      </trkpt>
      <trkpt lat="42.96047" lon="1.15085">
        <ele>670.6</ele>
        <time>2026-05-10T09:55:23Z</time>
      </trkpt>
      <trkpt lat="42.9605" lon="1.15083">
        <ele>669.8</ele>
        <time>2026-05-10T09:55:24Z</time>
      </trkpt>
      <trkpt lat="42.96054" lon="1.1508">
        <ele>669.2</ele>
        <time>2026-05-10T09:55:25Z</time>
      </trkpt>
      <trkpt lat="42.96056" lon="1.15077">
        <ele>668.4</ele>
        <time>2026-05-10T09:55:26Z</time>
      </trkpt>
      <trkpt lat="42.96059" lon="1.15074">
        <ele>667.8</ele>
        <time>2026-05-10T09:55:27Z</time>
      </trkpt>
      <trkpt lat="42.96061" lon="1.15071">
        <ele>667</ele>
        <time>2026-05-10T09:55:28Z</time>
      </trkpt>
      <trkpt lat="42.96066" lon="1.15068">
        <ele>666.4</ele>
        <time>2026-05-10T09:55:29Z</time>
      </trkpt>
      <trkpt lat="42.96071" lon="1.15064">
        <ele>665.6</ele>
        <time>2026-05-10T09:55:30Z</time>
      </trkpt>
      <trkpt lat="42.96076" lon="1.1506">
        <ele>664.2</ele>
        <time>2026-05-10T09:55:31Z</time>
      </trkpt>
      <trkpt lat="42.96081" lon="1.15055">
        <ele>663.4</ele>
        <time>2026-05-10T09:55:32Z</time>
      </trkpt>
      <trkpt lat="42.96086" lon="1.15049">
        <ele>662.4</ele>
        <time>2026-05-10T09:55:33Z</time>
      </trkpt>
      <trkpt lat="42.96092" lon="1.15045">
        <ele>661.4</ele>
        <time>2026-05-10T09:55:34Z</time>
      </trkpt>
      <trkpt lat="42.96097" lon="1.15041">
        <ele>660.4</ele>
        <time>2026-05-10T09:55:35Z</time>
      </trkpt>
      <trkpt lat="42.961" lon="1.15037">
        <ele>659.4</ele>
        <time>2026-05-10T09:55:36Z</time>
      </trkpt>
      <trkpt lat="42.96103" lon="1.15035">
        <ele>658.2</ele>
        <time>2026-05-10T09:55:37Z</time>
      </trkpt>
      <trkpt lat="42.96105" lon="1.15035">
        <ele>657.2</ele>
        <time>2026-05-10T09:55:38Z</time>
      </trkpt>
      <trkpt lat="42.96105" lon="1.15036">
        <ele>656.2</ele>
        <time>2026-05-10T09:55:39Z</time>
      </trkpt>
      <trkpt lat="42.96106" lon="1.15038">
        <ele>655</ele>
        <time>2026-05-10T09:55:40Z</time>
      </trkpt>
      <trkpt lat="42.96108" lon="1.15042">
        <ele>654.4</ele>
        <time>2026-05-10T09:55:41Z</time>
      </trkpt>
      <trkpt lat="42.96109" lon="1.15047">
        <ele>653.8</ele>
        <time>2026-05-10T09:55:42Z</time>
      </trkpt>
      <trkpt lat="42.96111" lon="1.15051">
        <ele>653</ele>
        <time>2026-05-10T09:55:43Z</time>
      </trkpt>
      <trkpt lat="42.96113" lon="1.15056">
        <ele>652.4</ele>
        <time>2026-05-10T09:55:44Z</time>
      </trkpt>
      <trkpt lat="42.96114" lon="1.15061">
        <ele>651.8</ele>
        <time>2026-05-10T09:55:45Z</time>
      </trkpt>
      <trkpt lat="42.96115" lon="1.15065">
        <ele>651.2</ele>
        <time>2026-05-10T09:55:46Z</time>
      </trkpt>
      <trkpt lat="42.96116" lon="1.15067">
        <ele>650.6</ele>
        <time>2026-05-10T09:55:47Z</time>
      </trkpt>
      <trkpt lat="42.96117" lon="1.15067">
        <ele>650</ele>
        <time>2026-05-10T09:55:48Z</time>
      </trkpt>
      <trkpt lat="42.96118" lon="1.15067">
        <ele>649.4</ele>
        <time>2026-05-10T09:55:49Z</time>
      </trkpt>
      <trkpt lat="42.9612" lon="1.15068">
        <ele>649</ele>
        <time>2026-05-10T09:55:50Z</time>
      </trkpt>
      <trkpt lat="42.96121" lon="1.15068">
        <ele>648.4</ele>
        <time>2026-05-10T09:55:51Z</time>
      </trkpt>
      <trkpt lat="42.96123" lon="1.15069">
        <ele>647.8</ele>
        <time>2026-05-10T09:55:52Z</time>
      </trkpt>
      <trkpt lat="42.96125" lon="1.1507">
        <ele>647.4</ele>
        <time>2026-05-10T09:55:53Z</time>
      </trkpt>
      <trkpt lat="42.96131" lon="1.15073">
        <ele>647.4</ele>
        <time>2026-05-10T09:55:55Z</time>
      </trkpt>
      <trkpt lat="42.96136" lon="1.15074">
        <ele>646.4</ele>
        <time>2026-05-10T09:55:56Z</time>
      </trkpt>
      <trkpt lat="42.9614" lon="1.15076">
        <ele>646</ele>
        <time>2026-05-10T09:55:57Z</time>
      </trkpt>
      <trkpt lat="42.96143" lon="1.15078">
        <ele>645.6</ele>
        <time>2026-05-10T09:55:58Z</time>
      </trkpt>
      <trkpt lat="42.96145" lon="1.1508">
        <ele>645</ele>
        <time>2026-05-10T09:55:59Z</time>
      </trkpt>
      <trkpt lat="42.96147" lon="1.15082">
        <ele>644.4</ele>
        <time>2026-05-10T09:56:00Z</time>
      </trkpt>
      <trkpt lat="42.96147" lon="1.15082">
        <ele>643.8</ele>
        <time>2026-05-10T09:56:01Z</time>
      </trkpt>
      <trkpt lat="42.96147" lon="1.15085">
        <ele>643.2</ele>
        <time>2026-05-10T09:56:02Z</time>
      </trkpt>
      <trkpt lat="42.96146" lon="1.15086">
        <ele>642.6</ele>
        <time>2026-05-10T09:56:03Z</time>
      </trkpt>
      <trkpt lat="42.96139" lon="1.15094">
        <ele>642.6</ele>
        <time>2026-05-10T09:56:06Z</time>
      </trkpt>
      <trkpt lat="42.96137" lon="1.15097">
        <ele>642.6</ele>
        <time>2026-05-10T09:56:07Z</time>
      </trkpt>
      <trkpt lat="42.96132" lon="1.15102">
        <ele>642.2</ele>
        <time>2026-05-10T09:56:09Z</time>
      </trkpt>
      <trkpt lat="42.96128" lon="1.15105">
        <ele>641.8</ele>
        <time>2026-05-10T09:56:10Z</time>
      </trkpt>
      <trkpt lat="42.96124" lon="1.15109">
        <ele>641.4</ele>
        <time>2026-05-10T09:56:11Z</time>
      </trkpt>
      <trkpt lat="42.9612" lon="1.15113">
        <ele>641</ele>
        <time>2026-05-10T09:56:12Z</time>
      </trkpt>
      <trkpt lat="42.96116" lon="1.15117">
        <ele>640.6</ele>
        <time>2026-05-10T09:56:13Z</time>
      </trkpt>
      <trkpt lat="42.96108" lon="1.15124">
        <ele>640.2</ele>
        <time>2026-05-10T09:56:15Z</time>
      </trkpt>
      <trkpt lat="42.96104" lon="1.15128">
        <ele>639.8</ele>
        <time>2026-05-10T09:56:16Z</time>
      </trkpt>
      <trkpt lat="42.96099" lon="1.15129">
        <ele>639.2</ele>
        <time>2026-05-10T09:56:17Z</time>
      </trkpt>
      <trkpt lat="42.96095" lon="1.1513">
        <ele>638.8</ele>
        <time>2026-05-10T09:56:18Z</time>
      </trkpt>
      <trkpt lat="42.9609" lon="1.1513">
        <ele>638.4</ele>
        <time>2026-05-10T09:56:19Z</time>
      </trkpt>
      <trkpt lat="42.96086" lon="1.15133">
        <ele>638.4</ele>
        <time>2026-05-10T09:56:20Z</time>
      </trkpt>
      <trkpt lat="42.96081" lon="1.15142">
        <ele>638.8</ele>
        <time>2026-05-10T09:56:22Z</time>
      </trkpt>
      <trkpt lat="42.9608" lon="1.15148">
        <ele>639.2</ele>
        <time>2026-05-10T09:56:23Z</time>
      </trkpt>
      <trkpt lat="42.9608" lon="1.15155">
        <ele>639.6</ele>
        <time>2026-05-10T09:56:24Z</time>
      </trkpt>
      <trkpt lat="42.9608" lon="1.15163">
        <ele>640</ele>
        <time>2026-05-10T09:56:25Z</time>
      </trkpt>
      <trkpt lat="42.9608" lon="1.15171">
        <ele>640.4</ele>
        <time>2026-05-10T09:56:26Z</time>
      </trkpt>
      <trkpt lat="42.96081" lon="1.15179">
        <ele>641</ele>
        <time>2026-05-10T09:56:27Z</time>
      </trkpt>
      <trkpt lat="42.9608" lon="1.15185">
        <ele>641.4</ele>
        <time>2026-05-10T09:56:28Z</time>
      </trkpt>
      <trkpt lat="42.96081" lon="1.15189">
        <ele>641.8</ele>
        <time>2026-05-10T09:56:29Z</time>
      </trkpt>
      <trkpt lat="42.9608" lon="1.15195">
        <ele>642.2</ele>
        <time>2026-05-10T09:56:30Z</time>
      </trkpt>
      <trkpt lat="42.9608" lon="1.152">
        <ele>642.6</ele>
        <time>2026-05-10T09:56:31Z</time>
      </trkpt>
      <trkpt lat="42.96081" lon="1.15206">
        <ele>643</ele>
        <time>2026-05-10T09:56:32Z</time>
      </trkpt>
      <trkpt lat="42.96081" lon="1.15211">
        <ele>643.4</ele>
        <time>2026-05-10T09:56:33Z</time>
      </trkpt>
      <trkpt lat="42.9608" lon="1.15214">
        <ele>643.8</ele>
        <time>2026-05-10T09:56:34Z</time>
      </trkpt>
      <trkpt lat="42.96079" lon="1.15219">
        <ele>644.2</ele>
        <time>2026-05-10T09:56:35Z</time>
      </trkpt>
      <trkpt lat="42.96077" lon="1.15222">
        <ele>644.8</ele>
        <time>2026-05-10T09:56:36Z</time>
      </trkpt>
      <trkpt lat="42.96073" lon="1.15228">
        <ele>645.2</ele>
        <time>2026-05-10T09:56:37Z</time>
      </trkpt>
      <trkpt lat="42.96069" lon="1.15233">
        <ele>645.6</ele>
        <time>2026-05-10T09:56:38Z</time>
      </trkpt>
      <trkpt lat="42.96067" lon="1.15236">
        <ele>646</ele>
        <time>2026-05-10T09:56:39Z</time>
      </trkpt>
      <trkpt lat="42.96065" lon="1.1524">
        <ele>646.4</ele>
        <time>2026-05-10T09:56:40Z</time>
      </trkpt>
      <trkpt lat="42.96066" lon="1.15244">
        <ele>646.8</ele>
        <time>2026-05-10T09:56:41Z</time>
      </trkpt>
      <trkpt lat="42.96072" lon="1.15261">
        <ele>646.8</ele>
        <time>2026-05-10T09:56:46Z</time>
      </trkpt>
      <trkpt lat="42.96074" lon="1.15266">
        <ele>646.8</ele>
        <time>2026-05-10T09:56:47Z</time>
      </trkpt>
      <trkpt lat="42.96079" lon="1.15276">
        <ele>646.2</ele>
        <time>2026-05-10T09:56:49Z</time>
      </trkpt>
      <trkpt lat="42.96082" lon="1.15282">
        <ele>645.8</ele>
        <time>2026-05-10T09:56:50Z</time>
      </trkpt>
      <trkpt lat="42.96084" lon="1.15289">
        <ele>645</ele>
        <time>2026-05-10T09:56:51Z</time>
      </trkpt>
      <trkpt lat="42.96085" lon="1.15294">
        <ele>644.2</ele>
        <time>2026-05-10T09:56:52Z</time>
      </trkpt>
      <trkpt lat="42.96088" lon="1.153">
        <ele>643.6</ele>
        <time>2026-05-10T09:56:53Z</time>
      </trkpt>
      <trkpt lat="42.96091" lon="1.15306">
        <ele>642.8</ele>
        <time>2026-05-10T09:56:54Z</time>
      </trkpt>
      <trkpt lat="42.96094" lon="1.15312">
        <ele>642</ele>
        <time>2026-05-10T09:56:55Z</time>
      </trkpt>
      <trkpt lat="42.96096" lon="1.15317">
        <ele>641</ele>
        <time>2026-05-10T09:56:56Z</time>
      </trkpt>
      <trkpt lat="42.96098" lon="1.15321">
        <ele>640</ele>
        <time>2026-05-10T09:56:57Z</time>
      </trkpt>
      <trkpt lat="42.96099" lon="1.15324">
        <ele>639</ele>
        <time>2026-05-10T09:56:58Z</time>
      </trkpt>
      <trkpt lat="42.96098" lon="1.1533">
        <ele>637.8</ele>
        <time>2026-05-10T09:56:59Z</time>
      </trkpt>
      <trkpt lat="42.96099" lon="1.15332">
        <ele>636.8</ele>
        <time>2026-05-10T09:57:00Z</time>
      </trkpt>
      <trkpt lat="42.961" lon="1.15335">
        <ele>635.8</ele>
        <time>2026-05-10T09:57:01Z</time>
      </trkpt>
      <trkpt lat="42.961" lon="1.15337">
        <ele>635.2</ele>
        <time>2026-05-10T09:57:02Z</time>
      </trkpt>
      <trkpt lat="42.96101" lon="1.15339">
        <ele>634.6</ele>
        <time>2026-05-10T09:57:03Z</time>
      </trkpt>
      <trkpt lat="42.96101" lon="1.15343">
        <ele>634</ele>
        <time>2026-05-10T09:57:04Z</time>
      </trkpt>
      <trkpt lat="42.96102" lon="1.15345">
        <ele>633.4</ele>
        <time>2026-05-10T09:57:05Z</time>
      </trkpt>
      <trkpt lat="42.96103" lon="1.15348">
        <ele>632.6</ele>
        <time>2026-05-10T09:57:06Z</time>
      </trkpt>
      <trkpt lat="42.96104" lon="1.1535">
        <ele>632</ele>
        <time>2026-05-10T09:57:07Z</time>
      </trkpt>
      <trkpt lat="42.96106" lon="1.1535">
        <ele>631.2</ele>
        <time>2026-05-10T09:57:08Z</time>
      </trkpt>
      <trkpt lat="42.9611" lon="1.15348">
        <ele>630.4</ele>
        <time>2026-05-10T09:57:09Z</time>
      </trkpt>
      <trkpt lat="42.96113" lon="1.15345">
        <ele>628.8</ele>
        <time>2026-05-10T09:57:10Z</time>
      </trkpt>
      <trkpt lat="42.96117" lon="1.1534">
        <ele>627.8</ele>
        <time>2026-05-10T09:57:11Z</time>
      </trkpt>
      <trkpt lat="42.96121" lon="1.15336">
        <ele>626.8</ele>
        <time>2026-05-10T09:57:12Z</time>
      </trkpt>
      <trkpt lat="42.96124" lon="1.15333">
        <ele>625.8</ele>
        <time>2026-05-10T09:57:13Z</time>
      </trkpt>
      <trkpt lat="42.96127" lon="1.15329">
        <ele>624.8</ele>
        <time>2026-05-10T09:57:14Z</time>
      </trkpt>
      <trkpt lat="42.96129" lon="1.15328">
        <ele>623.8</ele>
        <time>2026-05-10T09:57:15Z</time>
      </trkpt>
      <trkpt lat="42.96133" lon="1.15325">
        <ele>622.8</ele>
        <time>2026-05-10T09:57:16Z</time>
      </trkpt>
      <trkpt lat="42.96137" lon="1.15323">
        <ele>622</ele>
        <time>2026-05-10T09:57:17Z</time>
      </trkpt>
      <trkpt lat="42.96141" lon="1.15322">
        <ele>621</ele>
        <time>2026-05-10T09:57:18Z</time>
      </trkpt>
      <trkpt lat="42.96144" lon="1.15321">
        <ele>620.2</ele>
        <time>2026-05-10T09:57:19Z</time>
      </trkpt>
      <trkpt lat="42.96148" lon="1.1532">
        <ele>619.4</ele>
        <time>2026-05-10T09:57:20Z</time>
      </trkpt>
      <trkpt lat="42.96152" lon="1.1532">
        <ele>618.4</ele>
        <time>2026-05-10T09:57:21Z</time>
      </trkpt>
      <trkpt lat="42.96157" lon="1.1532">
        <ele>617.6</ele>
        <time>2026-05-10T09:57:22Z</time>
      </trkpt>
      <trkpt lat="42.96162" lon="1.15322">
        <ele>616.8</ele>
        <time>2026-05-10T09:57:23Z</time>
      </trkpt>
      <trkpt lat="42.96166" lon="1.15324">
        <ele>616</ele>
        <time>2026-05-10T09:57:24Z</time>
      </trkpt>
      <trkpt lat="42.96169" lon="1.15328">
        <ele>615.2</ele>
        <time>2026-05-10T09:57:25Z</time>
      </trkpt>
      <trkpt lat="42.96175" lon="1.15329">
        <ele>614.4</ele>
        <time>2026-05-10T09:57:26Z</time>
      </trkpt>
      <trkpt lat="42.96179" lon="1.15331">
        <ele>613.6</ele>
        <time>2026-05-10T09:57:27Z</time>
      </trkpt>
      <trkpt lat="42.96183" lon="1.15332">
        <ele>612.8</ele>
        <time>2026-05-10T09:57:28Z</time>
      </trkpt>
      <trkpt lat="42.96188" lon="1.15333">
        <ele>612</ele>
        <time>2026-05-10T09:57:29Z</time>
      </trkpt>
      <trkpt lat="42.96194" lon="1.15332">
        <ele>611.4</ele>
        <time>2026-05-10T09:57:30Z</time>
      </trkpt>
      <trkpt lat="42.96199" lon="1.15332">
        <ele>610.6</ele>
        <time>2026-05-10T09:57:31Z</time>
      </trkpt>
      <trkpt lat="42.96203" lon="1.15332">
        <ele>610</ele>
        <time>2026-05-10T09:57:32Z</time>
      </trkpt>
      <trkpt lat="42.96207" lon="1.15333">
        <ele>609.2</ele>
        <time>2026-05-10T09:57:33Z</time>
      </trkpt>
      <trkpt lat="42.96209" lon="1.15334">
        <ele>608.4</ele>
        <time>2026-05-10T09:57:34Z</time>
      </trkpt>
      <trkpt lat="42.9621" lon="1.15335">
        <ele>606.6</ele>
        <time>2026-05-10T09:57:35Z</time>
      </trkpt>
      <trkpt lat="42.96209" lon="1.15338">
        <ele>605.6</ele>
        <time>2026-05-10T09:57:36Z</time>
      </trkpt>
      <trkpt lat="42.96209" lon="1.1534">
        <ele>605</ele>
        <time>2026-05-10T09:57:37Z</time>
      </trkpt>
      <trkpt lat="42.96207" lon="1.15342">
        <ele>604.4</ele>
        <time>2026-05-10T09:57:38Z</time>
      </trkpt>
      <trkpt lat="42.96207" lon="1.15343">
        <ele>603.8</ele>
        <time>2026-05-10T09:57:39Z</time>
      </trkpt>
      <trkpt lat="42.96206" lon="1.15346">
        <ele>603</ele>
        <time>2026-05-10T09:57:40Z</time>
      </trkpt>
      <trkpt lat="42.96205" lon="1.15348">
        <ele>602.4</ele>
        <time>2026-05-10T09:57:41Z</time>
      </trkpt>
      <trkpt lat="42.96206" lon="1.1535">
        <ele>601.8</ele>
        <time>2026-05-10T09:57:42Z</time>
      </trkpt>
      <trkpt lat="42.96207" lon="1.15352">
        <ele>601.2</ele>
        <time>2026-05-10T09:57:43Z</time>
      </trkpt>
      <trkpt lat="42.96208" lon="1.15354">
        <ele>600.4</ele>
        <time>2026-05-10T09:57:44Z</time>
      </trkpt>
      <trkpt lat="42.96208" lon="1.15358">
        <ele>599.8</ele>
        <time>2026-05-10T09:57:45Z</time>
      </trkpt>
      <trkpt lat="42.96209" lon="1.15359">
        <ele>599</ele>
        <time>2026-05-10T09:57:46Z</time>
      </trkpt>
      <trkpt lat="42.9621" lon="1.1536">
        <ele>598.4</ele>
        <time>2026-05-10T09:57:47Z</time>
      </trkpt>
      <trkpt lat="42.96211" lon="1.1536">
        <ele>597.6</ele>
        <time>2026-05-10T09:57:48Z</time>
      </trkpt>
      <trkpt lat="42.96213" lon="1.15361">
        <ele>597</ele>
        <time>2026-05-10T09:57:49Z</time>
      </trkpt>
      <trkpt lat="42.96215" lon="1.15361">
        <ele>596.4</ele>
        <time>2026-05-10T09:57:50Z</time>
      </trkpt>
      <trkpt lat="42.96216" lon="1.15362">
        <ele>595.8</ele>
        <time>2026-05-10T09:57:51Z</time>
      </trkpt>
      <trkpt lat="42.96217" lon="1.15362">
        <ele>595.2</ele>
        <time>2026-05-10T09:57:52Z</time>
      </trkpt>
      <trkpt lat="42.96218" lon="1.15362">
        <ele>594.6</ele>
        <time>2026-05-10T09:57:53Z</time>
      </trkpt>
      <trkpt lat="42.96219" lon="1.15362">
        <ele>594</ele>
        <time>2026-05-10T09:57:54Z</time>
      </trkpt>
      <trkpt lat="42.96222" lon="1.15362">
        <ele>592.4</ele>
        <time>2026-05-10T09:57:57Z</time>
      </trkpt>
      <trkpt lat="42.96225" lon="1.15362">
        <ele>591.8</ele>
        <time>2026-05-10T09:57:58Z</time>
      </trkpt>
      <trkpt lat="42.96229" lon="1.15361">
        <ele>591.4</ele>
        <time>2026-05-10T09:57:59Z</time>
      </trkpt>
      <trkpt lat="42.96232" lon="1.15361">
        <ele>590.2</ele>
        <time>2026-05-10T09:58:00Z</time>
      </trkpt>
      <trkpt lat="42.96236" lon="1.1536">
        <ele>589.6</ele>
        <time>2026-05-10T09:58:01Z</time>
      </trkpt>
      <trkpt lat="42.96237" lon="1.1536">
        <ele>589</ele>
        <time>2026-05-10T09:58:02Z</time>
      </trkpt>
      <trkpt lat="42.9624" lon="1.15361">
        <ele>588.2</ele>
        <time>2026-05-10T09:58:03Z</time>
      </trkpt>
      <trkpt lat="42.96243" lon="1.1536">
        <ele>587.6</ele>
        <time>2026-05-10T09:58:04Z</time>
      </trkpt>
      <trkpt lat="42.96246" lon="1.1536">
        <ele>586.8</ele>
        <time>2026-05-10T09:58:05Z</time>
      </trkpt>
      <trkpt lat="42.96248" lon="1.15361">
        <ele>586.4</ele>
        <time>2026-05-10T09:58:06Z</time>
      </trkpt>
      <trkpt lat="42.96249" lon="1.15361">
        <ele>585.8</ele>
        <time>2026-05-10T09:58:07Z</time>
      </trkpt>
      <trkpt lat="42.96251" lon="1.15362">
        <ele>585.2</ele>
        <time>2026-05-10T09:58:08Z</time>
      </trkpt>
      <trkpt lat="42.96252" lon="1.15362">
        <ele>584.8</ele>
        <time>2026-05-10T09:58:09Z</time>
      </trkpt>
      <trkpt lat="42.96254" lon="1.15363">
        <ele>584.2</ele>
        <time>2026-05-10T09:58:10Z</time>
      </trkpt>
      <trkpt lat="42.96259" lon="1.15364">
        <ele>583.6</ele>
        <time>2026-05-10T09:58:11Z</time>
      </trkpt>
      <trkpt lat="42.96263" lon="1.15365">
        <ele>583</ele>
        <time>2026-05-10T09:58:12Z</time>
      </trkpt>
      <trkpt lat="42.96268" lon="1.15367">
        <ele>582.4</ele>
        <time>2026-05-10T09:58:13Z</time>
      </trkpt>
      <trkpt lat="42.96272" lon="1.15369">
        <ele>581.8</ele>
        <time>2026-05-10T09:58:14Z</time>
      </trkpt>
      <trkpt lat="42.96276" lon="1.15372">
        <ele>581.2</ele>
        <time>2026-05-10T09:58:15Z</time>
      </trkpt>
      <trkpt lat="42.96276" lon="1.15373">
        <ele>580.8</ele>
        <time>2026-05-10T09:58:16Z</time>
      </trkpt>
      <trkpt lat="42.96278" lon="1.15375">
        <ele>580.2</ele>
        <time>2026-05-10T09:58:17Z</time>
      </trkpt>
      <trkpt lat="42.96276" lon="1.15378">
        <ele>579.8</ele>
        <time>2026-05-10T09:58:18Z</time>
      </trkpt>
      <trkpt lat="42.96275" lon="1.15377">
        <ele>579.2</ele>
        <time>2026-05-10T09:58:19Z</time>
      </trkpt>
      <trkpt lat="42.96272" lon="1.15377">
        <ele>578.8</ele>
        <time>2026-05-10T09:58:21Z</time>
      </trkpt>
      <trkpt lat="42.9627" lon="1.15378">
        <ele>578.4</ele>
        <time>2026-05-10T09:58:22Z</time>
      </trkpt>
      <trkpt lat="42.96269" lon="1.15378">
        <ele>578</ele>
        <time>2026-05-10T09:58:23Z</time>
      </trkpt>
      <trkpt lat="42.96269" lon="1.15378">
        <ele>577</ele>
        <time>2026-05-10T09:58:24Z</time>
      </trkpt>
      <trkpt lat="42.96269" lon="1.15378">
        <ele>576.4</ele>
        <time>2026-05-10T09:58:25Z</time>
      </trkpt>
      <trkpt lat="42.9627" lon="1.15379">
        <ele>576</ele>
        <time>2026-05-10T09:58:26Z</time>
      </trkpt>
      <trkpt lat="42.9627" lon="1.15379">
        <ele>575.4</ele>
        <time>2026-05-10T09:58:27Z</time>
      </trkpt>
      <trkpt lat="42.96272" lon="1.1538">
        <ele>575</ele>
        <time>2026-05-10T09:58:28Z</time>
      </trkpt>
      <trkpt lat="42.96273" lon="1.15381">
        <ele>574.4</ele>
        <time>2026-05-10T09:58:29Z</time>
      </trkpt>
      <trkpt lat="42.96275" lon="1.15383">
        <ele>573.8</ele>
        <time>2026-05-10T09:58:30Z</time>
      </trkpt>
      <trkpt lat="42.96276" lon="1.15385">
        <ele>573.2</ele>
        <time>2026-05-10T09:58:31Z</time>
      </trkpt>
      <trkpt lat="42.96279" lon="1.15386">
        <ele>572.6</ele>
        <time>2026-05-10T09:58:32Z</time>
      </trkpt>
      <trkpt lat="42.9628" lon="1.15387">
        <ele>572</ele>
        <time>2026-05-10T09:58:33Z</time>
      </trkpt>
      <trkpt lat="42.96283" lon="1.1539">
        <ele>571.2</ele>
        <time>2026-05-10T09:58:34Z</time>
      </trkpt>
      <trkpt lat="42.96285" lon="1.15391">
        <ele>570.6</ele>
        <time>2026-05-10T09:58:35Z</time>
      </trkpt>
      <trkpt lat="42.96287" lon="1.15394">
        <ele>569.8</ele>
        <time>2026-05-10T09:58:36Z</time>
      </trkpt>
      <trkpt lat="42.96291" lon="1.15396">
        <ele>569.2</ele>
        <time>2026-05-10T09:58:37Z</time>
      </trkpt>
      <trkpt lat="42.96295" lon="1.15398">
        <ele>568.4</ele>
        <time>2026-05-10T09:58:38Z</time>
      </trkpt>
      <trkpt lat="42.96297" lon="1.154">
        <ele>567.8</ele>
        <time>2026-05-10T09:58:39Z</time>
      </trkpt>
      <trkpt lat="42.963" lon="1.154">
        <ele>567</ele>
        <time>2026-05-10T09:58:40Z</time>
      </trkpt>
      <trkpt lat="42.96303" lon="1.15402">
        <ele>566.2</ele>
        <time>2026-05-10T09:58:41Z</time>
      </trkpt>
      <trkpt lat="42.96306" lon="1.15404">
        <ele>565.2</ele>
        <time>2026-05-10T09:58:42Z</time>
      </trkpt>
      <trkpt lat="42.96309" lon="1.15406">
        <ele>564.4</ele>
        <time>2026-05-10T09:58:43Z</time>
      </trkpt>
      <trkpt lat="42.96311" lon="1.15408">
        <ele>563.4</ele>
        <time>2026-05-10T09:58:44Z</time>
      </trkpt>
      <trkpt lat="42.96314" lon="1.1541">
        <ele>562.6</ele>
        <time>2026-05-10T09:58:45Z</time>
      </trkpt>
      <trkpt lat="42.96316" lon="1.15412">
        <ele>561.8</ele>
        <time>2026-05-10T09:58:46Z</time>
      </trkpt>
      <trkpt lat="42.96318" lon="1.15413">
        <ele>561</ele>
        <time>2026-05-10T09:58:47Z</time>
      </trkpt>
      <trkpt lat="42.9632" lon="1.15413">
        <ele>560.2</ele>
        <time>2026-05-10T09:58:48Z</time>
      </trkpt>
      <trkpt lat="42.96322" lon="1.15414">
        <ele>559.4</ele>
        <time>2026-05-10T09:58:49Z</time>
      </trkpt>
      <trkpt lat="42.96325" lon="1.15416">
        <ele>559</ele>
        <time>2026-05-10T09:58:50Z</time>
      </trkpt>
      <trkpt lat="42.96327" lon="1.15418">
        <ele>558.4</ele>
        <time>2026-05-10T09:58:51Z</time>
      </trkpt>
      <trkpt lat="42.96329" lon="1.15419">
        <ele>558</ele>
        <time>2026-05-10T09:58:52Z</time>
      </trkpt>
      <trkpt lat="42.9633" lon="1.1542">
        <ele>557.4</ele>
        <time>2026-05-10T09:58:53Z</time>
      </trkpt>
      <trkpt lat="42.96331" lon="1.15421">
        <ele>556.6</ele>
        <time>2026-05-10T09:58:54Z</time>
      </trkpt>
      <trkpt lat="42.96332" lon="1.15423">
        <ele>556</ele>
        <time>2026-05-10T09:58:55Z</time>
      </trkpt>
      <trkpt lat="42.96333" lon="1.15423">
        <ele>555.4</ele>
        <time>2026-05-10T09:58:56Z</time>
      </trkpt>
      <trkpt lat="42.96333" lon="1.15424">
        <ele>554.6</ele>
        <time>2026-05-10T09:58:57Z</time>
      </trkpt>
      <trkpt lat="42.96335" lon="1.15426">
        <ele>554</ele>
        <time>2026-05-10T09:58:58Z</time>
      </trkpt>
      <trkpt lat="42.96336" lon="1.15426">
        <ele>553.4</ele>
        <time>2026-05-10T09:58:59Z</time>
      </trkpt>
      <trkpt lat="42.96336" lon="1.15427">
        <ele>552.8</ele>
        <time>2026-05-10T09:59:00Z</time>
      </trkpt>
      <trkpt lat="42.96337" lon="1.15429">
        <ele>552.2</ele>
        <time>2026-05-10T09:59:01Z</time>
      </trkpt>
      <trkpt lat="42.96339" lon="1.1543">
        <ele>551.6</ele>
        <time>2026-05-10T09:59:02Z</time>
      </trkpt>
      <trkpt lat="42.96341" lon="1.15431">
        <ele>550.8</ele>
        <time>2026-05-10T09:59:03Z</time>
      </trkpt>
      <trkpt lat="42.96343" lon="1.15433">
        <ele>550.2</ele>
        <time>2026-05-10T09:59:04Z</time>
      </trkpt>
      <trkpt lat="42.96346" lon="1.15436">
        <ele>549.4</ele>
        <time>2026-05-10T09:59:05Z</time>
      </trkpt>
      <trkpt lat="42.96348" lon="1.15438">
        <ele>548.8</ele>
        <time>2026-05-10T09:59:06Z</time>
      </trkpt>
      <trkpt lat="42.96351" lon="1.15441">
        <ele>548</ele>
        <time>2026-05-10T09:59:07Z</time>
      </trkpt>
      <trkpt lat="42.96353" lon="1.15444">
        <ele>547.2</ele>
        <time>2026-05-10T09:59:08Z</time>
      </trkpt>
      <trkpt lat="42.96356" lon="1.15446">
        <ele>546.4</ele>
        <time>2026-05-10T09:59:09Z</time>
      </trkpt>
      <trkpt lat="42.96358" lon="1.15449">
        <ele>545.8</ele>
        <time>2026-05-10T09:59:10Z</time>
      </trkpt>
      <trkpt lat="42.96359" lon="1.15454">
        <ele>545</ele>
        <time>2026-05-10T09:59:11Z</time>
      </trkpt>
      <trkpt lat="42.96361" lon="1.15458">
        <ele>544.2</ele>
        <time>2026-05-10T09:59:12Z</time>
      </trkpt>
      <trkpt lat="42.96363" lon="1.15462">
        <ele>543.6</ele>
        <time>2026-05-10T09:59:13Z</time>
      </trkpt>
      <trkpt lat="42.96366" lon="1.15466">
        <ele>542</ele>
        <time>2026-05-10T09:59:14Z</time>
      </trkpt>
      <trkpt lat="42.96368" lon="1.1547">
        <ele>541.2</ele>
        <time>2026-05-10T09:59:15Z</time>
      </trkpt>
      <trkpt lat="42.9637" lon="1.15474">
        <ele>540.4</ele>
        <time>2026-05-10T09:59:16Z</time>
      </trkpt>
      <trkpt lat="42.96372" lon="1.15477">
        <ele>539.4</ele>
        <time>2026-05-10T09:59:17Z</time>
      </trkpt>
      <trkpt lat="42.96374" lon="1.15481">
        <ele>538.6</ele>
        <time>2026-05-10T09:59:18Z</time>
      </trkpt>
      <trkpt lat="42.96375" lon="1.15485">
        <ele>537.8</ele>
        <time>2026-05-10T09:59:19Z</time>
      </trkpt>
      <trkpt lat="42.96377" lon="1.15489">
        <ele>537</ele>
        <time>2026-05-10T09:59:20Z</time>
      </trkpt>
      <trkpt lat="42.96379" lon="1.15493">
        <ele>536.2</ele>
        <time>2026-05-10T09:59:21Z</time>
      </trkpt>
      <trkpt lat="42.96381" lon="1.15497">
        <ele>535.6</ele>
        <time>2026-05-10T09:59:22Z</time>
      </trkpt>
      <trkpt lat="42.96382" lon="1.15501">
        <ele>535</ele>
        <time>2026-05-10T09:59:23Z</time>
      </trkpt>
      <trkpt lat="42.96383" lon="1.15505">
        <ele>534.2</ele>
        <time>2026-05-10T09:59:24Z</time>
      </trkpt>
      <trkpt lat="42.96384" lon="1.15509">
        <ele>533.6</ele>
        <time>2026-05-10T09:59:25Z</time>
      </trkpt>
      <trkpt lat="42.96385" lon="1.15511">
        <ele>533</ele>
        <time>2026-05-10T09:59:26Z</time>
      </trkpt>
      <trkpt lat="42.96386" lon="1.15517">
        <ele>532.2</ele>
        <time>2026-05-10T09:59:27Z</time>
      </trkpt>
      <trkpt lat="42.96386" lon="1.15521">
        <ele>531.6</ele>
        <time>2026-05-10T09:59:28Z</time>
      </trkpt>
      <trkpt lat="42.96388" lon="1.15525">
        <ele>531</ele>
        <time>2026-05-10T09:59:29Z</time>
      </trkpt>
      <trkpt lat="42.96388" lon="1.15529">
        <ele>530.4</ele>
        <time>2026-05-10T09:59:30Z</time>
      </trkpt>
      <trkpt lat="42.9639" lon="1.15534">
        <ele>529.6</ele>
        <time>2026-05-10T09:59:31Z</time>
      </trkpt>
      <trkpt lat="42.96391" lon="1.15539">
        <ele>528.8</ele>
        <time>2026-05-10T09:59:32Z</time>
      </trkpt>
      <trkpt lat="42.96392" lon="1.15545">
        <ele>527.8</ele>
        <time>2026-05-10T09:59:33Z</time>
      </trkpt>
      <trkpt lat="42.96393" lon="1.15549">
        <ele>526.8</ele>
        <time>2026-05-10T09:59:34Z</time>
      </trkpt>
      <trkpt lat="42.96394" lon="1.15554">
        <ele>525.6</ele>
        <time>2026-05-10T09:59:35Z</time>
      </trkpt>
      <trkpt lat="42.96396" lon="1.15559">
        <ele>524.6</ele>
        <time>2026-05-10T09:59:36Z</time>
      </trkpt>
      <trkpt lat="42.96397" lon="1.15563">
        <ele>523.4</ele>
        <time>2026-05-10T09:59:37Z</time>
      </trkpt>
      <trkpt lat="42.96397" lon="1.15568">
        <ele>522.2</ele>
        <time>2026-05-10T09:59:38Z</time>
      </trkpt>
      <trkpt lat="42.96398" lon="1.15571">
        <ele>519.8</ele>
        <time>2026-05-10T09:59:39Z</time>
      </trkpt>
      <trkpt lat="42.96399" lon="1.15575">
        <ele>519</ele>
        <time>2026-05-10T09:59:40Z</time>
      </trkpt>
      <trkpt lat="42.96402" lon="1.15578">
        <ele>518.4</ele>
        <time>2026-05-10T09:59:41Z</time>
      </trkpt>
      <trkpt lat="42.96404" lon="1.15584">
        <ele>517.6</ele>
        <time>2026-05-10T09:59:42Z</time>
      </trkpt>
      <trkpt lat="42.96407" lon="1.15589">
        <ele>516.8</ele>
        <time>2026-05-10T09:59:43Z</time>
      </trkpt>
      <trkpt lat="42.9641" lon="1.15594">
        <ele>516</ele>
        <time>2026-05-10T09:59:44Z</time>
      </trkpt>
      <trkpt lat="42.96412" lon="1.15599">
        <ele>515.2</ele>
        <time>2026-05-10T09:59:45Z</time>
      </trkpt>
      <trkpt lat="42.96413" lon="1.15603">
        <ele>514.4</ele>
        <time>2026-05-10T09:59:46Z</time>
      </trkpt>
      <trkpt lat="42.96413" lon="1.15605">
        <ele>513.6</ele>
        <time>2026-05-10T09:59:47Z</time>
      </trkpt>
      <trkpt lat="42.96412" lon="1.15607">
        <ele>512.8</ele>
        <time>2026-05-10T09:59:48Z</time>
      </trkpt>
      <trkpt lat="42.96413" lon="1.15608">
        <ele>512</ele>
        <time>2026-05-10T09:59:49Z</time>
      </trkpt>
      <trkpt lat="42.96414" lon="1.1561">
        <ele>511.2</ele>
        <time>2026-05-10T09:59:50Z</time>
      </trkpt>
      <trkpt lat="42.96417" lon="1.15615">
        <ele>511.2</ele>
        <time>2026-05-10T09:59:51Z</time>
      </trkpt>
      <trkpt lat="42.96431" lon="1.1562">
        <ele>511.2</ele>
        <time>2026-05-10T10:00:02Z</time>
      </trkpt>
      <trkpt lat="42.96434" lon="1.1562">
        <ele>511.6</ele>
        <time>2026-05-10T10:00:04Z</time>
      </trkpt>
      <trkpt lat="42.96436" lon="1.15621">
        <ele>512</ele>
        <time>2026-05-10T10:00:05Z</time>
      </trkpt>
      <trkpt lat="42.96437" lon="1.15622">
        <ele>512.4</ele>
        <time>2026-05-10T10:00:06Z</time>
      </trkpt>
      <trkpt lat="42.96439" lon="1.15622">
        <ele>512.8</ele>
        <time>2026-05-10T10:00:07Z</time>
      </trkpt>
      <trkpt lat="42.9644" lon="1.15621">
        <ele>513.2</ele>
        <time>2026-05-10T10:00:08Z</time>
      </trkpt>
      <trkpt lat="42.96442" lon="1.15621">
        <ele>513.8</ele>
        <time>2026-05-10T10:00:09Z</time>
      </trkpt>
      <trkpt lat="42.96444" lon="1.15621">
        <ele>514.2</ele>
        <time>2026-05-10T10:00:10Z</time>
      </trkpt>
      <trkpt lat="42.96446" lon="1.15621">
        <ele>514.6</ele>
        <time>2026-05-10T10:00:11Z</time>
      </trkpt>
      <trkpt lat="42.96448" lon="1.15622">
        <ele>515.2</ele>
        <time>2026-05-10T10:00:12Z</time>
      </trkpt>
      <trkpt lat="42.96449" lon="1.15622">
        <ele>515.6</ele>
        <time>2026-05-10T10:00:13Z</time>
      </trkpt>
      <trkpt lat="42.96451" lon="1.15622">
        <ele>516.2</ele>
        <time>2026-05-10T10:00:14Z</time>
      </trkpt>
      <trkpt lat="42.96452" lon="1.15621">
        <ele>516.6</ele>
        <time>2026-05-10T10:00:15Z</time>
      </trkpt>
      <trkpt lat="42.96454" lon="1.1562">
        <ele>517.2</ele>
        <time>2026-05-10T10:00:16Z</time>
      </trkpt>
      <trkpt lat="42.96456" lon="1.1562">
        <ele>517.6</ele>
        <time>2026-05-10T10:00:17Z</time>
      </trkpt>
      <trkpt lat="42.96458" lon="1.1562">
        <ele>518.2</ele>
        <time>2026-05-10T10:00:18Z</time>
      </trkpt>
      <trkpt lat="42.96461" lon="1.15618">
        <ele>518.8</ele>
        <time>2026-05-10T10:00:19Z</time>
      </trkpt>
      <trkpt lat="42.96463" lon="1.15617">
        <ele>519.2</ele>
        <time>2026-05-10T10:00:20Z</time>
      </trkpt>
      <trkpt lat="42.96465" lon="1.15616">
        <ele>519.8</ele>
        <time>2026-05-10T10:00:21Z</time>
      </trkpt>
      <trkpt lat="42.96466" lon="1.15616">
        <ele>520.2</ele>
        <time>2026-05-10T10:00:22Z</time>
      </trkpt>
      <trkpt lat="42.96468" lon="1.15616">
        <ele>520.8</ele>
        <time>2026-05-10T10:00:23Z</time>
      </trkpt>
      <trkpt lat="42.9647" lon="1.15615">
        <ele>521.4</ele>
        <time>2026-05-10T10:00:24Z</time>
      </trkpt>
      <trkpt lat="42.96474" lon="1.15615">
        <ele>521.8</ele>
        <time>2026-05-10T10:00:25Z</time>
      </trkpt>
      <trkpt lat="42.96475" lon="1.15614">
        <ele>522.4</ele>
        <time>2026-05-10T10:00:26Z</time>
      </trkpt>
      <trkpt lat="42.96478" lon="1.15612">
        <ele>522.8</ele>
        <time>2026-05-10T10:00:27Z</time>
      </trkpt>
      <trkpt lat="42.9648" lon="1.1561">
        <ele>523.8</ele>
        <time>2026-05-10T10:00:28Z</time>
      </trkpt>
      <trkpt lat="42.96483" lon="1.15608">
        <ele>524.2</ele>
        <time>2026-05-10T10:00:29Z</time>
      </trkpt>
      <trkpt lat="42.96486" lon="1.15607">
        <ele>524.6</ele>
        <time>2026-05-10T10:00:30Z</time>
      </trkpt>
      <trkpt lat="42.96495" lon="1.15602">
        <ele>525</ele>
        <time>2026-05-10T10:00:33Z</time>
      </trkpt>
      <trkpt lat="42.96499" lon="1.15599">
        <ele>525.4</ele>
        <time>2026-05-10T10:00:34Z</time>
      </trkpt>
      <trkpt lat="42.96502" lon="1.15597">
        <ele>525.8</ele>
        <time>2026-05-10T10:00:35Z</time>
      </trkpt>
      <trkpt lat="42.96506" lon="1.15594">
        <ele>526.2</ele>
        <time>2026-05-10T10:00:36Z</time>
      </trkpt>
      <trkpt lat="42.96508" lon="1.15592">
        <ele>526.8</ele>
        <time>2026-05-10T10:00:37Z</time>
      </trkpt>
      <trkpt lat="42.96511" lon="1.1559">
        <ele>526.8</ele>
        <time>2026-05-10T10:00:38Z</time>
      </trkpt>
      <trkpt lat="42.96513" lon="1.15589">
        <ele>527.2</ele>
        <time>2026-05-10T10:00:39Z</time>
      </trkpt>
      <trkpt lat="42.96515" lon="1.15587">
        <ele>527.6</ele>
        <time>2026-05-10T10:00:40Z</time>
      </trkpt>
      <trkpt lat="42.96517" lon="1.15585">
        <ele>528</ele>
        <time>2026-05-10T10:00:41Z</time>
      </trkpt>
      <trkpt lat="42.96518" lon="1.15585">
        <ele>528.4</ele>
        <time>2026-05-10T10:00:42Z</time>
      </trkpt>
      <trkpt lat="42.9652" lon="1.15584">
        <ele>529</ele>
        <time>2026-05-10T10:00:43Z</time>
      </trkpt>
      <trkpt lat="42.96526" lon="1.15576">
        <ele>529.4</ele>
        <time>2026-05-10T10:00:46Z</time>
      </trkpt>
      <trkpt lat="42.96529" lon="1.15573">
        <ele>529.8</ele>
        <time>2026-05-10T10:00:47Z</time>
      </trkpt>
      <trkpt lat="42.96537" lon="1.15563">
        <ele>531</ele>
        <time>2026-05-10T10:00:50Z</time>
      </trkpt>
      <trkpt lat="42.96541" lon="1.15556">
        <ele>531.8</ele>
        <time>2026-05-10T10:00:53Z</time>
      </trkpt>
      <trkpt lat="42.96542" lon="1.15554">
        <ele>532.4</ele>
        <time>2026-05-10T10:00:54Z</time>
      </trkpt>
      <trkpt lat="42.96544" lon="1.15553">
        <ele>532.8</ele>
        <time>2026-05-10T10:00:55Z</time>
      </trkpt>
      <trkpt lat="42.96546" lon="1.15552">
        <ele>533.2</ele>
        <time>2026-05-10T10:00:56Z</time>
      </trkpt>
      <trkpt lat="42.96548" lon="1.15551">
        <ele>533.2</ele>
        <time>2026-05-10T10:00:57Z</time>
      </trkpt>
      <trkpt lat="42.96557" lon="1.15547">
        <ele>535.4</ele>
        <time>2026-05-10T10:01:03Z</time>
      </trkpt>
      <trkpt lat="42.9656" lon="1.15547">
        <ele>535.4</ele>
        <time>2026-05-10T10:01:05Z</time>
      </trkpt>
      <trkpt lat="42.96565" lon="1.15543">
        <ele>535.4</ele>
        <time>2026-05-10T10:01:07Z</time>
      </trkpt>
      <trkpt lat="42.9657" lon="1.15539">
        <ele>535.8</ele>
        <time>2026-05-10T10:01:09Z</time>
      </trkpt>
      <trkpt lat="42.96573" lon="1.15538">
        <ele>536.2</ele>
        <time>2026-05-10T10:01:10Z</time>
      </trkpt>
      <trkpt lat="42.96575" lon="1.15535">
        <ele>536.8</ele>
        <time>2026-05-10T10:01:11Z</time>
      </trkpt>
      <trkpt lat="42.96578" lon="1.15532">
        <ele>537.2</ele>
        <time>2026-05-10T10:01:12Z</time>
      </trkpt>
      <trkpt lat="42.9658" lon="1.1553">
        <ele>537.6</ele>
        <time>2026-05-10T10:01:13Z</time>
      </trkpt>
      <trkpt lat="42.96582" lon="1.15529">
        <ele>538.2</ele>
        <time>2026-05-10T10:01:14Z</time>
      </trkpt>
      <trkpt lat="42.96584" lon="1.15526">
        <ele>538.6</ele>
        <time>2026-05-10T10:01:15Z</time>
      </trkpt>
      <trkpt lat="42.96587" lon="1.15523">
        <ele>539</ele>
        <time>2026-05-10T10:01:16Z</time>
      </trkpt>
      <trkpt lat="42.9659" lon="1.15522">
        <ele>539.6</ele>
        <time>2026-05-10T10:01:17Z</time>
      </trkpt>
      <trkpt lat="42.96593" lon="1.15519">
        <ele>540</ele>
        <time>2026-05-10T10:01:18Z</time>
      </trkpt>
      <trkpt lat="42.96596" lon="1.15516">
        <ele>540.4</ele>
        <time>2026-05-10T10:01:19Z</time>
      </trkpt>
      <trkpt lat="42.96599" lon="1.15513">
        <ele>540.8</ele>
        <time>2026-05-10T10:01:20Z</time>
      </trkpt>
      <trkpt lat="42.96601" lon="1.1551">
        <ele>541.2</ele>
        <time>2026-05-10T10:01:21Z</time>
      </trkpt>
      <trkpt lat="42.96604" lon="1.15507">
        <ele>541.6</ele>
        <time>2026-05-10T10:01:22Z</time>
      </trkpt>
      <trkpt lat="42.96607" lon="1.15504">
        <ele>542</ele>
        <time>2026-05-10T10:01:23Z</time>
      </trkpt>
      <trkpt lat="42.96612" lon="1.15498">
        <ele>542.6</ele>
        <time>2026-05-10T10:01:25Z</time>
      </trkpt>
      <trkpt lat="42.96614" lon="1.15496">
        <ele>543</ele>
        <time>2026-05-10T10:01:26Z</time>
      </trkpt>
      <trkpt lat="42.96617" lon="1.15492">
        <ele>543.4</ele>
        <time>2026-05-10T10:01:27Z</time>
      </trkpt>
      <trkpt lat="42.9662" lon="1.15487">
        <ele>543.8</ele>
        <time>2026-05-10T10:01:28Z</time>
      </trkpt>
      <trkpt lat="42.96622" lon="1.15484">
        <ele>544.2</ele>
        <time>2026-05-10T10:01:29Z</time>
      </trkpt>
      <trkpt lat="42.96633" lon="1.15473">
        <ele>544.2</ele>
        <time>2026-05-10T10:01:33Z</time>
      </trkpt>
      <trkpt lat="42.96643" lon="1.15459">
        <ele>544.2</ele>
        <time>2026-05-10T10:01:39Z</time>
      </trkpt>
      <trkpt lat="42.96646" lon="1.15454">
        <ele>545</ele>
        <time>2026-05-10T10:01:42Z</time>
      </trkpt>
      <trkpt lat="42.96646" lon="1.15452">
        <ele>545.4</ele>
        <time>2026-05-10T10:01:43Z</time>
      </trkpt>
      <trkpt lat="42.96649" lon="1.15447">
        <ele>545.8</ele>
        <time>2026-05-10T10:01:44Z</time>
      </trkpt>
      <trkpt lat="42.96651" lon="1.15444">
        <ele>546.2</ele>
        <time>2026-05-10T10:01:45Z</time>
      </trkpt>
      <trkpt lat="42.96664" lon="1.15424">
        <ele>546.2</ele>
        <time>2026-05-10T10:01:51Z</time>
      </trkpt>
      <trkpt lat="42.9668" lon="1.15403">
        <ele>546.2</ele>
        <time>2026-05-10T10:01:58Z</time>
      </trkpt>
      <trkpt lat="42.96688" lon="1.15392">
        <ele>546.2</ele>
        <time>2026-05-10T10:02:02Z</time>
      </trkpt>
      <trkpt lat="42.96696" lon="1.15379">
        <ele>547</ele>
        <time>2026-05-10T10:02:07Z</time>
      </trkpt>
      <trkpt lat="42.96698" lon="1.15376">
        <ele>547.4</ele>
        <time>2026-05-10T10:02:08Z</time>
      </trkpt>
      <trkpt lat="42.96699" lon="1.15374">
        <ele>547.8</ele>
        <time>2026-05-10T10:02:09Z</time>
      </trkpt>
      <trkpt lat="42.96701" lon="1.15372">
        <ele>548.4</ele>
        <time>2026-05-10T10:02:10Z</time>
      </trkpt>
      <trkpt lat="42.9671" lon="1.15363">
        <ele>548.4</ele>
        <time>2026-05-10T10:02:16Z</time>
      </trkpt>
      <trkpt lat="42.96719" lon="1.15349">
        <ele>548.4</ele>
        <time>2026-05-10T10:02:21Z</time>
      </trkpt>
      <trkpt lat="42.96721" lon="1.15345">
        <ele>548.4</ele>
        <time>2026-05-10T10:02:22Z</time>
      </trkpt>
      <trkpt lat="42.96732" lon="1.15326">
        <ele>548.4</ele>
        <time>2026-05-10T10:02:27Z</time>
      </trkpt>
      <trkpt lat="42.96743" lon="1.15316">
        <ele>548.8</ele>
        <time>2026-05-10T10:02:31Z</time>
      </trkpt>
      <trkpt lat="42.96746" lon="1.15312">
        <ele>549.6</ele>
        <time>2026-05-10T10:02:32Z</time>
      </trkpt>
      <trkpt lat="42.9675" lon="1.15309">
        <ele>550</ele>
        <time>2026-05-10T10:02:33Z</time>
      </trkpt>
      <trkpt lat="42.96753" lon="1.15305">
        <ele>550.4</ele>
        <time>2026-05-10T10:02:34Z</time>
      </trkpt>
      <trkpt lat="42.96764" lon="1.15293">
        <ele>550.4</ele>
        <time>2026-05-10T10:02:37Z</time>
      </trkpt>
      <trkpt lat="42.96783" lon="1.15272">
        <ele>550</ele>
        <time>2026-05-10T10:02:42Z</time>
      </trkpt>
      <trkpt lat="42.96786" lon="1.15268">
        <ele>549.6</ele>
        <time>2026-05-10T10:02:43Z</time>
      </trkpt>
      <trkpt lat="42.96789" lon="1.15263">
        <ele>549</ele>
        <time>2026-05-10T10:02:44Z</time>
      </trkpt>
      <trkpt lat="42.96792" lon="1.15259">
        <ele>548.6</ele>
        <time>2026-05-10T10:02:45Z</time>
      </trkpt>
      <trkpt lat="42.96795" lon="1.15256">
        <ele>548.2</ele>
        <time>2026-05-10T10:02:46Z</time>
      </trkpt>
      <trkpt lat="42.96801" lon="1.15247">
        <ele>548.2</ele>
        <time>2026-05-10T10:02:48Z</time>
      </trkpt>
      <trkpt lat="42.96815" lon="1.15223">
        <ele>547.8</ele>
        <time>2026-05-10T10:02:52Z</time>
      </trkpt>
      <trkpt lat="42.96818" lon="1.15218">
        <ele>547.4</ele>
        <time>2026-05-10T10:02:53Z</time>
      </trkpt>
      <trkpt lat="42.96821" lon="1.15214">
        <ele>546.8</ele>
        <time>2026-05-10T10:02:54Z</time>
      </trkpt>
      <trkpt lat="42.96824" lon="1.1521">
        <ele>546.4</ele>
        <time>2026-05-10T10:02:55Z</time>
      </trkpt>
      <trkpt lat="42.96827" lon="1.15206">
        <ele>546</ele>
        <time>2026-05-10T10:02:56Z</time>
      </trkpt>
      <trkpt lat="42.9683" lon="1.15203">
        <ele>545.4</ele>
        <time>2026-05-10T10:02:57Z</time>
      </trkpt>
      <trkpt lat="42.96833" lon="1.152">
        <ele>545</ele>
        <time>2026-05-10T10:02:58Z</time>
      </trkpt>
      <trkpt lat="42.96835" lon="1.15196">
        <ele>544.4</ele>
        <time>2026-05-10T10:02:59Z</time>
      </trkpt>
      <trkpt lat="42.9684" lon="1.1519">
        <ele>544</ele>
        <time>2026-05-10T10:03:00Z</time>
      </trkpt>
      <trkpt lat="42.96843" lon="1.15186">
        <ele>543.4</ele>
        <time>2026-05-10T10:03:01Z</time>
      </trkpt>
      <trkpt lat="42.96845" lon="1.15181">
        <ele>542.8</ele>
        <time>2026-05-10T10:03:02Z</time>
      </trkpt>
      <trkpt lat="42.96846" lon="1.15178">
        <ele>542.2</ele>
        <time>2026-05-10T10:03:03Z</time>
      </trkpt>
      <trkpt lat="42.96848" lon="1.15176">
        <ele>541.6</ele>
        <time>2026-05-10T10:03:04Z</time>
      </trkpt>
      <trkpt lat="42.9685" lon="1.15172">
        <ele>541</ele>
        <time>2026-05-10T10:03:05Z</time>
      </trkpt>
      <trkpt lat="42.96853" lon="1.15168">
        <ele>540.4</ele>
        <time>2026-05-10T10:03:06Z</time>
      </trkpt>
      <trkpt lat="42.96854" lon="1.15161">
        <ele>539.8</ele>
        <time>2026-05-10T10:03:07Z</time>
      </trkpt>
      <trkpt lat="42.96856" lon="1.15156">
        <ele>539.2</ele>
        <time>2026-05-10T10:03:08Z</time>
      </trkpt>
      <trkpt lat="42.96857" lon="1.15153">
        <ele>538.6</ele>
        <time>2026-05-10T10:03:09Z</time>
      </trkpt>
      <trkpt lat="42.96857" lon="1.15151">
        <ele>538</ele>
        <time>2026-05-10T10:03:10Z</time>
      </trkpt>
      <trkpt lat="42.96859" lon="1.15148">
        <ele>537.4</ele>
        <time>2026-05-10T10:03:11Z</time>
      </trkpt>
      <trkpt lat="42.96859" lon="1.15145">
        <ele>536.8</ele>
        <time>2026-05-10T10:03:12Z</time>
      </trkpt>
      <trkpt lat="42.96859" lon="1.15142">
        <ele>536.2</ele>
        <time>2026-05-10T10:03:13Z</time>
      </trkpt>
      <trkpt lat="42.96859" lon="1.15138">
        <ele>536.2</ele>
        <time>2026-05-10T10:03:14Z</time>
      </trkpt>
      <trkpt lat="42.96859" lon="1.15134">
        <ele>535.8</ele>
        <time>2026-05-10T10:03:15Z</time>
      </trkpt>
      <trkpt lat="42.96859" lon="1.15131">
        <ele>535.4</ele>
        <time>2026-05-10T10:03:16Z</time>
      </trkpt>
      <trkpt lat="42.96861" lon="1.15128">
        <ele>534.8</ele>
        <time>2026-05-10T10:03:17Z</time>
      </trkpt>
      <trkpt lat="42.9686" lon="1.15127">
        <ele>534.4</ele>
        <time>2026-05-10T10:03:18Z</time>
      </trkpt>
      <trkpt lat="42.96861" lon="1.15124">
        <ele>534</ele>
        <time>2026-05-10T10:03:19Z</time>
      </trkpt>
      <trkpt lat="42.96861" lon="1.15115">
        <ele>534</ele>
        <time>2026-05-10T10:03:22Z</time>
      </trkpt>
      <trkpt lat="42.96861" lon="1.15108">
        <ele>533.6</ele>
        <time>2026-05-10T10:03:24Z</time>
      </trkpt>
      <trkpt lat="42.96863" lon="1.15103">
        <ele>533.2</ele>
        <time>2026-05-10T10:03:25Z</time>
      </trkpt>
      <trkpt lat="42.96865" lon="1.15098">
        <ele>532.8</ele>
        <time>2026-05-10T10:03:26Z</time>
      </trkpt>
      <trkpt lat="42.96864" lon="1.15093">
        <ele>532.2</ele>
        <time>2026-05-10T10:03:27Z</time>
      </trkpt>
      <trkpt lat="42.96864" lon="1.15089">
        <ele>531.8</ele>
        <time>2026-05-10T10:03:28Z</time>
      </trkpt>
      <trkpt lat="42.96864" lon="1.15078">
        <ele>531.8</ele>
        <time>2026-05-10T10:03:30Z</time>
      </trkpt>
      <trkpt lat="42.96864" lon="1.15067">
        <ele>531.4</ele>
        <time>2026-05-10T10:03:32Z</time>
      </trkpt>
      <trkpt lat="42.96864" lon="1.15063">
        <ele>531</ele>
        <time>2026-05-10T10:03:33Z</time>
      </trkpt>
      <trkpt lat="42.96863" lon="1.15057">
        <ele>530.6</ele>
        <time>2026-05-10T10:03:34Z</time>
      </trkpt>
      <trkpt lat="42.96863" lon="1.1505">
        <ele>530</ele>
        <time>2026-05-10T10:03:35Z</time>
      </trkpt>
      <trkpt lat="42.96863" lon="1.15044">
        <ele>529.6</ele>
        <time>2026-05-10T10:03:36Z</time>
      </trkpt>
      <trkpt lat="42.9686" lon="1.15024">
        <ele>529.2</ele>
        <time>2026-05-10T10:03:39Z</time>
      </trkpt>
      <trkpt lat="42.9686" lon="1.15017">
        <ele>528.8</ele>
        <time>2026-05-10T10:03:40Z</time>
      </trkpt>
      <trkpt lat="42.9686" lon="1.15009">
        <ele>528.4</ele>
        <time>2026-05-10T10:03:41Z</time>
      </trkpt>
      <trkpt lat="42.9686" lon="1.15003">
        <ele>527.8</ele>
        <time>2026-05-10T10:03:42Z</time>
      </trkpt>
      <trkpt lat="42.9686" lon="1.14997">
        <ele>527.4</ele>
        <time>2026-05-10T10:03:43Z</time>
      </trkpt>
      <trkpt lat="42.96859" lon="1.14993">
        <ele>527.4</ele>
        <time>2026-05-10T10:03:44Z</time>
      </trkpt>
      <trkpt lat="42.9686" lon="1.14989">
        <ele>527</ele>
        <time>2026-05-10T10:03:45Z</time>
      </trkpt>
      <trkpt lat="42.96861" lon="1.14985">
        <ele>526.6</ele>
        <time>2026-05-10T10:03:46Z</time>
      </trkpt>
      <trkpt lat="42.96862" lon="1.14982">
        <ele>526.2</ele>
        <time>2026-05-10T10:03:47Z</time>
      </trkpt>
      <trkpt lat="42.96862" lon="1.1498">
        <ele>525.6</ele>
        <time>2026-05-10T10:03:48Z</time>
      </trkpt>
      <trkpt lat="42.96863" lon="1.14978">
        <ele>525.2</ele>
        <time>2026-05-10T10:03:49Z</time>
      </trkpt>
      <trkpt lat="42.96863" lon="1.14976">
        <ele>524.8</ele>
        <time>2026-05-10T10:03:50Z</time>
      </trkpt>
      <trkpt lat="42.96865" lon="1.14972">
        <ele>524.4</ele>
        <time>2026-05-10T10:03:51Z</time>
      </trkpt>
      <trkpt lat="42.96867" lon="1.1497">
        <ele>523.8</ele>
        <time>2026-05-10T10:03:52Z</time>
      </trkpt>
      <trkpt lat="42.96868" lon="1.14963">
        <ele>523.4</ele>
        <time>2026-05-10T10:03:53Z</time>
      </trkpt>
      <trkpt lat="42.96869" lon="1.14959">
        <ele>522.8</ele>
        <time>2026-05-10T10:03:54Z</time>
      </trkpt>
      <trkpt lat="42.9687" lon="1.14953">
        <ele>522.4</ele>
        <time>2026-05-10T10:03:55Z</time>
      </trkpt>
      <trkpt lat="42.9687" lon="1.14948">
        <ele>521.8</ele>
        <time>2026-05-10T10:03:56Z</time>
      </trkpt>
      <trkpt lat="42.96871" lon="1.14945">
        <ele>521.2</ele>
        <time>2026-05-10T10:03:57Z</time>
      </trkpt>
      <trkpt lat="42.96872" lon="1.1494">
        <ele>520.4</ele>
        <time>2026-05-10T10:03:58Z</time>
      </trkpt>
      <trkpt lat="42.96872" lon="1.14934">
        <ele>519.8</ele>
        <time>2026-05-10T10:03:59Z</time>
      </trkpt>
      <trkpt lat="42.96872" lon="1.14929">
        <ele>519.2</ele>
        <time>2026-05-10T10:04:00Z</time>
      </trkpt>
      <trkpt lat="42.96871" lon="1.14922">
        <ele>518.4</ele>
        <time>2026-05-10T10:04:01Z</time>
      </trkpt>
      <trkpt lat="42.9687" lon="1.14917">
        <ele>517.8</ele>
        <time>2026-05-10T10:04:02Z</time>
      </trkpt>
      <trkpt lat="42.96869" lon="1.14913">
        <ele>517.2</ele>
        <time>2026-05-10T10:04:03Z</time>
      </trkpt>
      <trkpt lat="42.96868" lon="1.14906">
        <ele>516.6</ele>
        <time>2026-05-10T10:04:04Z</time>
      </trkpt>
      <trkpt lat="42.96868" lon="1.14902">
        <ele>516</ele>
        <time>2026-05-10T10:04:05Z</time>
      </trkpt>
      <trkpt lat="42.9687" lon="1.14899">
        <ele>515.4</ele>
        <time>2026-05-10T10:04:06Z</time>
      </trkpt>
      <trkpt lat="42.9687" lon="1.14893">
        <ele>514.8</ele>
        <time>2026-05-10T10:04:07Z</time>
      </trkpt>
      <trkpt lat="42.96868" lon="1.14886">
        <ele>514.4</ele>
        <time>2026-05-10T10:04:08Z</time>
      </trkpt>
      <trkpt lat="42.96868" lon="1.14882">
        <ele>513.8</ele>
        <time>2026-05-10T10:04:09Z</time>
      </trkpt>
      <trkpt lat="42.96868" lon="1.14878">
        <ele>512.4</ele>
        <time>2026-05-10T10:04:10Z</time>
      </trkpt>
      <trkpt lat="42.96868" lon="1.14875">
        <ele>511.8</ele>
        <time>2026-05-10T10:04:11Z</time>
      </trkpt>
      <trkpt lat="42.96868" lon="1.14875">
        <ele>511</ele>
        <time>2026-05-10T10:04:12Z</time>
      </trkpt>
      <trkpt lat="42.9687" lon="1.14875">
        <ele>510.2</ele>
        <time>2026-05-10T10:04:13Z</time>
      </trkpt>
      <trkpt lat="42.96871" lon="1.14877">
        <ele>509.6</ele>
        <time>2026-05-10T10:04:14Z</time>
      </trkpt>
      <trkpt lat="42.96872" lon="1.14877">
        <ele>508.8</ele>
        <time>2026-05-10T10:04:15Z</time>
      </trkpt>
      <trkpt lat="42.9687" lon="1.14872">
        <ele>508</ele>
        <time>2026-05-10T10:04:16Z</time>
      </trkpt>
      <trkpt lat="42.96872" lon="1.14871">
        <ele>507.4</ele>
        <time>2026-05-10T10:04:17Z</time>
      </trkpt>
      <trkpt lat="42.96874" lon="1.1487">
        <ele>506.8</ele>
        <time>2026-05-10T10:04:18Z</time>
      </trkpt>
      <trkpt lat="42.96878" lon="1.1487">
        <ele>506.2</ele>
        <time>2026-05-10T10:04:19Z</time>
      </trkpt>
      <trkpt lat="42.96881" lon="1.1487">
        <ele>505.6</ele>
        <time>2026-05-10T10:04:20Z</time>
      </trkpt>
      <trkpt lat="42.96888" lon="1.14874">
        <ele>505.6</ele>
        <time>2026-05-10T10:04:22Z</time>
      </trkpt>
      <trkpt lat="42.96895" lon="1.14879">
        <ele>505.2</ele>
        <time>2026-05-10T10:04:24Z</time>
      </trkpt>
      <trkpt lat="42.96899" lon="1.14883">
        <ele>504.8</ele>
        <time>2026-05-10T10:04:25Z</time>
      </trkpt>
      <trkpt lat="42.96902" lon="1.14886">
        <ele>504.4</ele>
        <time>2026-05-10T10:04:26Z</time>
      </trkpt>
      <trkpt lat="42.96904" lon="1.14889">
        <ele>504</ele>
        <time>2026-05-10T10:04:27Z</time>
      </trkpt>
      <trkpt lat="42.96907" lon="1.14892">
        <ele>503.6</ele>
        <time>2026-05-10T10:04:28Z</time>
      </trkpt>
      <trkpt lat="42.96913" lon="1.14898">
        <ele>503.6</ele>
        <time>2026-05-10T10:04:31Z</time>
      </trkpt>
      <trkpt lat="42.96932" lon="1.14904">
        <ele>503.6</ele>
        <time>2026-05-10T10:04:36Z</time>
      </trkpt>
      <trkpt lat="42.96963" lon="1.14914">
        <ele>503.6</ele>
        <time>2026-05-10T10:04:43Z</time>
      </trkpt>
      <trkpt lat="42.9697" lon="1.14913">
        <ele>503.6</ele>
        <time>2026-05-10T10:04:44Z</time>
      </trkpt>
      <trkpt lat="42.96988" lon="1.14912">
        <ele>503.6</ele>
        <time>2026-05-10T10:04:48Z</time>
      </trkpt>
      <trkpt lat="42.96991" lon="1.1491">
        <ele>504</ele>
        <time>2026-05-10T10:04:49Z</time>
      </trkpt>
      <trkpt lat="42.96995" lon="1.14909">
        <ele>504.4</ele>
        <time>2026-05-10T10:04:50Z</time>
      </trkpt>
      <trkpt lat="42.96998" lon="1.14908">
        <ele>504.8</ele>
        <time>2026-05-10T10:04:51Z</time>
      </trkpt>
      <trkpt lat="42.97" lon="1.14908">
        <ele>505.2</ele>
        <time>2026-05-10T10:04:52Z</time>
      </trkpt>
      <trkpt lat="42.97004" lon="1.14909">
        <ele>505.6</ele>
        <time>2026-05-10T10:04:53Z</time>
      </trkpt>
      <trkpt lat="42.97026" lon="1.14909">
        <ele>505.6</ele>
        <time>2026-05-10T10:04:59Z</time>
      </trkpt>
      <trkpt lat="42.97032" lon="1.14908">
        <ele>505.6</ele>
        <time>2026-05-10T10:05:00Z</time>
      </trkpt>
      <trkpt lat="42.97047" lon="1.14904">
        <ele>505.6</ele>
        <time>2026-05-10T10:05:05Z</time>
      </trkpt>
      <trkpt lat="42.9705" lon="1.14902">
        <ele>505.2</ele>
        <time>2026-05-10T10:05:06Z</time>
      </trkpt>
      <trkpt lat="42.97054" lon="1.149">
        <ele>504.8</ele>
        <time>2026-05-10T10:05:07Z</time>
      </trkpt>
      <trkpt lat="42.9706" lon="1.14897">
        <ele>504.4</ele>
        <time>2026-05-10T10:05:08Z</time>
      </trkpt>
      <trkpt lat="42.97067" lon="1.14896">
        <ele>504</ele>
        <time>2026-05-10T10:05:09Z</time>
      </trkpt>
      <trkpt lat="42.97072" lon="1.14896">
        <ele>503.6</ele>
        <time>2026-05-10T10:05:10Z</time>
      </trkpt>
      <trkpt lat="42.97103" lon="1.14895">
        <ele>503.2</ele>
        <time>2026-05-10T10:05:14Z</time>
      </trkpt>
      <trkpt lat="42.9711" lon="1.14894">
        <ele>502.8</ele>
        <time>2026-05-10T10:05:15Z</time>
      </trkpt>
      <trkpt lat="42.97118" lon="1.14894">
        <ele>502.4</ele>
        <time>2026-05-10T10:05:16Z</time>
      </trkpt>
      <trkpt lat="42.97125" lon="1.14893">
        <ele>502</ele>
        <time>2026-05-10T10:05:17Z</time>
      </trkpt>
      <trkpt lat="42.97131" lon="1.14893">
        <ele>501.4</ele>
        <time>2026-05-10T10:05:18Z</time>
      </trkpt>
      <trkpt lat="42.97135" lon="1.14888">
        <ele>501</ele>
        <time>2026-05-10T10:05:19Z</time>
      </trkpt>
      <trkpt lat="42.97139" lon="1.14883">
        <ele>500.2</ele>
        <time>2026-05-10T10:05:20Z</time>
      </trkpt>
      <trkpt lat="42.97143" lon="1.14878">
        <ele>499.4</ele>
        <time>2026-05-10T10:05:21Z</time>
      </trkpt>
      <trkpt lat="42.97146" lon="1.14873">
        <ele>498.8</ele>
        <time>2026-05-10T10:05:22Z</time>
      </trkpt>
      <trkpt lat="42.97151" lon="1.14867">
        <ele>498</ele>
        <time>2026-05-10T10:05:23Z</time>
      </trkpt>
      <trkpt lat="42.97156" lon="1.14862">
        <ele>497.4</ele>
        <time>2026-05-10T10:05:24Z</time>
      </trkpt>
      <trkpt lat="42.9716" lon="1.14858">
        <ele>495.8</ele>
        <time>2026-05-10T10:05:25Z</time>
      </trkpt>
      <trkpt lat="42.97163" lon="1.14855">
        <ele>494.8</ele>
        <time>2026-05-10T10:05:26Z</time>
      </trkpt>
      <trkpt lat="42.97166" lon="1.1485">
        <ele>493.8</ele>
        <time>2026-05-10T10:05:27Z</time>
      </trkpt>
      <trkpt lat="42.97169" lon="1.14846">
        <ele>493</ele>
        <time>2026-05-10T10:05:28Z</time>
      </trkpt>
      <trkpt lat="42.97172" lon="1.14841">
        <ele>492</ele>
        <time>2026-05-10T10:05:29Z</time>
      </trkpt>
      <trkpt lat="42.97175" lon="1.14836">
        <ele>491</ele>
        <time>2026-05-10T10:05:30Z</time>
      </trkpt>
      <trkpt lat="42.97178" lon="1.14831">
        <ele>489.8</ele>
        <time>2026-05-10T10:05:31Z</time>
      </trkpt>
      <trkpt lat="42.97183" lon="1.14827">
        <ele>489</ele>
        <time>2026-05-10T10:05:32Z</time>
      </trkpt>
      <trkpt lat="42.97188" lon="1.14825">
        <ele>488</ele>
        <time>2026-05-10T10:05:33Z</time>
      </trkpt>
      <trkpt lat="42.97192" lon="1.14822">
        <ele>487</ele>
        <time>2026-05-10T10:05:34Z</time>
      </trkpt>
      <trkpt lat="42.97195" lon="1.14818">
        <ele>486.2</ele>
        <time>2026-05-10T10:05:35Z</time>
      </trkpt>
      <trkpt lat="42.972" lon="1.14815">
        <ele>485.4</ele>
        <time>2026-05-10T10:05:36Z</time>
      </trkpt>
      <trkpt lat="42.97203" lon="1.14811">
        <ele>484.6</ele>
        <time>2026-05-10T10:05:37Z</time>
      </trkpt>
      <trkpt lat="42.97205" lon="1.14809">
        <ele>483.8</ele>
        <time>2026-05-10T10:05:38Z</time>
      </trkpt>
      <trkpt lat="42.97207" lon="1.14808">
        <ele>483</ele>
        <time>2026-05-10T10:05:39Z</time>
      </trkpt>
      <trkpt lat="42.97211" lon="1.14805">
        <ele>482.2</ele>
        <time>2026-05-10T10:05:40Z</time>
      </trkpt>
      <trkpt lat="42.97215" lon="1.14801">
        <ele>481.6</ele>
        <time>2026-05-10T10:05:41Z</time>
      </trkpt>
      <trkpt lat="42.97218" lon="1.14797">
        <ele>480.6</ele>
        <time>2026-05-10T10:05:42Z</time>
      </trkpt>
      <trkpt lat="42.97221" lon="1.14794">
        <ele>479.8</ele>
        <time>2026-05-10T10:05:43Z</time>
      </trkpt>
      <trkpt lat="42.97225" lon="1.14791">
        <ele>478.8</ele>
        <time>2026-05-10T10:05:44Z</time>
      </trkpt>
      <trkpt lat="42.97228" lon="1.14789">
        <ele>477.8</ele>
        <time>2026-05-10T10:05:45Z</time>
      </trkpt>
      <trkpt lat="42.9723" lon="1.14787">
        <ele>476.8</ele>
        <time>2026-05-10T10:05:46Z</time>
      </trkpt>
      <trkpt lat="42.97234" lon="1.14785">
        <ele>476</ele>
        <time>2026-05-10T10:05:47Z</time>
      </trkpt>
      <trkpt lat="42.97236" lon="1.14783">
        <ele>475.2</ele>
        <time>2026-05-10T10:05:48Z</time>
      </trkpt>
      <trkpt lat="42.97238" lon="1.14782">
        <ele>473.8</ele>
        <time>2026-05-10T10:05:49Z</time>
      </trkpt>
      <trkpt lat="42.9724" lon="1.14782">
        <ele>473</ele>
        <time>2026-05-10T10:05:50Z</time>
      </trkpt>
      <trkpt lat="42.97242" lon="1.14784">
        <ele>472.4</ele>
        <time>2026-05-10T10:05:51Z</time>
      </trkpt>
      <trkpt lat="42.97244" lon="1.14786">
        <ele>471.6</ele>
        <time>2026-05-10T10:05:52Z</time>
      </trkpt>
      <trkpt lat="42.97247" lon="1.14787">
        <ele>471</ele>
        <time>2026-05-10T10:05:53Z</time>
      </trkpt>
      <trkpt lat="42.9725" lon="1.14787">
        <ele>470.4</ele>
        <time>2026-05-10T10:05:54Z</time>
      </trkpt>
      <trkpt lat="42.97252" lon="1.14786">
        <ele>469.8</ele>
        <time>2026-05-10T10:05:55Z</time>
      </trkpt>
      <trkpt lat="42.97257" lon="1.14785">
        <ele>469.4</ele>
        <time>2026-05-10T10:05:56Z</time>
      </trkpt>
      <trkpt lat="42.97261" lon="1.14783">
        <ele>468.8</ele>
        <time>2026-05-10T10:05:57Z</time>
      </trkpt>
      <trkpt lat="42.97264" lon="1.14781">
        <ele>468.4</ele>
        <time>2026-05-10T10:05:58Z</time>
      </trkpt>
      <trkpt lat="42.97267" lon="1.14779">
        <ele>467.8</ele>
        <time>2026-05-10T10:05:59Z</time>
      </trkpt>
      <trkpt lat="42.9727" lon="1.14777">
        <ele>467.4</ele>
        <time>2026-05-10T10:06:00Z</time>
      </trkpt>
      <trkpt lat="42.97272" lon="1.14774">
        <ele>466.8</ele>
        <time>2026-05-10T10:06:01Z</time>
      </trkpt>
      <trkpt lat="42.97275" lon="1.14771">
        <ele>466.2</ele>
        <time>2026-05-10T10:06:02Z</time>
      </trkpt>
      <trkpt lat="42.97278" lon="1.1477">
        <ele>465.8</ele>
        <time>2026-05-10T10:06:03Z</time>
      </trkpt>
      <trkpt lat="42.9728" lon="1.14768">
        <ele>465.2</ele>
        <time>2026-05-10T10:06:04Z</time>
      </trkpt>
      <trkpt lat="42.97283" lon="1.14767">
        <ele>464.6</ele>
        <time>2026-05-10T10:06:05Z</time>
      </trkpt>
      <trkpt lat="42.97286" lon="1.14767">
        <ele>464</ele>
        <time>2026-05-10T10:06:06Z</time>
      </trkpt>
      <trkpt lat="42.97289" lon="1.14766">
        <ele>463.2</ele>
        <time>2026-05-10T10:06:07Z</time>
      </trkpt>
      <trkpt lat="42.97294" lon="1.14767">
        <ele>462.6</ele>
        <time>2026-05-10T10:06:08Z</time>
      </trkpt>
      <trkpt lat="42.97297" lon="1.14767">
        <ele>462</ele>
        <time>2026-05-10T10:06:09Z</time>
      </trkpt>
      <trkpt lat="42.973" lon="1.14767">
        <ele>461.4</ele>
        <time>2026-05-10T10:06:10Z</time>
      </trkpt>
      <trkpt lat="42.97302" lon="1.14766">
        <ele>461</ele>
        <time>2026-05-10T10:06:11Z</time>
      </trkpt>
      <trkpt lat="42.97303" lon="1.14766">
        <ele>460.4</ele>
        <time>2026-05-10T10:06:12Z</time>
      </trkpt>
      <trkpt lat="42.97329" lon="1.14769">
        <ele>459.2</ele>
        <time>2026-05-10T10:08:23Z</time>
      </trkpt>
      <trkpt lat="42.97334" lon="1.1477">
        <ele>459.2</ele>
        <time>2026-05-10T10:08:25Z</time>
      </trkpt>
      <trkpt lat="42.97349" lon="1.14774">
        <ele>459.2</ele>
        <time>2026-05-10T10:08:30Z</time>
      </trkpt>
      <trkpt lat="42.97375" lon="1.14773">
        <ele>459.2</ele>
        <time>2026-05-10T10:08:35Z</time>
      </trkpt>
      <trkpt lat="42.97399" lon="1.14771">
        <ele>459.2</ele>
        <time>2026-05-10T10:08:41Z</time>
      </trkpt>
      <trkpt lat="42.97421" lon="1.14763">
        <ele>459.2</ele>
        <time>2026-05-10T10:08:46Z</time>
      </trkpt>
      <trkpt lat="42.97425" lon="1.14762">
        <ele>458.8</ele>
        <time>2026-05-10T10:08:47Z</time>
      </trkpt>
      <trkpt lat="42.97429" lon="1.1476">
        <ele>458.4</ele>
        <time>2026-05-10T10:08:48Z</time>
      </trkpt>
      <trkpt lat="42.97432" lon="1.14758">
        <ele>458</ele>
        <time>2026-05-10T10:08:49Z</time>
      </trkpt>
      <trkpt lat="42.97437" lon="1.14758">
        <ele>457.6</ele>
        <time>2026-05-10T10:08:50Z</time>
      </trkpt>
      <trkpt lat="42.97441" lon="1.14756">
        <ele>457</ele>
        <time>2026-05-10T10:08:51Z</time>
      </trkpt>
      <trkpt lat="42.97446" lon="1.14754">
        <ele>457</ele>
        <time>2026-05-10T10:08:52Z</time>
      </trkpt>
      <trkpt lat="42.97468" lon="1.14741">
        <ele>456.6</ele>
        <time>2026-05-10T10:08:58Z</time>
      </trkpt>
      <trkpt lat="42.97471" lon="1.14738">
        <ele>456.2</ele>
        <time>2026-05-10T10:08:59Z</time>
      </trkpt>
      <trkpt lat="42.97474" lon="1.14736">
        <ele>455.8</ele>
        <time>2026-05-10T10:09:00Z</time>
      </trkpt>
      <trkpt lat="42.97479" lon="1.14732">
        <ele>455.4</ele>
        <time>2026-05-10T10:09:01Z</time>
      </trkpt>
      <trkpt lat="42.97483" lon="1.14729">
        <ele>454.8</ele>
        <time>2026-05-10T10:09:02Z</time>
      </trkpt>
      <trkpt lat="42.97488" lon="1.14726">
        <ele>454.8</ele>
        <time>2026-05-10T10:09:03Z</time>
      </trkpt>
      <trkpt lat="42.97494" lon="1.14724">
        <ele>454.4</ele>
        <time>2026-05-10T10:09:04Z</time>
      </trkpt>
      <trkpt lat="42.97502" lon="1.14722">
        <ele>454</ele>
        <time>2026-05-10T10:09:05Z</time>
      </trkpt>
      <trkpt lat="42.9751" lon="1.14721">
        <ele>453.6</ele>
        <time>2026-05-10T10:09:06Z</time>
      </trkpt>
      <trkpt lat="42.97516" lon="1.14718">
        <ele>452.8</ele>
        <time>2026-05-10T10:09:07Z</time>
      </trkpt>
      <trkpt lat="42.97523" lon="1.14713">
        <ele>451.6</ele>
        <time>2026-05-10T10:09:08Z</time>
      </trkpt>
      <trkpt lat="42.97534" lon="1.1471">
        <ele>451</ele>
        <time>2026-05-10T10:09:09Z</time>
      </trkpt>
      <trkpt lat="42.97541" lon="1.14705">
        <ele>450.4</ele>
        <time>2026-05-10T10:09:10Z</time>
      </trkpt>
      <trkpt lat="42.9756" lon="1.14684">
        <ele>450.4</ele>
        <time>2026-05-10T10:09:14Z</time>
      </trkpt>
      <trkpt lat="42.97572" lon="1.14656">
        <ele>450.4</ele>
        <time>2026-05-10T10:09:18Z</time>
      </trkpt>
      <trkpt lat="42.97574" lon="1.14648">
        <ele>450.4</ele>
        <time>2026-05-10T10:09:19Z</time>
      </trkpt>
      <trkpt lat="42.97585" lon="1.14604">
        <ele>450.4</ele>
        <time>2026-05-10T10:09:25Z</time>
      </trkpt>
      <trkpt lat="42.97587" lon="1.14581">
        <ele>450</ele>
        <time>2026-05-10T10:09:28Z</time>
      </trkpt>
      <trkpt lat="42.97588" lon="1.14572">
        <ele>449.6</ele>
        <time>2026-05-10T10:09:29Z</time>
      </trkpt>
      <trkpt lat="42.97589" lon="1.14563">
        <ele>449.2</ele>
        <time>2026-05-10T10:09:30Z</time>
      </trkpt>
      <trkpt lat="42.9759" lon="1.14553">
        <ele>448.8</ele>
        <time>2026-05-10T10:09:31Z</time>
      </trkpt>
      <trkpt lat="42.97593" lon="1.14544">
        <ele>448.4</ele>
        <time>2026-05-10T10:09:32Z</time>
      </trkpt>
      <trkpt lat="42.97596" lon="1.14536">
        <ele>448.4</ele>
        <time>2026-05-10T10:09:33Z</time>
      </trkpt>
      <trkpt lat="42.97605" lon="1.14514">
        <ele>448.4</ele>
        <time>2026-05-10T10:09:36Z</time>
      </trkpt>
      <trkpt lat="42.97614" lon="1.14496">
        <ele>448.4</ele>
        <time>2026-05-10T10:09:39Z</time>
      </trkpt>
      <trkpt lat="42.97627" lon="1.14463">
        <ele>448.4</ele>
        <time>2026-05-10T10:09:45Z</time>
      </trkpt>
      <trkpt lat="42.97633" lon="1.14445">
        <ele>448.4</ele>
        <time>2026-05-10T10:09:49Z</time>
      </trkpt>
      <trkpt lat="42.97649" lon="1.1441">
        <ele>448.4</ele>
        <time>2026-05-10T10:09:54Z</time>
      </trkpt>
      <trkpt lat="42.9766" lon="1.14375">
        <ele>448</ele>
        <time>2026-05-10T10:10:00Z</time>
      </trkpt>
      <trkpt lat="42.9766" lon="1.14371">
        <ele>447.6</ele>
        <time>2026-05-10T10:10:01Z</time>
      </trkpt>
      <trkpt lat="42.97661" lon="1.14368">
        <ele>447.2</ele>
        <time>2026-05-10T10:10:02Z</time>
      </trkpt>
      <trkpt lat="42.97662" lon="1.14365">
        <ele>446.8</ele>
        <time>2026-05-10T10:10:03Z</time>
      </trkpt>
      <trkpt lat="42.97664" lon="1.14362">
        <ele>446.4</ele>
        <time>2026-05-10T10:10:04Z</time>
      </trkpt>
      <trkpt lat="42.9767" lon="1.14355">
        <ele>446.4</ele>
        <time>2026-05-10T10:10:06Z</time>
      </trkpt>
      <trkpt lat="42.97681" lon="1.14343">
        <ele>446.4</ele>
        <time>2026-05-10T10:10:09Z</time>
      </trkpt>
      <trkpt lat="42.97685" lon="1.14336">
        <ele>446.4</ele>
        <time>2026-05-10T10:10:10Z</time>
      </trkpt>
      <trkpt lat="42.9769" lon="1.14325">
        <ele>446.4</ele>
        <time>2026-05-10T10:10:12Z</time>
      </trkpt>
      <trkpt lat="42.97701" lon="1.14299">
        <ele>446.4</ele>
        <time>2026-05-10T10:10:17Z</time>
      </trkpt>
      <trkpt lat="42.97706" lon="1.14285">
        <ele>446.4</ele>
        <time>2026-05-10T10:10:20Z</time>
      </trkpt>
      <trkpt lat="42.97708" lon="1.14281">
        <ele>446.4</ele>
        <time>2026-05-10T10:10:21Z</time>
      </trkpt>
      <trkpt lat="42.97714" lon="1.14268">
        <ele>446.4</ele>
        <time>2026-05-10T10:10:24Z</time>
      </trkpt>
      <trkpt lat="42.97722" lon="1.14258">
        <ele>446.8</ele>
        <time>2026-05-10T10:10:26Z</time>
      </trkpt>
      <trkpt lat="42.97726" lon="1.14254">
        <ele>447.2</ele>
        <time>2026-05-10T10:10:27Z</time>
      </trkpt>
      <trkpt lat="42.9773" lon="1.1425">
        <ele>447.6</ele>
        <time>2026-05-10T10:10:28Z</time>
      </trkpt>
      <trkpt lat="42.97734" lon="1.14244">
        <ele>448</ele>
        <time>2026-05-10T10:10:29Z</time>
      </trkpt>
      <trkpt lat="42.97739" lon="1.14238">
        <ele>448.4</ele>
        <time>2026-05-10T10:10:30Z</time>
      </trkpt>
      <trkpt lat="42.97743" lon="1.14232">
        <ele>448.4</ele>
        <time>2026-05-10T10:10:31Z</time>
      </trkpt>
      <trkpt lat="42.97754" lon="1.14213">
        <ele>448.4</ele>
        <time>2026-05-10T10:10:35Z</time>
      </trkpt>
      <trkpt lat="42.97767" lon="1.14194">
        <ele>448.4</ele>
        <time>2026-05-10T10:10:39Z</time>
      </trkpt>
      <trkpt lat="42.97782" lon="1.14169">
        <ele>448.4</ele>
        <time>2026-05-10T10:10:44Z</time>
      </trkpt>
      <trkpt lat="42.97787" lon="1.14159">
        <ele>447.6</ele>
        <time>2026-05-10T10:10:46Z</time>
      </trkpt>
      <trkpt lat="42.97789" lon="1.14154">
        <ele>447.2</ele>
        <time>2026-05-10T10:10:47Z</time>
      </trkpt>
      <trkpt lat="42.97791" lon="1.14148">
        <ele>446.8</ele>
        <time>2026-05-10T10:10:48Z</time>
      </trkpt>
      <trkpt lat="42.97793" lon="1.14143">
        <ele>446.4</ele>
        <time>2026-05-10T10:10:49Z</time>
      </trkpt>
      <trkpt lat="42.97795" lon="1.14137">
        <ele>446.4</ele>
        <time>2026-05-10T10:10:50Z</time>
      </trkpt>
      <trkpt lat="42.97801" lon="1.14125">
        <ele>446.4</ele>
        <time>2026-05-10T10:10:52Z</time>
      </trkpt>
      <trkpt lat="42.97804" lon="1.1412">
        <ele>445.8</ele>
        <time>2026-05-10T10:10:53Z</time>
      </trkpt>
      <trkpt lat="42.97808" lon="1.14116">
        <ele>445.4</ele>
        <time>2026-05-10T10:10:54Z</time>
      </trkpt>
      <trkpt lat="42.97811" lon="1.14112">
        <ele>445</ele>
        <time>2026-05-10T10:10:55Z</time>
      </trkpt>
      <trkpt lat="42.97814" lon="1.14108">
        <ele>444.6</ele>
        <time>2026-05-10T10:10:56Z</time>
      </trkpt>
      <trkpt lat="42.97817" lon="1.14104">
        <ele>444.2</ele>
        <time>2026-05-10T10:10:57Z</time>
      </trkpt>
      <trkpt lat="42.9782" lon="1.141">
        <ele>444.2</ele>
        <time>2026-05-10T10:10:58Z</time>
      </trkpt>
      <trkpt lat="42.97824" lon="1.14097">
        <ele>444.2</ele>
        <time>2026-05-10T10:10:59Z</time>
      </trkpt>
      <trkpt lat="42.9784" lon="1.14083">
        <ele>444.2</ele>
        <time>2026-05-10T10:11:03Z</time>
      </trkpt>
      <trkpt lat="42.97855" lon="1.1407">
        <ele>444.2</ele>
        <time>2026-05-10T10:11:08Z</time>
      </trkpt>
      <trkpt lat="42.97862" lon="1.14061">
        <ele>444.6</ele>
        <time>2026-05-10T10:11:10Z</time>
      </trkpt>
      <trkpt lat="42.97865" lon="1.14056">
        <ele>445.4</ele>
        <time>2026-05-10T10:11:11Z</time>
      </trkpt>
      <trkpt lat="42.9787" lon="1.14049">
        <ele>445.8</ele>
        <time>2026-05-10T10:11:12Z</time>
      </trkpt>
      <trkpt lat="42.97874" lon="1.14043">
        <ele>446.2</ele>
        <time>2026-05-10T10:11:13Z</time>
      </trkpt>
      <trkpt lat="42.97875" lon="1.14038">
        <ele>446.2</ele>
        <time>2026-05-10T10:11:14Z</time>
      </trkpt>
      <trkpt lat="42.97876" lon="1.14029">
        <ele>446.6</ele>
        <time>2026-05-10T10:11:16Z</time>
      </trkpt>
      <trkpt lat="42.97876" lon="1.14024">
        <ele>447.2</ele>
        <time>2026-05-10T10:11:17Z</time>
      </trkpt>
      <trkpt lat="42.97875" lon="1.14019">
        <ele>447.8</ele>
        <time>2026-05-10T10:11:18Z</time>
      </trkpt>
      <trkpt lat="42.97876" lon="1.14013">
        <ele>448.2</ele>
        <time>2026-05-10T10:11:19Z</time>
      </trkpt>
      <trkpt lat="42.97878" lon="1.14008">
        <ele>448.8</ele>
        <time>2026-05-10T10:11:20Z</time>
      </trkpt>
      <trkpt lat="42.9788" lon="1.14003">
        <ele>448.8</ele>
        <time>2026-05-10T10:11:21Z</time>
      </trkpt>
      <trkpt lat="42.97882" lon="1.14">
        <ele>449.2</ele>
        <time>2026-05-10T10:11:22Z</time>
      </trkpt>
      <trkpt lat="42.97885" lon="1.13996">
        <ele>449.6</ele>
        <time>2026-05-10T10:11:23Z</time>
      </trkpt>
      <trkpt lat="42.97887" lon="1.13994">
        <ele>450</ele>
        <time>2026-05-10T10:11:24Z</time>
      </trkpt>
      <trkpt lat="42.97889" lon="1.13991">
        <ele>450.6</ele>
        <time>2026-05-10T10:11:25Z</time>
      </trkpt>
      <trkpt lat="42.97892" lon="1.13988">
        <ele>451</ele>
        <time>2026-05-10T10:11:26Z</time>
      </trkpt>
      <trkpt lat="42.97904" lon="1.13971">
        <ele>451</ele>
        <time>2026-05-10T10:11:31Z</time>
      </trkpt>
      <trkpt lat="42.97918" lon="1.13948">
        <ele>451</ele>
        <time>2026-05-10T10:11:36Z</time>
      </trkpt>
      <trkpt lat="42.97936" lon="1.1392">
        <ele>451</ele>
        <time>2026-05-10T10:11:42Z</time>
      </trkpt>
      <trkpt lat="42.97948" lon="1.13898">
        <ele>451</ele>
        <time>2026-05-10T10:11:47Z</time>
      </trkpt>
      <trkpt lat="42.97967" lon="1.13868">
        <ele>451</ele>
        <time>2026-05-10T10:11:53Z</time>
      </trkpt>
      <trkpt lat="42.97979" lon="1.13848">
        <ele>451</ele>
        <time>2026-05-10T10:11:57Z</time>
      </trkpt>
      <trkpt lat="42.97984" lon="1.13837">
        <ele>451</ele>
        <time>2026-05-10T10:11:59Z</time>
      </trkpt>
      <trkpt lat="42.97991" lon="1.13814">
        <ele>450.6</ele>
        <time>2026-05-10T10:12:03Z</time>
      </trkpt>
      <trkpt lat="42.97991" lon="1.13808">
        <ele>450.2</ele>
        <time>2026-05-10T10:12:04Z</time>
      </trkpt>
      <trkpt lat="42.97992" lon="1.13801">
        <ele>449.8</ele>
        <time>2026-05-10T10:12:05Z</time>
      </trkpt>
      <trkpt lat="42.97993" lon="1.13796">
        <ele>449.4</ele>
        <time>2026-05-10T10:12:06Z</time>
      </trkpt>
      <trkpt lat="42.97992" lon="1.1379">
        <ele>449</ele>
        <time>2026-05-10T10:12:07Z</time>
      </trkpt>
      <trkpt lat="42.97989" lon="1.13779">
        <ele>449</ele>
        <time>2026-05-10T10:12:09Z</time>
      </trkpt>
      <trkpt lat="42.97982" lon="1.13769">
        <ele>449</ele>
        <time>2026-05-10T10:12:12Z</time>
      </trkpt>
      <trkpt lat="42.97976" lon="1.13763">
        <ele>449</ele>
        <time>2026-05-10T10:12:15Z</time>
      </trkpt>
      <trkpt lat="42.9797" lon="1.13753">
        <ele>449</ele>
        <time>2026-05-10T10:12:21Z</time>
      </trkpt>
      <trkpt lat="42.97961" lon="1.13741">
        <ele>449</ele>
        <time>2026-05-10T10:12:29Z</time>
      </trkpt>
      <trkpt lat="42.97954" lon="1.13731">
        <ele>449</ele>
        <time>2026-05-10T10:12:36Z</time>
      </trkpt>
      <trkpt lat="42.97953" lon="1.1373">
        <ele>449</ele>
        <time>2026-05-10T10:12:37Z</time>
      </trkpt>
      <trkpt lat="42.97948" lon="1.13724">
        <ele>449</ele>
        <time>2026-05-10T10:12:41Z</time>
      </trkpt>
      <trkpt lat="42.97947" lon="1.13721">
        <ele>449.4</ele>
        <time>2026-05-10T10:12:43Z</time>
      </trkpt>
      <trkpt lat="42.97946" lon="1.13719">
        <ele>449.8</ele>
        <time>2026-05-10T10:12:44Z</time>
      </trkpt>
      <trkpt lat="42.97945" lon="1.13718">
        <ele>450.2</ele>
        <time>2026-05-10T10:12:45Z</time>
      </trkpt>
      <trkpt lat="42.97944" lon="1.13717">
        <ele>450.6</ele>
        <time>2026-05-10T10:12:46Z</time>
      </trkpt>
      <trkpt lat="42.97943" lon="1.13716">
        <ele>451</ele>
        <time>2026-05-10T10:12:47Z</time>
      </trkpt>
      <trkpt lat="42.97939" lon="1.13712">
        <ele>451</ele>
        <time>2026-05-10T10:12:53Z</time>
      </trkpt>
      <trkpt lat="42.97938" lon="1.13714">
        <ele>451</ele>
        <time>2026-05-10T10:13:00Z</time>
      </trkpt>
      <trkpt lat="42.97938" lon="1.13714">
        <ele>451</ele>
        <time>2026-05-10T10:13:02Z</time>
      </trkpt>
      <trkpt lat="42.97937" lon="1.1371">
        <ele>451</ele>
        <time>2026-05-10T10:13:50Z</time>
      </trkpt>
      <trkpt lat="42.97929" lon="1.13697">
        <ele>451</ele>
        <time>2026-05-10T10:13:55Z</time>
      </trkpt>
      <trkpt lat="42.97918" lon="1.13682">
        <ele>451.4</ele>
        <time>2026-05-10T10:14:01Z</time>
      </trkpt>
      <trkpt lat="42.97916" lon="1.13678">
        <ele>451.8</ele>
        <time>2026-05-10T10:14:02Z</time>
      </trkpt>
      <trkpt lat="42.97913" lon="1.13675">
        <ele>452.2</ele>
        <time>2026-05-10T10:14:03Z</time>
      </trkpt>
      <trkpt lat="42.97911" lon="1.13672">
        <ele>453</ele>
        <time>2026-05-10T10:14:04Z</time>
      </trkpt>
      <trkpt lat="42.97908" lon="1.1367">
        <ele>453.6</ele>
        <time>2026-05-10T10:14:05Z</time>
      </trkpt>
      <trkpt lat="42.97905" lon="1.13666">
        <ele>454</ele>
        <time>2026-05-10T10:14:06Z</time>
      </trkpt>
      <trkpt lat="42.97903" lon="1.13663">
        <ele>454.4</ele>
        <time>2026-05-10T10:14:07Z</time>
      </trkpt>
      <trkpt lat="42.979" lon="1.1366">
        <ele>454.8</ele>
        <time>2026-05-10T10:14:08Z</time>
      </trkpt>
      <trkpt lat="42.97897" lon="1.13657">
        <ele>455.2</ele>
        <time>2026-05-10T10:14:09Z</time>
      </trkpt>
      <trkpt lat="42.97892" lon="1.13652">
        <ele>455.8</ele>
        <time>2026-05-10T10:14:11Z</time>
      </trkpt>
      <trkpt lat="42.97889" lon="1.13649">
        <ele>456.2</ele>
        <time>2026-05-10T10:14:12Z</time>
      </trkpt>
      <trkpt lat="42.97886" lon="1.13647">
        <ele>456.6</ele>
        <time>2026-05-10T10:14:13Z</time>
      </trkpt>
      <trkpt lat="42.97883" lon="1.13644">
        <ele>457.2</ele>
        <time>2026-05-10T10:14:14Z</time>
      </trkpt>
      <trkpt lat="42.9788" lon="1.13641">
        <ele>457.6</ele>
        <time>2026-05-10T10:14:15Z</time>
      </trkpt>
      <trkpt lat="42.97874" lon="1.13637">
        <ele>458</ele>
        <time>2026-05-10T10:14:17Z</time>
      </trkpt>
      <trkpt lat="42.97872" lon="1.13634">
        <ele>458.4</ele>
        <time>2026-05-10T10:14:18Z</time>
      </trkpt>
      <trkpt lat="42.97869" lon="1.13632">
        <ele>458.8</ele>
        <time>2026-05-10T10:14:19Z</time>
      </trkpt>
      <trkpt lat="42.97867" lon="1.1363">
        <ele>459.2</ele>
        <time>2026-05-10T10:14:20Z</time>
      </trkpt>
      <trkpt lat="42.97864" lon="1.13628">
        <ele>459.6</ele>
        <time>2026-05-10T10:14:21Z</time>
      </trkpt>
      <trkpt lat="42.97861" lon="1.13626">
        <ele>459.6</ele>
        <time>2026-05-10T10:14:22Z</time>
      </trkpt>
      <trkpt lat="42.97856" lon="1.13621">
        <ele>460</ele>
        <time>2026-05-10T10:14:24Z</time>
      </trkpt>
      <trkpt lat="42.97854" lon="1.13618">
        <ele>460.4</ele>
        <time>2026-05-10T10:14:25Z</time>
      </trkpt>
      <trkpt lat="42.9785" lon="1.13616">
        <ele>460.8</ele>
        <time>2026-05-10T10:14:26Z</time>
      </trkpt>
      <trkpt lat="42.97847" lon="1.13613">
        <ele>461.2</ele>
        <time>2026-05-10T10:14:27Z</time>
      </trkpt>
      <trkpt lat="42.97844" lon="1.1361">
        <ele>461.6</ele>
        <time>2026-05-10T10:14:28Z</time>
      </trkpt>
      <trkpt lat="42.97836" lon="1.13603">
        <ele>462</ele>
        <time>2026-05-10T10:14:31Z</time>
      </trkpt>
      <trkpt lat="42.97834" lon="1.13601">
        <ele>462.6</ele>
        <time>2026-05-10T10:14:32Z</time>
      </trkpt>
      <trkpt lat="42.97831" lon="1.13599">
        <ele>463</ele>
        <time>2026-05-10T10:14:33Z</time>
      </trkpt>
      <trkpt lat="42.97828" lon="1.13596">
        <ele>463.4</ele>
        <time>2026-05-10T10:14:34Z</time>
      </trkpt>
      <trkpt lat="42.97826" lon="1.13594">
        <ele>463.8</ele>
        <time>2026-05-10T10:14:35Z</time>
      </trkpt>
      <trkpt lat="42.97814" lon="1.13586">
        <ele>464.4</ele>
        <time>2026-05-10T10:14:39Z</time>
      </trkpt>
      <trkpt lat="42.97811" lon="1.13584">
        <ele>464.8</ele>
        <time>2026-05-10T10:14:40Z</time>
      </trkpt>
      <trkpt lat="42.97808" lon="1.13582">
        <ele>465.2</ele>
        <time>2026-05-10T10:14:41Z</time>
      </trkpt>
      <trkpt lat="42.97806" lon="1.1358">
        <ele>465.6</ele>
        <time>2026-05-10T10:14:42Z</time>
      </trkpt>
      <trkpt lat="42.97803" lon="1.13579">
        <ele>466.2</ele>
        <time>2026-05-10T10:14:43Z</time>
      </trkpt>
      <trkpt lat="42.97787" lon="1.13573">
        <ele>466.2</ele>
        <time>2026-05-10T10:14:48Z</time>
      </trkpt>
      <trkpt lat="42.97784" lon="1.13572">
        <ele>466.6</ele>
        <time>2026-05-10T10:14:49Z</time>
      </trkpt>
      <trkpt lat="42.97781" lon="1.13572">
        <ele>467</ele>
        <time>2026-05-10T10:14:50Z</time>
      </trkpt>
      <trkpt lat="42.97778" lon="1.13571">
        <ele>467.4</ele>
        <time>2026-05-10T10:14:51Z</time>
      </trkpt>
      <trkpt lat="42.97775" lon="1.13571">
        <ele>467.8</ele>
        <time>2026-05-10T10:14:52Z</time>
      </trkpt>
      <trkpt lat="42.97771" lon="1.1357">
        <ele>468.2</ele>
        <time>2026-05-10T10:14:53Z</time>
      </trkpt>
      <trkpt lat="42.97761" lon="1.13568">
        <ele>468.2</ele>
        <time>2026-05-10T10:14:56Z</time>
      </trkpt>
      <trkpt lat="42.97744" lon="1.13557">
        <ele>468.2</ele>
        <time>2026-05-10T10:15:02Z</time>
      </trkpt>
      <trkpt lat="42.97736" lon="1.13542">
        <ele>468.2</ele>
        <time>2026-05-10T10:15:07Z</time>
      </trkpt>
      <trkpt lat="42.97734" lon="1.13519">
        <ele>468.2</ele>
        <time>2026-05-10T10:15:13Z</time>
      </trkpt>
      <trkpt lat="42.97733" lon="1.13493">
        <ele>468.2</ele>
        <time>2026-05-10T10:15:19Z</time>
      </trkpt>
      <trkpt lat="42.97744" lon="1.13473">
        <ele>468.2</ele>
        <time>2026-05-10T10:15:24Z</time>
      </trkpt>
      <trkpt lat="42.97762" lon="1.13453">
        <ele>468.2</ele>
        <time>2026-05-10T10:15:30Z</time>
      </trkpt>
      <trkpt lat="42.97767" lon="1.13451">
        <ele>468.2</ele>
        <time>2026-05-10T10:15:31Z</time>
      </trkpt>
      <trkpt lat="42.97785" lon="1.13444">
        <ele>468.2</ele>
        <time>2026-05-10T10:15:34Z</time>
      </trkpt>
      <trkpt lat="42.97811" lon="1.13429">
        <ele>468.2</ele>
        <time>2026-05-10T10:15:38Z</time>
      </trkpt>
      <trkpt lat="42.97817" lon="1.13421">
        <ele>468.2</ele>
        <time>2026-05-10T10:15:39Z</time>
      </trkpt>
      <trkpt lat="42.97822" lon="1.13413">
        <ele>467.8</ele>
        <time>2026-05-10T10:15:40Z</time>
      </trkpt>
      <trkpt lat="42.97826" lon="1.13404">
        <ele>467.4</ele>
        <time>2026-05-10T10:15:41Z</time>
      </trkpt>
      <trkpt lat="42.9783" lon="1.13396">
        <ele>466.6</ele>
        <time>2026-05-10T10:15:42Z</time>
      </trkpt>
      <trkpt lat="42.97833" lon="1.13388">
        <ele>466</ele>
        <time>2026-05-10T10:15:43Z</time>
      </trkpt>
      <trkpt lat="42.97836" lon="1.13382">
        <ele>465.2</ele>
        <time>2026-05-10T10:15:44Z</time>
      </trkpt>
      <trkpt lat="42.9784" lon="1.13376">
        <ele>464.6</ele>
        <time>2026-05-10T10:15:45Z</time>
      </trkpt>
      <trkpt lat="42.97844" lon="1.13372">
        <ele>463.8</ele>
        <time>2026-05-10T10:15:46Z</time>
      </trkpt>
      <trkpt lat="42.97849" lon="1.1337">
        <ele>463</ele>
        <time>2026-05-10T10:15:47Z</time>
      </trkpt>
      <trkpt lat="42.97854" lon="1.1337">
        <ele>462.2</ele>
        <time>2026-05-10T10:15:48Z</time>
      </trkpt>
      <trkpt lat="42.97857" lon="1.1337">
        <ele>461.4</ele>
        <time>2026-05-10T10:15:49Z</time>
      </trkpt>
      <trkpt lat="42.9786" lon="1.1337">
        <ele>460.6</ele>
        <time>2026-05-10T10:15:50Z</time>
      </trkpt>
      <trkpt lat="42.97864" lon="1.13369">
        <ele>460</ele>
        <time>2026-05-10T10:15:51Z</time>
      </trkpt>
      <trkpt lat="42.97867" lon="1.13368">
        <ele>459.2</ele>
        <time>2026-05-10T10:15:52Z</time>
      </trkpt>
      <trkpt lat="42.9787" lon="1.13367">
        <ele>458.6</ele>
        <time>2026-05-10T10:15:53Z</time>
      </trkpt>
      <trkpt lat="42.97873" lon="1.13368">
        <ele>458</ele>
        <time>2026-05-10T10:15:54Z</time>
      </trkpt>
      <trkpt lat="42.97877" lon="1.13367">
        <ele>457.2</ele>
        <time>2026-05-10T10:15:55Z</time>
      </trkpt>
      <trkpt lat="42.97882" lon="1.13365">
        <ele>456.6</ele>
        <time>2026-05-10T10:15:56Z</time>
      </trkpt>
      <trkpt lat="42.97887" lon="1.13363">
        <ele>456</ele>
        <time>2026-05-10T10:15:57Z</time>
      </trkpt>
      <trkpt lat="42.97891" lon="1.13362">
        <ele>455.4</ele>
        <time>2026-05-10T10:15:58Z</time>
      </trkpt>
      <trkpt lat="42.97895" lon="1.13361">
        <ele>455</ele>
        <time>2026-05-10T10:15:59Z</time>
      </trkpt>
      <trkpt lat="42.97899" lon="1.1336">
        <ele>454.4</ele>
        <time>2026-05-10T10:16:00Z</time>
      </trkpt>
      <trkpt lat="42.97905" lon="1.13361">
        <ele>453.8</ele>
        <time>2026-05-10T10:16:01Z</time>
      </trkpt>
      <trkpt lat="42.9791" lon="1.13363">
        <ele>453.4</ele>
        <time>2026-05-10T10:16:02Z</time>
      </trkpt>
      <trkpt lat="42.97914" lon="1.13365">
        <ele>452.8</ele>
        <time>2026-05-10T10:16:03Z</time>
      </trkpt>
      <trkpt lat="42.97918" lon="1.13368">
        <ele>452.2</ele>
        <time>2026-05-10T10:16:04Z</time>
      </trkpt>
      <trkpt lat="42.97923" lon="1.13369">
        <ele>451.8</ele>
        <time>2026-05-10T10:16:05Z</time>
      </trkpt>
      <trkpt lat="42.97927" lon="1.13369">
        <ele>450.6</ele>
        <time>2026-05-10T10:16:06Z</time>
      </trkpt>
      <trkpt lat="42.97932" lon="1.13369">
        <ele>450</ele>
        <time>2026-05-10T10:16:07Z</time>
      </trkpt>
      <trkpt lat="42.97936" lon="1.1337">
        <ele>449.4</ele>
        <time>2026-05-10T10:16:08Z</time>
      </trkpt>
      <trkpt lat="42.9794" lon="1.13371">
        <ele>448.8</ele>
        <time>2026-05-10T10:16:09Z</time>
      </trkpt>
      <trkpt lat="42.97944" lon="1.13372">
        <ele>448.2</ele>
        <time>2026-05-10T10:16:10Z</time>
      </trkpt>
      <trkpt lat="42.97948" lon="1.13373">
        <ele>447.4</ele>
        <time>2026-05-10T10:16:11Z</time>
      </trkpt>
      <trkpt lat="42.97951" lon="1.13374">
        <ele>446.8</ele>
        <time>2026-05-10T10:16:12Z</time>
      </trkpt>
      <trkpt lat="42.97954" lon="1.13376">
        <ele>446</ele>
        <time>2026-05-10T10:16:13Z</time>
      </trkpt>
      <trkpt lat="42.97957" lon="1.13377">
        <ele>445.4</ele>
        <time>2026-05-10T10:16:14Z</time>
      </trkpt>
      <trkpt lat="42.97961" lon="1.13378">
        <ele>444.6</ele>
        <time>2026-05-10T10:16:15Z</time>
      </trkpt>
      <trkpt lat="42.97965" lon="1.1338">
        <ele>443.8</ele>
        <time>2026-05-10T10:16:16Z</time>
      </trkpt>
      <trkpt lat="42.97968" lon="1.13381">
        <ele>443.2</ele>
        <time>2026-05-10T10:16:17Z</time>
      </trkpt>
      <trkpt lat="42.97972" lon="1.13381">
        <ele>442.8</ele>
        <time>2026-05-10T10:16:18Z</time>
      </trkpt>
      <trkpt lat="42.97975" lon="1.13382">
        <ele>442.2</ele>
        <time>2026-05-10T10:16:19Z</time>
      </trkpt>
      <trkpt lat="42.97979" lon="1.13383">
        <ele>441.8</ele>
        <time>2026-05-10T10:16:20Z</time>
      </trkpt>
      <trkpt lat="42.97983" lon="1.13384">
        <ele>441.2</ele>
        <time>2026-05-10T10:16:21Z</time>
      </trkpt>
      <trkpt lat="42.97987" lon="1.13385">
        <ele>440.6</ele>
        <time>2026-05-10T10:16:22Z</time>
      </trkpt>
      <trkpt lat="42.97991" lon="1.13385">
        <ele>440</ele>
        <time>2026-05-10T10:16:23Z</time>
      </trkpt>
      <trkpt lat="42.97994" lon="1.13385">
        <ele>439.2</ele>
        <time>2026-05-10T10:16:24Z</time>
      </trkpt>
      <trkpt lat="42.97996" lon="1.13385">
        <ele>438.4</ele>
        <time>2026-05-10T10:16:25Z</time>
      </trkpt>
      <trkpt lat="42.97998" lon="1.13386">
        <ele>437.6</ele>
        <time>2026-05-10T10:16:26Z</time>
      </trkpt>
      <trkpt lat="42.98" lon="1.13388">
        <ele>437</ele>
        <time>2026-05-10T10:16:27Z</time>
      </trkpt>
      <trkpt lat="42.98003" lon="1.13391">
        <ele>436.2</ele>
        <time>2026-05-10T10:16:28Z</time>
      </trkpt>
      <trkpt lat="42.98005" lon="1.13393">
        <ele>435.6</ele>
        <time>2026-05-10T10:16:29Z</time>
      </trkpt>
      <trkpt lat="42.98007" lon="1.13397">
        <ele>434.8</ele>
        <time>2026-05-10T10:16:30Z</time>
      </trkpt>
      <trkpt lat="42.98009" lon="1.134">
        <ele>434.2</ele>
        <time>2026-05-10T10:16:31Z</time>
      </trkpt>
      <trkpt lat="42.98014" lon="1.13405">
        <ele>433.6</ele>
        <time>2026-05-10T10:16:33Z</time>
      </trkpt>
      <trkpt lat="42.98016" lon="1.13407">
        <ele>433</ele>
        <time>2026-05-10T10:16:34Z</time>
      </trkpt>
      <trkpt lat="42.98017" lon="1.13408">
        <ele>432.6</ele>
        <time>2026-05-10T10:16:35Z</time>
      </trkpt>
      <trkpt lat="42.98019" lon="1.13407">
        <ele>432</ele>
        <time>2026-05-10T10:16:36Z</time>
      </trkpt>
      <trkpt lat="42.98022" lon="1.13406">
        <ele>431.6</ele>
        <time>2026-05-10T10:16:37Z</time>
      </trkpt>
      <trkpt lat="42.98027" lon="1.13402">
        <ele>431</ele>
        <time>2026-05-10T10:16:39Z</time>
      </trkpt>
      <trkpt lat="42.9803" lon="1.13399">
        <ele>430.6</ele>
        <time>2026-05-10T10:16:40Z</time>
      </trkpt>
      <trkpt lat="42.98032" lon="1.13397">
        <ele>430.2</ele>
        <time>2026-05-10T10:16:41Z</time>
      </trkpt>
      <trkpt lat="42.98035" lon="1.13392">
        <ele>429.8</ele>
        <time>2026-05-10T10:16:42Z</time>
      </trkpt>
      <trkpt lat="42.98039" lon="1.13388">
        <ele>429.4</ele>
        <time>2026-05-10T10:16:43Z</time>
      </trkpt>
      <trkpt lat="42.98042" lon="1.13385">
        <ele>428.8</ele>
        <time>2026-05-10T10:16:44Z</time>
      </trkpt>
      <trkpt lat="42.98046" lon="1.13382">
        <ele>428.4</ele>
        <time>2026-05-10T10:16:45Z</time>
      </trkpt>
      <trkpt lat="42.98049" lon="1.13378">
        <ele>427.8</ele>
        <time>2026-05-10T10:16:46Z</time>
      </trkpt>
      <trkpt lat="42.98053" lon="1.13374">
        <ele>427.2</ele>
        <time>2026-05-10T10:16:47Z</time>
      </trkpt>
      <trkpt lat="42.98056" lon="1.13371">
        <ele>426.6</ele>
        <time>2026-05-10T10:16:48Z</time>
      </trkpt>
      <trkpt lat="42.98059" lon="1.13366">
        <ele>425.8</ele>
        <time>2026-05-10T10:16:49Z</time>
      </trkpt>
      <trkpt lat="42.98063" lon="1.13361">
        <ele>425.2</ele>
        <time>2026-05-10T10:16:50Z</time>
      </trkpt>
      <trkpt lat="42.98065" lon="1.13356">
        <ele>424.6</ele>
        <time>2026-05-10T10:16:51Z</time>
      </trkpt>
      <trkpt lat="42.98068" lon="1.13351">
        <ele>423.8</ele>
        <time>2026-05-10T10:16:52Z</time>
      </trkpt>
      <trkpt lat="42.98071" lon="1.13345">
        <ele>423.2</ele>
        <time>2026-05-10T10:16:53Z</time>
      </trkpt>
      <trkpt lat="42.98074" lon="1.13341">
        <ele>422.4</ele>
        <time>2026-05-10T10:16:54Z</time>
      </trkpt>
      <trkpt lat="42.98079" lon="1.13329">
        <ele>400.6</ele>
      </trkpt>
      <trkpt lat="42.9808" lon="1.13326">
        <ele>387.4</ele>
        <time>2026-04-26T10:04:56Z</time>
      </trkpt>
      <trkpt lat="42.98082" lon="1.13322">
        <ele>386.6</ele>
        <time>2026-04-26T10:04:57Z</time>
      </trkpt>
      <trkpt lat="42.98085" lon="1.1332">
        <ele>385.6</ele>
        <time>2026-04-26T10:04:58Z</time>
      </trkpt>
      <trkpt lat="42.98088" lon="1.1332">
        <ele>384.8</ele>
        <time>2026-04-26T10:04:59Z</time>
      </trkpt>
      <trkpt lat="42.98091" lon="1.13321">
        <ele>383.8</ele>
        <time>2026-04-26T10:05:00Z</time>
      </trkpt>
      <trkpt lat="42.98092" lon="1.13321">
        <ele>383.8</ele>
        <time>2026-04-26T10:05:01Z</time>
      </trkpt>
      <trkpt lat="42.98094" lon="1.13321">
        <ele>383.4</ele>
        <time>2026-04-26T10:05:02Z</time>
      </trkpt>
      <trkpt lat="42.98097" lon="1.13323">
        <ele>383</ele>
        <time>2026-04-26T10:05:03Z</time>
      </trkpt>
      <trkpt lat="42.981" lon="1.13324">
        <ele>382.4</ele>
        <time>2026-04-26T10:05:04Z</time>
      </trkpt>
      <trkpt lat="42.98103" lon="1.13326">
        <ele>382</ele>
        <time>2026-04-26T10:05:05Z</time>
      </trkpt>
      <trkpt lat="42.98106" lon="1.13328">
        <ele>381.6</ele>
        <time>2026-04-26T10:05:06Z</time>
      </trkpt>
      <trkpt lat="42.98113" lon="1.13331">
        <ele>381.6</ele>
        <time>2026-04-26T10:05:08Z</time>
      </trkpt>
      <trkpt lat="42.98138" lon="1.13347">
        <ele>381.6</ele>
        <time>2026-04-26T10:05:15Z</time>
      </trkpt>
      <trkpt lat="42.98164" lon="1.13362">
        <ele>381.2</ele>
        <time>2026-04-26T10:05:22Z</time>
      </trkpt>
      <trkpt lat="42.98167" lon="1.13365">
        <ele>380.8</ele>
        <time>2026-04-26T10:05:23Z</time>
      </trkpt>
      <trkpt lat="42.9817" lon="1.13368">
        <ele>380.4</ele>
        <time>2026-04-26T10:05:24Z</time>
      </trkpt>
      <trkpt lat="42.98174" lon="1.1337">
        <ele>380</ele>
        <time>2026-04-26T10:05:25Z</time>
      </trkpt>
      <trkpt lat="42.98177" lon="1.13373">
        <ele>379.6</ele>
        <time>2026-04-26T10:05:26Z</time>
      </trkpt>
      <trkpt lat="42.98181" lon="1.13375">
        <ele>379.6</ele>
        <time>2026-04-26T10:05:27Z</time>
      </trkpt>
      <trkpt lat="42.98197" lon="1.13388">
        <ele>379.6</ele>
        <time>2026-04-26T10:05:32Z</time>
      </trkpt>
      <trkpt lat="42.9821" lon="1.13395">
        <ele>379.6</ele>
        <time>2026-04-26T10:05:36Z</time>
      </trkpt>
      <trkpt lat="42.98213" lon="1.13392">
        <ele>379.6</ele>
        <time>2026-04-26T10:05:37Z</time>
      </trkpt>
      <trkpt lat="42.98222" lon="1.13378">
        <ele>379.6</ele>
        <time>2026-04-26T10:05:40Z</time>
      </trkpt>
      <trkpt lat="42.98225" lon="1.13373">
        <ele>379.6</ele>
        <time>2026-04-26T10:05:41Z</time>
      </trkpt>
      <trkpt lat="42.98235" lon="1.13356">
        <ele>379.6</ele>
        <time>2026-04-26T10:05:44Z</time>
      </trkpt>
      <trkpt lat="42.98239" lon="1.13344">
        <ele>379.6</ele>
        <time>2026-04-26T10:05:46Z</time>
      </trkpt>
      <trkpt lat="42.98246" lon="1.13329">
        <ele>379.6</ele>
        <time>2026-04-26T10:05:50Z</time>
      </trkpt>
      <trkpt lat="42.98257" lon="1.13313">
        <ele>379.6</ele>
        <time>2026-04-26T10:05:54Z</time>
      </trkpt>
      <trkpt lat="42.98274" lon="1.13289">
        <ele>379.6</ele>
        <time>2026-04-26T10:06:00Z</time>
      </trkpt>
      <trkpt lat="42.98282" lon="1.13278">
        <ele>379.6</ele>
        <time>2026-04-26T10:06:05Z</time>
      </trkpt>
      <trkpt lat="42.98284" lon="1.13274">
        <ele>379.6</ele>
        <time>2026-04-26T10:06:09Z</time>
      </trkpt>
      <trkpt lat="42.98287" lon="1.13275">
        <ele>379.6</ele>
        <time>2026-04-26T10:06:12Z</time>
      </trkpt>
      <trkpt lat="42.98288" lon="1.13278">
        <ele>379.6</ele>
        <time>2026-04-26T10:06:14Z</time>
      </trkpt>
      <trkpt lat="42.98291" lon="1.13276">
        <ele>379.6</ele>
        <time>2026-04-26T10:06:18Z</time>
      </trkpt>
      <trkpt lat="42.9829" lon="1.13273">
        <ele>379.6</ele>
        <time>2026-04-26T10:06:19Z</time>
      </trkpt>
      <trkpt lat="42.98287" lon="1.13268">
        <ele>379.6</ele>
        <time>2026-04-26T10:06:23Z</time>
      </trkpt>
      <trkpt lat="42.98287" lon="1.13265">
        <ele>379.6</ele>
        <time>2026-04-26T10:06:25Z</time>
      </trkpt>
      <trkpt lat="42.98285" lon="1.13262">
        <ele>379.6</ele>
        <time>2026-04-26T10:06:27Z</time>
      </trkpt>
      <trkpt lat="42.98277" lon="1.13253">
        <ele>379.6</ele>
        <time>2026-04-26T10:06:31Z</time>
      </trkpt>
      <trkpt lat="42.98276" lon="1.1325">
        <ele>379.6</ele>
        <time>2026-04-26T10:06:32Z</time>
      </trkpt>
      <trkpt lat="42.9828" lon="1.13243">
        <ele>379.6</ele>
        <time>2026-04-26T10:06:36Z</time>
      </trkpt>
      <trkpt lat="42.98284" lon="1.13237">
        <ele>379.6</ele>
        <time>2026-04-26T10:06:39Z</time>
      </trkpt>
      <trkpt lat="42.9829" lon="1.13228">
        <ele>379.6</ele>
        <time>2026-04-26T10:06:43Z</time>
      </trkpt>
      <trkpt lat="42.98297" lon="1.13213">
        <ele>379.6</ele>
        <time>2026-04-26T10:06:49Z</time>
      </trkpt>
      <trkpt lat="42.98299" lon="1.13211">
        <ele>380</ele>
        <time>2026-04-26T10:06:50Z</time>
      </trkpt>
      <trkpt lat="42.983" lon="1.13209">
        <ele>380.6</ele>
        <time>2026-04-26T10:06:51Z</time>
      </trkpt>
      <trkpt lat="42.98301" lon="1.13206">
        <ele>381</ele>
        <time>2026-04-26T10:06:52Z</time>
      </trkpt>
      <trkpt lat="42.98302" lon="1.13204">
        <ele>381.4</ele>
        <time>2026-04-26T10:06:53Z</time>
      </trkpt>
      <trkpt lat="42.98303" lon="1.13201">
        <ele>381.8</ele>
        <time>2026-04-26T10:06:54Z</time>
      </trkpt>
      <trkpt lat="42.98305" lon="1.13197">
        <ele>381.8</ele>
        <time>2026-04-26T10:06:56Z</time>
      </trkpt>
      <trkpt lat="42.98309" lon="1.13188">
        <ele>382.2</ele>
        <time>2026-04-26T10:06:59Z</time>
      </trkpt>
      <trkpt lat="42.98311" lon="1.13186">
        <ele>382.6</ele>
        <time>2026-04-26T10:07:00Z</time>
      </trkpt>
      <trkpt lat="42.98313" lon="1.13184">
        <ele>383.2</ele>
        <time>2026-04-26T10:07:01Z</time>
      </trkpt>
      <trkpt lat="42.98314" lon="1.13181">
        <ele>383.6</ele>
        <time>2026-04-26T10:07:02Z</time>
      </trkpt>
      <trkpt lat="42.98316" lon="1.13178">
        <ele>384</ele>
        <time>2026-04-26T10:07:03Z</time>
      </trkpt>
      <trkpt lat="42.98319" lon="1.13169">
        <ele>384.4</ele>
        <time>2026-04-26T10:07:06Z</time>
      </trkpt>
      <trkpt lat="42.98321" lon="1.13167">
        <ele>384.8</ele>
        <time>2026-04-26T10:07:07Z</time>
      </trkpt>
      <trkpt lat="42.98322" lon="1.13164">
        <ele>385.2</ele>
        <time>2026-04-26T10:07:08Z</time>
      </trkpt>
      <trkpt lat="42.98324" lon="1.13161">
        <ele>385.8</ele>
        <time>2026-04-26T10:07:09Z</time>
      </trkpt>
      <trkpt lat="42.98325" lon="1.13159">
        <ele>386.2</ele>
        <time>2026-04-26T10:07:10Z</time>
      </trkpt>
      <trkpt lat="42.98329" lon="1.13154">
        <ele>386.6</ele>
        <time>2026-04-26T10:07:12Z</time>
      </trkpt>
      <trkpt lat="42.9833" lon="1.13151">
        <ele>387</ele>
        <time>2026-04-26T10:07:13Z</time>
      </trkpt>
      <trkpt lat="42.98331" lon="1.13148">
        <ele>387.8</ele>
        <time>2026-04-26T10:07:14Z</time>
      </trkpt>
      <trkpt lat="42.98332" lon="1.13145">
        <ele>388.2</ele>
        <time>2026-04-26T10:07:15Z</time>
      </trkpt>
      <trkpt lat="42.98333" lon="1.13142">
        <ele>388.2</ele>
        <time>2026-04-26T10:07:16Z</time>
      </trkpt>
      <trkpt lat="42.98335" lon="1.13136">
        <ele>388.6</ele>
        <time>2026-04-26T10:07:18Z</time>
      </trkpt>
      <trkpt lat="42.98337" lon="1.13133">
        <ele>389.2</ele>
        <time>2026-04-26T10:07:19Z</time>
      </trkpt>
      <trkpt lat="42.98338" lon="1.1313">
        <ele>389.6</ele>
        <time>2026-04-26T10:07:20Z</time>
      </trkpt>
      <trkpt lat="42.98339" lon="1.13127">
        <ele>390.2</ele>
        <time>2026-04-26T10:07:21Z</time>
      </trkpt>
      <trkpt lat="42.98339" lon="1.13124">
        <ele>390.6</ele>
        <time>2026-04-26T10:07:22Z</time>
      </trkpt>
      <trkpt lat="42.98341" lon="1.13118">
        <ele>391</ele>
        <time>2026-04-26T10:07:24Z</time>
      </trkpt>
      <trkpt lat="42.98342" lon="1.13115">
        <ele>391.4</ele>
        <time>2026-04-26T10:07:25Z</time>
      </trkpt>
      <trkpt lat="42.98343" lon="1.13111">
        <ele>392</ele>
        <time>2026-04-26T10:07:26Z</time>
      </trkpt>
      <trkpt lat="42.98345" lon="1.13108">
        <ele>392.4</ele>
        <time>2026-04-26T10:07:27Z</time>
      </trkpt>
      <trkpt lat="42.98346" lon="1.13105">
        <ele>392.8</ele>
        <time>2026-04-26T10:07:28Z</time>
      </trkpt>
      <trkpt lat="42.98347" lon="1.13102">
        <ele>392.8</ele>
        <time>2026-04-26T10:07:29Z</time>
      </trkpt>
      <trkpt lat="42.98349" lon="1.13097">
        <ele>393.2</ele>
        <time>2026-04-26T10:07:31Z</time>
      </trkpt>
      <trkpt lat="42.9835" lon="1.13095">
        <ele>393.8</ele>
        <time>2026-04-26T10:07:32Z</time>
      </trkpt>
      <trkpt lat="42.98352" lon="1.13093">
        <ele>394.2</ele>
        <time>2026-04-26T10:07:33Z</time>
      </trkpt>
      <trkpt lat="42.98354" lon="1.1309">
        <ele>394.6</ele>
        <time>2026-04-26T10:07:34Z</time>
      </trkpt>
      <trkpt lat="42.98356" lon="1.13087">
        <ele>395.2</ele>
        <time>2026-04-26T10:07:35Z</time>
      </trkpt>
      <trkpt lat="42.98362" lon="1.13078">
        <ele>395.6</ele>
        <time>2026-04-26T10:07:38Z</time>
      </trkpt>
      <trkpt lat="42.98363" lon="1.13075">
        <ele>396.4</ele>
        <time>2026-04-26T10:07:39Z</time>
      </trkpt>
      <trkpt lat="42.98365" lon="1.13073">
        <ele>396.8</ele>
        <time>2026-04-26T10:07:40Z</time>
      </trkpt>
      <trkpt lat="42.98367" lon="1.1307">
        <ele>397.2</ele>
        <time>2026-04-26T10:07:41Z</time>
      </trkpt>
      <trkpt lat="42.9837" lon="1.13064">
        <ele>397.2</ele>
        <time>2026-04-26T10:07:43Z</time>
      </trkpt>
      <trkpt lat="42.98374" lon="1.13058">
        <ele>397.6</ele>
        <time>2026-04-26T10:07:45Z</time>
      </trkpt>
      <trkpt lat="42.98376" lon="1.13055">
        <ele>398</ele>
        <time>2026-04-26T10:07:46Z</time>
      </trkpt>
      <trkpt lat="42.98378" lon="1.13052">
        <ele>398.4</ele>
        <time>2026-04-26T10:07:47Z</time>
      </trkpt>
      <trkpt lat="42.9838" lon="1.13048">
        <ele>398.8</ele>
        <time>2026-04-26T10:07:48Z</time>
      </trkpt>
      <trkpt lat="42.98383" lon="1.13046">
        <ele>399.4</ele>
        <time>2026-04-26T10:07:49Z</time>
      </trkpt>
      <trkpt lat="42.98394" lon="1.13024">
        <ele>399.8</ele>
        <time>2026-04-26T10:07:55Z</time>
      </trkpt>
      <trkpt lat="42.98396" lon="1.13021">
        <ele>400.2</ele>
        <time>2026-04-26T10:07:56Z</time>
      </trkpt>
      <trkpt lat="42.98397" lon="1.13017">
        <ele>400.6</ele>
        <time>2026-04-26T10:07:57Z</time>
      </trkpt>
      <trkpt lat="42.984" lon="1.13014">
        <ele>401</ele>
        <time>2026-04-26T10:07:58Z</time>
      </trkpt>
      <trkpt lat="42.98402" lon="1.13011">
        <ele>401.4</ele>
        <time>2026-04-26T10:07:59Z</time>
      </trkpt>
      <trkpt lat="42.98412" lon="1.12993">
        <ele>401.8</ele>
        <time>2026-04-26T10:08:04Z</time>
      </trkpt>
      <trkpt lat="42.98415" lon="1.12991">
        <ele>402.2</ele>
        <time>2026-04-26T10:08:05Z</time>
      </trkpt>
      <trkpt lat="42.98417" lon="1.12988">
        <ele>402.6</ele>
        <time>2026-04-26T10:08:06Z</time>
      </trkpt>
      <trkpt lat="42.98419" lon="1.12985">
        <ele>403</ele>
        <time>2026-04-26T10:08:07Z</time>
      </trkpt>
      <trkpt lat="42.9842" lon="1.12982">
        <ele>403.4</ele>
        <time>2026-04-26T10:08:08Z</time>
      </trkpt>
      <trkpt lat="42.98425" lon="1.12974">
        <ele>403.4</ele>
        <time>2026-04-26T10:08:11Z</time>
      </trkpt>
      <trkpt lat="42.9843" lon="1.12973">
        <ele>403.4</ele>
        <time>2026-04-26T10:08:13Z</time>
      </trkpt>
      <trkpt lat="42.98434" lon="1.12976">
        <ele>403.8</ele>
        <time>2026-04-26T10:08:15Z</time>
      </trkpt>
      <trkpt lat="42.98437" lon="1.12979">
        <ele>404.2</ele>
        <time>2026-04-26T10:08:16Z</time>
      </trkpt>
      <trkpt lat="42.9844" lon="1.12981">
        <ele>404.6</ele>
        <time>2026-04-26T10:08:17Z</time>
      </trkpt>
      <trkpt lat="42.98443" lon="1.12984">
        <ele>405</ele>
        <time>2026-04-26T10:08:18Z</time>
      </trkpt>
      <trkpt lat="42.98445" lon="1.12986">
        <ele>405.4</ele>
        <time>2026-04-26T10:08:19Z</time>
      </trkpt>
      <trkpt lat="42.98451" lon="1.12992">
        <ele>405.4</ele>
        <time>2026-04-26T10:08:21Z</time>
      </trkpt>
      <trkpt lat="42.98475" lon="1.13015">
        <ele>405.4</ele>
        <time>2026-04-26T10:08:29Z</time>
      </trkpt>
      <trkpt lat="42.98496" lon="1.13037">
        <ele>405.4</ele>
        <time>2026-04-26T10:08:36Z</time>
      </trkpt>
      <trkpt lat="42.98499" lon="1.13039">
        <ele>405.8</ele>
        <time>2026-04-26T10:08:37Z</time>
      </trkpt>
      <trkpt lat="42.98502" lon="1.13042">
        <ele>406.2</ele>
        <time>2026-04-26T10:08:38Z</time>
      </trkpt>
      <trkpt lat="42.98505" lon="1.13045">
        <ele>406.6</ele>
        <time>2026-04-26T10:08:39Z</time>
      </trkpt>
      <trkpt lat="42.98508" lon="1.13048">
        <ele>407</ele>
        <time>2026-04-26T10:08:40Z</time>
      </trkpt>
      <trkpt lat="42.98512" lon="1.13051">
        <ele>407.4</ele>
        <time>2026-04-26T10:08:41Z</time>
      </trkpt>
      <trkpt lat="42.98522" lon="1.1306">
        <ele>407.4</ele>
        <time>2026-04-26T10:08:44Z</time>
      </trkpt>
      <trkpt lat="42.98546" lon="1.13081">
        <ele>407.4</ele>
        <time>2026-04-26T10:08:51Z</time>
      </trkpt>
      <trkpt lat="42.98577" lon="1.13108">
        <ele>407.4</ele>
        <time>2026-04-26T10:08:59Z</time>
      </trkpt>
      <trkpt lat="42.98589" lon="1.13117">
        <ele>407.4</ele>
        <time>2026-04-26T10:09:02Z</time>
      </trkpt>
      <trkpt lat="42.98599" lon="1.13125">
        <ele>407.4</ele>
        <time>2026-04-26T10:09:05Z</time>
      </trkpt>
      <trkpt lat="42.98628" lon="1.13142">
        <ele>407.4</ele>
        <time>2026-04-26T10:09:12Z</time>
      </trkpt>
      <trkpt lat="42.98649" lon="1.13161">
        <ele>407.4</ele>
        <time>2026-04-26T10:09:17Z</time>
      </trkpt>
      <trkpt lat="42.98658" lon="1.1317">
        <ele>407.4</ele>
        <time>2026-04-26T10:09:19Z</time>
      </trkpt>
      <trkpt lat="42.98689" lon="1.13197">
        <ele>407.4</ele>
        <time>2026-04-26T10:09:26Z</time>
      </trkpt>
      <trkpt lat="42.98718" lon="1.13212">
        <ele>407.4</ele>
        <time>2026-04-26T10:09:32Z</time>
      </trkpt>
      <trkpt lat="42.98738" lon="1.13222">
        <ele>407</ele>
        <time>2026-04-26T10:09:36Z</time>
      </trkpt>
      <trkpt lat="42.98743" lon="1.13224">
        <ele>406.6</ele>
        <time>2026-04-26T10:09:37Z</time>
      </trkpt>
      <trkpt lat="42.98748" lon="1.13226">
        <ele>406.2</ele>
        <time>2026-04-26T10:09:38Z</time>
      </trkpt>
      <trkpt lat="42.98753" lon="1.1323">
        <ele>405.8</ele>
        <time>2026-04-26T10:09:39Z</time>
      </trkpt>
      <trkpt lat="42.98759" lon="1.13233">
        <ele>405.4</ele>
        <time>2026-04-26T10:09:40Z</time>
      </trkpt>
      <trkpt lat="42.98788" lon="1.13256">
        <ele>405.4</ele>
        <time>2026-04-26T10:09:46Z</time>
      </trkpt>
      <trkpt lat="42.98823" lon="1.13286">
        <ele>405.4</ele>
        <time>2026-04-26T10:09:53Z</time>
      </trkpt>
      <trkpt lat="42.98864" lon="1.13319">
        <ele>405.4</ele>
        <time>2026-04-26T10:10:01Z</time>
      </trkpt>
      <trkpt lat="42.9887" lon="1.13323">
        <ele>405</ele>
        <time>2026-04-26T10:10:02Z</time>
      </trkpt>
      <trkpt lat="42.98875" lon="1.13327">
        <ele>404.4</ele>
        <time>2026-04-26T10:10:03Z</time>
      </trkpt>
      <trkpt lat="42.9888" lon="1.13331">
        <ele>404</ele>
        <time>2026-04-26T10:10:04Z</time>
      </trkpt>
      <trkpt lat="42.98886" lon="1.13335">
        <ele>403.6</ele>
        <time>2026-04-26T10:10:05Z</time>
      </trkpt>
      <trkpt lat="42.98892" lon="1.13338">
        <ele>403</ele>
        <time>2026-04-26T10:10:06Z</time>
      </trkpt>
      <trkpt lat="42.98909" lon="1.13349">
        <ele>403</ele>
        <time>2026-04-26T10:10:09Z</time>
      </trkpt>
      <trkpt lat="42.9892" lon="1.13354">
        <ele>402.6</ele>
        <time>2026-04-26T10:10:11Z</time>
      </trkpt>
      <trkpt lat="42.98926" lon="1.13357">
        <ele>402.2</ele>
        <time>2026-04-26T10:10:12Z</time>
      </trkpt>
      <trkpt lat="42.98932" lon="1.13359">
        <ele>401.8</ele>
        <time>2026-04-26T10:10:13Z</time>
      </trkpt>
      <trkpt lat="42.98938" lon="1.13361">
        <ele>401.4</ele>
        <time>2026-04-26T10:10:14Z</time>
      </trkpt>
      <trkpt lat="42.98944" lon="1.13363">
        <ele>401</ele>
        <time>2026-04-26T10:10:15Z</time>
      </trkpt>
      <trkpt lat="42.98951" lon="1.13364">
        <ele>401</ele>
        <time>2026-04-26T10:10:16Z</time>
      </trkpt>
      <trkpt lat="42.98986" lon="1.13369">
        <ele>401</ele>
        <time>2026-04-26T10:10:22Z</time>
      </trkpt>
      <trkpt lat="42.99027" lon="1.13367">
        <ele>401</ele>
        <time>2026-04-26T10:10:29Z</time>
      </trkpt>
      <trkpt lat="42.99054" lon="1.13365">
        <ele>400.6</ele>
        <time>2026-04-26T10:10:33Z</time>
      </trkpt>
      <trkpt lat="42.99061" lon="1.13364">
        <ele>400.2</ele>
        <time>2026-04-26T10:10:34Z</time>
      </trkpt>
      <trkpt lat="42.99068" lon="1.13363">
        <ele>399.8</ele>
        <time>2026-04-26T10:10:35Z</time>
      </trkpt>
      <trkpt lat="42.99076" lon="1.13362">
        <ele>399.4</ele>
        <time>2026-04-26T10:10:36Z</time>
      </trkpt>
      <trkpt lat="42.99083" lon="1.1336">
        <ele>399</ele>
        <time>2026-04-26T10:10:37Z</time>
      </trkpt>
      <trkpt lat="42.99098" lon="1.13358">
        <ele>398.6</ele>
        <time>2026-04-26T10:10:39Z</time>
      </trkpt>
      <trkpt lat="42.99105" lon="1.13356">
        <ele>398.2</ele>
        <time>2026-04-26T10:10:40Z</time>
      </trkpt>
      <trkpt lat="42.99112" lon="1.13355">
        <ele>397.8</ele>
        <time>2026-04-26T10:10:41Z</time>
      </trkpt>
      <trkpt lat="42.99119" lon="1.13354">
        <ele>397.4</ele>
        <time>2026-04-26T10:10:42Z</time>
      </trkpt>
      <trkpt lat="42.99127" lon="1.13353">
        <ele>397</ele>
        <time>2026-04-26T10:10:43Z</time>
      </trkpt>
      <trkpt lat="42.99141" lon="1.13353">
        <ele>397</ele>
        <time>2026-04-26T10:10:45Z</time>
      </trkpt>
      <trkpt lat="42.99154" lon="1.13357">
        <ele>397</ele>
        <time>2026-04-26T10:10:47Z</time>
      </trkpt>
      <trkpt lat="42.99177" lon="1.13364">
        <ele>396.4</ele>
        <time>2026-04-26T10:10:51Z</time>
      </trkpt>
      <trkpt lat="42.99182" lon="1.13367">
        <ele>396</ele>
        <time>2026-04-26T10:10:52Z</time>
      </trkpt>
      <trkpt lat="42.99187" lon="1.1337">
        <ele>395.6</ele>
        <time>2026-04-26T10:10:53Z</time>
      </trkpt>
      <trkpt lat="42.99192" lon="1.13373">
        <ele>395.2</ele>
        <time>2026-04-26T10:10:54Z</time>
      </trkpt>
      <trkpt lat="42.99198" lon="1.13375">
        <ele>394.8</ele>
        <time>2026-04-26T10:10:55Z</time>
      </trkpt>
      <trkpt lat="42.99213" lon="1.13383">
        <ele>394.8</ele>
        <time>2026-04-26T10:10:58Z</time>
      </trkpt>
      <trkpt lat="42.99242" lon="1.13398">
        <ele>394.8</ele>
        <time>2026-04-26T10:11:04Z</time>
      </trkpt>
      <trkpt lat="42.99266" lon="1.13403">
        <ele>394.8</ele>
        <time>2026-04-26T10:11:10Z</time>
      </trkpt>
      <trkpt lat="42.9929" lon="1.13404">
        <ele>394.8</ele>
        <time>2026-04-26T10:11:15Z</time>
      </trkpt>
      <trkpt lat="42.99295" lon="1.13405">
        <ele>394.8</ele>
        <time>2026-04-26T10:11:16Z</time>
      </trkpt>
      <trkpt lat="42.99307" lon="1.13409">
        <ele>394.8</ele>
        <time>2026-04-26T10:11:19Z</time>
      </trkpt>
      <trkpt lat="42.99323" lon="1.13417">
        <ele>394.8</ele>
        <time>2026-04-26T10:11:23Z</time>
      </trkpt>
      <trkpt lat="42.99327" lon="1.1342">
        <ele>394.8</ele>
        <time>2026-04-26T10:11:24Z</time>
      </trkpt>
      <trkpt lat="42.99346" lon="1.13439">
        <ele>394.8</ele>
        <time>2026-04-26T10:11:30Z</time>
      </trkpt>
      <trkpt lat="42.9936" lon="1.13457">
        <ele>394.8</ele>
        <time>2026-04-26T10:11:35Z</time>
      </trkpt>
      <trkpt lat="42.99374" lon="1.13469">
        <ele>394.8</ele>
        <time>2026-04-26T10:11:40Z</time>
      </trkpt>
      <trkpt lat="42.99387" lon="1.13473">
        <ele>394.8</ele>
        <time>2026-04-26T10:11:45Z</time>
      </trkpt>
      <trkpt lat="42.9939" lon="1.13474">
        <ele>395.2</ele>
        <time>2026-04-26T10:11:46Z</time>
      </trkpt>
      <trkpt lat="42.99393" lon="1.13474">
        <ele>395.6</ele>
        <time>2026-04-26T10:11:47Z</time>
      </trkpt>
      <trkpt lat="42.99396" lon="1.13475">
        <ele>396</ele>
        <time>2026-04-26T10:11:48Z</time>
      </trkpt>
      <trkpt lat="42.994" lon="1.13476">
        <ele>396.4</ele>
        <time>2026-04-26T10:11:49Z</time>
      </trkpt>
      <trkpt lat="42.99403" lon="1.13476">
        <ele>396.8</ele>
        <time>2026-04-26T10:11:50Z</time>
      </trkpt>
      <trkpt lat="42.99407" lon="1.13477">
        <ele>396.8</ele>
        <time>2026-04-26T10:11:51Z</time>
      </trkpt>
      <trkpt lat="42.99426" lon="1.13479">
        <ele>396.8</ele>
        <time>2026-04-26T10:11:57Z</time>
      </trkpt>
      <trkpt lat="42.99444" lon="1.13481">
        <ele>396.8</ele>
        <time>2026-04-26T10:12:02Z</time>
      </trkpt>
      <trkpt lat="42.99475" lon="1.13478">
        <ele>396.8</ele>
        <time>2026-04-26T10:12:08Z</time>
      </trkpt>
      <trkpt lat="42.99495" lon="1.13468">
        <ele>396.8</ele>
        <time>2026-04-26T10:12:13Z</time>
      </trkpt>
      <trkpt lat="42.99523" lon="1.13454">
        <ele>396.8</ele>
        <time>2026-04-26T10:12:20Z</time>
      </trkpt>
      <trkpt lat="42.99549" lon="1.1345">
        <ele>396.8</ele>
        <time>2026-04-26T10:12:26Z</time>
      </trkpt>
      <trkpt lat="42.99578" lon="1.13447">
        <ele>396.8</ele>
        <time>2026-04-26T10:12:32Z</time>
      </trkpt>
      <trkpt lat="42.99583" lon="1.13447">
        <ele>396.4</ele>
        <time>2026-04-26T10:12:33Z</time>
      </trkpt>
      <trkpt lat="42.99587" lon="1.13447">
        <ele>395.8</ele>
        <time>2026-04-26T10:12:34Z</time>
      </trkpt>
      <trkpt lat="42.9959" lon="1.13448">
        <ele>395.4</ele>
        <time>2026-04-26T10:12:35Z</time>
      </trkpt>
      <trkpt lat="42.99595" lon="1.13445">
        <ele>394.6</ele>
        <time>2026-04-26T10:12:36Z</time>
      </trkpt>
      <trkpt lat="42.99609" lon="1.13437">
        <ele>394.2</ele>
        <time>2026-04-26T10:12:39Z</time>
      </trkpt>
      <trkpt lat="42.99613" lon="1.13433">
        <ele>393.6</ele>
        <time>2026-04-26T10:12:40Z</time>
      </trkpt>
      <trkpt lat="42.99618" lon="1.1343">
        <ele>393.2</ele>
        <time>2026-04-26T10:12:41Z</time>
      </trkpt>
      <trkpt lat="42.99625" lon="1.13426">
        <ele>392.8</ele>
        <time>2026-04-26T10:12:42Z</time>
      </trkpt>
      <trkpt lat="42.99633" lon="1.13422">
        <ele>392.4</ele>
        <time>2026-04-26T10:12:43Z</time>
      </trkpt>
      <trkpt lat="42.99646" lon="1.13419">
        <ele>392.4</ele>
        <time>2026-04-26T10:12:45Z</time>
      </trkpt>
      <trkpt lat="42.99653" lon="1.13418">
        <ele>392</ele>
        <time>2026-04-26T10:12:46Z</time>
      </trkpt>
      <trkpt lat="42.9966" lon="1.13418">
        <ele>391.6</ele>
        <time>2026-04-26T10:12:47Z</time>
      </trkpt>
      <trkpt lat="42.99667" lon="1.13419">
        <ele>391</ele>
        <time>2026-04-26T10:12:48Z</time>
      </trkpt>
      <trkpt lat="42.99675" lon="1.13422">
        <ele>390.6</ele>
        <time>2026-04-26T10:12:49Z</time>
      </trkpt>
      <trkpt lat="42.99681" lon="1.13425">
        <ele>390.2</ele>
        <time>2026-04-26T10:12:50Z</time>
      </trkpt>
      <trkpt lat="42.99686" lon="1.13429">
        <ele>389.6</ele>
        <time>2026-04-26T10:12:51Z</time>
      </trkpt>
      <trkpt lat="42.99691" lon="1.13432">
        <ele>389</ele>
        <time>2026-04-26T10:12:52Z</time>
      </trkpt>
      <trkpt lat="42.99697" lon="1.13436">
        <ele>388.6</ele>
        <time>2026-04-26T10:12:53Z</time>
      </trkpt>
      <trkpt lat="42.99701" lon="1.1344">
        <ele>387.8</ele>
        <time>2026-04-26T10:12:54Z</time>
      </trkpt>
      <trkpt lat="42.99706" lon="1.13445">
        <ele>387.2</ele>
        <time>2026-04-26T10:12:55Z</time>
      </trkpt>
      <trkpt lat="42.99711" lon="1.13449">
        <ele>386.6</ele>
        <time>2026-04-26T10:12:56Z</time>
      </trkpt>
      <trkpt lat="42.99716" lon="1.13453">
        <ele>385.8</ele>
        <time>2026-04-26T10:12:57Z</time>
      </trkpt>
      <trkpt lat="42.9972" lon="1.13457">
        <ele>385</ele>
        <time>2026-04-26T10:12:58Z</time>
      </trkpt>
      <trkpt lat="42.99724" lon="1.1346">
        <ele>384.2</ele>
        <time>2026-04-26T10:12:59Z</time>
      </trkpt>
      <trkpt lat="42.99728" lon="1.13461">
        <ele>382.6</ele>
        <time>2026-04-26T10:13:00Z</time>
      </trkpt>
      <trkpt lat="42.99731" lon="1.13461">
        <ele>381.8</ele>
        <time>2026-04-26T10:13:01Z</time>
      </trkpt>
      <trkpt lat="42.99737" lon="1.13456">
        <ele>381</ele>
        <time>2026-04-26T10:13:02Z</time>
      </trkpt>
      <trkpt lat="42.99741" lon="1.13452">
        <ele>380.2</ele>
        <time>2026-04-26T10:13:03Z</time>
      </trkpt>
      <trkpt lat="42.99747" lon="1.13451">
        <ele>379.4</ele>
        <time>2026-04-26T10:13:04Z</time>
      </trkpt>
      <trkpt lat="42.99752" lon="1.1345">
        <ele>378.8</ele>
        <time>2026-04-26T10:13:05Z</time>
      </trkpt>
      <trkpt lat="42.99756" lon="1.13449">
        <ele>378</ele>
        <time>2026-04-26T10:13:06Z</time>
      </trkpt>
      <trkpt lat="42.99761" lon="1.13449">
        <ele>377.2</ele>
        <time>2026-04-26T10:13:07Z</time>
      </trkpt>
      <trkpt lat="42.99767" lon="1.1345">
        <ele>376.4</ele>
        <time>2026-04-26T10:13:08Z</time>
      </trkpt>
      <trkpt lat="42.99773" lon="1.1345">
        <ele>375.6</ele>
        <time>2026-04-26T10:13:09Z</time>
      </trkpt>
      <trkpt lat="42.9978" lon="1.1345">
        <ele>374.6</ele>
        <time>2026-04-26T10:13:10Z</time>
      </trkpt>
      <trkpt lat="42.9979" lon="1.13454">
        <ele>374</ele>
        <time>2026-04-26T10:13:11Z</time>
      </trkpt>
      <trkpt lat="42.99799" lon="1.13456">
        <ele>373.2</ele>
        <time>2026-04-26T10:13:12Z</time>
      </trkpt>
      <trkpt lat="42.99811" lon="1.13459">
        <ele>372.4</ele>
        <time>2026-04-26T10:13:13Z</time>
      </trkpt>
      <trkpt lat="42.99818" lon="1.13462">
        <ele>371.6</ele>
        <time>2026-04-26T10:13:14Z</time>
      </trkpt>
      <trkpt lat="42.99825" lon="1.13465">
        <ele>370.6</ele>
        <time>2026-04-26T10:13:15Z</time>
      </trkpt>
      <trkpt lat="42.99832" lon="1.13467">
        <ele>369.8</ele>
        <time>2026-04-26T10:13:16Z</time>
      </trkpt>
      <trkpt lat="42.99843" lon="1.13469">
        <ele>369</ele>
        <time>2026-04-26T10:13:17Z</time>
      </trkpt>
      <trkpt lat="42.99853" lon="1.1347">
        <ele>368.2</ele>
        <time>2026-04-26T10:13:18Z</time>
      </trkpt>
      <trkpt lat="42.9986" lon="1.13471">
        <ele>367.4</ele>
        <time>2026-04-26T10:13:19Z</time>
      </trkpt>
      <trkpt lat="42.99865" lon="1.13472">
        <ele>366.6</ele>
        <time>2026-04-26T10:13:20Z</time>
      </trkpt>
      <trkpt lat="42.99869" lon="1.13474">
        <ele>365.8</ele>
        <time>2026-04-26T10:13:21Z</time>
      </trkpt>
      <trkpt lat="42.9989" lon="1.13477">
        <ele>365.8</ele>
        <time>2026-04-26T10:13:25Z</time>
      </trkpt>
      <trkpt lat="42.99896" lon="1.13476">
        <ele>366.2</ele>
        <time>2026-04-26T10:13:27Z</time>
      </trkpt>
      <trkpt lat="42.99899" lon="1.13476">
        <ele>366.6</ele>
        <time>2026-04-26T10:13:28Z</time>
      </trkpt>
      <trkpt lat="42.99901" lon="1.13475">
        <ele>367</ele>
        <time>2026-04-26T10:13:29Z</time>
      </trkpt>
      <trkpt lat="42.99902" lon="1.13474">
        <ele>367.4</ele>
        <time>2026-04-26T10:13:30Z</time>
      </trkpt>
      <trkpt lat="42.99904" lon="1.13474">
        <ele>367.8</ele>
        <time>2026-04-26T10:13:31Z</time>
      </trkpt>
      <trkpt lat="42.99906" lon="1.13477">
        <ele>367.8</ele>
        <time>2026-04-26T10:13:33Z</time>
      </trkpt>
      <trkpt lat="42.99905" lon="1.13477">
        <ele>367.8</ele>
        <time>2026-04-26T10:13:34Z</time>
      </trkpt>
      <trkpt lat="42.99898" lon="1.1348">
        <ele>367.8</ele>
        <time>2026-04-26T10:13:37Z</time>
      </trkpt>
      <trkpt lat="42.99893" lon="1.13483">
        <ele>367.8</ele>
        <time>2026-04-26T10:13:41Z</time>
      </trkpt>
      <trkpt lat="42.99892" lon="1.13484">
        <ele>367.8</ele>
        <time>2026-04-26T10:13:42Z</time>
      </trkpt>
      <trkpt lat="42.99881" lon="1.13488">
        <ele>367.8</ele>
        <time>2026-04-26T10:13:47Z</time>
      </trkpt>
      <trkpt lat="42.9987" lon="1.13492">
        <ele>367.8</ele>
        <time>2026-04-26T10:13:52Z</time>
      </trkpt>
      <trkpt lat="42.99849" lon="1.13498">
        <ele>367.8</ele>
        <time>2026-04-26T10:13:59Z</time>
      </trkpt>
      <trkpt lat="42.99822" lon="1.1351">
        <ele>367.8</ele>
        <time>2026-04-26T10:14:07Z</time>
      </trkpt>
      <trkpt lat="42.99792" lon="1.13525">
        <ele>367.8</ele>
        <time>2026-04-26T10:14:16Z</time>
      </trkpt>
      <trkpt lat="42.99777" lon="1.13533">
        <ele>368.2</ele>
        <time>2026-04-26T10:14:20Z</time>
      </trkpt>
      <trkpt lat="42.99773" lon="1.13535">
        <ele>368.6</ele>
        <time>2026-04-26T10:14:21Z</time>
      </trkpt>
      <trkpt lat="42.99769" lon="1.13536">
        <ele>369</ele>
        <time>2026-04-26T10:14:22Z</time>
      </trkpt>
      <trkpt lat="42.99766" lon="1.13539">
        <ele>369.4</ele>
        <time>2026-04-26T10:14:23Z</time>
      </trkpt>
      <trkpt lat="42.99762" lon="1.13541">
        <ele>369.8</ele>
        <time>2026-04-26T10:14:24Z</time>
      </trkpt>
      <trkpt lat="42.99731" lon="1.13556">
        <ele>369.8</ele>
        <time>2026-04-26T10:14:32Z</time>
      </trkpt>
      <trkpt lat="42.99705" lon="1.13568">
        <ele>369.8</ele>
        <time>2026-04-26T10:14:39Z</time>
      </trkpt>
      <trkpt lat="42.99676" lon="1.13582">
        <ele>369.8</ele>
        <time>2026-04-26T10:14:46Z</time>
      </trkpt>
      <trkpt lat="42.99642" lon="1.13595">
        <ele>369.8</ele>
        <time>2026-04-26T10:14:54Z</time>
      </trkpt>
      <trkpt lat="42.99626" lon="1.13603">
        <ele>369.8</ele>
        <time>2026-04-26T10:14:58Z</time>
      </trkpt>
      <trkpt lat="42.99618" lon="1.13607">
        <ele>369.8</ele>
        <time>2026-04-26T10:15:00Z</time>
      </trkpt>
      <trkpt lat="42.99613" lon="1.13608">
        <ele>369.8</ele>
        <time>2026-04-26T10:15:01Z</time>
      </trkpt>
      <trkpt lat="42.99601" lon="1.13613">
        <ele>370.2</ele>
        <time>2026-04-26T10:15:04Z</time>
      </trkpt>
      <trkpt lat="42.99597" lon="1.13614">
        <ele>370.6</ele>
        <time>2026-04-26T10:15:05Z</time>
      </trkpt>
      <trkpt lat="42.99592" lon="1.13615">
        <ele>371</ele>
        <time>2026-04-26T10:15:06Z</time>
      </trkpt>
      <trkpt lat="42.99587" lon="1.13616">
        <ele>371.4</ele>
        <time>2026-04-26T10:15:07Z</time>
      </trkpt>
      <trkpt lat="42.99583" lon="1.13618">
        <ele>371.8</ele>
        <time>2026-04-26T10:15:08Z</time>
      </trkpt>
      <trkpt lat="42.99565" lon="1.13621">
        <ele>371.8</ele>
        <time>2026-04-26T10:15:12Z</time>
      </trkpt>
      <trkpt lat="42.99528" lon="1.13628">
        <ele>371.8</ele>
        <time>2026-04-26T10:15:20Z</time>
      </trkpt>
      <trkpt lat="42.99493" lon="1.13637">
        <ele>371.8</ele>
        <time>2026-04-26T10:15:28Z</time>
      </trkpt>
      <trkpt lat="42.99461" lon="1.13645">
        <ele>371.8</ele>
        <time>2026-04-26T10:15:35Z</time>
      </trkpt>
      <trkpt lat="42.99452" lon="1.13649">
        <ele>371.8</ele>
        <time>2026-04-26T10:15:37Z</time>
      </trkpt>
      <trkpt lat="42.9943" lon="1.13658">
        <ele>371.8</ele>
        <time>2026-04-26T10:15:42Z</time>
      </trkpt>
      <trkpt lat="42.99398" lon="1.1367">
        <ele>372.2</ele>
        <time>2026-04-26T10:15:49Z</time>
      </trkpt>
      <trkpt lat="42.99393" lon="1.13671">
        <ele>372.6</ele>
        <time>2026-04-26T10:15:50Z</time>
      </trkpt>
      <trkpt lat="42.99388" lon="1.13673">
        <ele>373</ele>
        <time>2026-04-26T10:15:51Z</time>
      </trkpt>
      <trkpt lat="42.99383" lon="1.13675">
        <ele>373.4</ele>
        <time>2026-04-26T10:15:52Z</time>
      </trkpt>
      <trkpt lat="42.99378" lon="1.13677">
        <ele>373.8</ele>
        <time>2026-04-26T10:15:53Z</time>
      </trkpt>
      <trkpt lat="42.99365" lon="1.13682">
        <ele>373.8</ele>
        <time>2026-04-26T10:15:56Z</time>
      </trkpt>
      <trkpt lat="42.9933" lon="1.13696">
        <ele>373.8</ele>
        <time>2026-04-26T10:16:03Z</time>
      </trkpt>
      <trkpt lat="42.99286" lon="1.13711">
        <ele>373.8</ele>
        <time>2026-04-26T10:16:12Z</time>
      </trkpt>
      <trkpt lat="42.99245" lon="1.13728">
        <ele>373.8</ele>
        <time>2026-04-26T10:16:20Z</time>
      </trkpt>
      <trkpt lat="42.99197" lon="1.13746">
        <ele>373.8</ele>
        <time>2026-04-26T10:16:29Z</time>
      </trkpt>
      <trkpt lat="42.99176" lon="1.13758">
        <ele>373.8</ele>
        <time>2026-04-26T10:16:33Z</time>
      </trkpt>
      <trkpt lat="42.9916" lon="1.1377">
        <ele>373.8</ele>
        <time>2026-04-26T10:16:36Z</time>
      </trkpt>
      <trkpt lat="42.99124" lon="1.13787">
        <ele>373.8</ele>
        <time>2026-04-26T10:16:43Z</time>
      </trkpt>
      <trkpt lat="42.99089" lon="1.13791">
        <ele>373.8</ele>
        <time>2026-04-26T10:16:50Z</time>
      </trkpt>
      <trkpt lat="42.99051" lon="1.13795">
        <ele>373.8</ele>
        <time>2026-04-26T10:16:58Z</time>
      </trkpt>
      <trkpt lat="42.99022" lon="1.13798">
        <ele>373.8</ele>
        <time>2026-04-26T10:17:04Z</time>
      </trkpt>
      <trkpt lat="42.99016" lon="1.138">
        <ele>373.8</ele>
        <time>2026-04-26T10:17:05Z</time>
      </trkpt>
      <trkpt lat="42.98981" lon="1.13806">
        <ele>373.8</ele>
        <time>2026-04-26T10:17:11Z</time>
      </trkpt>
      <trkpt lat="42.9897" lon="1.13811">
        <ele>373.8</ele>
        <time>2026-04-26T10:17:13Z</time>
      </trkpt>
      <trkpt lat="42.98959" lon="1.13813">
        <ele>373.8</ele>
        <time>2026-04-26T10:17:15Z</time>
      </trkpt>
      <trkpt lat="42.98953" lon="1.13814">
        <ele>373.8</ele>
        <time>2026-04-26T10:17:16Z</time>
      </trkpt>
      <trkpt lat="42.98909" lon="1.13825">
        <ele>373.8</ele>
        <time>2026-04-26T10:17:24Z</time>
      </trkpt>
      <trkpt lat="42.98882" lon="1.13832">
        <ele>373.8</ele>
        <time>2026-04-26T10:17:29Z</time>
      </trkpt>
      <trkpt lat="42.98872" lon="1.13838">
        <ele>373.8</ele>
        <time>2026-04-26T10:17:31Z</time>
      </trkpt>
      <trkpt lat="42.98863" lon="1.13842">
        <ele>373.8</ele>
        <time>2026-04-26T10:17:33Z</time>
      </trkpt>
      <trkpt lat="42.98852" lon="1.13847">
        <ele>373.8</ele>
        <time>2026-04-26T10:17:36Z</time>
      </trkpt>
      <trkpt lat="42.98848" lon="1.1385">
        <ele>391.2</ele>
      </trkpt>
      <trkpt lat="42.98845" lon="1.1386">
        <ele>391</ele>
      </trkpt>
      <trkpt lat="42.98844" lon="1.13873">
        <ele>391</ele>
      </trkpt>
      <trkpt lat="42.98843" lon="1.13879">
        <ele>391</ele>
      </trkpt>
      <trkpt lat="42.98844" lon="1.13887">
        <ele>391</ele>
      </trkpt>
      <trkpt lat="42.98846" lon="1.13894">
        <ele>390.9</ele>
      </trkpt>
      <trkpt lat="42.98851" lon="1.13907">
        <ele>390.6</ele>
      </trkpt>
      <trkpt lat="42.98847" lon="1.13918">
        <ele>390.5</ele>
      </trkpt>
      <trkpt lat="42.98839" lon="1.1392">
        <ele>390.7</ele>
      </trkpt>
      <trkpt lat="42.98832" lon="1.13921">
        <ele>390.8</ele>
      </trkpt>
      <trkpt lat="42.98823" lon="1.13922">
        <ele>390.8</ele>
      </trkpt>
      <trkpt lat="42.98818" lon="1.13923">
        <ele>390.8</ele>
      </trkpt>
      <trkpt lat="42.98816" lon="1.13924">
        <ele>390.8</ele>
      </trkpt>
    </trkseg>
  </trk>
</gpx>